<?xml version="1.0" encoding="UTF-8" standalone="no" ?>
<gpx xmlns="http://www.topografix.com/GPX/1/1" xmlns:xsi="http://www.w3.org/2001/XMLSchema-instance" xsi:schemaLocation="http://www.topografix.com/GPX/1/1 http://www.topografix.com/GPX/1/1/gpx.xsd" version="1.1" creator="VisuGPX - https://www.visugpx.com">
  <metadata>
    <name>2018-06-12 Bike ride-Val d-Azergues 31km</name>
    <desc><![CDATA[2018-06-12 Bike ride-Val d-Azergues 31km]]></desc>
  </metadata>
  <wpt lat="45.92445" lon="4.73724">
    <ele>174</ele>
    <name><![CDATA[2018-06-12 11:03 (Start)]]></name>
  </wpt>
  <wpt lat="45.92454" lon="4.7371">
    <ele>174</ele>
    <name><![CDATA[2018-06-12 11:03 (End)]]></name>
  </wpt>
  <trk>
    <name><![CDATA[2018-06-12 11:03]]></name>
    <trkseg>
      <trkpt lat="45.92445" lon="4.73724">
        <ele>174</ele>
        <time>2018-06-12T09:03:25.325Z</time>
      </trkpt>
      <trkpt lat="45.92446" lon="4.73719">
        <ele>174</ele>
        <time>2018-06-12T09:03:30.289Z</time>
      </trkpt>
      <trkpt lat="45.92448" lon="4.73717">
        <ele>174</ele>
        <time>2018-06-12T09:03:31.288Z</time>
      </trkpt>
      <trkpt lat="45.92449" lon="4.73714">
        <ele>174</ele>
        <time>2018-06-12T09:03:32.293Z</time>
      </trkpt>
      <trkpt lat="45.92452" lon="4.73706">
        <ele>174</ele>
        <time>2018-06-12T09:03:38Z</time>
      </trkpt>
      <trkpt lat="45.92452" lon="4.73706">
        <ele>174</ele>
        <time>2018-06-12T09:03:39Z</time>
      </trkpt>
      <trkpt lat="45.92453" lon="4.73707">
        <ele>174</ele>
        <time>2018-06-12T09:03:40Z</time>
      </trkpt>
      <trkpt lat="45.9246" lon="4.73704">
        <ele>174</ele>
        <time>2018-06-12T09:03:45Z</time>
      </trkpt>
      <trkpt lat="45.92461" lon="4.73702">
        <ele>174</ele>
        <time>2018-06-12T09:03:46Z</time>
      </trkpt>
      <trkpt lat="45.92462" lon="4.73693">
        <ele>174</ele>
        <time>2018-06-12T09:03:49Z</time>
      </trkpt>
      <trkpt lat="45.92462" lon="4.73689">
        <ele>174</ele>
        <time>2018-06-12T09:03:50Z</time>
      </trkpt>
      <trkpt lat="45.92463" lon="4.73676">
        <ele>174</ele>
        <time>2018-06-12T09:03:53Z</time>
      </trkpt>
      <trkpt lat="45.92464" lon="4.73672">
        <ele>174</ele>
        <time>2018-06-12T09:03:54Z</time>
      </trkpt>
      <trkpt lat="45.92465" lon="4.73662">
        <ele>174</ele>
        <time>2018-06-12T09:03:56Z</time>
      </trkpt>
      <trkpt lat="45.92466" lon="4.73657">
        <ele>174</ele>
        <time>2018-06-12T09:03:57Z</time>
      </trkpt>
      <trkpt lat="45.92469" lon="4.73648">
        <ele>174</ele>
        <time>2018-06-12T09:03:59Z</time>
      </trkpt>
      <trkpt lat="45.92471" lon="4.73645">
        <ele>174</ele>
        <time>2018-06-12T09:04:00Z</time>
      </trkpt>
      <trkpt lat="45.92478" lon="4.73637">
        <ele>174</ele>
        <time>2018-06-12T09:04:01Z</time>
      </trkpt>
      <trkpt lat="45.92487" lon="4.73636">
        <ele>174</ele>
        <time>2018-06-12T09:04:03Z</time>
      </trkpt>
      <trkpt lat="45.92491" lon="4.73636">
        <ele>174</ele>
        <time>2018-06-12T09:04:04Z</time>
      </trkpt>
      <trkpt lat="45.92495" lon="4.73637">
        <ele>174</ele>
        <time>2018-06-12T09:04:05Z</time>
      </trkpt>
      <trkpt lat="45.925" lon="4.73638">
        <ele>174</ele>
        <time>2018-06-12T09:04:06Z</time>
      </trkpt>
      <trkpt lat="45.92506" lon="4.7364">
        <ele>174</ele>
        <time>2018-06-12T09:04:07Z</time>
      </trkpt>
      <trkpt lat="45.92512" lon="4.73639">
        <ele>174</ele>
        <time>2018-06-12T09:04:08Z</time>
      </trkpt>
      <trkpt lat="45.92517" lon="4.73639">
        <ele>173</ele>
        <time>2018-06-12T09:04:09Z</time>
      </trkpt>
      <trkpt lat="45.92522" lon="4.73638">
        <ele>173</ele>
        <time>2018-06-12T09:04:10Z</time>
      </trkpt>
      <trkpt lat="45.92529" lon="4.73636">
        <ele>173</ele>
        <time>2018-06-12T09:04:12Z</time>
      </trkpt>
      <trkpt lat="45.92533" lon="4.73634">
        <ele>173</ele>
        <time>2018-06-12T09:04:13Z</time>
      </trkpt>
      <trkpt lat="45.92536" lon="4.73633">
        <ele>173</ele>
        <time>2018-06-12T09:04:14Z</time>
      </trkpt>
      <trkpt lat="45.92542" lon="4.7363">
        <ele>173</ele>
        <time>2018-06-12T09:04:15Z</time>
      </trkpt>
      <trkpt lat="45.92548" lon="4.73629">
        <ele>173</ele>
        <time>2018-06-12T09:04:16Z</time>
      </trkpt>
      <trkpt lat="45.92552" lon="4.73626">
        <ele>173</ele>
        <time>2018-06-12T09:04:17Z</time>
      </trkpt>
      <trkpt lat="45.92557" lon="4.73624">
        <ele>173</ele>
        <time>2018-06-12T09:04:18Z</time>
      </trkpt>
      <trkpt lat="45.92563" lon="4.73623">
        <ele>173</ele>
        <time>2018-06-12T09:04:19Z</time>
      </trkpt>
      <trkpt lat="45.92568" lon="4.73622">
        <ele>173</ele>
        <time>2018-06-12T09:04:20Z</time>
      </trkpt>
      <trkpt lat="45.92573" lon="4.73621">
        <ele>173</ele>
        <time>2018-06-12T09:04:21Z</time>
      </trkpt>
      <trkpt lat="45.92578" lon="4.73619">
        <ele>173</ele>
        <time>2018-06-12T09:04:22Z</time>
      </trkpt>
      <trkpt lat="45.92582" lon="4.73619">
        <ele>173</ele>
        <time>2018-06-12T09:04:23Z</time>
      </trkpt>
      <trkpt lat="45.92587" lon="4.7362">
        <ele>173</ele>
        <time>2018-06-12T09:04:24Z</time>
      </trkpt>
      <trkpt lat="45.92592" lon="4.7362">
        <ele>173</ele>
        <time>2018-06-12T09:04:25Z</time>
      </trkpt>
      <trkpt lat="45.92598" lon="4.73621">
        <ele>173</ele>
        <time>2018-06-12T09:04:26Z</time>
      </trkpt>
      <trkpt lat="45.92601" lon="4.73624">
        <ele>173</ele>
        <time>2018-06-12T09:04:27Z</time>
      </trkpt>
      <trkpt lat="45.92607" lon="4.73625">
        <ele>173</ele>
        <time>2018-06-12T09:04:28Z</time>
      </trkpt>
      <trkpt lat="45.92613" lon="4.73632">
        <ele>173</ele>
        <time>2018-06-12T09:04:29Z</time>
      </trkpt>
      <trkpt lat="45.92618" lon="4.73637">
        <ele>173</ele>
        <time>2018-06-12T09:04:30Z</time>
      </trkpt>
      <trkpt lat="45.9262" lon="4.73642">
        <ele>173</ele>
        <time>2018-06-12T09:04:31Z</time>
      </trkpt>
      <trkpt lat="45.92623" lon="4.73648">
        <ele>173</ele>
        <time>2018-06-12T09:04:32Z</time>
      </trkpt>
      <trkpt lat="45.92626" lon="4.73653">
        <ele>173</ele>
        <time>2018-06-12T09:04:33Z</time>
      </trkpt>
      <trkpt lat="45.92629" lon="4.7366">
        <ele>173</ele>
        <time>2018-06-12T09:04:34Z</time>
      </trkpt>
      <trkpt lat="45.92633" lon="4.73667">
        <ele>173</ele>
        <time>2018-06-12T09:04:35Z</time>
      </trkpt>
      <trkpt lat="45.92638" lon="4.73673">
        <ele>173</ele>
        <time>2018-06-12T09:04:36Z</time>
      </trkpt>
      <trkpt lat="45.92641" lon="4.73678">
        <ele>173</ele>
        <time>2018-06-12T09:04:37Z</time>
      </trkpt>
      <trkpt lat="45.92646" lon="4.73684">
        <ele>173</ele>
        <time>2018-06-12T09:04:38Z</time>
      </trkpt>
      <trkpt lat="45.92649" lon="4.73688">
        <ele>173</ele>
        <time>2018-06-12T09:04:39Z</time>
      </trkpt>
      <trkpt lat="45.92652" lon="4.73694">
        <ele>173</ele>
        <time>2018-06-12T09:04:40Z</time>
      </trkpt>
      <trkpt lat="45.92658" lon="4.73698">
        <ele>173</ele>
        <time>2018-06-12T09:04:41Z</time>
      </trkpt>
      <trkpt lat="45.92663" lon="4.73703">
        <ele>173</ele>
        <time>2018-06-12T09:04:42Z</time>
      </trkpt>
      <trkpt lat="45.92667" lon="4.73703">
        <ele>174</ele>
        <time>2018-06-12T09:04:43Z</time>
      </trkpt>
      <trkpt lat="45.92672" lon="4.73705">
        <ele>174</ele>
        <time>2018-06-12T09:04:44Z</time>
      </trkpt>
      <trkpt lat="45.92676" lon="4.73708">
        <ele>173</ele>
        <time>2018-06-12T09:04:45Z</time>
      </trkpt>
      <trkpt lat="45.92681" lon="4.73709">
        <ele>173</ele>
        <time>2018-06-12T09:04:46Z</time>
      </trkpt>
      <trkpt lat="45.92687" lon="4.7371">
        <ele>173</ele>
        <time>2018-06-12T09:04:47Z</time>
      </trkpt>
      <trkpt lat="45.92693" lon="4.73711">
        <ele>173</ele>
        <time>2018-06-12T09:04:48Z</time>
      </trkpt>
      <trkpt lat="45.92697" lon="4.73712">
        <ele>173</ele>
        <time>2018-06-12T09:04:49Z</time>
      </trkpt>
      <trkpt lat="45.92703" lon="4.73713">
        <ele>173</ele>
        <time>2018-06-12T09:04:50Z</time>
      </trkpt>
      <trkpt lat="45.92708" lon="4.73713">
        <ele>173</ele>
        <time>2018-06-12T09:04:51Z</time>
      </trkpt>
      <trkpt lat="45.92714" lon="4.73715">
        <ele>173</ele>
        <time>2018-06-12T09:04:52Z</time>
      </trkpt>
      <trkpt lat="45.92719" lon="4.73716">
        <ele>173</ele>
        <time>2018-06-12T09:04:53Z</time>
      </trkpt>
      <trkpt lat="45.92724" lon="4.73717">
        <ele>173</ele>
        <time>2018-06-12T09:04:54Z</time>
      </trkpt>
      <trkpt lat="45.92729" lon="4.73718">
        <ele>173</ele>
        <time>2018-06-12T09:04:55Z</time>
      </trkpt>
      <trkpt lat="45.92734" lon="4.73719">
        <ele>173</ele>
        <time>2018-06-12T09:04:56Z</time>
      </trkpt>
      <trkpt lat="45.9274" lon="4.7372">
        <ele>173</ele>
        <time>2018-06-12T09:04:57Z</time>
      </trkpt>
      <trkpt lat="45.92745" lon="4.73722">
        <ele>173</ele>
        <time>2018-06-12T09:04:58Z</time>
      </trkpt>
      <trkpt lat="45.9275" lon="4.73723">
        <ele>172</ele>
        <time>2018-06-12T09:04:59Z</time>
      </trkpt>
      <trkpt lat="45.92754" lon="4.73728">
        <ele>172</ele>
        <time>2018-06-12T09:05:00Z</time>
      </trkpt>
      <trkpt lat="45.92759" lon="4.73732">
        <ele>172</ele>
        <time>2018-06-12T09:05:01Z</time>
      </trkpt>
      <trkpt lat="45.92764" lon="4.73736">
        <ele>172</ele>
        <time>2018-06-12T09:05:02Z</time>
      </trkpt>
      <trkpt lat="45.92768" lon="4.73738">
        <ele>172</ele>
        <time>2018-06-12T09:05:03Z</time>
      </trkpt>
      <trkpt lat="45.92775" lon="4.73741">
        <ele>172</ele>
        <time>2018-06-12T09:05:05Z</time>
      </trkpt>
      <trkpt lat="45.92779" lon="4.73741">
        <ele>172</ele>
        <time>2018-06-12T09:05:06Z</time>
      </trkpt>
      <trkpt lat="45.92784" lon="4.73751">
        <ele>173</ele>
        <time>2018-06-12T09:05:08Z</time>
      </trkpt>
      <trkpt lat="45.92787" lon="4.73756">
        <ele>173</ele>
        <time>2018-06-12T09:05:09Z</time>
      </trkpt>
      <trkpt lat="45.92793" lon="4.73762">
        <ele>173</ele>
        <time>2018-06-12T09:05:11Z</time>
      </trkpt>
      <trkpt lat="45.92798" lon="4.73764">
        <ele>173</ele>
        <time>2018-06-12T09:05:12Z</time>
      </trkpt>
      <trkpt lat="45.92801" lon="4.73768">
        <ele>173</ele>
        <time>2018-06-12T09:05:13Z</time>
      </trkpt>
      <trkpt lat="45.92806" lon="4.73771">
        <ele>173</ele>
        <time>2018-06-12T09:05:14Z</time>
      </trkpt>
      <trkpt lat="45.92814" lon="4.73775">
        <ele>173</ele>
        <time>2018-06-12T09:05:16Z</time>
      </trkpt>
      <trkpt lat="45.92819" lon="4.73778">
        <ele>173</ele>
        <time>2018-06-12T09:05:17Z</time>
      </trkpt>
      <trkpt lat="45.92824" lon="4.73781">
        <ele>173</ele>
        <time>2018-06-12T09:05:18Z</time>
      </trkpt>
      <trkpt lat="45.9283" lon="4.73785">
        <ele>173</ele>
        <time>2018-06-12T09:05:19Z</time>
      </trkpt>
      <trkpt lat="45.92834" lon="4.7379">
        <ele>173</ele>
        <time>2018-06-12T09:05:20Z</time>
      </trkpt>
      <trkpt lat="45.92839" lon="4.73793">
        <ele>173</ele>
        <time>2018-06-12T09:05:21Z</time>
      </trkpt>
      <trkpt lat="45.92843" lon="4.73798">
        <ele>173</ele>
        <time>2018-06-12T09:05:22Z</time>
      </trkpt>
      <trkpt lat="45.92848" lon="4.73802">
        <ele>173</ele>
        <time>2018-06-12T09:05:23Z</time>
      </trkpt>
      <trkpt lat="45.92852" lon="4.73809">
        <ele>173</ele>
        <time>2018-06-12T09:05:24Z</time>
      </trkpt>
      <trkpt lat="45.92853" lon="4.73818">
        <ele>173</ele>
        <time>2018-06-12T09:05:25Z</time>
      </trkpt>
      <trkpt lat="45.92855" lon="4.73826">
        <ele>173</ele>
        <time>2018-06-12T09:05:26Z</time>
      </trkpt>
      <trkpt lat="45.92858" lon="4.73834">
        <ele>173</ele>
        <time>2018-06-12T09:05:27Z</time>
      </trkpt>
      <trkpt lat="45.92861" lon="4.73842">
        <ele>173</ele>
        <time>2018-06-12T09:05:28Z</time>
      </trkpt>
      <trkpt lat="45.92864" lon="4.73851">
        <ele>173</ele>
        <time>2018-06-12T09:05:29Z</time>
      </trkpt>
      <trkpt lat="45.92867" lon="4.73859">
        <ele>173</ele>
        <time>2018-06-12T09:05:30Z</time>
      </trkpt>
      <trkpt lat="45.92869" lon="4.73867">
        <ele>173</ele>
        <time>2018-06-12T09:05:31Z</time>
      </trkpt>
      <trkpt lat="45.92867" lon="4.73877">
        <ele>173</ele>
        <time>2018-06-12T09:05:32Z</time>
      </trkpt>
      <trkpt lat="45.92868" lon="4.73886">
        <ele>173</ele>
        <time>2018-06-12T09:05:33Z</time>
      </trkpt>
      <trkpt lat="45.92872" lon="4.73894">
        <ele>173</ele>
        <time>2018-06-12T09:05:34Z</time>
      </trkpt>
      <trkpt lat="45.92878" lon="4.73901">
        <ele>173</ele>
        <time>2018-06-12T09:05:35Z</time>
      </trkpt>
      <trkpt lat="45.92881" lon="4.73908">
        <ele>173</ele>
        <time>2018-06-12T09:05:36Z</time>
      </trkpt>
      <trkpt lat="45.92884" lon="4.73915">
        <ele>173</ele>
        <time>2018-06-12T09:05:37Z</time>
      </trkpt>
      <trkpt lat="45.92884" lon="4.73923">
        <ele>172</ele>
        <time>2018-06-12T09:05:38Z</time>
      </trkpt>
      <trkpt lat="45.92884" lon="4.73932">
        <ele>172</ele>
        <time>2018-06-12T09:05:39Z</time>
      </trkpt>
      <trkpt lat="45.92884" lon="4.7394">
        <ele>172</ele>
        <time>2018-06-12T09:05:40Z</time>
      </trkpt>
      <trkpt lat="45.92884" lon="4.73948">
        <ele>172</ele>
        <time>2018-06-12T09:05:41Z</time>
      </trkpt>
      <trkpt lat="45.92884" lon="4.73957">
        <ele>172</ele>
        <time>2018-06-12T09:05:42Z</time>
      </trkpt>
      <trkpt lat="45.92884" lon="4.73967">
        <ele>172</ele>
        <time>2018-06-12T09:05:43Z</time>
      </trkpt>
      <trkpt lat="45.92886" lon="4.73975">
        <ele>172</ele>
        <time>2018-06-12T09:05:44Z</time>
      </trkpt>
      <trkpt lat="45.92884" lon="4.73982">
        <ele>172</ele>
        <time>2018-06-12T09:05:45Z</time>
      </trkpt>
      <trkpt lat="45.92883" lon="4.73989">
        <ele>172</ele>
        <time>2018-06-12T09:05:46Z</time>
      </trkpt>
      <trkpt lat="45.92879" lon="4.73995">
        <ele>172</ele>
        <time>2018-06-12T09:05:47Z</time>
      </trkpt>
      <trkpt lat="45.92877" lon="4.74002">
        <ele>172</ele>
        <time>2018-06-12T09:05:48Z</time>
      </trkpt>
      <trkpt lat="45.92875" lon="4.7401">
        <ele>172</ele>
        <time>2018-06-12T09:05:49Z</time>
      </trkpt>
      <trkpt lat="45.92874" lon="4.74018">
        <ele>172</ele>
        <time>2018-06-12T09:05:50Z</time>
      </trkpt>
      <trkpt lat="45.92873" lon="4.74026">
        <ele>172</ele>
        <time>2018-06-12T09:05:51Z</time>
      </trkpt>
      <trkpt lat="45.92872" lon="4.74034">
        <ele>172</ele>
        <time>2018-06-12T09:05:52Z</time>
      </trkpt>
      <trkpt lat="45.9287" lon="4.74042">
        <ele>172</ele>
        <time>2018-06-12T09:05:53Z</time>
      </trkpt>
      <trkpt lat="45.92863" lon="4.74047">
        <ele>172</ele>
        <time>2018-06-12T09:05:54Z</time>
      </trkpt>
      <trkpt lat="45.92859" lon="4.74053">
        <ele>172</ele>
        <time>2018-06-12T09:05:55Z</time>
      </trkpt>
      <trkpt lat="45.92854" lon="4.7406">
        <ele>172</ele>
        <time>2018-06-12T09:05:56Z</time>
      </trkpt>
      <trkpt lat="45.9285" lon="4.74067">
        <ele>172</ele>
        <time>2018-06-12T09:05:57Z</time>
      </trkpt>
      <trkpt lat="45.92845" lon="4.74073">
        <ele>172</ele>
        <time>2018-06-12T09:05:58Z</time>
      </trkpt>
      <trkpt lat="45.9284" lon="4.7408">
        <ele>171</ele>
        <time>2018-06-12T09:05:59Z</time>
      </trkpt>
      <trkpt lat="45.92835" lon="4.74087">
        <ele>171</ele>
        <time>2018-06-12T09:06:00Z</time>
      </trkpt>
      <trkpt lat="45.92831" lon="4.74092">
        <ele>171</ele>
        <time>2018-06-12T09:06:01Z</time>
      </trkpt>
      <trkpt lat="45.92826" lon="4.74097">
        <ele>171</ele>
        <time>2018-06-12T09:06:02Z</time>
      </trkpt>
      <trkpt lat="45.92821" lon="4.74105">
        <ele>171</ele>
        <time>2018-06-12T09:06:03Z</time>
      </trkpt>
      <trkpt lat="45.92815" lon="4.7411">
        <ele>172</ele>
        <time>2018-06-12T09:06:04Z</time>
      </trkpt>
      <trkpt lat="45.9281" lon="4.74115">
        <ele>172</ele>
        <time>2018-06-12T09:06:05Z</time>
      </trkpt>
      <trkpt lat="45.92806" lon="4.74121">
        <ele>172</ele>
        <time>2018-06-12T09:06:06Z</time>
      </trkpt>
      <trkpt lat="45.928" lon="4.74126">
        <ele>172</ele>
        <time>2018-06-12T09:06:07Z</time>
      </trkpt>
      <trkpt lat="45.92794" lon="4.74132">
        <ele>172</ele>
        <time>2018-06-12T09:06:08Z</time>
      </trkpt>
      <trkpt lat="45.92789" lon="4.74138">
        <ele>172</ele>
        <time>2018-06-12T09:06:09Z</time>
      </trkpt>
      <trkpt lat="45.92784" lon="4.74143">
        <ele>172</ele>
        <time>2018-06-12T09:06:10Z</time>
      </trkpt>
      <trkpt lat="45.92779" lon="4.7415">
        <ele>172</ele>
        <time>2018-06-12T09:06:11Z</time>
      </trkpt>
      <trkpt lat="45.92773" lon="4.74158">
        <ele>172</ele>
        <time>2018-06-12T09:06:12Z</time>
      </trkpt>
      <trkpt lat="45.92768" lon="4.74164">
        <ele>172</ele>
        <time>2018-06-12T09:06:13Z</time>
      </trkpt>
      <trkpt lat="45.92762" lon="4.74168">
        <ele>172</ele>
        <time>2018-06-12T09:06:14Z</time>
      </trkpt>
      <trkpt lat="45.92757" lon="4.74173">
        <ele>172</ele>
        <time>2018-06-12T09:06:15Z</time>
      </trkpt>
      <trkpt lat="45.92752" lon="4.74184">
        <ele>172</ele>
        <time>2018-06-12T09:06:16Z</time>
      </trkpt>
      <trkpt lat="45.92747" lon="4.74191">
        <ele>172</ele>
        <time>2018-06-12T09:06:17Z</time>
      </trkpt>
      <trkpt lat="45.92742" lon="4.74199">
        <ele>171</ele>
        <time>2018-06-12T09:06:18Z</time>
      </trkpt>
      <trkpt lat="45.92737" lon="4.74206">
        <ele>171</ele>
        <time>2018-06-12T09:06:19Z</time>
      </trkpt>
      <trkpt lat="45.92732" lon="4.74213">
        <ele>171</ele>
        <time>2018-06-12T09:06:20Z</time>
      </trkpt>
      <trkpt lat="45.92728" lon="4.7422">
        <ele>171</ele>
        <time>2018-06-12T09:06:21Z</time>
      </trkpt>
      <trkpt lat="45.92722" lon="4.74225">
        <ele>171</ele>
        <time>2018-06-12T09:06:22Z</time>
      </trkpt>
      <trkpt lat="45.92717" lon="4.74231">
        <ele>171</ele>
        <time>2018-06-12T09:06:23Z</time>
      </trkpt>
      <trkpt lat="45.92712" lon="4.74236">
        <ele>171</ele>
        <time>2018-06-12T09:06:24Z</time>
      </trkpt>
      <trkpt lat="45.92708" lon="4.74242">
        <ele>171</ele>
        <time>2018-06-12T09:06:25Z</time>
      </trkpt>
      <trkpt lat="45.92703" lon="4.7425">
        <ele>171</ele>
        <time>2018-06-12T09:06:26Z</time>
      </trkpt>
      <trkpt lat="45.92699" lon="4.74257">
        <ele>171</ele>
        <time>2018-06-12T09:06:27Z</time>
      </trkpt>
      <trkpt lat="45.92694" lon="4.74262">
        <ele>171</ele>
        <time>2018-06-12T09:06:28Z</time>
      </trkpt>
      <trkpt lat="45.9269" lon="4.7427">
        <ele>171</ele>
        <time>2018-06-12T09:06:29Z</time>
      </trkpt>
      <trkpt lat="45.92686" lon="4.74276">
        <ele>171</ele>
        <time>2018-06-12T09:06:30Z</time>
      </trkpt>
      <trkpt lat="45.92682" lon="4.74284">
        <ele>171</ele>
        <time>2018-06-12T09:06:31Z</time>
      </trkpt>
      <trkpt lat="45.92678" lon="4.74292">
        <ele>171</ele>
        <time>2018-06-12T09:06:32Z</time>
      </trkpt>
      <trkpt lat="45.92673" lon="4.743">
        <ele>171</ele>
        <time>2018-06-12T09:06:33Z</time>
      </trkpt>
      <trkpt lat="45.92669" lon="4.74309">
        <ele>171</ele>
        <time>2018-06-12T09:06:34Z</time>
      </trkpt>
      <trkpt lat="45.92664" lon="4.74317">
        <ele>171</ele>
        <time>2018-06-12T09:06:35Z</time>
      </trkpt>
      <trkpt lat="45.92661" lon="4.74324">
        <ele>171</ele>
        <time>2018-06-12T09:06:36Z</time>
      </trkpt>
      <trkpt lat="45.92657" lon="4.74333">
        <ele>171</ele>
        <time>2018-06-12T09:06:37Z</time>
      </trkpt>
      <trkpt lat="45.92653" lon="4.7434">
        <ele>171</ele>
        <time>2018-06-12T09:06:38Z</time>
      </trkpt>
      <trkpt lat="45.92649" lon="4.74346">
        <ele>171</ele>
        <time>2018-06-12T09:06:39Z</time>
      </trkpt>
      <trkpt lat="45.92644" lon="4.74353">
        <ele>171</ele>
        <time>2018-06-12T09:06:40Z</time>
      </trkpt>
      <trkpt lat="45.92639" lon="4.74361">
        <ele>171</ele>
        <time>2018-06-12T09:06:41Z</time>
      </trkpt>
      <trkpt lat="45.92636" lon="4.74368">
        <ele>171</ele>
        <time>2018-06-12T09:06:42Z</time>
      </trkpt>
      <trkpt lat="45.92632" lon="4.74375">
        <ele>170</ele>
        <time>2018-06-12T09:06:43Z</time>
      </trkpt>
      <trkpt lat="45.92628" lon="4.74383">
        <ele>170</ele>
        <time>2018-06-12T09:06:44Z</time>
      </trkpt>
      <trkpt lat="45.92624" lon="4.7439">
        <ele>170</ele>
        <time>2018-06-12T09:06:45Z</time>
      </trkpt>
      <trkpt lat="45.92619" lon="4.74397">
        <ele>170</ele>
        <time>2018-06-12T09:06:46Z</time>
      </trkpt>
      <trkpt lat="45.92615" lon="4.74405">
        <ele>170</ele>
        <time>2018-06-12T09:06:47Z</time>
      </trkpt>
      <trkpt lat="45.92611" lon="4.74411">
        <ele>170</ele>
        <time>2018-06-12T09:06:48Z</time>
      </trkpt>
      <trkpt lat="45.92607" lon="4.74418">
        <ele>170</ele>
        <time>2018-06-12T09:06:49Z</time>
      </trkpt>
      <trkpt lat="45.92604" lon="4.74428">
        <ele>170</ele>
        <time>2018-06-12T09:06:50Z</time>
      </trkpt>
      <trkpt lat="45.926" lon="4.74437">
        <ele>170</ele>
        <time>2018-06-12T09:06:51Z</time>
      </trkpt>
      <trkpt lat="45.92596" lon="4.74445">
        <ele>170</ele>
        <time>2018-06-12T09:06:52Z</time>
      </trkpt>
      <trkpt lat="45.92592" lon="4.74452">
        <ele>170</ele>
        <time>2018-06-12T09:06:53Z</time>
      </trkpt>
      <trkpt lat="45.92588" lon="4.74458">
        <ele>170</ele>
        <time>2018-06-12T09:06:54Z</time>
      </trkpt>
      <trkpt lat="45.92584" lon="4.74465">
        <ele>170</ele>
        <time>2018-06-12T09:06:55Z</time>
      </trkpt>
      <trkpt lat="45.92579" lon="4.74471">
        <ele>170</ele>
        <time>2018-06-12T09:06:56Z</time>
      </trkpt>
      <trkpt lat="45.92576" lon="4.74478">
        <ele>170</ele>
        <time>2018-06-12T09:06:57Z</time>
      </trkpt>
      <trkpt lat="45.92572" lon="4.74484">
        <ele>170</ele>
        <time>2018-06-12T09:06:58Z</time>
      </trkpt>
      <trkpt lat="45.92568" lon="4.74491">
        <ele>170</ele>
        <time>2018-06-12T09:06:59Z</time>
      </trkpt>
      <trkpt lat="45.92564" lon="4.74498">
        <ele>170</ele>
        <time>2018-06-12T09:07:00Z</time>
      </trkpt>
      <trkpt lat="45.9256" lon="4.74505">
        <ele>170</ele>
        <time>2018-06-12T09:07:01Z</time>
      </trkpt>
      <trkpt lat="45.92556" lon="4.74512">
        <ele>170</ele>
        <time>2018-06-12T09:07:02Z</time>
      </trkpt>
      <trkpt lat="45.92553" lon="4.74519">
        <ele>170</ele>
        <time>2018-06-12T09:07:03Z</time>
      </trkpt>
      <trkpt lat="45.92549" lon="4.74526">
        <ele>170</ele>
        <time>2018-06-12T09:07:04Z</time>
      </trkpt>
      <trkpt lat="45.92545" lon="4.74533">
        <ele>170</ele>
        <time>2018-06-12T09:07:05Z</time>
      </trkpt>
      <trkpt lat="45.9254" lon="4.74539">
        <ele>171</ele>
        <time>2018-06-12T09:07:06Z</time>
      </trkpt>
      <trkpt lat="45.92536" lon="4.74546">
        <ele>171</ele>
        <time>2018-06-12T09:07:07Z</time>
      </trkpt>
      <trkpt lat="45.92532" lon="4.74552">
        <ele>171</ele>
        <time>2018-06-12T09:07:08Z</time>
      </trkpt>
      <trkpt lat="45.92527" lon="4.74558">
        <ele>171</ele>
        <time>2018-06-12T09:07:09Z</time>
      </trkpt>
      <trkpt lat="45.92522" lon="4.74565">
        <ele>171</ele>
        <time>2018-06-12T09:07:10Z</time>
      </trkpt>
      <trkpt lat="45.92517" lon="4.74571">
        <ele>171</ele>
        <time>2018-06-12T09:07:11Z</time>
      </trkpt>
      <trkpt lat="45.92512" lon="4.74578">
        <ele>171</ele>
        <time>2018-06-12T09:07:12Z</time>
      </trkpt>
      <trkpt lat="45.9251" lon="4.74583">
        <ele>171</ele>
        <time>2018-06-12T09:07:13Z</time>
      </trkpt>
      <trkpt lat="45.92504" lon="4.74588">
        <ele>171</ele>
        <time>2018-06-12T09:07:14Z</time>
      </trkpt>
      <trkpt lat="45.925" lon="4.74595">
        <ele>171</ele>
        <time>2018-06-12T09:07:15Z</time>
      </trkpt>
      <trkpt lat="45.92495" lon="4.746">
        <ele>171</ele>
        <time>2018-06-12T09:07:16Z</time>
      </trkpt>
      <trkpt lat="45.9249" lon="4.74606">
        <ele>171</ele>
        <time>2018-06-12T09:07:17Z</time>
      </trkpt>
      <trkpt lat="45.92485" lon="4.74613">
        <ele>171</ele>
        <time>2018-06-12T09:07:18Z</time>
      </trkpt>
      <trkpt lat="45.9248" lon="4.74618">
        <ele>171</ele>
        <time>2018-06-12T09:07:19Z</time>
      </trkpt>
      <trkpt lat="45.92476" lon="4.74624">
        <ele>171</ele>
        <time>2018-06-12T09:07:20Z</time>
      </trkpt>
      <trkpt lat="45.92471" lon="4.74632">
        <ele>171</ele>
        <time>2018-06-12T09:07:21Z</time>
      </trkpt>
      <trkpt lat="45.92467" lon="4.74638">
        <ele>171</ele>
        <time>2018-06-12T09:07:22Z</time>
      </trkpt>
      <trkpt lat="45.92462" lon="4.74645">
        <ele>171</ele>
        <time>2018-06-12T09:07:23Z</time>
      </trkpt>
      <trkpt lat="45.92458" lon="4.74652">
        <ele>171</ele>
        <time>2018-06-12T09:07:24Z</time>
      </trkpt>
      <trkpt lat="45.92453" lon="4.74658">
        <ele>171</ele>
        <time>2018-06-12T09:07:25Z</time>
      </trkpt>
      <trkpt lat="45.92448" lon="4.74664">
        <ele>171</ele>
        <time>2018-06-12T09:07:26Z</time>
      </trkpt>
      <trkpt lat="45.92444" lon="4.74671">
        <ele>171</ele>
        <time>2018-06-12T09:07:27Z</time>
      </trkpt>
      <trkpt lat="45.92438" lon="4.74677">
        <ele>171</ele>
        <time>2018-06-12T09:07:28Z</time>
      </trkpt>
      <trkpt lat="45.92437" lon="4.74682">
        <ele>171</ele>
        <time>2018-06-12T09:07:29Z</time>
      </trkpt>
      <trkpt lat="45.92433" lon="4.74692">
        <ele>171</ele>
        <time>2018-06-12T09:07:30Z</time>
      </trkpt>
      <trkpt lat="45.9243" lon="4.74698">
        <ele>171</ele>
        <time>2018-06-12T09:07:31Z</time>
      </trkpt>
      <trkpt lat="45.92428" lon="4.74707">
        <ele>171</ele>
        <time>2018-06-12T09:07:32Z</time>
      </trkpt>
      <trkpt lat="45.92425" lon="4.74714">
        <ele>171</ele>
        <time>2018-06-12T09:07:33Z</time>
      </trkpt>
      <trkpt lat="45.92422" lon="4.74722">
        <ele>171</ele>
        <time>2018-06-12T09:07:34Z</time>
      </trkpt>
      <trkpt lat="45.92419" lon="4.7473">
        <ele>171</ele>
        <time>2018-06-12T09:07:35Z</time>
      </trkpt>
      <trkpt lat="45.92417" lon="4.74738">
        <ele>172</ele>
        <time>2018-06-12T09:07:36Z</time>
      </trkpt>
      <trkpt lat="45.92415" lon="4.74745">
        <ele>172</ele>
        <time>2018-06-12T09:07:37Z</time>
      </trkpt>
      <trkpt lat="45.92413" lon="4.74754">
        <ele>172</ele>
        <time>2018-06-12T09:07:38Z</time>
      </trkpt>
      <trkpt lat="45.92411" lon="4.74763">
        <ele>172</ele>
        <time>2018-06-12T09:07:39Z</time>
      </trkpt>
      <trkpt lat="45.92407" lon="4.74773">
        <ele>171</ele>
        <time>2018-06-12T09:07:40Z</time>
      </trkpt>
      <trkpt lat="45.92406" lon="4.74782">
        <ele>171</ele>
        <time>2018-06-12T09:07:41Z</time>
      </trkpt>
      <trkpt lat="45.92403" lon="4.7479">
        <ele>171</ele>
        <time>2018-06-12T09:07:42Z</time>
      </trkpt>
      <trkpt lat="45.92401" lon="4.74799">
        <ele>171</ele>
        <time>2018-06-12T09:07:43Z</time>
      </trkpt>
      <trkpt lat="45.92399" lon="4.74809">
        <ele>171</ele>
        <time>2018-06-12T09:07:44Z</time>
      </trkpt>
      <trkpt lat="45.92397" lon="4.74819">
        <ele>171</ele>
        <time>2018-06-12T09:07:45Z</time>
      </trkpt>
      <trkpt lat="45.92395" lon="4.74828">
        <ele>171</ele>
        <time>2018-06-12T09:07:46Z</time>
      </trkpt>
      <trkpt lat="45.92393" lon="4.74836">
        <ele>171</ele>
        <time>2018-06-12T09:07:47Z</time>
      </trkpt>
      <trkpt lat="45.92391" lon="4.74845">
        <ele>171</ele>
        <time>2018-06-12T09:07:48Z</time>
      </trkpt>
      <trkpt lat="45.92388" lon="4.74854">
        <ele>171</ele>
        <time>2018-06-12T09:07:49Z</time>
      </trkpt>
      <trkpt lat="45.92385" lon="4.74864">
        <ele>171</ele>
        <time>2018-06-12T09:07:50Z</time>
      </trkpt>
      <trkpt lat="45.92382" lon="4.74874">
        <ele>171</ele>
        <time>2018-06-12T09:07:51Z</time>
      </trkpt>
      <trkpt lat="45.92379" lon="4.74881">
        <ele>171</ele>
        <time>2018-06-12T09:07:52Z</time>
      </trkpt>
      <trkpt lat="45.92376" lon="4.74889">
        <ele>171</ele>
        <time>2018-06-12T09:07:53Z</time>
      </trkpt>
      <trkpt lat="45.92373" lon="4.74898">
        <ele>171</ele>
        <time>2018-06-12T09:07:54Z</time>
      </trkpt>
      <trkpt lat="45.9237" lon="4.74906">
        <ele>171</ele>
        <time>2018-06-12T09:07:55Z</time>
      </trkpt>
      <trkpt lat="45.92368" lon="4.74915">
        <ele>171</ele>
        <time>2018-06-12T09:07:56Z</time>
      </trkpt>
      <trkpt lat="45.92365" lon="4.74922">
        <ele>170</ele>
        <time>2018-06-12T09:07:57Z</time>
      </trkpt>
      <trkpt lat="45.92362" lon="4.7493">
        <ele>170</ele>
        <time>2018-06-12T09:07:58Z</time>
      </trkpt>
      <trkpt lat="45.9236" lon="4.74937">
        <ele>170</ele>
        <time>2018-06-12T09:07:59Z</time>
      </trkpt>
      <trkpt lat="45.92356" lon="4.74947">
        <ele>170</ele>
        <time>2018-06-12T09:08:00Z</time>
      </trkpt>
      <trkpt lat="45.92352" lon="4.74956">
        <ele>170</ele>
        <time>2018-06-12T09:08:01Z</time>
      </trkpt>
      <trkpt lat="45.92349" lon="4.74964">
        <ele>170</ele>
        <time>2018-06-12T09:08:02Z</time>
      </trkpt>
      <trkpt lat="45.92346" lon="4.74972">
        <ele>170</ele>
        <time>2018-06-12T09:08:03Z</time>
      </trkpt>
      <trkpt lat="45.92343" lon="4.7498">
        <ele>170</ele>
        <time>2018-06-12T09:08:04Z</time>
      </trkpt>
      <trkpt lat="45.9234" lon="4.74989">
        <ele>170</ele>
        <time>2018-06-12T09:08:05Z</time>
      </trkpt>
      <trkpt lat="45.92338" lon="4.74998">
        <ele>170</ele>
        <time>2018-06-12T09:08:06Z</time>
      </trkpt>
      <trkpt lat="45.92335" lon="4.75005">
        <ele>170</ele>
        <time>2018-06-12T09:08:07Z</time>
      </trkpt>
      <trkpt lat="45.92332" lon="4.75013">
        <ele>171</ele>
        <time>2018-06-12T09:08:08Z</time>
      </trkpt>
      <trkpt lat="45.92329" lon="4.7502">
        <ele>171</ele>
        <time>2018-06-12T09:08:09Z</time>
      </trkpt>
      <trkpt lat="45.92326" lon="4.75027">
        <ele>171</ele>
        <time>2018-06-12T09:08:10Z</time>
      </trkpt>
      <trkpt lat="45.92322" lon="4.75036">
        <ele>171</ele>
        <time>2018-06-12T09:08:11Z</time>
      </trkpt>
      <trkpt lat="45.92318" lon="4.75043">
        <ele>172</ele>
        <time>2018-06-12T09:08:12Z</time>
      </trkpt>
      <trkpt lat="45.92315" lon="4.75049">
        <ele>172</ele>
        <time>2018-06-12T09:08:13Z</time>
      </trkpt>
      <trkpt lat="45.9231" lon="4.75056">
        <ele>172</ele>
        <time>2018-06-12T09:08:14Z</time>
      </trkpt>
      <trkpt lat="45.92306" lon="4.75064">
        <ele>172</ele>
        <time>2018-06-12T09:08:15Z</time>
      </trkpt>
      <trkpt lat="45.923" lon="4.75071">
        <ele>172</ele>
        <time>2018-06-12T09:08:16Z</time>
      </trkpt>
      <trkpt lat="45.92296" lon="4.75078">
        <ele>172</ele>
        <time>2018-06-12T09:08:17Z</time>
      </trkpt>
      <trkpt lat="45.92291" lon="4.75084">
        <ele>173</ele>
        <time>2018-06-12T09:08:18Z</time>
      </trkpt>
      <trkpt lat="45.92286" lon="4.7509">
        <ele>173</ele>
        <time>2018-06-12T09:08:19Z</time>
      </trkpt>
      <trkpt lat="45.92282" lon="4.75096">
        <ele>173</ele>
        <time>2018-06-12T09:08:20Z</time>
      </trkpt>
      <trkpt lat="45.92278" lon="4.75102">
        <ele>173</ele>
        <time>2018-06-12T09:08:21Z</time>
      </trkpt>
      <trkpt lat="45.92272" lon="4.75107">
        <ele>174</ele>
        <time>2018-06-12T09:08:22Z</time>
      </trkpt>
      <trkpt lat="45.92268" lon="4.75113">
        <ele>174</ele>
        <time>2018-06-12T09:08:23Z</time>
      </trkpt>
      <trkpt lat="45.92263" lon="4.75118">
        <ele>174</ele>
        <time>2018-06-12T09:08:24Z</time>
      </trkpt>
      <trkpt lat="45.92258" lon="4.75123">
        <ele>174</ele>
        <time>2018-06-12T09:08:25Z</time>
      </trkpt>
      <trkpt lat="45.92254" lon="4.75128">
        <ele>174</ele>
        <time>2018-06-12T09:08:26Z</time>
      </trkpt>
      <trkpt lat="45.92249" lon="4.75133">
        <ele>174</ele>
        <time>2018-06-12T09:08:27Z</time>
      </trkpt>
      <trkpt lat="45.92244" lon="4.75138">
        <ele>174</ele>
        <time>2018-06-12T09:08:28Z</time>
      </trkpt>
      <trkpt lat="45.92239" lon="4.75143">
        <ele>174</ele>
        <time>2018-06-12T09:08:29Z</time>
      </trkpt>
      <trkpt lat="45.92235" lon="4.75149">
        <ele>174</ele>
        <time>2018-06-12T09:08:30Z</time>
      </trkpt>
      <trkpt lat="45.92231" lon="4.75154">
        <ele>174</ele>
        <time>2018-06-12T09:08:31Z</time>
      </trkpt>
      <trkpt lat="45.92228" lon="4.7516">
        <ele>174</ele>
        <time>2018-06-12T09:08:32Z</time>
      </trkpt>
      <trkpt lat="45.92226" lon="4.75167">
        <ele>175</ele>
        <time>2018-06-12T09:08:33Z</time>
      </trkpt>
      <trkpt lat="45.92223" lon="4.75174">
        <ele>175</ele>
        <time>2018-06-12T09:08:34Z</time>
      </trkpt>
      <trkpt lat="45.92221" lon="4.75181">
        <ele>175</ele>
        <time>2018-06-12T09:08:35Z</time>
      </trkpt>
      <trkpt lat="45.92219" lon="4.7519">
        <ele>175</ele>
        <time>2018-06-12T09:08:36Z</time>
      </trkpt>
      <trkpt lat="45.92218" lon="4.75197">
        <ele>175</ele>
        <time>2018-06-12T09:08:37Z</time>
      </trkpt>
      <trkpt lat="45.92216" lon="4.75205">
        <ele>175</ele>
        <time>2018-06-12T09:08:38Z</time>
      </trkpt>
      <trkpt lat="45.92215" lon="4.75212">
        <ele>175</ele>
        <time>2018-06-12T09:08:39Z</time>
      </trkpt>
      <trkpt lat="45.92214" lon="4.7522">
        <ele>175</ele>
        <time>2018-06-12T09:08:40Z</time>
      </trkpt>
      <trkpt lat="45.92214" lon="4.75228">
        <ele>175</ele>
        <time>2018-06-12T09:08:41Z</time>
      </trkpt>
      <trkpt lat="45.92214" lon="4.75236">
        <ele>175</ele>
        <time>2018-06-12T09:08:42Z</time>
      </trkpt>
      <trkpt lat="45.92213" lon="4.75243">
        <ele>175</ele>
        <time>2018-06-12T09:08:43Z</time>
      </trkpt>
      <trkpt lat="45.92214" lon="4.75253">
        <ele>175</ele>
        <time>2018-06-12T09:08:44Z</time>
      </trkpt>
      <trkpt lat="45.92214" lon="4.75259">
        <ele>176</ele>
        <time>2018-06-12T09:08:45Z</time>
      </trkpt>
      <trkpt lat="45.92214" lon="4.75267">
        <ele>176</ele>
        <time>2018-06-12T09:08:46Z</time>
      </trkpt>
      <trkpt lat="45.92214" lon="4.75274">
        <ele>176</ele>
        <time>2018-06-12T09:08:47Z</time>
      </trkpt>
      <trkpt lat="45.92213" lon="4.75286">
        <ele>176</ele>
        <time>2018-06-12T09:08:49Z</time>
      </trkpt>
      <trkpt lat="45.92213" lon="4.75293">
        <ele>176</ele>
        <time>2018-06-12T09:08:50Z</time>
      </trkpt>
      <trkpt lat="45.92213" lon="4.753">
        <ele>176</ele>
        <time>2018-06-12T09:08:51Z</time>
      </trkpt>
      <trkpt lat="45.92213" lon="4.75307">
        <ele>176</ele>
        <time>2018-06-12T09:08:52Z</time>
      </trkpt>
      <trkpt lat="45.92212" lon="4.75314">
        <ele>176</ele>
        <time>2018-06-12T09:08:53Z</time>
      </trkpt>
      <trkpt lat="45.92212" lon="4.75321">
        <ele>176</ele>
        <time>2018-06-12T09:08:54Z</time>
      </trkpt>
      <trkpt lat="45.92209" lon="4.75327">
        <ele>176</ele>
        <time>2018-06-12T09:08:55Z</time>
      </trkpt>
      <trkpt lat="45.92209" lon="4.75334">
        <ele>177</ele>
        <time>2018-06-12T09:08:56Z</time>
      </trkpt>
      <trkpt lat="45.92208" lon="4.7534">
        <ele>177</ele>
        <time>2018-06-12T09:08:57Z</time>
      </trkpt>
      <trkpt lat="45.92205" lon="4.75346">
        <ele>177</ele>
        <time>2018-06-12T09:08:58Z</time>
      </trkpt>
      <trkpt lat="45.92203" lon="4.75353">
        <ele>177</ele>
        <time>2018-06-12T09:08:59Z</time>
      </trkpt>
      <trkpt lat="45.92201" lon="4.7536">
        <ele>177</ele>
        <time>2018-06-12T09:09:00Z</time>
      </trkpt>
      <trkpt lat="45.92198" lon="4.75368">
        <ele>177</ele>
        <time>2018-06-12T09:09:01Z</time>
      </trkpt>
      <trkpt lat="45.92196" lon="4.75375">
        <ele>177</ele>
        <time>2018-06-12T09:09:02Z</time>
      </trkpt>
      <trkpt lat="45.92193" lon="4.75381">
        <ele>177</ele>
        <time>2018-06-12T09:09:03Z</time>
      </trkpt>
      <trkpt lat="45.92188" lon="4.75388">
        <ele>177</ele>
        <time>2018-06-12T09:09:04Z</time>
      </trkpt>
      <trkpt lat="45.92186" lon="4.75396">
        <ele>177</ele>
        <time>2018-06-12T09:09:05Z</time>
      </trkpt>
      <trkpt lat="45.92184" lon="4.75403">
        <ele>177</ele>
        <time>2018-06-12T09:09:06Z</time>
      </trkpt>
      <trkpt lat="45.92182" lon="4.75409">
        <ele>177</ele>
        <time>2018-06-12T09:09:07Z</time>
      </trkpt>
      <trkpt lat="45.9218" lon="4.75417">
        <ele>177</ele>
        <time>2018-06-12T09:09:08Z</time>
      </trkpt>
      <trkpt lat="45.92176" lon="4.75424">
        <ele>177</ele>
        <time>2018-06-12T09:09:09Z</time>
      </trkpt>
      <trkpt lat="45.92173" lon="4.7543">
        <ele>177</ele>
        <time>2018-06-12T09:09:10Z</time>
      </trkpt>
      <trkpt lat="45.9217" lon="4.75436">
        <ele>177</ele>
        <time>2018-06-12T09:09:11Z</time>
      </trkpt>
      <trkpt lat="45.92168" lon="4.75443">
        <ele>177</ele>
        <time>2018-06-12T09:09:12Z</time>
      </trkpt>
      <trkpt lat="45.92165" lon="4.7545">
        <ele>176</ele>
        <time>2018-06-12T09:09:13Z</time>
      </trkpt>
      <trkpt lat="45.92162" lon="4.75457">
        <ele>176</ele>
        <time>2018-06-12T09:09:14Z</time>
      </trkpt>
      <trkpt lat="45.92158" lon="4.75464">
        <ele>176</ele>
        <time>2018-06-12T09:09:15Z</time>
      </trkpt>
      <trkpt lat="45.92155" lon="4.75471">
        <ele>176</ele>
        <time>2018-06-12T09:09:16Z</time>
      </trkpt>
      <trkpt lat="45.92151" lon="4.75478">
        <ele>176</ele>
        <time>2018-06-12T09:09:17Z</time>
      </trkpt>
      <trkpt lat="45.92148" lon="4.75485">
        <ele>176</ele>
        <time>2018-06-12T09:09:18Z</time>
      </trkpt>
      <trkpt lat="45.92146" lon="4.75492">
        <ele>176</ele>
        <time>2018-06-12T09:09:19Z</time>
      </trkpt>
      <trkpt lat="45.92143" lon="4.75498">
        <ele>175</ele>
        <time>2018-06-12T09:09:20Z</time>
      </trkpt>
      <trkpt lat="45.92139" lon="4.75504">
        <ele>174</ele>
        <time>2018-06-12T09:09:21Z</time>
      </trkpt>
      <trkpt lat="45.92135" lon="4.7551">
        <ele>174</ele>
        <time>2018-06-12T09:09:22Z</time>
      </trkpt>
      <trkpt lat="45.92132" lon="4.75516">
        <ele>174</ele>
        <time>2018-06-12T09:09:23Z</time>
      </trkpt>
      <trkpt lat="45.92126" lon="4.7552">
        <ele>174</ele>
        <time>2018-06-12T09:09:24Z</time>
      </trkpt>
      <trkpt lat="45.92121" lon="4.75525">
        <ele>174</ele>
        <time>2018-06-12T09:09:25Z</time>
      </trkpt>
      <trkpt lat="45.92118" lon="4.75533">
        <ele>174</ele>
        <time>2018-06-12T09:09:26Z</time>
      </trkpt>
      <trkpt lat="45.92114" lon="4.7554">
        <ele>174</ele>
        <time>2018-06-12T09:09:27Z</time>
      </trkpt>
      <trkpt lat="45.9211" lon="4.75546">
        <ele>174</ele>
        <time>2018-06-12T09:09:28Z</time>
      </trkpt>
      <trkpt lat="45.92107" lon="4.75554">
        <ele>174</ele>
        <time>2018-06-12T09:09:29Z</time>
      </trkpt>
      <trkpt lat="45.92103" lon="4.75561">
        <ele>174</ele>
        <time>2018-06-12T09:09:30Z</time>
      </trkpt>
      <trkpt lat="45.92099" lon="4.75567">
        <ele>174</ele>
        <time>2018-06-12T09:09:31Z</time>
      </trkpt>
      <trkpt lat="45.92097" lon="4.75575">
        <ele>174</ele>
        <time>2018-06-12T09:09:32Z</time>
      </trkpt>
      <trkpt lat="45.92092" lon="4.75583">
        <ele>174</ele>
        <time>2018-06-12T09:09:33Z</time>
      </trkpt>
      <trkpt lat="45.92089" lon="4.7559">
        <ele>174</ele>
        <time>2018-06-12T09:09:34Z</time>
      </trkpt>
      <trkpt lat="45.92085" lon="4.75597">
        <ele>174</ele>
        <time>2018-06-12T09:09:35Z</time>
      </trkpt>
      <trkpt lat="45.92081" lon="4.75606">
        <ele>175</ele>
        <time>2018-06-12T09:09:36Z</time>
      </trkpt>
      <trkpt lat="45.92077" lon="4.75613">
        <ele>175</ele>
        <time>2018-06-12T09:09:37Z</time>
      </trkpt>
      <trkpt lat="45.92073" lon="4.75619">
        <ele>175</ele>
        <time>2018-06-12T09:09:38Z</time>
      </trkpt>
      <trkpt lat="45.92069" lon="4.75627">
        <ele>175</ele>
        <time>2018-06-12T09:09:39Z</time>
      </trkpt>
      <trkpt lat="45.92065" lon="4.75634">
        <ele>175</ele>
        <time>2018-06-12T09:09:40Z</time>
      </trkpt>
      <trkpt lat="45.9206" lon="4.75642">
        <ele>175</ele>
        <time>2018-06-12T09:09:41Z</time>
      </trkpt>
      <trkpt lat="45.92057" lon="4.75648">
        <ele>175</ele>
        <time>2018-06-12T09:09:42Z</time>
      </trkpt>
      <trkpt lat="45.92053" lon="4.75655">
        <ele>175</ele>
        <time>2018-06-12T09:09:43Z</time>
      </trkpt>
      <trkpt lat="45.9205" lon="4.75661">
        <ele>175</ele>
        <time>2018-06-12T09:09:44Z</time>
      </trkpt>
      <trkpt lat="45.92047" lon="4.75669">
        <ele>175</ele>
        <time>2018-06-12T09:09:45Z</time>
      </trkpt>
      <trkpt lat="45.92043" lon="4.75675">
        <ele>175</ele>
        <time>2018-06-12T09:09:46Z</time>
      </trkpt>
      <trkpt lat="45.9204" lon="4.7568">
        <ele>175</ele>
        <time>2018-06-12T09:09:47Z</time>
      </trkpt>
      <trkpt lat="45.92037" lon="4.75687">
        <ele>175</ele>
        <time>2018-06-12T09:09:48Z</time>
      </trkpt>
      <trkpt lat="45.92034" lon="4.75692">
        <ele>175</ele>
        <time>2018-06-12T09:09:49Z</time>
      </trkpt>
      <trkpt lat="45.92031" lon="4.757">
        <ele>175</ele>
        <time>2018-06-12T09:09:50Z</time>
      </trkpt>
      <trkpt lat="45.92028" lon="4.75706">
        <ele>175</ele>
        <time>2018-06-12T09:09:51Z</time>
      </trkpt>
      <trkpt lat="45.92025" lon="4.75712">
        <ele>175</ele>
        <time>2018-06-12T09:09:52Z</time>
      </trkpt>
      <trkpt lat="45.92022" lon="4.75717">
        <ele>175</ele>
        <time>2018-06-12T09:09:53Z</time>
      </trkpt>
      <trkpt lat="45.92019" lon="4.75723">
        <ele>175</ele>
        <time>2018-06-12T09:09:54Z</time>
      </trkpt>
      <trkpt lat="45.92016" lon="4.75727">
        <ele>175</ele>
        <time>2018-06-12T09:09:55Z</time>
      </trkpt>
      <trkpt lat="45.92012" lon="4.75732">
        <ele>175</ele>
        <time>2018-06-12T09:09:56Z</time>
      </trkpt>
      <trkpt lat="45.92009" lon="4.75738">
        <ele>174</ele>
        <time>2018-06-12T09:09:57Z</time>
      </trkpt>
      <trkpt lat="45.92005" lon="4.75744">
        <ele>174</ele>
        <time>2018-06-12T09:09:58Z</time>
      </trkpt>
      <trkpt lat="45.92" lon="4.75751">
        <ele>174</ele>
        <time>2018-06-12T09:09:59Z</time>
      </trkpt>
      <trkpt lat="45.91997" lon="4.75756">
        <ele>174</ele>
        <time>2018-06-12T09:10:00Z</time>
      </trkpt>
      <trkpt lat="45.91994" lon="4.75761">
        <ele>174</ele>
        <time>2018-06-12T09:10:01Z</time>
      </trkpt>
      <trkpt lat="45.9199" lon="4.75767">
        <ele>174</ele>
        <time>2018-06-12T09:10:02Z</time>
      </trkpt>
      <trkpt lat="45.91987" lon="4.75774">
        <ele>174</ele>
        <time>2018-06-12T09:10:03Z</time>
      </trkpt>
      <trkpt lat="45.91984" lon="4.7578">
        <ele>174</ele>
        <time>2018-06-12T09:10:04Z</time>
      </trkpt>
      <trkpt lat="45.91979" lon="4.75787">
        <ele>173</ele>
        <time>2018-06-12T09:10:05Z</time>
      </trkpt>
      <trkpt lat="45.91976" lon="4.75794">
        <ele>173</ele>
        <time>2018-06-12T09:10:06Z</time>
      </trkpt>
      <trkpt lat="45.91973" lon="4.75802">
        <ele>173</ele>
        <time>2018-06-12T09:10:07Z</time>
      </trkpt>
      <trkpt lat="45.91969" lon="4.75808">
        <ele>173</ele>
        <time>2018-06-12T09:10:08Z</time>
      </trkpt>
      <trkpt lat="45.91966" lon="4.75815">
        <ele>173</ele>
        <time>2018-06-12T09:10:09Z</time>
      </trkpt>
      <trkpt lat="45.91962" lon="4.75822">
        <ele>173</ele>
        <time>2018-06-12T09:10:10Z</time>
      </trkpt>
      <trkpt lat="45.91958" lon="4.75829">
        <ele>173</ele>
        <time>2018-06-12T09:10:11Z</time>
      </trkpt>
      <trkpt lat="45.91954" lon="4.75836">
        <ele>172</ele>
        <time>2018-06-12T09:10:12Z</time>
      </trkpt>
      <trkpt lat="45.9195" lon="4.75843">
        <ele>172</ele>
        <time>2018-06-12T09:10:13Z</time>
      </trkpt>
      <trkpt lat="45.91947" lon="4.75849">
        <ele>172</ele>
        <time>2018-06-12T09:10:14Z</time>
      </trkpt>
      <trkpt lat="45.91943" lon="4.75855">
        <ele>172</ele>
        <time>2018-06-12T09:10:15Z</time>
      </trkpt>
      <trkpt lat="45.9194" lon="4.75862">
        <ele>172</ele>
        <time>2018-06-12T09:10:16Z</time>
      </trkpt>
      <trkpt lat="45.91936" lon="4.75868">
        <ele>172</ele>
        <time>2018-06-12T09:10:17Z</time>
      </trkpt>
      <trkpt lat="45.91932" lon="4.75875">
        <ele>172</ele>
        <time>2018-06-12T09:10:18Z</time>
      </trkpt>
      <trkpt lat="45.91929" lon="4.75882">
        <ele>172</ele>
        <time>2018-06-12T09:10:19Z</time>
      </trkpt>
      <trkpt lat="45.91927" lon="4.75889">
        <ele>172</ele>
        <time>2018-06-12T09:10:20Z</time>
      </trkpt>
      <trkpt lat="45.91923" lon="4.75897">
        <ele>172</ele>
        <time>2018-06-12T09:10:21Z</time>
      </trkpt>
      <trkpt lat="45.91921" lon="4.75906">
        <ele>172</ele>
        <time>2018-06-12T09:10:22Z</time>
      </trkpt>
      <trkpt lat="45.91919" lon="4.75914">
        <ele>172</ele>
        <time>2018-06-12T09:10:23Z</time>
      </trkpt>
      <trkpt lat="45.91916" lon="4.75922">
        <ele>172</ele>
        <time>2018-06-12T09:10:24Z</time>
      </trkpt>
      <trkpt lat="45.91914" lon="4.75931">
        <ele>173</ele>
        <time>2018-06-12T09:10:25Z</time>
      </trkpt>
      <trkpt lat="45.91912" lon="4.7594">
        <ele>173</ele>
        <time>2018-06-12T09:10:26Z</time>
      </trkpt>
      <trkpt lat="45.9191" lon="4.75947">
        <ele>173</ele>
        <time>2018-06-12T09:10:27Z</time>
      </trkpt>
      <trkpt lat="45.91909" lon="4.75956">
        <ele>173</ele>
        <time>2018-06-12T09:10:28Z</time>
      </trkpt>
      <trkpt lat="45.91908" lon="4.75965">
        <ele>173</ele>
        <time>2018-06-12T09:10:29Z</time>
      </trkpt>
      <trkpt lat="45.91906" lon="4.75974">
        <ele>173</ele>
        <time>2018-06-12T09:10:30Z</time>
      </trkpt>
      <trkpt lat="45.91904" lon="4.75983">
        <ele>173</ele>
        <time>2018-06-12T09:10:31Z</time>
      </trkpt>
      <trkpt lat="45.91902" lon="4.75992">
        <ele>173</ele>
        <time>2018-06-12T09:10:32Z</time>
      </trkpt>
      <trkpt lat="45.91899" lon="4.75998">
        <ele>173</ele>
        <time>2018-06-12T09:10:33Z</time>
      </trkpt>
      <trkpt lat="45.91897" lon="4.76007">
        <ele>173</ele>
        <time>2018-06-12T09:10:34Z</time>
      </trkpt>
      <trkpt lat="45.91895" lon="4.76015">
        <ele>173</ele>
        <time>2018-06-12T09:10:35Z</time>
      </trkpt>
      <trkpt lat="45.91894" lon="4.76023">
        <ele>173</ele>
        <time>2018-06-12T09:10:36Z</time>
      </trkpt>
      <trkpt lat="45.91892" lon="4.76031">
        <ele>173</ele>
        <time>2018-06-12T09:10:37Z</time>
      </trkpt>
      <trkpt lat="45.91889" lon="4.76041">
        <ele>173</ele>
        <time>2018-06-12T09:10:38Z</time>
      </trkpt>
      <trkpt lat="45.91888" lon="4.76051">
        <ele>173</ele>
        <time>2018-06-12T09:10:39Z</time>
      </trkpt>
      <trkpt lat="45.91885" lon="4.76061">
        <ele>173</ele>
        <time>2018-06-12T09:10:40Z</time>
      </trkpt>
      <trkpt lat="45.91883" lon="4.76069">
        <ele>173</ele>
        <time>2018-06-12T09:10:41Z</time>
      </trkpt>
      <trkpt lat="45.91882" lon="4.76079">
        <ele>173</ele>
        <time>2018-06-12T09:10:42Z</time>
      </trkpt>
      <trkpt lat="45.91879" lon="4.76088">
        <ele>173</ele>
        <time>2018-06-12T09:10:43Z</time>
      </trkpt>
      <trkpt lat="45.91876" lon="4.76096">
        <ele>173</ele>
        <time>2018-06-12T09:10:44Z</time>
      </trkpt>
      <trkpt lat="45.91874" lon="4.76104">
        <ele>173</ele>
        <time>2018-06-12T09:10:45Z</time>
      </trkpt>
      <trkpt lat="45.91872" lon="4.76114">
        <ele>173</ele>
        <time>2018-06-12T09:10:46Z</time>
      </trkpt>
      <trkpt lat="45.9187" lon="4.76122">
        <ele>173</ele>
        <time>2018-06-12T09:10:47Z</time>
      </trkpt>
      <trkpt lat="45.91867" lon="4.7613">
        <ele>173</ele>
        <time>2018-06-12T09:10:48Z</time>
      </trkpt>
      <trkpt lat="45.91864" lon="4.76139">
        <ele>173</ele>
        <time>2018-06-12T09:10:49Z</time>
      </trkpt>
      <trkpt lat="45.91861" lon="4.76148">
        <ele>173</ele>
        <time>2018-06-12T09:10:50Z</time>
      </trkpt>
      <trkpt lat="45.91859" lon="4.76156">
        <ele>173</ele>
        <time>2018-06-12T09:10:51Z</time>
      </trkpt>
      <trkpt lat="45.91856" lon="4.76165">
        <ele>173</ele>
        <time>2018-06-12T09:10:52Z</time>
      </trkpt>
      <trkpt lat="45.91853" lon="4.76173">
        <ele>172</ele>
        <time>2018-06-12T09:10:53Z</time>
      </trkpt>
      <trkpt lat="45.91852" lon="4.76181">
        <ele>172</ele>
        <time>2018-06-12T09:10:54Z</time>
      </trkpt>
      <trkpt lat="45.9185" lon="4.7619">
        <ele>172</ele>
        <time>2018-06-12T09:10:55Z</time>
      </trkpt>
      <trkpt lat="45.91848" lon="4.76197">
        <ele>172</ele>
        <time>2018-06-12T09:10:56Z</time>
      </trkpt>
      <trkpt lat="45.91846" lon="4.76205">
        <ele>172</ele>
        <time>2018-06-12T09:10:57Z</time>
      </trkpt>
      <trkpt lat="45.91844" lon="4.76212">
        <ele>172</ele>
        <time>2018-06-12T09:10:58Z</time>
      </trkpt>
      <trkpt lat="45.91842" lon="4.7622">
        <ele>172</ele>
        <time>2018-06-12T09:10:59Z</time>
      </trkpt>
      <trkpt lat="45.91839" lon="4.76228">
        <ele>172</ele>
        <time>2018-06-12T09:11:00Z</time>
      </trkpt>
      <trkpt lat="45.91836" lon="4.76238">
        <ele>173</ele>
        <time>2018-06-12T09:11:01Z</time>
      </trkpt>
      <trkpt lat="45.91834" lon="4.76246">
        <ele>173</ele>
        <time>2018-06-12T09:11:02Z</time>
      </trkpt>
      <trkpt lat="45.91833" lon="4.76254">
        <ele>173</ele>
        <time>2018-06-12T09:11:03Z</time>
      </trkpt>
      <trkpt lat="45.91831" lon="4.76262">
        <ele>174</ele>
        <time>2018-06-12T09:11:04Z</time>
      </trkpt>
      <trkpt lat="45.91829" lon="4.7627">
        <ele>174</ele>
        <time>2018-06-12T09:11:05Z</time>
      </trkpt>
      <trkpt lat="45.91827" lon="4.76277">
        <ele>174</ele>
        <time>2018-06-12T09:11:06Z</time>
      </trkpt>
      <trkpt lat="45.91825" lon="4.76286">
        <ele>174</ele>
        <time>2018-06-12T09:11:07Z</time>
      </trkpt>
      <trkpt lat="45.91823" lon="4.76294">
        <ele>174</ele>
        <time>2018-06-12T09:11:08Z</time>
      </trkpt>
      <trkpt lat="45.91822" lon="4.76303">
        <ele>174</ele>
        <time>2018-06-12T09:11:09Z</time>
      </trkpt>
      <trkpt lat="45.9182" lon="4.76312">
        <ele>174</ele>
        <time>2018-06-12T09:11:10Z</time>
      </trkpt>
      <trkpt lat="45.91817" lon="4.76319">
        <ele>174</ele>
        <time>2018-06-12T09:11:11Z</time>
      </trkpt>
      <trkpt lat="45.91815" lon="4.76327">
        <ele>174</ele>
        <time>2018-06-12T09:11:12Z</time>
      </trkpt>
      <trkpt lat="45.91813" lon="4.76335">
        <ele>174</ele>
        <time>2018-06-12T09:11:13Z</time>
      </trkpt>
      <trkpt lat="45.91811" lon="4.76343">
        <ele>174</ele>
        <time>2018-06-12T09:11:14Z</time>
      </trkpt>
      <trkpt lat="45.91811" lon="4.76352">
        <ele>174</ele>
        <time>2018-06-12T09:11:15Z</time>
      </trkpt>
      <trkpt lat="45.9181" lon="4.76361">
        <ele>174</ele>
        <time>2018-06-12T09:11:16Z</time>
      </trkpt>
      <trkpt lat="45.9181" lon="4.7637">
        <ele>174</ele>
        <time>2018-06-12T09:11:17Z</time>
      </trkpt>
      <trkpt lat="45.91809" lon="4.76379">
        <ele>174</ele>
        <time>2018-06-12T09:11:18Z</time>
      </trkpt>
      <trkpt lat="45.91808" lon="4.76387">
        <ele>174</ele>
        <time>2018-06-12T09:11:19Z</time>
      </trkpt>
      <trkpt lat="45.91808" lon="4.76398">
        <ele>173</ele>
        <time>2018-06-12T09:11:20Z</time>
      </trkpt>
      <trkpt lat="45.91808" lon="4.76408">
        <ele>173</ele>
        <time>2018-06-12T09:11:21Z</time>
      </trkpt>
      <trkpt lat="45.91807" lon="4.76417">
        <ele>173</ele>
        <time>2018-06-12T09:11:22Z</time>
      </trkpt>
      <trkpt lat="45.91807" lon="4.76426">
        <ele>173</ele>
        <time>2018-06-12T09:11:23Z</time>
      </trkpt>
      <trkpt lat="45.91805" lon="4.76436">
        <ele>173</ele>
        <time>2018-06-12T09:11:24Z</time>
      </trkpt>
      <trkpt lat="45.91805" lon="4.76446">
        <ele>173</ele>
        <time>2018-06-12T09:11:25Z</time>
      </trkpt>
      <trkpt lat="45.91804" lon="4.76455">
        <ele>173</ele>
        <time>2018-06-12T09:11:26Z</time>
      </trkpt>
      <trkpt lat="45.91804" lon="4.76465">
        <ele>173</ele>
        <time>2018-06-12T09:11:27Z</time>
      </trkpt>
      <trkpt lat="45.91803" lon="4.76472">
        <ele>173</ele>
        <time>2018-06-12T09:11:28Z</time>
      </trkpt>
      <trkpt lat="45.91802" lon="4.7648">
        <ele>173</ele>
        <time>2018-06-12T09:11:29Z</time>
      </trkpt>
      <trkpt lat="45.91802" lon="4.76491">
        <ele>173</ele>
        <time>2018-06-12T09:11:30Z</time>
      </trkpt>
      <trkpt lat="45.91803" lon="4.76501">
        <ele>173</ele>
        <time>2018-06-12T09:11:31Z</time>
      </trkpt>
      <trkpt lat="45.91802" lon="4.7651">
        <ele>173</ele>
        <time>2018-06-12T09:11:32Z</time>
      </trkpt>
      <trkpt lat="45.918" lon="4.76519">
        <ele>173</ele>
        <time>2018-06-12T09:11:33Z</time>
      </trkpt>
      <trkpt lat="45.91799" lon="4.76529">
        <ele>173</ele>
        <time>2018-06-12T09:11:34Z</time>
      </trkpt>
      <trkpt lat="45.91799" lon="4.76538">
        <ele>173</ele>
        <time>2018-06-12T09:11:35Z</time>
      </trkpt>
      <trkpt lat="45.91798" lon="4.76548">
        <ele>173</ele>
        <time>2018-06-12T09:11:36Z</time>
      </trkpt>
      <trkpt lat="45.91797" lon="4.76557">
        <ele>173</ele>
        <time>2018-06-12T09:11:37Z</time>
      </trkpt>
      <trkpt lat="45.91796" lon="4.76567">
        <ele>173</ele>
        <time>2018-06-12T09:11:38Z</time>
      </trkpt>
      <trkpt lat="45.91795" lon="4.76575">
        <ele>173</ele>
        <time>2018-06-12T09:11:39Z</time>
      </trkpt>
      <trkpt lat="45.91794" lon="4.76585">
        <ele>173</ele>
        <time>2018-06-12T09:11:40Z</time>
      </trkpt>
      <trkpt lat="45.91795" lon="4.76594">
        <ele>173</ele>
        <time>2018-06-12T09:11:41Z</time>
      </trkpt>
      <trkpt lat="45.91793" lon="4.76603">
        <ele>173</ele>
        <time>2018-06-12T09:11:42Z</time>
      </trkpt>
      <trkpt lat="45.91792" lon="4.76613">
        <ele>173</ele>
        <time>2018-06-12T09:11:43Z</time>
      </trkpt>
      <trkpt lat="45.9179" lon="4.76622">
        <ele>173</ele>
        <time>2018-06-12T09:11:44Z</time>
      </trkpt>
      <trkpt lat="45.91789" lon="4.76632">
        <ele>173</ele>
        <time>2018-06-12T09:11:45Z</time>
      </trkpt>
      <trkpt lat="45.91788" lon="4.76641">
        <ele>173</ele>
        <time>2018-06-12T09:11:46Z</time>
      </trkpt>
      <trkpt lat="45.91787" lon="4.76651">
        <ele>173</ele>
        <time>2018-06-12T09:11:47Z</time>
      </trkpt>
      <trkpt lat="45.91786" lon="4.7666">
        <ele>173</ele>
        <time>2018-06-12T09:11:48Z</time>
      </trkpt>
      <trkpt lat="45.91785" lon="4.76669">
        <ele>172</ele>
        <time>2018-06-12T09:11:49Z</time>
      </trkpt>
      <trkpt lat="45.91784" lon="4.76679">
        <ele>172</ele>
        <time>2018-06-12T09:11:50Z</time>
      </trkpt>
      <trkpt lat="45.91784" lon="4.76689">
        <ele>172</ele>
        <time>2018-06-12T09:11:51Z</time>
      </trkpt>
      <trkpt lat="45.91782" lon="4.76699">
        <ele>172</ele>
        <time>2018-06-12T09:11:52Z</time>
      </trkpt>
      <trkpt lat="45.91781" lon="4.76708">
        <ele>172</ele>
        <time>2018-06-12T09:11:53Z</time>
      </trkpt>
      <trkpt lat="45.91781" lon="4.76718">
        <ele>172</ele>
        <time>2018-06-12T09:11:54Z</time>
      </trkpt>
      <trkpt lat="45.91779" lon="4.7673">
        <ele>172</ele>
        <time>2018-06-12T09:11:55Z</time>
      </trkpt>
      <trkpt lat="45.91778" lon="4.76741">
        <ele>172</ele>
        <time>2018-06-12T09:11:56Z</time>
      </trkpt>
      <trkpt lat="45.91777" lon="4.76751">
        <ele>171</ele>
        <time>2018-06-12T09:11:57Z</time>
      </trkpt>
      <trkpt lat="45.91778" lon="4.76762">
        <ele>171</ele>
        <time>2018-06-12T09:11:58Z</time>
      </trkpt>
      <trkpt lat="45.91777" lon="4.76771">
        <ele>171</ele>
        <time>2018-06-12T09:11:59Z</time>
      </trkpt>
      <trkpt lat="45.91776" lon="4.76782">
        <ele>171</ele>
        <time>2018-06-12T09:12:00Z</time>
      </trkpt>
      <trkpt lat="45.91776" lon="4.76791">
        <ele>171</ele>
        <time>2018-06-12T09:12:01Z</time>
      </trkpt>
      <trkpt lat="45.91776" lon="4.76801">
        <ele>171</ele>
        <time>2018-06-12T09:12:02Z</time>
      </trkpt>
      <trkpt lat="45.91776" lon="4.7681">
        <ele>171</ele>
        <time>2018-06-12T09:12:03Z</time>
      </trkpt>
      <trkpt lat="45.91776" lon="4.76821">
        <ele>171</ele>
        <time>2018-06-12T09:12:04Z</time>
      </trkpt>
      <trkpt lat="45.91775" lon="4.7683">
        <ele>171</ele>
        <time>2018-06-12T09:12:05Z</time>
      </trkpt>
      <trkpt lat="45.91775" lon="4.7684">
        <ele>171</ele>
        <time>2018-06-12T09:12:06Z</time>
      </trkpt>
      <trkpt lat="45.91775" lon="4.76851">
        <ele>170</ele>
        <time>2018-06-12T09:12:07Z</time>
      </trkpt>
      <trkpt lat="45.91775" lon="4.7686">
        <ele>170</ele>
        <time>2018-06-12T09:12:08Z</time>
      </trkpt>
      <trkpt lat="45.91773" lon="4.7687">
        <ele>170</ele>
        <time>2018-06-12T09:12:09Z</time>
      </trkpt>
      <trkpt lat="45.91772" lon="4.7688">
        <ele>170</ele>
        <time>2018-06-12T09:12:10Z</time>
      </trkpt>
      <trkpt lat="45.91772" lon="4.76891">
        <ele>170</ele>
        <time>2018-06-12T09:12:11Z</time>
      </trkpt>
      <trkpt lat="45.91772" lon="4.76903">
        <ele>170</ele>
        <time>2018-06-12T09:12:12Z</time>
      </trkpt>
      <trkpt lat="45.91771" lon="4.76913">
        <ele>171</ele>
        <time>2018-06-12T09:12:13Z</time>
      </trkpt>
      <trkpt lat="45.9177" lon="4.76924">
        <ele>170</ele>
        <time>2018-06-12T09:12:14Z</time>
      </trkpt>
      <trkpt lat="45.9177" lon="4.76934">
        <ele>170</ele>
        <time>2018-06-12T09:12:15Z</time>
      </trkpt>
      <trkpt lat="45.91769" lon="4.76944">
        <ele>169</ele>
        <time>2018-06-12T09:12:16Z</time>
      </trkpt>
      <trkpt lat="45.91768" lon="4.76955">
        <ele>169</ele>
        <time>2018-06-12T09:12:17Z</time>
      </trkpt>
      <trkpt lat="45.91767" lon="4.76965">
        <ele>169</ele>
        <time>2018-06-12T09:12:18Z</time>
      </trkpt>
      <trkpt lat="45.91767" lon="4.76975">
        <ele>169</ele>
        <time>2018-06-12T09:12:19Z</time>
      </trkpt>
      <trkpt lat="45.91765" lon="4.76984">
        <ele>169</ele>
        <time>2018-06-12T09:12:20Z</time>
      </trkpt>
      <trkpt lat="45.91763" lon="4.76994">
        <ele>169</ele>
        <time>2018-06-12T09:12:21Z</time>
      </trkpt>
      <trkpt lat="45.91763" lon="4.77004">
        <ele>169</ele>
        <time>2018-06-12T09:12:22Z</time>
      </trkpt>
      <trkpt lat="45.91761" lon="4.77016">
        <ele>169</ele>
        <time>2018-06-12T09:12:23Z</time>
      </trkpt>
      <trkpt lat="45.9176" lon="4.77027">
        <ele>169</ele>
        <time>2018-06-12T09:12:24Z</time>
      </trkpt>
      <trkpt lat="45.91758" lon="4.77037">
        <ele>169</ele>
        <time>2018-06-12T09:12:25Z</time>
      </trkpt>
      <trkpt lat="45.91757" lon="4.77046">
        <ele>169</ele>
        <time>2018-06-12T09:12:26Z</time>
      </trkpt>
      <trkpt lat="45.91756" lon="4.77055">
        <ele>169</ele>
        <time>2018-06-12T09:12:27Z</time>
      </trkpt>
      <trkpt lat="45.91755" lon="4.77065">
        <ele>169</ele>
        <time>2018-06-12T09:12:28Z</time>
      </trkpt>
      <trkpt lat="45.91754" lon="4.77074">
        <ele>169</ele>
        <time>2018-06-12T09:12:29Z</time>
      </trkpt>
      <trkpt lat="45.91752" lon="4.77083">
        <ele>169</ele>
        <time>2018-06-12T09:12:30Z</time>
      </trkpt>
      <trkpt lat="45.91751" lon="4.77093">
        <ele>169</ele>
        <time>2018-06-12T09:12:31Z</time>
      </trkpt>
      <trkpt lat="45.9175" lon="4.77101">
        <ele>170</ele>
        <time>2018-06-12T09:12:32Z</time>
      </trkpt>
      <trkpt lat="45.91748" lon="4.77111">
        <ele>170</ele>
        <time>2018-06-12T09:12:33Z</time>
      </trkpt>
      <trkpt lat="45.91746" lon="4.7712">
        <ele>170</ele>
        <time>2018-06-12T09:12:34Z</time>
      </trkpt>
      <trkpt lat="45.91745" lon="4.77129">
        <ele>170</ele>
        <time>2018-06-12T09:12:35Z</time>
      </trkpt>
      <trkpt lat="45.91744" lon="4.77138">
        <ele>170</ele>
        <time>2018-06-12T09:12:36Z</time>
      </trkpt>
      <trkpt lat="45.91744" lon="4.77148">
        <ele>170</ele>
        <time>2018-06-12T09:12:37Z</time>
      </trkpt>
      <trkpt lat="45.91743" lon="4.77156">
        <ele>170</ele>
        <time>2018-06-12T09:12:38Z</time>
      </trkpt>
      <trkpt lat="45.91739" lon="4.77167">
        <ele>170</ele>
        <time>2018-06-12T09:12:40Z</time>
      </trkpt>
      <trkpt lat="45.91737" lon="4.77171">
        <ele>170</ele>
        <time>2018-06-12T09:12:41Z</time>
      </trkpt>
      <trkpt lat="45.9173" lon="4.77177">
        <ele>170</ele>
        <time>2018-06-12T09:12:43Z</time>
      </trkpt>
      <trkpt lat="45.91727" lon="4.7718">
        <ele>170</ele>
        <time>2018-06-12T09:12:44Z</time>
      </trkpt>
      <trkpt lat="45.91725" lon="4.77192">
        <ele>170</ele>
        <time>2018-06-12T09:12:46Z</time>
      </trkpt>
      <trkpt lat="45.91723" lon="4.77194">
        <ele>170</ele>
        <time>2018-06-12T09:12:47Z</time>
      </trkpt>
      <trkpt lat="45.9172" lon="4.772">
        <ele>170</ele>
        <time>2018-06-12T09:12:48Z</time>
      </trkpt>
      <trkpt lat="45.91718" lon="4.77206">
        <ele>170</ele>
        <time>2018-06-12T09:12:49Z</time>
      </trkpt>
      <trkpt lat="45.91716" lon="4.77212">
        <ele>170</ele>
        <time>2018-06-12T09:12:50Z</time>
      </trkpt>
      <trkpt lat="45.91713" lon="4.77217">
        <ele>170</ele>
        <time>2018-06-12T09:12:51Z</time>
      </trkpt>
      <trkpt lat="45.9171" lon="4.77223">
        <ele>170</ele>
        <time>2018-06-12T09:12:52Z</time>
      </trkpt>
      <trkpt lat="45.91707" lon="4.77229">
        <ele>170</ele>
        <time>2018-06-12T09:12:53Z</time>
      </trkpt>
      <trkpt lat="45.91703" lon="4.77235">
        <ele>170</ele>
        <time>2018-06-12T09:12:54Z</time>
      </trkpt>
      <trkpt lat="45.917" lon="4.77241">
        <ele>170</ele>
        <time>2018-06-12T09:12:55Z</time>
      </trkpt>
      <trkpt lat="45.91698" lon="4.77247">
        <ele>170</ele>
        <time>2018-06-12T09:12:56Z</time>
      </trkpt>
      <trkpt lat="45.91695" lon="4.77253">
        <ele>170</ele>
        <time>2018-06-12T09:12:57Z</time>
      </trkpt>
      <trkpt lat="45.91692" lon="4.77259">
        <ele>170</ele>
        <time>2018-06-12T09:12:58Z</time>
      </trkpt>
      <trkpt lat="45.9169" lon="4.77267">
        <ele>170</ele>
        <time>2018-06-12T09:12:59Z</time>
      </trkpt>
      <trkpt lat="45.9169" lon="4.77274">
        <ele>170</ele>
        <time>2018-06-12T09:13:00Z</time>
      </trkpt>
      <trkpt lat="45.91688" lon="4.7728">
        <ele>170</ele>
        <time>2018-06-12T09:13:01Z</time>
      </trkpt>
      <trkpt lat="45.91686" lon="4.77287">
        <ele>170</ele>
        <time>2018-06-12T09:13:02Z</time>
      </trkpt>
      <trkpt lat="45.91684" lon="4.77293">
        <ele>170</ele>
        <time>2018-06-12T09:13:03Z</time>
      </trkpt>
      <trkpt lat="45.91682" lon="4.77301">
        <ele>170</ele>
        <time>2018-06-12T09:13:04Z</time>
      </trkpt>
      <trkpt lat="45.9168" lon="4.77307">
        <ele>171</ele>
        <time>2018-06-12T09:13:05Z</time>
      </trkpt>
      <trkpt lat="45.91678" lon="4.77313">
        <ele>171</ele>
        <time>2018-06-12T09:13:06Z</time>
      </trkpt>
      <trkpt lat="45.91675" lon="4.77319">
        <ele>171</ele>
        <time>2018-06-12T09:13:07Z</time>
      </trkpt>
      <trkpt lat="45.91673" lon="4.77331">
        <ele>172</ele>
        <time>2018-06-12T09:13:09Z</time>
      </trkpt>
      <trkpt lat="45.91671" lon="4.77338">
        <ele>172</ele>
        <time>2018-06-12T09:13:10Z</time>
      </trkpt>
      <trkpt lat="45.91669" lon="4.77344">
        <ele>172</ele>
        <time>2018-06-12T09:13:11Z</time>
      </trkpt>
      <trkpt lat="45.91667" lon="4.7735">
        <ele>171</ele>
        <time>2018-06-12T09:13:12Z</time>
      </trkpt>
      <trkpt lat="45.91665" lon="4.77356">
        <ele>172</ele>
        <time>2018-06-12T09:13:13Z</time>
      </trkpt>
      <trkpt lat="45.91663" lon="4.77362">
        <ele>172</ele>
        <time>2018-06-12T09:13:14Z</time>
      </trkpt>
      <trkpt lat="45.9166" lon="4.77368">
        <ele>172</ele>
        <time>2018-06-12T09:13:15Z</time>
      </trkpt>
      <trkpt lat="45.91658" lon="4.77377">
        <ele>172</ele>
        <time>2018-06-12T09:13:16Z</time>
      </trkpt>
      <trkpt lat="45.91656" lon="4.77384">
        <ele>172</ele>
        <time>2018-06-12T09:13:17Z</time>
      </trkpt>
      <trkpt lat="45.91654" lon="4.77392">
        <ele>172</ele>
        <time>2018-06-12T09:13:18Z</time>
      </trkpt>
      <trkpt lat="45.91653" lon="4.774">
        <ele>172</ele>
        <time>2018-06-12T09:13:19Z</time>
      </trkpt>
      <trkpt lat="45.9165" lon="4.77407">
        <ele>172</ele>
        <time>2018-06-12T09:13:20Z</time>
      </trkpt>
      <trkpt lat="45.91647" lon="4.77413">
        <ele>172</ele>
        <time>2018-06-12T09:13:21Z</time>
      </trkpt>
      <trkpt lat="45.91646" lon="4.7742">
        <ele>172</ele>
        <time>2018-06-12T09:13:22Z</time>
      </trkpt>
      <trkpt lat="45.91644" lon="4.77427">
        <ele>172</ele>
        <time>2018-06-12T09:13:23Z</time>
      </trkpt>
      <trkpt lat="45.91642" lon="4.77432">
        <ele>172</ele>
        <time>2018-06-12T09:13:24Z</time>
      </trkpt>
      <trkpt lat="45.91641" lon="4.77438">
        <ele>172</ele>
        <time>2018-06-12T09:13:25Z</time>
      </trkpt>
      <trkpt lat="45.91639" lon="4.77447">
        <ele>172</ele>
        <time>2018-06-12T09:13:26Z</time>
      </trkpt>
      <trkpt lat="45.91638" lon="4.77454">
        <ele>171</ele>
        <time>2018-06-12T09:13:27Z</time>
      </trkpt>
      <trkpt lat="45.91635" lon="4.77459">
        <ele>171</ele>
        <time>2018-06-12T09:13:28Z</time>
      </trkpt>
      <trkpt lat="45.91633" lon="4.77466">
        <ele>171</ele>
        <time>2018-06-12T09:13:29Z</time>
      </trkpt>
      <trkpt lat="45.91631" lon="4.77473">
        <ele>171</ele>
        <time>2018-06-12T09:13:30Z</time>
      </trkpt>
      <trkpt lat="45.91629" lon="4.77479">
        <ele>171</ele>
        <time>2018-06-12T09:13:31Z</time>
      </trkpt>
      <trkpt lat="45.91628" lon="4.77486">
        <ele>171</ele>
        <time>2018-06-12T09:13:32Z</time>
      </trkpt>
      <trkpt lat="45.91626" lon="4.77497">
        <ele>171</ele>
        <time>2018-06-12T09:13:34Z</time>
      </trkpt>
      <trkpt lat="45.91625" lon="4.77502">
        <ele>171</ele>
        <time>2018-06-12T09:13:35Z</time>
      </trkpt>
      <trkpt lat="45.91623" lon="4.77514">
        <ele>171</ele>
        <time>2018-06-12T09:13:37Z</time>
      </trkpt>
      <trkpt lat="45.9162" lon="4.77521">
        <ele>171</ele>
        <time>2018-06-12T09:13:38Z</time>
      </trkpt>
      <trkpt lat="45.91617" lon="4.77526">
        <ele>171</ele>
        <time>2018-06-12T09:13:39Z</time>
      </trkpt>
      <trkpt lat="45.91612" lon="4.77531">
        <ele>171</ele>
        <time>2018-06-12T09:13:40Z</time>
      </trkpt>
      <trkpt lat="45.91609" lon="4.77536">
        <ele>171</ele>
        <time>2018-06-12T09:13:41Z</time>
      </trkpt>
      <trkpt lat="45.91605" lon="4.77541">
        <ele>171</ele>
        <time>2018-06-12T09:13:42Z</time>
      </trkpt>
      <trkpt lat="45.91601" lon="4.77547">
        <ele>171</ele>
        <time>2018-06-12T09:13:43Z</time>
      </trkpt>
      <trkpt lat="45.91598" lon="4.77552">
        <ele>172</ele>
        <time>2018-06-12T09:13:44Z</time>
      </trkpt>
      <trkpt lat="45.91595" lon="4.77557">
        <ele>172</ele>
        <time>2018-06-12T09:13:45Z</time>
      </trkpt>
      <trkpt lat="45.91592" lon="4.77564">
        <ele>172</ele>
        <time>2018-06-12T09:13:46Z</time>
      </trkpt>
      <trkpt lat="45.91588" lon="4.77569">
        <ele>172</ele>
        <time>2018-06-12T09:13:47Z</time>
      </trkpt>
      <trkpt lat="45.91584" lon="4.77576">
        <ele>172</ele>
        <time>2018-06-12T09:13:48Z</time>
      </trkpt>
      <trkpt lat="45.91581" lon="4.77581">
        <ele>173</ele>
        <time>2018-06-12T09:13:49Z</time>
      </trkpt>
      <trkpt lat="45.91578" lon="4.77591">
        <ele>173</ele>
        <time>2018-06-12T09:13:50Z</time>
      </trkpt>
      <trkpt lat="45.91575" lon="4.77596">
        <ele>173</ele>
        <time>2018-06-12T09:13:51Z</time>
      </trkpt>
      <trkpt lat="45.91572" lon="4.77601">
        <ele>173</ele>
        <time>2018-06-12T09:13:52Z</time>
      </trkpt>
      <trkpt lat="45.91569" lon="4.77607">
        <ele>174</ele>
        <time>2018-06-12T09:13:53Z</time>
      </trkpt>
      <trkpt lat="45.91567" lon="4.77612">
        <ele>174</ele>
        <time>2018-06-12T09:13:54Z</time>
      </trkpt>
      <trkpt lat="45.91561" lon="4.77619">
        <ele>174</ele>
        <time>2018-06-12T09:13:56Z</time>
      </trkpt>
      <trkpt lat="45.91556" lon="4.77626">
        <ele>174</ele>
        <time>2018-06-12T09:13:57Z</time>
      </trkpt>
      <trkpt lat="45.9155" lon="4.77634">
        <ele>174</ele>
        <time>2018-06-12T09:13:59Z</time>
      </trkpt>
      <trkpt lat="45.91548" lon="4.7764">
        <ele>174</ele>
        <time>2018-06-12T09:14:00Z</time>
      </trkpt>
      <trkpt lat="45.91541" lon="4.77649">
        <ele>174</ele>
        <time>2018-06-12T09:14:02Z</time>
      </trkpt>
      <trkpt lat="45.91539" lon="4.77654">
        <ele>174</ele>
        <time>2018-06-12T09:14:03Z</time>
      </trkpt>
      <trkpt lat="45.91535" lon="4.77665">
        <ele>174</ele>
        <time>2018-06-12T09:14:05Z</time>
      </trkpt>
      <trkpt lat="45.91531" lon="4.7767">
        <ele>175</ele>
        <time>2018-06-12T09:14:06Z</time>
      </trkpt>
      <trkpt lat="45.91525" lon="4.77679">
        <ele>175</ele>
        <time>2018-06-12T09:14:08Z</time>
      </trkpt>
      <trkpt lat="45.91522" lon="4.77683">
        <ele>175</ele>
        <time>2018-06-12T09:14:09Z</time>
      </trkpt>
      <trkpt lat="45.91517" lon="4.77692">
        <ele>176</ele>
        <time>2018-06-12T09:14:11Z</time>
      </trkpt>
      <trkpt lat="45.91514" lon="4.77695">
        <ele>176</ele>
        <time>2018-06-12T09:14:12Z</time>
      </trkpt>
      <trkpt lat="45.91511" lon="4.77699">
        <ele>176</ele>
        <time>2018-06-12T09:14:13Z</time>
      </trkpt>
      <trkpt lat="45.91507" lon="4.77702">
        <ele>176</ele>
        <time>2018-06-12T09:14:14Z</time>
      </trkpt>
      <trkpt lat="45.91501" lon="4.77703">
        <ele>176</ele>
        <time>2018-06-12T09:14:16Z</time>
      </trkpt>
      <trkpt lat="45.91497" lon="4.77703">
        <ele>177</ele>
        <time>2018-06-12T09:14:17Z</time>
      </trkpt>
      <trkpt lat="45.91492" lon="4.77704">
        <ele>177</ele>
        <time>2018-06-12T09:14:18Z</time>
      </trkpt>
      <trkpt lat="45.91487" lon="4.77704">
        <ele>177</ele>
        <time>2018-06-12T09:14:19Z</time>
      </trkpt>
      <trkpt lat="45.91479" lon="4.77703">
        <ele>177</ele>
        <time>2018-06-12T09:14:21Z</time>
      </trkpt>
      <trkpt lat="45.91473" lon="4.77702">
        <ele>177</ele>
        <time>2018-06-12T09:14:22Z</time>
      </trkpt>
      <trkpt lat="45.91466" lon="4.77699">
        <ele>177</ele>
        <time>2018-06-12T09:14:24Z</time>
      </trkpt>
      <trkpt lat="45.91462" lon="4.77699">
        <ele>177</ele>
        <time>2018-06-12T09:14:25Z</time>
      </trkpt>
      <trkpt lat="45.91453" lon="4.777">
        <ele>177</ele>
        <time>2018-06-12T09:14:27Z</time>
      </trkpt>
      <trkpt lat="45.91449" lon="4.77699">
        <ele>177</ele>
        <time>2018-06-12T09:14:28Z</time>
      </trkpt>
      <trkpt lat="45.91442" lon="4.77704">
        <ele>177</ele>
        <time>2018-06-12T09:14:30Z</time>
      </trkpt>
      <trkpt lat="45.9144" lon="4.77705">
        <ele>177</ele>
        <time>2018-06-12T09:14:31Z</time>
      </trkpt>
      <trkpt lat="45.91436" lon="4.77705">
        <ele>177</ele>
        <time>2018-06-12T09:14:32Z</time>
      </trkpt>
      <trkpt lat="45.9143" lon="4.77707">
        <ele>177</ele>
        <time>2018-06-12T09:14:33Z</time>
      </trkpt>
      <trkpt lat="45.91425" lon="4.77706">
        <ele>177</ele>
        <time>2018-06-12T09:14:34Z</time>
      </trkpt>
      <trkpt lat="45.9142" lon="4.77707">
        <ele>177</ele>
        <time>2018-06-12T09:14:35Z</time>
      </trkpt>
      <trkpt lat="45.91415" lon="4.77707">
        <ele>177</ele>
        <time>2018-06-12T09:14:36Z</time>
      </trkpt>
      <trkpt lat="45.91409" lon="4.77708">
        <ele>177</ele>
        <time>2018-06-12T09:14:37Z</time>
      </trkpt>
      <trkpt lat="45.91404" lon="4.7771">
        <ele>176</ele>
        <time>2018-06-12T09:14:38Z</time>
      </trkpt>
      <trkpt lat="45.91399" lon="4.77715">
        <ele>177</ele>
        <time>2018-06-12T09:14:39Z</time>
      </trkpt>
      <trkpt lat="45.91391" lon="4.77716">
        <ele>177</ele>
        <time>2018-06-12T09:14:40Z</time>
      </trkpt>
      <trkpt lat="45.91387" lon="4.77718">
        <ele>176</ele>
        <time>2018-06-12T09:14:41Z</time>
      </trkpt>
      <trkpt lat="45.91383" lon="4.77718">
        <ele>176</ele>
        <time>2018-06-12T09:14:42Z</time>
      </trkpt>
      <trkpt lat="45.91377" lon="4.77719">
        <ele>176</ele>
        <time>2018-06-12T09:14:43Z</time>
      </trkpt>
      <trkpt lat="45.91368" lon="4.77717">
        <ele>176</ele>
        <time>2018-06-12T09:14:45Z</time>
      </trkpt>
      <trkpt lat="45.91363" lon="4.77718">
        <ele>176</ele>
        <time>2018-06-12T09:14:46Z</time>
      </trkpt>
      <trkpt lat="45.91357" lon="4.77719">
        <ele>176</ele>
        <time>2018-06-12T09:14:47Z</time>
      </trkpt>
      <trkpt lat="45.91351" lon="4.77719">
        <ele>176</ele>
        <time>2018-06-12T09:14:48Z</time>
      </trkpt>
      <trkpt lat="45.91347" lon="4.77719">
        <ele>176</ele>
        <time>2018-06-12T09:14:49Z</time>
      </trkpt>
      <trkpt lat="45.91341" lon="4.77719">
        <ele>176</ele>
        <time>2018-06-12T09:14:50Z</time>
      </trkpt>
      <trkpt lat="45.91335" lon="4.77718">
        <ele>176</ele>
        <time>2018-06-12T09:14:51Z</time>
      </trkpt>
      <trkpt lat="45.91329" lon="4.77719">
        <ele>176</ele>
        <time>2018-06-12T09:14:52Z</time>
      </trkpt>
      <trkpt lat="45.91323" lon="4.77717">
        <ele>176</ele>
        <time>2018-06-12T09:14:53Z</time>
      </trkpt>
      <trkpt lat="45.91318" lon="4.77715">
        <ele>176</ele>
        <time>2018-06-12T09:14:54Z</time>
      </trkpt>
      <trkpt lat="45.91313" lon="4.77714">
        <ele>176</ele>
        <time>2018-06-12T09:14:55Z</time>
      </trkpt>
      <trkpt lat="45.91307" lon="4.77711">
        <ele>176</ele>
        <time>2018-06-12T09:14:56Z</time>
      </trkpt>
      <trkpt lat="45.91302" lon="4.7771">
        <ele>176</ele>
        <time>2018-06-12T09:14:57Z</time>
      </trkpt>
      <trkpt lat="45.91296" lon="4.77709">
        <ele>176</ele>
        <time>2018-06-12T09:14:58Z</time>
      </trkpt>
      <trkpt lat="45.91293" lon="4.77703">
        <ele>176</ele>
        <time>2018-06-12T09:14:59Z</time>
      </trkpt>
      <trkpt lat="45.91287" lon="4.77701">
        <ele>176</ele>
        <time>2018-06-12T09:15:00Z</time>
      </trkpt>
      <trkpt lat="45.91282" lon="4.77698">
        <ele>176</ele>
        <time>2018-06-12T09:15:01Z</time>
      </trkpt>
      <trkpt lat="45.91277" lon="4.77695">
        <ele>176</ele>
        <time>2018-06-12T09:15:02Z</time>
      </trkpt>
      <trkpt lat="45.91272" lon="4.77692">
        <ele>176</ele>
        <time>2018-06-12T09:15:03Z</time>
      </trkpt>
      <trkpt lat="45.91266" lon="4.77688">
        <ele>176</ele>
        <time>2018-06-12T09:15:04Z</time>
      </trkpt>
      <trkpt lat="45.9126" lon="4.77684">
        <ele>176</ele>
        <time>2018-06-12T09:15:05Z</time>
      </trkpt>
      <trkpt lat="45.91253" lon="4.7768">
        <ele>175</ele>
        <time>2018-06-12T09:15:06Z</time>
      </trkpt>
      <trkpt lat="45.91246" lon="4.77679">
        <ele>176</ele>
        <time>2018-06-12T09:15:07Z</time>
      </trkpt>
      <trkpt lat="45.9124" lon="4.77677">
        <ele>176</ele>
        <time>2018-06-12T09:15:08Z</time>
      </trkpt>
      <trkpt lat="45.91235" lon="4.77678">
        <ele>176</ele>
        <time>2018-06-12T09:15:09Z</time>
      </trkpt>
      <trkpt lat="45.9123" lon="4.77679">
        <ele>176</ele>
        <time>2018-06-12T09:15:10Z</time>
      </trkpt>
      <trkpt lat="45.91225" lon="4.7768">
        <ele>176</ele>
        <time>2018-06-12T09:15:11Z</time>
      </trkpt>
      <trkpt lat="45.9122" lon="4.77681">
        <ele>176</ele>
        <time>2018-06-12T09:15:12Z</time>
      </trkpt>
      <trkpt lat="45.91215" lon="4.77683">
        <ele>176</ele>
        <time>2018-06-12T09:15:13Z</time>
      </trkpt>
      <trkpt lat="45.9121" lon="4.77686">
        <ele>176</ele>
        <time>2018-06-12T09:15:14Z</time>
      </trkpt>
      <trkpt lat="45.91205" lon="4.77688">
        <ele>176</ele>
        <time>2018-06-12T09:15:15Z</time>
      </trkpt>
      <trkpt lat="45.91201" lon="4.77688">
        <ele>176</ele>
        <time>2018-06-12T09:15:16Z</time>
      </trkpt>
      <trkpt lat="45.91196" lon="4.7769">
        <ele>176</ele>
        <time>2018-06-12T09:15:17Z</time>
      </trkpt>
      <trkpt lat="45.91191" lon="4.77693">
        <ele>176</ele>
        <time>2018-06-12T09:15:18Z</time>
      </trkpt>
      <trkpt lat="45.91187" lon="4.77695">
        <ele>176</ele>
        <time>2018-06-12T09:15:19Z</time>
      </trkpt>
      <trkpt lat="45.91184" lon="4.777">
        <ele>176</ele>
        <time>2018-06-12T09:15:20Z</time>
      </trkpt>
      <trkpt lat="45.9118" lon="4.77704">
        <ele>176</ele>
        <time>2018-06-12T09:15:21Z</time>
      </trkpt>
      <trkpt lat="45.91174" lon="4.77705">
        <ele>176</ele>
        <time>2018-06-12T09:15:22Z</time>
      </trkpt>
      <trkpt lat="45.91169" lon="4.77706">
        <ele>176</ele>
        <time>2018-06-12T09:15:23Z</time>
      </trkpt>
      <trkpt lat="45.91165" lon="4.77708">
        <ele>177</ele>
        <time>2018-06-12T09:15:24Z</time>
      </trkpt>
      <trkpt lat="45.91158" lon="4.77711">
        <ele>177</ele>
        <time>2018-06-12T09:15:25Z</time>
      </trkpt>
      <trkpt lat="45.91153" lon="4.77713">
        <ele>177</ele>
        <time>2018-06-12T09:15:26Z</time>
      </trkpt>
      <trkpt lat="45.91148" lon="4.77714">
        <ele>177</ele>
        <time>2018-06-12T09:15:27Z</time>
      </trkpt>
      <trkpt lat="45.91143" lon="4.77716">
        <ele>177</ele>
        <time>2018-06-12T09:15:28Z</time>
      </trkpt>
      <trkpt lat="45.91138" lon="4.77717">
        <ele>177</ele>
        <time>2018-06-12T09:15:29Z</time>
      </trkpt>
      <trkpt lat="45.91133" lon="4.77718">
        <ele>177</ele>
        <time>2018-06-12T09:15:30Z</time>
      </trkpt>
      <trkpt lat="45.91127" lon="4.77718">
        <ele>177</ele>
        <time>2018-06-12T09:15:31Z</time>
      </trkpt>
      <trkpt lat="45.91122" lon="4.77718">
        <ele>177</ele>
        <time>2018-06-12T09:15:32Z</time>
      </trkpt>
      <trkpt lat="45.91117" lon="4.77721">
        <ele>178</ele>
        <time>2018-06-12T09:15:33Z</time>
      </trkpt>
      <trkpt lat="45.91114" lon="4.77726">
        <ele>178</ele>
        <time>2018-06-12T09:15:34Z</time>
      </trkpt>
      <trkpt lat="45.91109" lon="4.77728">
        <ele>178</ele>
        <time>2018-06-12T09:15:35Z</time>
      </trkpt>
      <trkpt lat="45.91105" lon="4.7773">
        <ele>178</ele>
        <time>2018-06-12T09:15:36Z</time>
      </trkpt>
      <trkpt lat="45.91101" lon="4.77734">
        <ele>178</ele>
        <time>2018-06-12T09:15:37Z</time>
      </trkpt>
      <trkpt lat="45.91096" lon="4.77737">
        <ele>178</ele>
        <time>2018-06-12T09:15:38Z</time>
      </trkpt>
      <trkpt lat="45.91091" lon="4.77741">
        <ele>178</ele>
        <time>2018-06-12T09:15:39Z</time>
      </trkpt>
      <trkpt lat="45.91087" lon="4.77744">
        <ele>179</ele>
        <time>2018-06-12T09:15:40Z</time>
      </trkpt>
      <trkpt lat="45.91079" lon="4.77749">
        <ele>179</ele>
        <time>2018-06-12T09:15:42Z</time>
      </trkpt>
      <trkpt lat="45.91075" lon="4.77757">
        <ele>179</ele>
        <time>2018-06-12T09:15:43Z</time>
      </trkpt>
      <trkpt lat="45.91067" lon="4.77761">
        <ele>178</ele>
        <time>2018-06-12T09:15:45Z</time>
      </trkpt>
      <trkpt lat="45.91064" lon="4.77763">
        <ele>178</ele>
        <time>2018-06-12T09:15:46Z</time>
      </trkpt>
      <trkpt lat="45.91059" lon="4.77765">
        <ele>178</ele>
        <time>2018-06-12T09:15:47Z</time>
      </trkpt>
      <trkpt lat="45.91054" lon="4.77768">
        <ele>178</ele>
        <time>2018-06-12T09:15:48Z</time>
      </trkpt>
      <trkpt lat="45.91049" lon="4.77768">
        <ele>178</ele>
        <time>2018-06-12T09:15:49Z</time>
      </trkpt>
      <trkpt lat="45.91044" lon="4.7777">
        <ele>178</ele>
        <time>2018-06-12T09:15:50Z</time>
      </trkpt>
      <trkpt lat="45.91039" lon="4.77768">
        <ele>178</ele>
        <time>2018-06-12T09:15:51Z</time>
      </trkpt>
      <trkpt lat="45.91034" lon="4.7777">
        <ele>178</ele>
        <time>2018-06-12T09:15:52Z</time>
      </trkpt>
      <trkpt lat="45.9103" lon="4.77778">
        <ele>178</ele>
        <time>2018-06-12T09:15:53Z</time>
      </trkpt>
      <trkpt lat="45.91026" lon="4.77782">
        <ele>178</ele>
        <time>2018-06-12T09:15:54Z</time>
      </trkpt>
      <trkpt lat="45.91021" lon="4.77783">
        <ele>178</ele>
        <time>2018-06-12T09:15:55Z</time>
      </trkpt>
      <trkpt lat="45.91016" lon="4.77784">
        <ele>178</ele>
        <time>2018-06-12T09:15:56Z</time>
      </trkpt>
      <trkpt lat="45.9101" lon="4.77784">
        <ele>178</ele>
        <time>2018-06-12T09:15:57Z</time>
      </trkpt>
      <trkpt lat="45.91005" lon="4.77785">
        <ele>178</ele>
        <time>2018-06-12T09:15:58Z</time>
      </trkpt>
      <trkpt lat="45.91" lon="4.7779">
        <ele>178</ele>
        <time>2018-06-12T09:15:59Z</time>
      </trkpt>
      <trkpt lat="45.90995" lon="4.77791">
        <ele>177</ele>
        <time>2018-06-12T09:16:00Z</time>
      </trkpt>
      <trkpt lat="45.90989" lon="4.77792">
        <ele>177</ele>
        <time>2018-06-12T09:16:01Z</time>
      </trkpt>
      <trkpt lat="45.90983" lon="4.77789">
        <ele>177</ele>
        <time>2018-06-12T09:16:02Z</time>
      </trkpt>
      <trkpt lat="45.90977" lon="4.77788">
        <ele>177</ele>
        <time>2018-06-12T09:16:03Z</time>
      </trkpt>
      <trkpt lat="45.90972" lon="4.77789">
        <ele>177</ele>
        <time>2018-06-12T09:16:04Z</time>
      </trkpt>
      <trkpt lat="45.90967" lon="4.77789">
        <ele>177</ele>
        <time>2018-06-12T09:16:05Z</time>
      </trkpt>
      <trkpt lat="45.90962" lon="4.77788">
        <ele>177</ele>
        <time>2018-06-12T09:16:06Z</time>
      </trkpt>
      <trkpt lat="45.90958" lon="4.77786">
        <ele>177</ele>
        <time>2018-06-12T09:16:07Z</time>
      </trkpt>
      <trkpt lat="45.90953" lon="4.77783">
        <ele>177</ele>
        <time>2018-06-12T09:16:08Z</time>
      </trkpt>
      <trkpt lat="45.90946" lon="4.77779">
        <ele>177</ele>
        <time>2018-06-12T09:16:10Z</time>
      </trkpt>
      <trkpt lat="45.90941" lon="4.77777">
        <ele>177</ele>
        <time>2018-06-12T09:16:11Z</time>
      </trkpt>
      <trkpt lat="45.90934" lon="4.77779">
        <ele>177</ele>
        <time>2018-06-12T09:16:13Z</time>
      </trkpt>
      <trkpt lat="45.90929" lon="4.77775">
        <ele>177</ele>
        <time>2018-06-12T09:16:14Z</time>
      </trkpt>
      <trkpt lat="45.90921" lon="4.77767">
        <ele>177</ele>
        <time>2018-06-12T09:16:16Z</time>
      </trkpt>
      <trkpt lat="45.90918" lon="4.77763">
        <ele>176</ele>
        <time>2018-06-12T09:16:17Z</time>
      </trkpt>
      <trkpt lat="45.90912" lon="4.77753">
        <ele>176</ele>
        <time>2018-06-12T09:16:19Z</time>
      </trkpt>
      <trkpt lat="45.90909" lon="4.77749">
        <ele>176</ele>
        <time>2018-06-12T09:16:20Z</time>
      </trkpt>
      <trkpt lat="45.90902" lon="4.7774">
        <ele>177</ele>
        <time>2018-06-12T09:16:22Z</time>
      </trkpt>
      <trkpt lat="45.90898" lon="4.77736">
        <ele>177</ele>
        <time>2018-06-12T09:16:23Z</time>
      </trkpt>
      <trkpt lat="45.90891" lon="4.77729">
        <ele>177</ele>
        <time>2018-06-12T09:16:25Z</time>
      </trkpt>
      <trkpt lat="45.90887" lon="4.77725">
        <ele>177</ele>
        <time>2018-06-12T09:16:26Z</time>
      </trkpt>
      <trkpt lat="45.90881" lon="4.77718">
        <ele>177</ele>
        <time>2018-06-12T09:16:28Z</time>
      </trkpt>
      <trkpt lat="45.90878" lon="4.77713">
        <ele>177</ele>
        <time>2018-06-12T09:16:29Z</time>
      </trkpt>
      <trkpt lat="45.90872" lon="4.77708">
        <ele>178</ele>
        <time>2018-06-12T09:16:31Z</time>
      </trkpt>
      <trkpt lat="45.90868" lon="4.77703">
        <ele>178</ele>
        <time>2018-06-12T09:16:32Z</time>
      </trkpt>
      <trkpt lat="45.90861" lon="4.77697">
        <ele>178</ele>
        <time>2018-06-12T09:16:35Z</time>
      </trkpt>
      <trkpt lat="45.90859" lon="4.77695">
        <ele>178</ele>
        <time>2018-06-12T09:16:36Z</time>
      </trkpt>
      <trkpt lat="45.90852" lon="4.77689">
        <ele>178</ele>
        <time>2018-06-12T09:16:39Z</time>
      </trkpt>
      <trkpt lat="45.90849" lon="4.77686">
        <ele>178</ele>
        <time>2018-06-12T09:16:40Z</time>
      </trkpt>
      <trkpt lat="45.90843" lon="4.77682">
        <ele>178</ele>
        <time>2018-06-12T09:16:42Z</time>
      </trkpt>
      <trkpt lat="45.9084" lon="4.77681">
        <ele>178</ele>
        <time>2018-06-12T09:16:43Z</time>
      </trkpt>
      <trkpt lat="45.90832" lon="4.77676">
        <ele>179</ele>
        <time>2018-06-12T09:16:46Z</time>
      </trkpt>
      <trkpt lat="45.90829" lon="4.77675">
        <ele>179</ele>
        <time>2018-06-12T09:16:47Z</time>
      </trkpt>
      <trkpt lat="45.90824" lon="4.77672">
        <ele>179</ele>
        <time>2018-06-12T09:16:49Z</time>
      </trkpt>
      <trkpt lat="45.90821" lon="4.77671">
        <ele>179</ele>
        <time>2018-06-12T09:16:50Z</time>
      </trkpt>
      <trkpt lat="45.90812" lon="4.77669">
        <ele>179</ele>
        <time>2018-06-12T09:16:51Z</time>
      </trkpt>
      <trkpt lat="45.90804" lon="4.77666">
        <ele>179</ele>
        <time>2018-06-12T09:16:53Z</time>
      </trkpt>
      <trkpt lat="45.90799" lon="4.77666">
        <ele>179</ele>
        <time>2018-06-12T09:16:54Z</time>
      </trkpt>
      <trkpt lat="45.90791" lon="4.77663">
        <ele>179</ele>
        <time>2018-06-12T09:16:56Z</time>
      </trkpt>
      <trkpt lat="45.90786" lon="4.77661">
        <ele>179</ele>
        <time>2018-06-12T09:16:57Z</time>
      </trkpt>
      <trkpt lat="45.90778" lon="4.77658">
        <ele>180</ele>
        <time>2018-06-12T09:16:59Z</time>
      </trkpt>
      <trkpt lat="45.90774" lon="4.77657">
        <ele>180</ele>
        <time>2018-06-12T09:17:00Z</time>
      </trkpt>
      <trkpt lat="45.90765" lon="4.77654">
        <ele>180</ele>
        <time>2018-06-12T09:17:02Z</time>
      </trkpt>
      <trkpt lat="45.90762" lon="4.77652">
        <ele>180</ele>
        <time>2018-06-12T09:17:03Z</time>
      </trkpt>
      <trkpt lat="45.90758" lon="4.77648">
        <ele>180</ele>
        <time>2018-06-12T09:17:04Z</time>
      </trkpt>
      <trkpt lat="45.90754" lon="4.77644">
        <ele>180</ele>
        <time>2018-06-12T09:17:05Z</time>
      </trkpt>
      <trkpt lat="45.90745" lon="4.77643">
        <ele>180</ele>
        <time>2018-06-12T09:17:07Z</time>
      </trkpt>
      <trkpt lat="45.90739" lon="4.77642">
        <ele>180</ele>
        <time>2018-06-12T09:17:08Z</time>
      </trkpt>
      <trkpt lat="45.90734" lon="4.77643">
        <ele>180</ele>
        <time>2018-06-12T09:17:09Z</time>
      </trkpt>
      <trkpt lat="45.90729" lon="4.77642">
        <ele>180</ele>
        <time>2018-06-12T09:17:10Z</time>
      </trkpt>
      <trkpt lat="45.90723" lon="4.77641">
        <ele>180</ele>
        <time>2018-06-12T09:17:11Z</time>
      </trkpt>
      <trkpt lat="45.90718" lon="4.7764">
        <ele>180</ele>
        <time>2018-06-12T09:17:12Z</time>
      </trkpt>
      <trkpt lat="45.90713" lon="4.77639">
        <ele>179</ele>
        <time>2018-06-12T09:17:13Z</time>
      </trkpt>
      <trkpt lat="45.90707" lon="4.77637">
        <ele>179</ele>
        <time>2018-06-12T09:17:14Z</time>
      </trkpt>
      <trkpt lat="45.90702" lon="4.77635">
        <ele>179</ele>
        <time>2018-06-12T09:17:15Z</time>
      </trkpt>
      <trkpt lat="45.90697" lon="4.77633">
        <ele>179</ele>
        <time>2018-06-12T09:17:16Z</time>
      </trkpt>
      <trkpt lat="45.90691" lon="4.77631">
        <ele>179</ele>
        <time>2018-06-12T09:17:17Z</time>
      </trkpt>
      <trkpt lat="45.90684" lon="4.7763">
        <ele>179</ele>
        <time>2018-06-12T09:17:18Z</time>
      </trkpt>
      <trkpt lat="45.90679" lon="4.77629">
        <ele>179</ele>
        <time>2018-06-12T09:17:19Z</time>
      </trkpt>
      <trkpt lat="45.90673" lon="4.77629">
        <ele>179</ele>
        <time>2018-06-12T09:17:20Z</time>
      </trkpt>
      <trkpt lat="45.90666" lon="4.77627">
        <ele>179</ele>
        <time>2018-06-12T09:17:21Z</time>
      </trkpt>
      <trkpt lat="45.9066" lon="4.77626">
        <ele>179</ele>
        <time>2018-06-12T09:17:22Z</time>
      </trkpt>
      <trkpt lat="45.90653" lon="4.77625">
        <ele>179</ele>
        <time>2018-06-12T09:17:23Z</time>
      </trkpt>
      <trkpt lat="45.90647" lon="4.77623">
        <ele>179</ele>
        <time>2018-06-12T09:17:24Z</time>
      </trkpt>
      <trkpt lat="45.9064" lon="4.77624">
        <ele>179</ele>
        <time>2018-06-12T09:17:25Z</time>
      </trkpt>
      <trkpt lat="45.90633" lon="4.77623">
        <ele>179</ele>
        <time>2018-06-12T09:17:26Z</time>
      </trkpt>
      <trkpt lat="45.90627" lon="4.77624">
        <ele>179</ele>
        <time>2018-06-12T09:17:27Z</time>
      </trkpt>
      <trkpt lat="45.9062" lon="4.77624">
        <ele>179</ele>
        <time>2018-06-12T09:17:28Z</time>
      </trkpt>
      <trkpt lat="45.90613" lon="4.77624">
        <ele>179</ele>
        <time>2018-06-12T09:17:29Z</time>
      </trkpt>
      <trkpt lat="45.90606" lon="4.77625">
        <ele>179</ele>
        <time>2018-06-12T09:17:30Z</time>
      </trkpt>
      <trkpt lat="45.90599" lon="4.77628">
        <ele>179</ele>
        <time>2018-06-12T09:17:31Z</time>
      </trkpt>
      <trkpt lat="45.90591" lon="4.77629">
        <ele>179</ele>
        <time>2018-06-12T09:17:32Z</time>
      </trkpt>
      <trkpt lat="45.90585" lon="4.7763">
        <ele>179</ele>
        <time>2018-06-12T09:17:33Z</time>
      </trkpt>
      <trkpt lat="45.90578" lon="4.77631">
        <ele>178</ele>
        <time>2018-06-12T09:17:34Z</time>
      </trkpt>
      <trkpt lat="45.90571" lon="4.77632">
        <ele>178</ele>
        <time>2018-06-12T09:17:35Z</time>
      </trkpt>
      <trkpt lat="45.90564" lon="4.77633">
        <ele>178</ele>
        <time>2018-06-12T09:17:36Z</time>
      </trkpt>
      <trkpt lat="45.90557" lon="4.77634">
        <ele>178</ele>
        <time>2018-06-12T09:17:37Z</time>
      </trkpt>
      <trkpt lat="45.90551" lon="4.77634">
        <ele>178</ele>
        <time>2018-06-12T09:17:38Z</time>
      </trkpt>
      <trkpt lat="45.90543" lon="4.77634">
        <ele>178</ele>
        <time>2018-06-12T09:17:39Z</time>
      </trkpt>
      <trkpt lat="45.90536" lon="4.77634">
        <ele>178</ele>
        <time>2018-06-12T09:17:40Z</time>
      </trkpt>
      <trkpt lat="45.90531" lon="4.77636">
        <ele>178</ele>
        <time>2018-06-12T09:17:41Z</time>
      </trkpt>
      <trkpt lat="45.90525" lon="4.77637">
        <ele>178</ele>
        <time>2018-06-12T09:17:42Z</time>
      </trkpt>
      <trkpt lat="45.90518" lon="4.77639">
        <ele>178</ele>
        <time>2018-06-12T09:17:43Z</time>
      </trkpt>
      <trkpt lat="45.90512" lon="4.7764">
        <ele>178</ele>
        <time>2018-06-12T09:17:44Z</time>
      </trkpt>
      <trkpt lat="45.90506" lon="4.7764">
        <ele>178</ele>
        <time>2018-06-12T09:17:45Z</time>
      </trkpt>
      <trkpt lat="45.905" lon="4.77643">
        <ele>179</ele>
        <time>2018-06-12T09:17:46Z</time>
      </trkpt>
      <trkpt lat="45.90494" lon="4.77644">
        <ele>179</ele>
        <time>2018-06-12T09:17:47Z</time>
      </trkpt>
      <trkpt lat="45.90488" lon="4.77643">
        <ele>179</ele>
        <time>2018-06-12T09:17:48Z</time>
      </trkpt>
      <trkpt lat="45.90482" lon="4.77644">
        <ele>179</ele>
        <time>2018-06-12T09:17:49Z</time>
      </trkpt>
      <trkpt lat="45.90476" lon="4.77646">
        <ele>179</ele>
        <time>2018-06-12T09:17:50Z</time>
      </trkpt>
      <trkpt lat="45.9047" lon="4.77648">
        <ele>179</ele>
        <time>2018-06-12T09:17:51Z</time>
      </trkpt>
      <trkpt lat="45.90463" lon="4.77648">
        <ele>179</ele>
        <time>2018-06-12T09:17:52Z</time>
      </trkpt>
      <trkpt lat="45.90457" lon="4.77648">
        <ele>179</ele>
        <time>2018-06-12T09:17:53Z</time>
      </trkpt>
      <trkpt lat="45.9045" lon="4.77649">
        <ele>179</ele>
        <time>2018-06-12T09:17:54Z</time>
      </trkpt>
      <trkpt lat="45.90444" lon="4.7765">
        <ele>179</ele>
        <time>2018-06-12T09:17:55Z</time>
      </trkpt>
      <trkpt lat="45.90438" lon="4.77651">
        <ele>180</ele>
        <time>2018-06-12T09:17:56Z</time>
      </trkpt>
      <trkpt lat="45.90432" lon="4.77652">
        <ele>180</ele>
        <time>2018-06-12T09:17:57Z</time>
      </trkpt>
      <trkpt lat="45.90427" lon="4.77653">
        <ele>180</ele>
        <time>2018-06-12T09:17:58Z</time>
      </trkpt>
      <trkpt lat="45.90422" lon="4.77653">
        <ele>180</ele>
        <time>2018-06-12T09:17:59Z</time>
      </trkpt>
      <trkpt lat="45.90418" lon="4.77654">
        <ele>180</ele>
        <time>2018-06-12T09:18:00Z</time>
      </trkpt>
      <trkpt lat="45.90412" lon="4.77655">
        <ele>181</ele>
        <time>2018-06-12T09:18:01Z</time>
      </trkpt>
      <trkpt lat="45.90407" lon="4.77654">
        <ele>181</ele>
        <time>2018-06-12T09:18:02Z</time>
      </trkpt>
      <trkpt lat="45.90401" lon="4.77654">
        <ele>181</ele>
        <time>2018-06-12T09:18:03Z</time>
      </trkpt>
      <trkpt lat="45.90397" lon="4.77658">
        <ele>181</ele>
        <time>2018-06-12T09:18:04Z</time>
      </trkpt>
      <trkpt lat="45.90392" lon="4.77658">
        <ele>181</ele>
        <time>2018-06-12T09:18:05Z</time>
      </trkpt>
      <trkpt lat="45.90387" lon="4.77658">
        <ele>181</ele>
        <time>2018-06-12T09:18:06Z</time>
      </trkpt>
      <trkpt lat="45.90383" lon="4.7766">
        <ele>181</ele>
        <time>2018-06-12T09:18:07Z</time>
      </trkpt>
      <trkpt lat="45.90377" lon="4.77661">
        <ele>181</ele>
        <time>2018-06-12T09:18:08Z</time>
      </trkpt>
      <trkpt lat="45.90372" lon="4.77661">
        <ele>181</ele>
        <time>2018-06-12T09:18:09Z</time>
      </trkpt>
      <trkpt lat="45.90367" lon="4.77663">
        <ele>181</ele>
        <time>2018-06-12T09:18:10Z</time>
      </trkpt>
      <trkpt lat="45.90362" lon="4.77663">
        <ele>181</ele>
        <time>2018-06-12T09:18:11Z</time>
      </trkpt>
      <trkpt lat="45.90358" lon="4.77664">
        <ele>181</ele>
        <time>2018-06-12T09:18:12Z</time>
      </trkpt>
      <trkpt lat="45.90349" lon="4.77665">
        <ele>181</ele>
        <time>2018-06-12T09:18:14Z</time>
      </trkpt>
      <trkpt lat="45.90344" lon="4.77665">
        <ele>181</ele>
        <time>2018-06-12T09:18:15Z</time>
      </trkpt>
      <trkpt lat="45.90338" lon="4.77664">
        <ele>182</ele>
        <time>2018-06-12T09:18:16Z</time>
      </trkpt>
      <trkpt lat="45.90334" lon="4.77664">
        <ele>182</ele>
        <time>2018-06-12T09:18:17Z</time>
      </trkpt>
      <trkpt lat="45.90329" lon="4.77665">
        <ele>182</ele>
        <time>2018-06-12T09:18:18Z</time>
      </trkpt>
      <trkpt lat="45.90324" lon="4.77665">
        <ele>182</ele>
        <time>2018-06-12T09:18:19Z</time>
      </trkpt>
      <trkpt lat="45.90319" lon="4.77666">
        <ele>182</ele>
        <time>2018-06-12T09:18:20Z</time>
      </trkpt>
      <trkpt lat="45.90314" lon="4.7767">
        <ele>182</ele>
        <time>2018-06-12T09:18:21Z</time>
      </trkpt>
      <trkpt lat="45.90309" lon="4.77673">
        <ele>182</ele>
        <time>2018-06-12T09:18:22Z</time>
      </trkpt>
      <trkpt lat="45.90304" lon="4.77674">
        <ele>182</ele>
        <time>2018-06-12T09:18:23Z</time>
      </trkpt>
      <trkpt lat="45.90299" lon="4.77673">
        <ele>182</ele>
        <time>2018-06-12T09:18:24Z</time>
      </trkpt>
      <trkpt lat="45.90294" lon="4.77674">
        <ele>182</ele>
        <time>2018-06-12T09:18:25Z</time>
      </trkpt>
      <trkpt lat="45.90288" lon="4.77674">
        <ele>182</ele>
        <time>2018-06-12T09:18:26Z</time>
      </trkpt>
      <trkpt lat="45.90283" lon="4.77673">
        <ele>182</ele>
        <time>2018-06-12T09:18:27Z</time>
      </trkpt>
      <trkpt lat="45.90278" lon="4.77673">
        <ele>182</ele>
        <time>2018-06-12T09:18:28Z</time>
      </trkpt>
      <trkpt lat="45.90273" lon="4.77672">
        <ele>182</ele>
        <time>2018-06-12T09:18:29Z</time>
      </trkpt>
      <trkpt lat="45.90267" lon="4.77673">
        <ele>182</ele>
        <time>2018-06-12T09:18:30Z</time>
      </trkpt>
      <trkpt lat="45.90262" lon="4.77673">
        <ele>182</ele>
        <time>2018-06-12T09:18:31Z</time>
      </trkpt>
      <trkpt lat="45.90257" lon="4.77672">
        <ele>182</ele>
        <time>2018-06-12T09:18:32Z</time>
      </trkpt>
      <trkpt lat="45.90252" lon="4.77673">
        <ele>182</ele>
        <time>2018-06-12T09:18:33Z</time>
      </trkpt>
      <trkpt lat="45.90246" lon="4.77672">
        <ele>183</ele>
        <time>2018-06-12T09:18:34Z</time>
      </trkpt>
      <trkpt lat="45.90241" lon="4.77671">
        <ele>183</ele>
        <time>2018-06-12T09:18:35Z</time>
      </trkpt>
      <trkpt lat="45.90236" lon="4.77671">
        <ele>183</ele>
        <time>2018-06-12T09:18:36Z</time>
      </trkpt>
      <trkpt lat="45.90231" lon="4.77671">
        <ele>183</ele>
        <time>2018-06-12T09:18:37Z</time>
      </trkpt>
      <trkpt lat="45.90226" lon="4.7767">
        <ele>184</ele>
        <time>2018-06-12T09:18:38Z</time>
      </trkpt>
      <trkpt lat="45.9022" lon="4.77672">
        <ele>184</ele>
        <time>2018-06-12T09:18:39Z</time>
      </trkpt>
      <trkpt lat="45.90216" lon="4.77674">
        <ele>184</ele>
        <time>2018-06-12T09:18:40Z</time>
      </trkpt>
      <trkpt lat="45.90211" lon="4.77675">
        <ele>184</ele>
        <time>2018-06-12T09:18:41Z</time>
      </trkpt>
      <trkpt lat="45.90206" lon="4.77675">
        <ele>184</ele>
        <time>2018-06-12T09:18:42Z</time>
      </trkpt>
      <trkpt lat="45.902" lon="4.77675">
        <ele>184</ele>
        <time>2018-06-12T09:18:43Z</time>
      </trkpt>
      <trkpt lat="45.90195" lon="4.77674">
        <ele>184</ele>
        <time>2018-06-12T09:18:44Z</time>
      </trkpt>
      <trkpt lat="45.9019" lon="4.77674">
        <ele>185</ele>
        <time>2018-06-12T09:18:45Z</time>
      </trkpt>
      <trkpt lat="45.90184" lon="4.77679">
        <ele>185</ele>
        <time>2018-06-12T09:18:46Z</time>
      </trkpt>
      <trkpt lat="45.90179" lon="4.77679">
        <ele>185</ele>
        <time>2018-06-12T09:18:47Z</time>
      </trkpt>
      <trkpt lat="45.90174" lon="4.7768">
        <ele>185</ele>
        <time>2018-06-12T09:18:48Z</time>
      </trkpt>
      <trkpt lat="45.90169" lon="4.77679">
        <ele>185</ele>
        <time>2018-06-12T09:18:49Z</time>
      </trkpt>
      <trkpt lat="45.90165" lon="4.77678">
        <ele>185</ele>
        <time>2018-06-12T09:18:50Z</time>
      </trkpt>
      <trkpt lat="45.90159" lon="4.77677">
        <ele>185</ele>
        <time>2018-06-12T09:18:51Z</time>
      </trkpt>
      <trkpt lat="45.90154" lon="4.77677">
        <ele>185</ele>
        <time>2018-06-12T09:18:52Z</time>
      </trkpt>
      <trkpt lat="45.90148" lon="4.77677">
        <ele>185</ele>
        <time>2018-06-12T09:18:53Z</time>
      </trkpt>
      <trkpt lat="45.90143" lon="4.77677">
        <ele>185</ele>
        <time>2018-06-12T09:18:54Z</time>
      </trkpt>
      <trkpt lat="45.90138" lon="4.77678">
        <ele>185</ele>
        <time>2018-06-12T09:18:55Z</time>
      </trkpt>
      <trkpt lat="45.90132" lon="4.77679">
        <ele>185</ele>
        <time>2018-06-12T09:18:56Z</time>
      </trkpt>
      <trkpt lat="45.90126" lon="4.77678">
        <ele>185</ele>
        <time>2018-06-12T09:18:57Z</time>
      </trkpt>
      <trkpt lat="45.90121" lon="4.77678">
        <ele>184</ele>
        <time>2018-06-12T09:18:58Z</time>
      </trkpt>
      <trkpt lat="45.90116" lon="4.77678">
        <ele>184</ele>
        <time>2018-06-12T09:18:59Z</time>
      </trkpt>
      <trkpt lat="45.9011" lon="4.77678">
        <ele>184</ele>
        <time>2018-06-12T09:19:00Z</time>
      </trkpt>
      <trkpt lat="45.90105" lon="4.77677">
        <ele>184</ele>
        <time>2018-06-12T09:19:01Z</time>
      </trkpt>
      <trkpt lat="45.90098" lon="4.77679">
        <ele>184</ele>
        <time>2018-06-12T09:19:02Z</time>
      </trkpt>
      <trkpt lat="45.90093" lon="4.77679">
        <ele>184</ele>
        <time>2018-06-12T09:19:03Z</time>
      </trkpt>
      <trkpt lat="45.90087" lon="4.77678">
        <ele>184</ele>
        <time>2018-06-12T09:19:04Z</time>
      </trkpt>
      <trkpt lat="45.90082" lon="4.77677">
        <ele>184</ele>
        <time>2018-06-12T09:19:05Z</time>
      </trkpt>
      <trkpt lat="45.90076" lon="4.77675">
        <ele>184</ele>
        <time>2018-06-12T09:19:06Z</time>
      </trkpt>
      <trkpt lat="45.90071" lon="4.77674">
        <ele>184</ele>
        <time>2018-06-12T09:19:07Z</time>
      </trkpt>
      <trkpt lat="45.90065" lon="4.77674">
        <ele>184</ele>
        <time>2018-06-12T09:19:08Z</time>
      </trkpt>
      <trkpt lat="45.9006" lon="4.77674">
        <ele>184</ele>
        <time>2018-06-12T09:19:09Z</time>
      </trkpt>
      <trkpt lat="45.90055" lon="4.77673">
        <ele>184</ele>
        <time>2018-06-12T09:19:10Z</time>
      </trkpt>
      <trkpt lat="45.9005" lon="4.77674">
        <ele>184</ele>
        <time>2018-06-12T09:19:11Z</time>
      </trkpt>
      <trkpt lat="45.90045" lon="4.77674">
        <ele>185</ele>
        <time>2018-06-12T09:19:12Z</time>
      </trkpt>
      <trkpt lat="45.90039" lon="4.77673">
        <ele>185</ele>
        <time>2018-06-12T09:19:13Z</time>
      </trkpt>
      <trkpt lat="45.90034" lon="4.77673">
        <ele>185</ele>
        <time>2018-06-12T09:19:14Z</time>
      </trkpt>
      <trkpt lat="45.90029" lon="4.77672">
        <ele>185</ele>
        <time>2018-06-12T09:19:15Z</time>
      </trkpt>
      <trkpt lat="45.90023" lon="4.77672">
        <ele>185</ele>
        <time>2018-06-12T09:19:16Z</time>
      </trkpt>
      <trkpt lat="45.90018" lon="4.77673">
        <ele>185</ele>
        <time>2018-06-12T09:19:17Z</time>
      </trkpt>
      <trkpt lat="45.90013" lon="4.77672">
        <ele>185</ele>
        <time>2018-06-12T09:19:18Z</time>
      </trkpt>
      <trkpt lat="45.90008" lon="4.77671">
        <ele>186</ele>
        <time>2018-06-12T09:19:19Z</time>
      </trkpt>
      <trkpt lat="45.90002" lon="4.77674">
        <ele>186</ele>
        <time>2018-06-12T09:19:20Z</time>
      </trkpt>
      <trkpt lat="45.89997" lon="4.77673">
        <ele>186</ele>
        <time>2018-06-12T09:19:21Z</time>
      </trkpt>
      <trkpt lat="45.89992" lon="4.77672">
        <ele>186</ele>
        <time>2018-06-12T09:19:22Z</time>
      </trkpt>
      <trkpt lat="45.89987" lon="4.77672">
        <ele>186</ele>
        <time>2018-06-12T09:19:23Z</time>
      </trkpt>
      <trkpt lat="45.89982" lon="4.77672">
        <ele>187</ele>
        <time>2018-06-12T09:19:24Z</time>
      </trkpt>
      <trkpt lat="45.89976" lon="4.7767">
        <ele>187</ele>
        <time>2018-06-12T09:19:25Z</time>
      </trkpt>
      <trkpt lat="45.89972" lon="4.77669">
        <ele>187</ele>
        <time>2018-06-12T09:19:26Z</time>
      </trkpt>
      <trkpt lat="45.89966" lon="4.77668">
        <ele>187</ele>
        <time>2018-06-12T09:19:27Z</time>
      </trkpt>
      <trkpt lat="45.89961" lon="4.77668">
        <ele>187</ele>
        <time>2018-06-12T09:19:28Z</time>
      </trkpt>
      <trkpt lat="45.89955" lon="4.77667">
        <ele>187</ele>
        <time>2018-06-12T09:19:29Z</time>
      </trkpt>
      <trkpt lat="45.8995" lon="4.77667">
        <ele>187</ele>
        <time>2018-06-12T09:19:30Z</time>
      </trkpt>
      <trkpt lat="45.89944" lon="4.77667">
        <ele>187</ele>
        <time>2018-06-12T09:19:31Z</time>
      </trkpt>
      <trkpt lat="45.89939" lon="4.77669">
        <ele>187</ele>
        <time>2018-06-12T09:19:32Z</time>
      </trkpt>
      <trkpt lat="45.89932" lon="4.77668">
        <ele>187</ele>
        <time>2018-06-12T09:19:33Z</time>
      </trkpt>
      <trkpt lat="45.89928" lon="4.77667">
        <ele>186</ele>
        <time>2018-06-12T09:19:34Z</time>
      </trkpt>
      <trkpt lat="45.89922" lon="4.77666">
        <ele>187</ele>
        <time>2018-06-12T09:19:35Z</time>
      </trkpt>
      <trkpt lat="45.89917" lon="4.77667">
        <ele>187</ele>
        <time>2018-06-12T09:19:36Z</time>
      </trkpt>
      <trkpt lat="45.89913" lon="4.77667">
        <ele>187</ele>
        <time>2018-06-12T09:19:37Z</time>
      </trkpt>
      <trkpt lat="45.89908" lon="4.77669">
        <ele>188</ele>
        <time>2018-06-12T09:19:38Z</time>
      </trkpt>
      <trkpt lat="45.89902" lon="4.77669">
        <ele>188</ele>
        <time>2018-06-12T09:19:39Z</time>
      </trkpt>
      <trkpt lat="45.89897" lon="4.77668">
        <ele>188</ele>
        <time>2018-06-12T09:19:40Z</time>
      </trkpt>
      <trkpt lat="45.89892" lon="4.77668">
        <ele>188</ele>
        <time>2018-06-12T09:19:41Z</time>
      </trkpt>
      <trkpt lat="45.89887" lon="4.77668">
        <ele>189</ele>
        <time>2018-06-12T09:19:42Z</time>
      </trkpt>
      <trkpt lat="45.89882" lon="4.77667">
        <ele>189</ele>
        <time>2018-06-12T09:19:43Z</time>
      </trkpt>
      <trkpt lat="45.89877" lon="4.77667">
        <ele>189</ele>
        <time>2018-06-12T09:19:44Z</time>
      </trkpt>
      <trkpt lat="45.89873" lon="4.77667">
        <ele>189</ele>
        <time>2018-06-12T09:19:45Z</time>
      </trkpt>
      <trkpt lat="45.89868" lon="4.77667">
        <ele>189</ele>
        <time>2018-06-12T09:19:46Z</time>
      </trkpt>
      <trkpt lat="45.89863" lon="4.77667">
        <ele>189</ele>
        <time>2018-06-12T09:19:47Z</time>
      </trkpt>
      <trkpt lat="45.89857" lon="4.77665">
        <ele>187</ele>
        <time>2018-06-12T09:19:48Z</time>
      </trkpt>
      <trkpt lat="45.89852" lon="4.77663">
        <ele>187</ele>
        <time>2018-06-12T09:19:49Z</time>
      </trkpt>
      <trkpt lat="45.89844" lon="4.77664">
        <ele>188</ele>
        <time>2018-06-12T09:19:51Z</time>
      </trkpt>
      <trkpt lat="45.89839" lon="4.77664">
        <ele>188</ele>
        <time>2018-06-12T09:19:52Z</time>
      </trkpt>
      <trkpt lat="45.89832" lon="4.77667">
        <ele>189</ele>
        <time>2018-06-12T09:19:54Z</time>
      </trkpt>
      <trkpt lat="45.89827" lon="4.77664">
        <ele>189</ele>
        <time>2018-06-12T09:19:55Z</time>
      </trkpt>
      <trkpt lat="45.89819" lon="4.77665">
        <ele>189</ele>
        <time>2018-06-12T09:19:57Z</time>
      </trkpt>
      <trkpt lat="45.89816" lon="4.77669">
        <ele>190</ele>
        <time>2018-06-12T09:19:58Z</time>
      </trkpt>
      <trkpt lat="45.89808" lon="4.77669">
        <ele>190</ele>
        <time>2018-06-12T09:20:00Z</time>
      </trkpt>
      <trkpt lat="45.89805" lon="4.77669">
        <ele>190</ele>
        <time>2018-06-12T09:20:01Z</time>
      </trkpt>
      <trkpt lat="45.89797" lon="4.77668">
        <ele>191</ele>
        <time>2018-06-12T09:20:04Z</time>
      </trkpt>
      <trkpt lat="45.89794" lon="4.77668">
        <ele>191</ele>
        <time>2018-06-12T09:20:05Z</time>
      </trkpt>
      <trkpt lat="45.89786" lon="4.77666">
        <ele>189</ele>
        <time>2018-06-12T09:20:08Z</time>
      </trkpt>
      <trkpt lat="45.89783" lon="4.77666">
        <ele>189</ele>
        <time>2018-06-12T09:20:09Z</time>
      </trkpt>
      <trkpt lat="45.89776" lon="4.77665">
        <ele>189</ele>
        <time>2018-06-12T09:20:11Z</time>
      </trkpt>
      <trkpt lat="45.89773" lon="4.77665">
        <ele>190</ele>
        <time>2018-06-12T09:20:12Z</time>
      </trkpt>
      <trkpt lat="45.89764" lon="4.77664">
        <ele>190</ele>
        <time>2018-06-12T09:20:15Z</time>
      </trkpt>
      <trkpt lat="45.89755" lon="4.77662">
        <ele>191</ele>
        <time>2018-06-12T09:20:16Z</time>
      </trkpt>
      <trkpt lat="45.89748" lon="4.7766">
        <ele>191</ele>
        <time>2018-06-12T09:20:18Z</time>
      </trkpt>
      <trkpt lat="45.89744" lon="4.77658">
        <ele>191</ele>
        <time>2018-06-12T09:20:19Z</time>
      </trkpt>
      <trkpt lat="45.89736" lon="4.77655">
        <ele>191</ele>
        <time>2018-06-12T09:20:21Z</time>
      </trkpt>
      <trkpt lat="45.89732" lon="4.77654">
        <ele>191</ele>
        <time>2018-06-12T09:20:22Z</time>
      </trkpt>
      <trkpt lat="45.89724" lon="4.77654">
        <ele>190</ele>
        <time>2018-06-12T09:20:24Z</time>
      </trkpt>
      <trkpt lat="45.8972" lon="4.77653">
        <ele>190</ele>
        <time>2018-06-12T09:20:25Z</time>
      </trkpt>
      <trkpt lat="45.89716" lon="4.77655">
        <ele>190</ele>
        <time>2018-06-12T09:20:26Z</time>
      </trkpt>
      <trkpt lat="45.8971" lon="4.77655">
        <ele>190</ele>
        <time>2018-06-12T09:20:27Z</time>
      </trkpt>
      <trkpt lat="45.89705" lon="4.77654">
        <ele>190</ele>
        <time>2018-06-12T09:20:28Z</time>
      </trkpt>
      <trkpt lat="45.89701" lon="4.77653">
        <ele>190</ele>
        <time>2018-06-12T09:20:29Z</time>
      </trkpt>
      <trkpt lat="45.89692" lon="4.77652">
        <ele>190</ele>
        <time>2018-06-12T09:20:31Z</time>
      </trkpt>
      <trkpt lat="45.89688" lon="4.77652">
        <ele>190</ele>
        <time>2018-06-12T09:20:32Z</time>
      </trkpt>
      <trkpt lat="45.89683" lon="4.77649">
        <ele>190</ele>
        <time>2018-06-12T09:20:33Z</time>
      </trkpt>
      <trkpt lat="45.89678" lon="4.77647">
        <ele>190</ele>
        <time>2018-06-12T09:20:34Z</time>
      </trkpt>
      <trkpt lat="45.89673" lon="4.77647">
        <ele>190</ele>
        <time>2018-06-12T09:20:35Z</time>
      </trkpt>
      <trkpt lat="45.89668" lon="4.77645">
        <ele>190</ele>
        <time>2018-06-12T09:20:36Z</time>
      </trkpt>
      <trkpt lat="45.89664" lon="4.77644">
        <ele>190</ele>
        <time>2018-06-12T09:20:37Z</time>
      </trkpt>
      <trkpt lat="45.89659" lon="4.77643">
        <ele>190</ele>
        <time>2018-06-12T09:20:38Z</time>
      </trkpt>
      <trkpt lat="45.89653" lon="4.77643">
        <ele>190</ele>
        <time>2018-06-12T09:20:39Z</time>
      </trkpt>
      <trkpt lat="45.89649" lon="4.77642">
        <ele>190</ele>
        <time>2018-06-12T09:20:40Z</time>
      </trkpt>
      <trkpt lat="45.89641" lon="4.77641">
        <ele>190</ele>
        <time>2018-06-12T09:20:42Z</time>
      </trkpt>
      <trkpt lat="45.89636" lon="4.7764">
        <ele>190</ele>
        <time>2018-06-12T09:20:43Z</time>
      </trkpt>
      <trkpt lat="45.89628" lon="4.77637">
        <ele>191</ele>
        <time>2018-06-12T09:20:45Z</time>
      </trkpt>
      <trkpt lat="45.89625" lon="4.77636">
        <ele>191</ele>
        <time>2018-06-12T09:20:46Z</time>
      </trkpt>
      <trkpt lat="45.89619" lon="4.77635">
        <ele>191</ele>
        <time>2018-06-12T09:20:47Z</time>
      </trkpt>
      <trkpt lat="45.89615" lon="4.77634">
        <ele>191</ele>
        <time>2018-06-12T09:20:48Z</time>
      </trkpt>
      <trkpt lat="45.89606" lon="4.77635">
        <ele>191</ele>
        <time>2018-06-12T09:20:50Z</time>
      </trkpt>
      <trkpt lat="45.89601" lon="4.77634">
        <ele>191</ele>
        <time>2018-06-12T09:20:51Z</time>
      </trkpt>
      <trkpt lat="45.89597" lon="4.77633">
        <ele>191</ele>
        <time>2018-06-12T09:20:52Z</time>
      </trkpt>
      <trkpt lat="45.89592" lon="4.77631">
        <ele>191</ele>
        <time>2018-06-12T09:20:53Z</time>
      </trkpt>
      <trkpt lat="45.89588" lon="4.7763">
        <ele>191</ele>
        <time>2018-06-12T09:20:54Z</time>
      </trkpt>
      <trkpt lat="45.89583" lon="4.7763">
        <ele>192</ele>
        <time>2018-06-12T09:20:55Z</time>
      </trkpt>
      <trkpt lat="45.89577" lon="4.77631">
        <ele>192</ele>
        <time>2018-06-12T09:20:56Z</time>
      </trkpt>
      <trkpt lat="45.89572" lon="4.7763">
        <ele>192</ele>
        <time>2018-06-12T09:20:57Z</time>
      </trkpt>
      <trkpt lat="45.89566" lon="4.77629">
        <ele>192</ele>
        <time>2018-06-12T09:20:58Z</time>
      </trkpt>
      <trkpt lat="45.89561" lon="4.77628">
        <ele>192</ele>
        <time>2018-06-12T09:20:59Z</time>
      </trkpt>
      <trkpt lat="45.89556" lon="4.77627">
        <ele>192</ele>
        <time>2018-06-12T09:21:00Z</time>
      </trkpt>
      <trkpt lat="45.89552" lon="4.77625">
        <ele>192</ele>
        <time>2018-06-12T09:21:01Z</time>
      </trkpt>
      <trkpt lat="45.89546" lon="4.77625">
        <ele>192</ele>
        <time>2018-06-12T09:21:02Z</time>
      </trkpt>
      <trkpt lat="45.89541" lon="4.77625">
        <ele>192</ele>
        <time>2018-06-12T09:21:03Z</time>
      </trkpt>
      <trkpt lat="45.89537" lon="4.77623">
        <ele>192</ele>
        <time>2018-06-12T09:21:04Z</time>
      </trkpt>
      <trkpt lat="45.89532" lon="4.77624">
        <ele>192</ele>
        <time>2018-06-12T09:21:05Z</time>
      </trkpt>
      <trkpt lat="45.89527" lon="4.77623">
        <ele>192</ele>
        <time>2018-06-12T09:21:06Z</time>
      </trkpt>
      <trkpt lat="45.89523" lon="4.77621">
        <ele>192</ele>
        <time>2018-06-12T09:21:07Z</time>
      </trkpt>
      <trkpt lat="45.89517" lon="4.7762">
        <ele>192</ele>
        <time>2018-06-12T09:21:08Z</time>
      </trkpt>
      <trkpt lat="45.89511" lon="4.77619">
        <ele>192</ele>
        <time>2018-06-12T09:21:09Z</time>
      </trkpt>
      <trkpt lat="45.89506" lon="4.77618">
        <ele>192</ele>
        <time>2018-06-12T09:21:10Z</time>
      </trkpt>
      <trkpt lat="45.89501" lon="4.77616">
        <ele>192</ele>
        <time>2018-06-12T09:21:11Z</time>
      </trkpt>
      <trkpt lat="45.89494" lon="4.77616">
        <ele>193</ele>
        <time>2018-06-12T09:21:12Z</time>
      </trkpt>
      <trkpt lat="45.89489" lon="4.77613">
        <ele>193</ele>
        <time>2018-06-12T09:21:13Z</time>
      </trkpt>
      <trkpt lat="45.89484" lon="4.77611">
        <ele>193</ele>
        <time>2018-06-12T09:21:14Z</time>
      </trkpt>
      <trkpt lat="45.8948" lon="4.7761">
        <ele>193</ele>
        <time>2018-06-12T09:21:15Z</time>
      </trkpt>
      <trkpt lat="45.89475" lon="4.77608">
        <ele>193</ele>
        <time>2018-06-12T09:21:16Z</time>
      </trkpt>
      <trkpt lat="45.89471" lon="4.77607">
        <ele>193</ele>
        <time>2018-06-12T09:21:17Z</time>
      </trkpt>
      <trkpt lat="45.89462" lon="4.77605">
        <ele>193</ele>
        <time>2018-06-12T09:21:19Z</time>
      </trkpt>
      <trkpt lat="45.89457" lon="4.77604">
        <ele>193</ele>
        <time>2018-06-12T09:21:20Z</time>
      </trkpt>
      <trkpt lat="45.89453" lon="4.77601">
        <ele>193</ele>
        <time>2018-06-12T09:21:21Z</time>
      </trkpt>
      <trkpt lat="45.89448" lon="4.77599">
        <ele>193</ele>
        <time>2018-06-12T09:21:22Z</time>
      </trkpt>
      <trkpt lat="45.89443" lon="4.77597">
        <ele>193</ele>
        <time>2018-06-12T09:21:23Z</time>
      </trkpt>
      <trkpt lat="45.89438" lon="4.77595">
        <ele>193</ele>
        <time>2018-06-12T09:21:24Z</time>
      </trkpt>
      <trkpt lat="45.89431" lon="4.77592">
        <ele>194</ele>
        <time>2018-06-12T09:21:25Z</time>
      </trkpt>
      <trkpt lat="45.89426" lon="4.7759">
        <ele>194</ele>
        <time>2018-06-12T09:21:26Z</time>
      </trkpt>
      <trkpt lat="45.8942" lon="4.77588">
        <ele>194</ele>
        <time>2018-06-12T09:21:27Z</time>
      </trkpt>
      <trkpt lat="45.89416" lon="4.77585">
        <ele>194</ele>
        <time>2018-06-12T09:21:28Z</time>
      </trkpt>
      <trkpt lat="45.89411" lon="4.77583">
        <ele>194</ele>
        <time>2018-06-12T09:21:29Z</time>
      </trkpt>
      <trkpt lat="45.89406" lon="4.7758">
        <ele>194</ele>
        <time>2018-06-12T09:21:30Z</time>
      </trkpt>
      <trkpt lat="45.89401" lon="4.77577">
        <ele>194</ele>
        <time>2018-06-12T09:21:31Z</time>
      </trkpt>
      <trkpt lat="45.89397" lon="4.77575">
        <ele>194</ele>
        <time>2018-06-12T09:21:32Z</time>
      </trkpt>
      <trkpt lat="45.89392" lon="4.77573">
        <ele>194</ele>
        <time>2018-06-12T09:21:33Z</time>
      </trkpt>
      <trkpt lat="45.89387" lon="4.77571">
        <ele>194</ele>
        <time>2018-06-12T09:21:34Z</time>
      </trkpt>
      <trkpt lat="45.89381" lon="4.77568">
        <ele>194</ele>
        <time>2018-06-12T09:21:35Z</time>
      </trkpt>
      <trkpt lat="45.89376" lon="4.77566">
        <ele>194</ele>
        <time>2018-06-12T09:21:36Z</time>
      </trkpt>
      <trkpt lat="45.8937" lon="4.77563">
        <ele>194</ele>
        <time>2018-06-12T09:21:37Z</time>
      </trkpt>
      <trkpt lat="45.89365" lon="4.77561">
        <ele>194</ele>
        <time>2018-06-12T09:21:38Z</time>
      </trkpt>
      <trkpt lat="45.8936" lon="4.77558">
        <ele>194</ele>
        <time>2018-06-12T09:21:39Z</time>
      </trkpt>
      <trkpt lat="45.89355" lon="4.77556">
        <ele>194</ele>
        <time>2018-06-12T09:21:40Z</time>
      </trkpt>
      <trkpt lat="45.89351" lon="4.77552">
        <ele>194</ele>
        <time>2018-06-12T09:21:41Z</time>
      </trkpt>
      <trkpt lat="45.89346" lon="4.7755">
        <ele>194</ele>
        <time>2018-06-12T09:21:42Z</time>
      </trkpt>
      <trkpt lat="45.89341" lon="4.77547">
        <ele>194</ele>
        <time>2018-06-12T09:21:43Z</time>
      </trkpt>
      <trkpt lat="45.89336" lon="4.77545">
        <ele>194</ele>
        <time>2018-06-12T09:21:44Z</time>
      </trkpt>
      <trkpt lat="45.8933" lon="4.77543">
        <ele>194</ele>
        <time>2018-06-12T09:21:45Z</time>
      </trkpt>
      <trkpt lat="45.89324" lon="4.77542">
        <ele>194</ele>
        <time>2018-06-12T09:21:46Z</time>
      </trkpt>
      <trkpt lat="45.89319" lon="4.7754">
        <ele>194</ele>
        <time>2018-06-12T09:21:47Z</time>
      </trkpt>
      <trkpt lat="45.89314" lon="4.77539">
        <ele>194</ele>
        <time>2018-06-12T09:21:48Z</time>
      </trkpt>
      <trkpt lat="45.89309" lon="4.77537">
        <ele>194</ele>
        <time>2018-06-12T09:21:49Z</time>
      </trkpt>
      <trkpt lat="45.89304" lon="4.77535">
        <ele>194</ele>
        <time>2018-06-12T09:21:50Z</time>
      </trkpt>
      <trkpt lat="45.89299" lon="4.77533">
        <ele>194</ele>
        <time>2018-06-12T09:21:51Z</time>
      </trkpt>
      <trkpt lat="45.89294" lon="4.7753">
        <ele>194</ele>
        <time>2018-06-12T09:21:52Z</time>
      </trkpt>
      <trkpt lat="45.89289" lon="4.7753">
        <ele>193</ele>
        <time>2018-06-12T09:21:53Z</time>
      </trkpt>
      <trkpt lat="45.89284" lon="4.77528">
        <ele>193</ele>
        <time>2018-06-12T09:21:54Z</time>
      </trkpt>
      <trkpt lat="45.89279" lon="4.77526">
        <ele>193</ele>
        <time>2018-06-12T09:21:55Z</time>
      </trkpt>
      <trkpt lat="45.89273" lon="4.77526">
        <ele>193</ele>
        <time>2018-06-12T09:21:56Z</time>
      </trkpt>
      <trkpt lat="45.89266" lon="4.77524">
        <ele>193</ele>
        <time>2018-06-12T09:21:57Z</time>
      </trkpt>
      <trkpt lat="45.89262" lon="4.77523">
        <ele>193</ele>
        <time>2018-06-12T09:21:58Z</time>
      </trkpt>
      <trkpt lat="45.89255" lon="4.77522">
        <ele>193</ele>
        <time>2018-06-12T09:22:00Z</time>
      </trkpt>
      <trkpt lat="45.89251" lon="4.77522">
        <ele>193</ele>
        <time>2018-06-12T09:22:01Z</time>
      </trkpt>
      <trkpt lat="45.89246" lon="4.77522">
        <ele>193</ele>
        <time>2018-06-12T09:22:02Z</time>
      </trkpt>
      <trkpt lat="45.89241" lon="4.77523">
        <ele>193</ele>
        <time>2018-06-12T09:22:03Z</time>
      </trkpt>
      <trkpt lat="45.89232" lon="4.77522">
        <ele>193</ele>
        <time>2018-06-12T09:22:05Z</time>
      </trkpt>
      <trkpt lat="45.89227" lon="4.77522">
        <ele>194</ele>
        <time>2018-06-12T09:22:06Z</time>
      </trkpt>
      <trkpt lat="45.89222" lon="4.77523">
        <ele>194</ele>
        <time>2018-06-12T09:22:07Z</time>
      </trkpt>
      <trkpt lat="45.89215" lon="4.77525">
        <ele>194</ele>
        <time>2018-06-12T09:22:08Z</time>
      </trkpt>
      <trkpt lat="45.8921" lon="4.77526">
        <ele>194</ele>
        <time>2018-06-12T09:22:09Z</time>
      </trkpt>
      <trkpt lat="45.89204" lon="4.77527">
        <ele>194</ele>
        <time>2018-06-12T09:22:10Z</time>
      </trkpt>
      <trkpt lat="45.89198" lon="4.77529">
        <ele>194</ele>
        <time>2018-06-12T09:22:11Z</time>
      </trkpt>
      <trkpt lat="45.8919" lon="4.7753">
        <ele>194</ele>
        <time>2018-06-12T09:22:12Z</time>
      </trkpt>
      <trkpt lat="45.89184" lon="4.77531">
        <ele>194</ele>
        <time>2018-06-12T09:22:13Z</time>
      </trkpt>
      <trkpt lat="45.89179" lon="4.77532">
        <ele>194</ele>
        <time>2018-06-12T09:22:14Z</time>
      </trkpt>
      <trkpt lat="45.89173" lon="4.77534">
        <ele>194</ele>
        <time>2018-06-12T09:22:15Z</time>
      </trkpt>
      <trkpt lat="45.89168" lon="4.77536">
        <ele>194</ele>
        <time>2018-06-12T09:22:16Z</time>
      </trkpt>
      <trkpt lat="45.89162" lon="4.77537">
        <ele>195</ele>
        <time>2018-06-12T09:22:17Z</time>
      </trkpt>
      <trkpt lat="45.89157" lon="4.77538">
        <ele>195</ele>
        <time>2018-06-12T09:22:18Z</time>
      </trkpt>
      <trkpt lat="45.8915" lon="4.77542">
        <ele>195</ele>
        <time>2018-06-12T09:22:20Z</time>
      </trkpt>
      <trkpt lat="45.89145" lon="4.77544">
        <ele>195</ele>
        <time>2018-06-12T09:22:21Z</time>
      </trkpt>
      <trkpt lat="45.89141" lon="4.77546">
        <ele>195</ele>
        <time>2018-06-12T09:22:22Z</time>
      </trkpt>
      <trkpt lat="45.89136" lon="4.77548">
        <ele>195</ele>
        <time>2018-06-12T09:22:23Z</time>
      </trkpt>
      <trkpt lat="45.89131" lon="4.7755">
        <ele>195</ele>
        <time>2018-06-12T09:22:24Z</time>
      </trkpt>
      <trkpt lat="45.89126" lon="4.77553">
        <ele>195</ele>
        <time>2018-06-12T09:22:25Z</time>
      </trkpt>
      <trkpt lat="45.89121" lon="4.77555">
        <ele>195</ele>
        <time>2018-06-12T09:22:26Z</time>
      </trkpt>
      <trkpt lat="45.89116" lon="4.77556">
        <ele>195</ele>
        <time>2018-06-12T09:22:27Z</time>
      </trkpt>
      <trkpt lat="45.89107" lon="4.77559">
        <ele>195</ele>
        <time>2018-06-12T09:22:29Z</time>
      </trkpt>
      <trkpt lat="45.89103" lon="4.77562">
        <ele>196</ele>
        <time>2018-06-12T09:22:30Z</time>
      </trkpt>
      <trkpt lat="45.89098" lon="4.77564">
        <ele>196</ele>
        <time>2018-06-12T09:22:31Z</time>
      </trkpt>
      <trkpt lat="45.89094" lon="4.77567">
        <ele>196</ele>
        <time>2018-06-12T09:22:32Z</time>
      </trkpt>
      <trkpt lat="45.8909" lon="4.7757">
        <ele>196</ele>
        <time>2018-06-12T09:22:33Z</time>
      </trkpt>
      <trkpt lat="45.89086" lon="4.77574">
        <ele>196</ele>
        <time>2018-06-12T09:22:34Z</time>
      </trkpt>
      <trkpt lat="45.89078" lon="4.77579">
        <ele>196</ele>
        <time>2018-06-12T09:22:36Z</time>
      </trkpt>
      <trkpt lat="45.89074" lon="4.77582">
        <ele>196</ele>
        <time>2018-06-12T09:22:37Z</time>
      </trkpt>
      <trkpt lat="45.89069" lon="4.77587">
        <ele>196</ele>
        <time>2018-06-12T09:22:38Z</time>
      </trkpt>
      <trkpt lat="45.89066" lon="4.77592">
        <ele>196</ele>
        <time>2018-06-12T09:22:39Z</time>
      </trkpt>
      <trkpt lat="45.89061" lon="4.77596">
        <ele>197</ele>
        <time>2018-06-12T09:22:40Z</time>
      </trkpt>
      <trkpt lat="45.89057" lon="4.77599">
        <ele>197</ele>
        <time>2018-06-12T09:22:41Z</time>
      </trkpt>
      <trkpt lat="45.89053" lon="4.77603">
        <ele>197</ele>
        <time>2018-06-12T09:22:42Z</time>
      </trkpt>
      <trkpt lat="45.89048" lon="4.77607">
        <ele>197</ele>
        <time>2018-06-12T09:22:43Z</time>
      </trkpt>
      <trkpt lat="45.89044" lon="4.77612">
        <ele>197</ele>
        <time>2018-06-12T09:22:44Z</time>
      </trkpt>
      <trkpt lat="45.8904" lon="4.77615">
        <ele>197</ele>
        <time>2018-06-12T09:22:45Z</time>
      </trkpt>
      <trkpt lat="45.89034" lon="4.77619">
        <ele>197</ele>
        <time>2018-06-12T09:22:46Z</time>
      </trkpt>
      <trkpt lat="45.89031" lon="4.77623">
        <ele>197</ele>
        <time>2018-06-12T09:22:47Z</time>
      </trkpt>
      <trkpt lat="45.89026" lon="4.77629">
        <ele>197</ele>
        <time>2018-06-12T09:22:48Z</time>
      </trkpt>
      <trkpt lat="45.89022" lon="4.77632">
        <ele>197</ele>
        <time>2018-06-12T09:22:49Z</time>
      </trkpt>
      <trkpt lat="45.89018" lon="4.77636">
        <ele>197</ele>
        <time>2018-06-12T09:22:50Z</time>
      </trkpt>
      <trkpt lat="45.89013" lon="4.77638">
        <ele>197</ele>
        <time>2018-06-12T09:22:51Z</time>
      </trkpt>
      <trkpt lat="45.89009" lon="4.77642">
        <ele>197</ele>
        <time>2018-06-12T09:22:52Z</time>
      </trkpt>
      <trkpt lat="45.89004" lon="4.77645">
        <ele>197</ele>
        <time>2018-06-12T09:22:53Z</time>
      </trkpt>
      <trkpt lat="45.89" lon="4.77649">
        <ele>198</ele>
        <time>2018-06-12T09:22:54Z</time>
      </trkpt>
      <trkpt lat="45.88996" lon="4.77653">
        <ele>198</ele>
        <time>2018-06-12T09:22:55Z</time>
      </trkpt>
      <trkpt lat="45.88992" lon="4.77658">
        <ele>197</ele>
        <time>2018-06-12T09:22:56Z</time>
      </trkpt>
      <trkpt lat="45.88987" lon="4.77662">
        <ele>198</ele>
        <time>2018-06-12T09:22:57Z</time>
      </trkpt>
      <trkpt lat="45.88982" lon="4.77664">
        <ele>198</ele>
        <time>2018-06-12T09:22:58Z</time>
      </trkpt>
      <trkpt lat="45.88977" lon="4.77667">
        <ele>198</ele>
        <time>2018-06-12T09:22:59Z</time>
      </trkpt>
      <trkpt lat="45.88973" lon="4.77669">
        <ele>198</ele>
        <time>2018-06-12T09:23:00Z</time>
      </trkpt>
      <trkpt lat="45.88969" lon="4.77672">
        <ele>198</ele>
        <time>2018-06-12T09:23:01Z</time>
      </trkpt>
      <trkpt lat="45.88965" lon="4.77675">
        <ele>198</ele>
        <time>2018-06-12T09:23:02Z</time>
      </trkpt>
      <trkpt lat="45.88961" lon="4.77678">
        <ele>198</ele>
        <time>2018-06-12T09:23:03Z</time>
      </trkpt>
      <trkpt lat="45.88956" lon="4.77682">
        <ele>199</ele>
        <time>2018-06-12T09:23:04Z</time>
      </trkpt>
      <trkpt lat="45.88951" lon="4.77684">
        <ele>199</ele>
        <time>2018-06-12T09:23:05Z</time>
      </trkpt>
      <trkpt lat="45.88943" lon="4.77688">
        <ele>199</ele>
        <time>2018-06-12T09:23:07Z</time>
      </trkpt>
      <trkpt lat="45.88938" lon="4.7769">
        <ele>199</ele>
        <time>2018-06-12T09:23:08Z</time>
      </trkpt>
      <trkpt lat="45.88932" lon="4.77696">
        <ele>199</ele>
        <time>2018-06-12T09:23:09Z</time>
      </trkpt>
      <trkpt lat="45.88928" lon="4.77698">
        <ele>199</ele>
        <time>2018-06-12T09:23:10Z</time>
      </trkpt>
      <trkpt lat="45.88919" lon="4.77702">
        <ele>199</ele>
        <time>2018-06-12T09:23:12Z</time>
      </trkpt>
      <trkpt lat="45.88915" lon="4.77703">
        <ele>200</ele>
        <time>2018-06-12T09:23:13Z</time>
      </trkpt>
      <trkpt lat="45.88907" lon="4.77705">
        <ele>200</ele>
        <time>2018-06-12T09:23:15Z</time>
      </trkpt>
      <trkpt lat="45.88905" lon="4.77705">
        <ele>200</ele>
        <time>2018-06-12T09:23:16Z</time>
      </trkpt>
      <trkpt lat="45.88898" lon="4.77706">
        <ele>200</ele>
        <time>2018-06-12T09:23:17Z</time>
      </trkpt>
      <trkpt lat="45.88893" lon="4.77706">
        <ele>200</ele>
        <time>2018-06-12T09:23:18Z</time>
      </trkpt>
      <trkpt lat="45.88889" lon="4.77706">
        <ele>200</ele>
        <time>2018-06-12T09:23:19Z</time>
      </trkpt>
      <trkpt lat="45.88884" lon="4.77707">
        <ele>200</ele>
        <time>2018-06-12T09:23:20Z</time>
      </trkpt>
      <trkpt lat="45.88875" lon="4.77707">
        <ele>200</ele>
        <time>2018-06-12T09:23:22Z</time>
      </trkpt>
      <trkpt lat="45.88871" lon="4.77707">
        <ele>201</ele>
        <time>2018-06-12T09:23:23Z</time>
      </trkpt>
      <trkpt lat="45.88866" lon="4.77708">
        <ele>201</ele>
        <time>2018-06-12T09:23:24Z</time>
      </trkpt>
      <trkpt lat="45.88861" lon="4.77708">
        <ele>201</ele>
        <time>2018-06-12T09:23:25Z</time>
      </trkpt>
      <trkpt lat="45.88853" lon="4.77708">
        <ele>201</ele>
        <time>2018-06-12T09:23:27Z</time>
      </trkpt>
      <trkpt lat="45.88849" lon="4.77708">
        <ele>201</ele>
        <time>2018-06-12T09:23:28Z</time>
      </trkpt>
      <trkpt lat="45.8884" lon="4.77711">
        <ele>201</ele>
        <time>2018-06-12T09:23:30Z</time>
      </trkpt>
      <trkpt lat="45.88836" lon="4.77712">
        <ele>201</ele>
        <time>2018-06-12T09:23:31Z</time>
      </trkpt>
      <trkpt lat="45.88831" lon="4.77712">
        <ele>201</ele>
        <time>2018-06-12T09:23:32Z</time>
      </trkpt>
      <trkpt lat="45.88826" lon="4.77712">
        <ele>201</ele>
        <time>2018-06-12T09:23:33Z</time>
      </trkpt>
      <trkpt lat="45.88818" lon="4.77711">
        <ele>202</ele>
        <time>2018-06-12T09:23:35Z</time>
      </trkpt>
      <trkpt lat="45.88814" lon="4.77711">
        <ele>202</ele>
        <time>2018-06-12T09:23:36Z</time>
      </trkpt>
      <trkpt lat="45.88806" lon="4.77712">
        <ele>202</ele>
        <time>2018-06-12T09:23:38Z</time>
      </trkpt>
      <trkpt lat="45.88801" lon="4.77712">
        <ele>202</ele>
        <time>2018-06-12T09:23:39Z</time>
      </trkpt>
      <trkpt lat="45.88796" lon="4.77714">
        <ele>202</ele>
        <time>2018-06-12T09:23:40Z</time>
      </trkpt>
      <trkpt lat="45.88791" lon="4.77714">
        <ele>202</ele>
        <time>2018-06-12T09:23:41Z</time>
      </trkpt>
      <trkpt lat="45.88783" lon="4.77715">
        <ele>202</ele>
        <time>2018-06-12T09:23:43Z</time>
      </trkpt>
      <trkpt lat="45.8878" lon="4.77716">
        <ele>202</ele>
        <time>2018-06-12T09:23:44Z</time>
      </trkpt>
      <trkpt lat="45.88775" lon="4.77715">
        <ele>202</ele>
        <time>2018-06-12T09:23:45Z</time>
      </trkpt>
      <trkpt lat="45.88769" lon="4.77715">
        <ele>202</ele>
        <time>2018-06-12T09:23:46Z</time>
      </trkpt>
      <trkpt lat="45.88764" lon="4.77715">
        <ele>202</ele>
        <time>2018-06-12T09:23:47Z</time>
      </trkpt>
      <trkpt lat="45.88759" lon="4.77715">
        <ele>202</ele>
        <time>2018-06-12T09:23:48Z</time>
      </trkpt>
      <trkpt lat="45.88755" lon="4.77716">
        <ele>202</ele>
        <time>2018-06-12T09:23:49Z</time>
      </trkpt>
      <trkpt lat="45.88749" lon="4.77716">
        <ele>203</ele>
        <time>2018-06-12T09:23:50Z</time>
      </trkpt>
      <trkpt lat="45.88744" lon="4.77716">
        <ele>203</ele>
        <time>2018-06-12T09:23:51Z</time>
      </trkpt>
      <trkpt lat="45.88739" lon="4.77716">
        <ele>203</ele>
        <time>2018-06-12T09:23:52Z</time>
      </trkpt>
      <trkpt lat="45.88735" lon="4.77716">
        <ele>203</ele>
        <time>2018-06-12T09:23:53Z</time>
      </trkpt>
      <trkpt lat="45.8873" lon="4.77716">
        <ele>203</ele>
        <time>2018-06-12T09:23:54Z</time>
      </trkpt>
      <trkpt lat="45.88723" lon="4.77716">
        <ele>203</ele>
        <time>2018-06-12T09:23:56Z</time>
      </trkpt>
      <trkpt lat="45.88718" lon="4.77716">
        <ele>203</ele>
        <time>2018-06-12T09:23:57Z</time>
      </trkpt>
      <trkpt lat="45.88715" lon="4.77716">
        <ele>203</ele>
        <time>2018-06-12T09:23:58Z</time>
      </trkpt>
      <trkpt lat="45.88708" lon="4.77717">
        <ele>203</ele>
        <time>2018-06-12T09:23:59Z</time>
      </trkpt>
      <trkpt lat="45.88703" lon="4.77717">
        <ele>203</ele>
        <time>2018-06-12T09:24:00Z</time>
      </trkpt>
      <trkpt lat="45.88698" lon="4.77717">
        <ele>203</ele>
        <time>2018-06-12T09:24:01Z</time>
      </trkpt>
      <trkpt lat="45.88694" lon="4.77717">
        <ele>203</ele>
        <time>2018-06-12T09:24:02Z</time>
      </trkpt>
      <trkpt lat="45.88688" lon="4.77717">
        <ele>203</ele>
        <time>2018-06-12T09:24:03Z</time>
      </trkpt>
      <trkpt lat="45.88682" lon="4.77717">
        <ele>203</ele>
        <time>2018-06-12T09:24:04Z</time>
      </trkpt>
      <trkpt lat="45.88677" lon="4.77718">
        <ele>203</ele>
        <time>2018-06-12T09:24:05Z</time>
      </trkpt>
      <trkpt lat="45.88672" lon="4.77717">
        <ele>203</ele>
        <time>2018-06-12T09:24:06Z</time>
      </trkpt>
      <trkpt lat="45.88668" lon="4.77717">
        <ele>203</ele>
        <time>2018-06-12T09:24:07Z</time>
      </trkpt>
      <trkpt lat="45.88663" lon="4.77716">
        <ele>203</ele>
        <time>2018-06-12T09:24:08Z</time>
      </trkpt>
      <trkpt lat="45.88657" lon="4.77717">
        <ele>203</ele>
        <time>2018-06-12T09:24:09Z</time>
      </trkpt>
      <trkpt lat="45.88648" lon="4.77718">
        <ele>203</ele>
        <time>2018-06-12T09:24:11Z</time>
      </trkpt>
      <trkpt lat="45.88644" lon="4.77717">
        <ele>203</ele>
        <time>2018-06-12T09:24:12Z</time>
      </trkpt>
      <trkpt lat="45.88638" lon="4.7772">
        <ele>203</ele>
        <time>2018-06-12T09:24:13Z</time>
      </trkpt>
      <trkpt lat="45.88633" lon="4.77718">
        <ele>203</ele>
        <time>2018-06-12T09:24:14Z</time>
      </trkpt>
      <trkpt lat="45.88629" lon="4.77717">
        <ele>203</ele>
        <time>2018-06-12T09:24:15Z</time>
      </trkpt>
      <trkpt lat="45.88624" lon="4.77716">
        <ele>203</ele>
        <time>2018-06-12T09:24:16Z</time>
      </trkpt>
      <trkpt lat="45.88618" lon="4.77715">
        <ele>203</ele>
        <time>2018-06-12T09:24:17Z</time>
      </trkpt>
      <trkpt lat="45.88614" lon="4.77715">
        <ele>203</ele>
        <time>2018-06-12T09:24:18Z</time>
      </trkpt>
      <trkpt lat="45.88605" lon="4.77712">
        <ele>203</ele>
        <time>2018-06-12T09:24:20Z</time>
      </trkpt>
      <trkpt lat="45.88601" lon="4.77712">
        <ele>203</ele>
        <time>2018-06-12T09:24:21Z</time>
      </trkpt>
      <trkpt lat="45.88596" lon="4.77711">
        <ele>203</ele>
        <time>2018-06-12T09:24:22Z</time>
      </trkpt>
      <trkpt lat="45.88591" lon="4.7771">
        <ele>203</ele>
        <time>2018-06-12T09:24:23Z</time>
      </trkpt>
      <trkpt lat="45.88587" lon="4.77708">
        <ele>203</ele>
        <time>2018-06-12T09:24:24Z</time>
      </trkpt>
      <trkpt lat="45.88582" lon="4.77707">
        <ele>204</ele>
        <time>2018-06-12T09:24:25Z</time>
      </trkpt>
      <trkpt lat="45.88574" lon="4.77703">
        <ele>204</ele>
        <time>2018-06-12T09:24:27Z</time>
      </trkpt>
      <trkpt lat="45.88568" lon="4.77704">
        <ele>204</ele>
        <time>2018-06-12T09:24:28Z</time>
      </trkpt>
      <trkpt lat="45.88563" lon="4.77703">
        <ele>204</ele>
        <time>2018-06-12T09:24:29Z</time>
      </trkpt>
      <trkpt lat="45.88559" lon="4.77702">
        <ele>204</ele>
        <time>2018-06-12T09:24:30Z</time>
      </trkpt>
      <trkpt lat="45.88555" lon="4.77699">
        <ele>204</ele>
        <time>2018-06-12T09:24:31Z</time>
      </trkpt>
      <trkpt lat="45.8855" lon="4.77697">
        <ele>204</ele>
        <time>2018-06-12T09:24:32Z</time>
      </trkpt>
      <trkpt lat="45.88542" lon="4.77695">
        <ele>204</ele>
        <time>2018-06-12T09:24:34Z</time>
      </trkpt>
      <trkpt lat="45.88538" lon="4.77694">
        <ele>204</ele>
        <time>2018-06-12T09:24:35Z</time>
      </trkpt>
      <trkpt lat="45.88533" lon="4.77692">
        <ele>204</ele>
        <time>2018-06-12T09:24:36Z</time>
      </trkpt>
      <trkpt lat="45.88528" lon="4.77689">
        <ele>204</ele>
        <time>2018-06-12T09:24:37Z</time>
      </trkpt>
      <trkpt lat="45.8852" lon="4.77686">
        <ele>204</ele>
        <time>2018-06-12T09:24:39Z</time>
      </trkpt>
      <trkpt lat="45.88514" lon="4.77687">
        <ele>205</ele>
        <time>2018-06-12T09:24:40Z</time>
      </trkpt>
      <trkpt lat="45.88506" lon="4.77685">
        <ele>205</ele>
        <time>2018-06-12T09:24:42Z</time>
      </trkpt>
      <trkpt lat="45.88501" lon="4.77682">
        <ele>205</ele>
        <time>2018-06-12T09:24:43Z</time>
      </trkpt>
      <trkpt lat="45.88496" lon="4.77683">
        <ele>205</ele>
        <time>2018-06-12T09:24:44Z</time>
      </trkpt>
      <trkpt lat="45.88492" lon="4.77681">
        <ele>205</ele>
        <time>2018-06-12T09:24:45Z</time>
      </trkpt>
      <trkpt lat="45.88488" lon="4.77679">
        <ele>205</ele>
        <time>2018-06-12T09:24:46Z</time>
      </trkpt>
      <trkpt lat="45.88482" lon="4.77678">
        <ele>206</ele>
        <time>2018-06-12T09:24:47Z</time>
      </trkpt>
      <trkpt lat="45.88474" lon="4.77676">
        <ele>206</ele>
        <time>2018-06-12T09:24:49Z</time>
      </trkpt>
      <trkpt lat="45.8847" lon="4.77674">
        <ele>206</ele>
        <time>2018-06-12T09:24:50Z</time>
      </trkpt>
      <trkpt lat="45.88465" lon="4.77672">
        <ele>206</ele>
        <time>2018-06-12T09:24:51Z</time>
      </trkpt>
      <trkpt lat="45.8846" lon="4.77672">
        <ele>206</ele>
        <time>2018-06-12T09:24:52Z</time>
      </trkpt>
      <trkpt lat="45.88452" lon="4.7767">
        <ele>206</ele>
        <time>2018-06-12T09:24:54Z</time>
      </trkpt>
      <trkpt lat="45.88448" lon="4.77669">
        <ele>206</ele>
        <time>2018-06-12T09:24:55Z</time>
      </trkpt>
      <trkpt lat="45.88439" lon="4.77667">
        <ele>206</ele>
        <time>2018-06-12T09:24:57Z</time>
      </trkpt>
      <trkpt lat="45.88435" lon="4.77666">
        <ele>206</ele>
        <time>2018-06-12T09:24:58Z</time>
      </trkpt>
      <trkpt lat="45.8843" lon="4.77666">
        <ele>206</ele>
        <time>2018-06-12T09:24:59Z</time>
      </trkpt>
      <trkpt lat="45.88426" lon="4.77665">
        <ele>206</ele>
        <time>2018-06-12T09:25:00Z</time>
      </trkpt>
      <trkpt lat="45.88417" lon="4.77663">
        <ele>206</ele>
        <time>2018-06-12T09:25:02Z</time>
      </trkpt>
      <trkpt lat="45.88413" lon="4.77662">
        <ele>206</ele>
        <time>2018-06-12T09:25:03Z</time>
      </trkpt>
      <trkpt lat="45.88404" lon="4.77661">
        <ele>207</ele>
        <time>2018-06-12T09:25:05Z</time>
      </trkpt>
      <trkpt lat="45.884" lon="4.7766">
        <ele>207</ele>
        <time>2018-06-12T09:25:06Z</time>
      </trkpt>
      <trkpt lat="45.88391" lon="4.77659">
        <ele>207</ele>
        <time>2018-06-12T09:25:08Z</time>
      </trkpt>
      <trkpt lat="45.88387" lon="4.77659">
        <ele>207</ele>
        <time>2018-06-12T09:25:09Z</time>
      </trkpt>
      <trkpt lat="45.88379" lon="4.77658">
        <ele>207</ele>
        <time>2018-06-12T09:25:11Z</time>
      </trkpt>
      <trkpt lat="45.88374" lon="4.77658">
        <ele>207</ele>
        <time>2018-06-12T09:25:12Z</time>
      </trkpt>
      <trkpt lat="45.8837" lon="4.77657">
        <ele>207</ele>
        <time>2018-06-12T09:25:13Z</time>
      </trkpt>
      <trkpt lat="45.88364" lon="4.77659">
        <ele>207</ele>
        <time>2018-06-12T09:25:14Z</time>
      </trkpt>
      <trkpt lat="45.88356" lon="4.77658">
        <ele>208</ele>
        <time>2018-06-12T09:25:16Z</time>
      </trkpt>
      <trkpt lat="45.88352" lon="4.77657">
        <ele>208</ele>
        <time>2018-06-12T09:25:17Z</time>
      </trkpt>
      <trkpt lat="45.88344" lon="4.77655">
        <ele>208</ele>
        <time>2018-06-12T09:25:19Z</time>
      </trkpt>
      <trkpt lat="45.88339" lon="4.77655">
        <ele>208</ele>
        <time>2018-06-12T09:25:20Z</time>
      </trkpt>
      <trkpt lat="45.88334" lon="4.77654">
        <ele>208</ele>
        <time>2018-06-12T09:25:21Z</time>
      </trkpt>
      <trkpt lat="45.88329" lon="4.77654">
        <ele>209</ele>
        <time>2018-06-12T09:25:22Z</time>
      </trkpt>
      <trkpt lat="45.88324" lon="4.77655">
        <ele>209</ele>
        <time>2018-06-12T09:25:23Z</time>
      </trkpt>
      <trkpt lat="45.8832" lon="4.77655">
        <ele>209</ele>
        <time>2018-06-12T09:25:24Z</time>
      </trkpt>
      <trkpt lat="45.88315" lon="4.77655">
        <ele>209</ele>
        <time>2018-06-12T09:25:25Z</time>
      </trkpt>
      <trkpt lat="45.8831" lon="4.77655">
        <ele>209</ele>
        <time>2018-06-12T09:25:26Z</time>
      </trkpt>
      <trkpt lat="45.88302" lon="4.77655">
        <ele>209</ele>
        <time>2018-06-12T09:25:28Z</time>
      </trkpt>
      <trkpt lat="45.88298" lon="4.77657">
        <ele>209</ele>
        <time>2018-06-12T09:25:29Z</time>
      </trkpt>
      <trkpt lat="45.8829" lon="4.77657">
        <ele>209</ele>
        <time>2018-06-12T09:25:31Z</time>
      </trkpt>
      <trkpt lat="45.88285" lon="4.77656">
        <ele>209</ele>
        <time>2018-06-12T09:25:32Z</time>
      </trkpt>
      <trkpt lat="45.88276" lon="4.77656">
        <ele>210</ele>
        <time>2018-06-12T09:25:34Z</time>
      </trkpt>
      <trkpt lat="45.88272" lon="4.77658">
        <ele>210</ele>
        <time>2018-06-12T09:25:35Z</time>
      </trkpt>
      <trkpt lat="45.88263" lon="4.77659">
        <ele>210</ele>
        <time>2018-06-12T09:25:37Z</time>
      </trkpt>
      <trkpt lat="45.88259" lon="4.7766">
        <ele>210</ele>
        <time>2018-06-12T09:25:38Z</time>
      </trkpt>
      <trkpt lat="45.8825" lon="4.77659">
        <ele>211</ele>
        <time>2018-06-12T09:25:40Z</time>
      </trkpt>
      <trkpt lat="45.88246" lon="4.77659">
        <ele>211</ele>
        <time>2018-06-12T09:25:41Z</time>
      </trkpt>
      <trkpt lat="45.88237" lon="4.77659">
        <ele>211</ele>
        <time>2018-06-12T09:25:43Z</time>
      </trkpt>
      <trkpt lat="45.88233" lon="4.7766">
        <ele>211</ele>
        <time>2018-06-12T09:25:44Z</time>
      </trkpt>
      <trkpt lat="45.88224" lon="4.77661">
        <ele>211</ele>
        <time>2018-06-12T09:25:46Z</time>
      </trkpt>
      <trkpt lat="45.8822" lon="4.77661">
        <ele>211</ele>
        <time>2018-06-12T09:25:47Z</time>
      </trkpt>
      <trkpt lat="45.88211" lon="4.77662">
        <ele>211</ele>
        <time>2018-06-12T09:25:49Z</time>
      </trkpt>
      <trkpt lat="45.88207" lon="4.77663">
        <ele>211</ele>
        <time>2018-06-12T09:25:50Z</time>
      </trkpt>
      <trkpt lat="45.88202" lon="4.77663">
        <ele>211</ele>
        <time>2018-06-12T09:25:51Z</time>
      </trkpt>
      <trkpt lat="45.88197" lon="4.77664">
        <ele>211</ele>
        <time>2018-06-12T09:25:52Z</time>
      </trkpt>
      <trkpt lat="45.88193" lon="4.77664">
        <ele>212</ele>
        <time>2018-06-12T09:25:53Z</time>
      </trkpt>
      <trkpt lat="45.88188" lon="4.77666">
        <ele>212</ele>
        <time>2018-06-12T09:25:54Z</time>
      </trkpt>
      <trkpt lat="45.88179" lon="4.77669">
        <ele>212</ele>
        <time>2018-06-12T09:25:56Z</time>
      </trkpt>
      <trkpt lat="45.88175" lon="4.77672">
        <ele>212</ele>
        <time>2018-06-12T09:25:57Z</time>
      </trkpt>
      <trkpt lat="45.88171" lon="4.77673">
        <ele>212</ele>
        <time>2018-06-12T09:25:58Z</time>
      </trkpt>
      <trkpt lat="45.88166" lon="4.77673">
        <ele>212</ele>
        <time>2018-06-12T09:25:59Z</time>
      </trkpt>
      <trkpt lat="45.88157" lon="4.77673">
        <ele>213</ele>
        <time>2018-06-12T09:26:01Z</time>
      </trkpt>
      <trkpt lat="45.88153" lon="4.77673">
        <ele>213</ele>
        <time>2018-06-12T09:26:02Z</time>
      </trkpt>
      <trkpt lat="45.88145" lon="4.77673">
        <ele>213</ele>
        <time>2018-06-12T09:26:04Z</time>
      </trkpt>
      <trkpt lat="45.8814" lon="4.77674">
        <ele>213</ele>
        <time>2018-06-12T09:26:05Z</time>
      </trkpt>
      <trkpt lat="45.88133" lon="4.77674">
        <ele>213</ele>
        <time>2018-06-12T09:26:07Z</time>
      </trkpt>
      <trkpt lat="45.88128" lon="4.77676">
        <ele>214</ele>
        <time>2018-06-12T09:26:08Z</time>
      </trkpt>
      <trkpt lat="45.88124" lon="4.77676">
        <ele>214</ele>
        <time>2018-06-12T09:26:09Z</time>
      </trkpt>
      <trkpt lat="45.88119" lon="4.77676">
        <ele>214</ele>
        <time>2018-06-12T09:26:10Z</time>
      </trkpt>
      <trkpt lat="45.88115" lon="4.77676">
        <ele>214</ele>
        <time>2018-06-12T09:26:11Z</time>
      </trkpt>
      <trkpt lat="45.8811" lon="4.77677">
        <ele>214</ele>
        <time>2018-06-12T09:26:12Z</time>
      </trkpt>
      <trkpt lat="45.88105" lon="4.77678">
        <ele>214</ele>
        <time>2018-06-12T09:26:13Z</time>
      </trkpt>
      <trkpt lat="45.88101" lon="4.77679">
        <ele>214</ele>
        <time>2018-06-12T09:26:14Z</time>
      </trkpt>
      <trkpt lat="45.88097" lon="4.7768">
        <ele>214</ele>
        <time>2018-06-12T09:26:15Z</time>
      </trkpt>
      <trkpt lat="45.88092" lon="4.77683">
        <ele>214</ele>
        <time>2018-06-12T09:26:16Z</time>
      </trkpt>
      <trkpt lat="45.88084" lon="4.77685">
        <ele>214</ele>
        <time>2018-06-12T09:26:18Z</time>
      </trkpt>
      <trkpt lat="45.8808" lon="4.77686">
        <ele>215</ele>
        <time>2018-06-12T09:26:19Z</time>
      </trkpt>
      <trkpt lat="45.88072" lon="4.77689">
        <ele>215</ele>
        <time>2018-06-12T09:26:21Z</time>
      </trkpt>
      <trkpt lat="45.88068" lon="4.77689">
        <ele>216</ele>
        <time>2018-06-12T09:26:22Z</time>
      </trkpt>
      <trkpt lat="45.88059" lon="4.77691">
        <ele>216</ele>
        <time>2018-06-12T09:26:24Z</time>
      </trkpt>
      <trkpt lat="45.88055" lon="4.77692">
        <ele>216</ele>
        <time>2018-06-12T09:26:25Z</time>
      </trkpt>
      <trkpt lat="45.88047" lon="4.77694">
        <ele>216</ele>
        <time>2018-06-12T09:26:27Z</time>
      </trkpt>
      <trkpt lat="45.88042" lon="4.77695">
        <ele>216</ele>
        <time>2018-06-12T09:26:28Z</time>
      </trkpt>
      <trkpt lat="45.88034" lon="4.77698">
        <ele>216</ele>
        <time>2018-06-12T09:26:30Z</time>
      </trkpt>
      <trkpt lat="45.8803" lon="4.77699">
        <ele>216</ele>
        <time>2018-06-12T09:26:31Z</time>
      </trkpt>
      <trkpt lat="45.88021" lon="4.77699">
        <ele>216</ele>
        <time>2018-06-12T09:26:33Z</time>
      </trkpt>
      <trkpt lat="45.88017" lon="4.77699">
        <ele>216</ele>
        <time>2018-06-12T09:26:34Z</time>
      </trkpt>
      <trkpt lat="45.88009" lon="4.777">
        <ele>216</ele>
        <time>2018-06-12T09:26:36Z</time>
      </trkpt>
      <trkpt lat="45.88005" lon="4.777">
        <ele>216</ele>
        <time>2018-06-12T09:26:37Z</time>
      </trkpt>
      <trkpt lat="45.87996" lon="4.77697">
        <ele>217</ele>
        <time>2018-06-12T09:26:39Z</time>
      </trkpt>
      <trkpt lat="45.87993" lon="4.77696">
        <ele>217</ele>
        <time>2018-06-12T09:26:40Z</time>
      </trkpt>
      <trkpt lat="45.87984" lon="4.77692">
        <ele>217</ele>
        <time>2018-06-12T09:26:42Z</time>
      </trkpt>
      <trkpt lat="45.8798" lon="4.7769">
        <ele>218</ele>
        <time>2018-06-12T09:26:43Z</time>
      </trkpt>
      <trkpt lat="45.87973" lon="4.77684">
        <ele>218</ele>
        <time>2018-06-12T09:26:45Z</time>
      </trkpt>
      <trkpt lat="45.8797" lon="4.7768">
        <ele>218</ele>
        <time>2018-06-12T09:26:46Z</time>
      </trkpt>
      <trkpt lat="45.87964" lon="4.77673">
        <ele>218</ele>
        <time>2018-06-12T09:26:48Z</time>
      </trkpt>
      <trkpt lat="45.8796" lon="4.77671">
        <ele>218</ele>
        <time>2018-06-12T09:26:49Z</time>
      </trkpt>
      <trkpt lat="45.87953" lon="4.77668">
        <ele>218</ele>
        <time>2018-06-12T09:26:51Z</time>
      </trkpt>
      <trkpt lat="45.87948" lon="4.77666">
        <ele>218</ele>
        <time>2018-06-12T09:26:52Z</time>
      </trkpt>
      <trkpt lat="45.87941" lon="4.7766">
        <ele>219</ele>
        <time>2018-06-12T09:26:54Z</time>
      </trkpt>
      <trkpt lat="45.87937" lon="4.77657">
        <ele>219</ele>
        <time>2018-06-12T09:26:55Z</time>
      </trkpt>
      <trkpt lat="45.87934" lon="4.77653">
        <ele>219</ele>
        <time>2018-06-12T09:26:56Z</time>
      </trkpt>
      <trkpt lat="45.87929" lon="4.7765">
        <ele>219</ele>
        <time>2018-06-12T09:26:57Z</time>
      </trkpt>
      <trkpt lat="45.87922" lon="4.77644">
        <ele>219</ele>
        <time>2018-06-12T09:26:59Z</time>
      </trkpt>
      <trkpt lat="45.87918" lon="4.77642">
        <ele>219</ele>
        <time>2018-06-12T09:27:00Z</time>
      </trkpt>
      <trkpt lat="45.87913" lon="4.77639">
        <ele>221</ele>
        <time>2018-06-12T09:27:01Z</time>
      </trkpt>
      <trkpt lat="45.87909" lon="4.77636">
        <ele>221</ele>
        <time>2018-06-12T09:27:02Z</time>
      </trkpt>
      <trkpt lat="45.87901" lon="4.7763">
        <ele>221</ele>
        <time>2018-06-12T09:27:04Z</time>
      </trkpt>
      <trkpt lat="45.87898" lon="4.77625">
        <ele>221</ele>
        <time>2018-06-12T09:27:05Z</time>
      </trkpt>
      <trkpt lat="45.87895" lon="4.77621">
        <ele>221</ele>
        <time>2018-06-12T09:27:06Z</time>
      </trkpt>
      <trkpt lat="45.87891" lon="4.77617">
        <ele>221</ele>
        <time>2018-06-12T09:27:07Z</time>
      </trkpt>
      <trkpt lat="45.87884" lon="4.77611">
        <ele>221</ele>
        <time>2018-06-12T09:27:09Z</time>
      </trkpt>
      <trkpt lat="45.8788" lon="4.77609">
        <ele>221</ele>
        <time>2018-06-12T09:27:10Z</time>
      </trkpt>
      <trkpt lat="45.87875" lon="4.77605">
        <ele>221</ele>
        <time>2018-06-12T09:27:11Z</time>
      </trkpt>
      <trkpt lat="45.87871" lon="4.77602">
        <ele>221</ele>
        <time>2018-06-12T09:27:12Z</time>
      </trkpt>
      <trkpt lat="45.87867" lon="4.77599">
        <ele>221</ele>
        <time>2018-06-12T09:27:13Z</time>
      </trkpt>
      <trkpt lat="45.87864" lon="4.77595">
        <ele>221</ele>
        <time>2018-06-12T09:27:14Z</time>
      </trkpt>
      <trkpt lat="45.87856" lon="4.77588">
        <ele>221</ele>
        <time>2018-06-12T09:27:16Z</time>
      </trkpt>
      <trkpt lat="45.87852" lon="4.77585">
        <ele>221</ele>
        <time>2018-06-12T09:27:17Z</time>
      </trkpt>
      <trkpt lat="45.87844" lon="4.77579">
        <ele>221</ele>
        <time>2018-06-12T09:27:19Z</time>
      </trkpt>
      <trkpt lat="45.8784" lon="4.77575">
        <ele>221</ele>
        <time>2018-06-12T09:27:20Z</time>
      </trkpt>
      <trkpt lat="45.87833" lon="4.77567">
        <ele>222</ele>
        <time>2018-06-12T09:27:22Z</time>
      </trkpt>
      <trkpt lat="45.8783" lon="4.77562">
        <ele>222</ele>
        <time>2018-06-12T09:27:23Z</time>
      </trkpt>
      <trkpt lat="45.87826" lon="4.77558">
        <ele>223</ele>
        <time>2018-06-12T09:27:24Z</time>
      </trkpt>
      <trkpt lat="45.87822" lon="4.77555">
        <ele>223</ele>
        <time>2018-06-12T09:27:25Z</time>
      </trkpt>
      <trkpt lat="45.87815" lon="4.77548">
        <ele>223</ele>
        <time>2018-06-12T09:27:27Z</time>
      </trkpt>
      <trkpt lat="45.87811" lon="4.77545">
        <ele>223</ele>
        <time>2018-06-12T09:27:28Z</time>
      </trkpt>
      <trkpt lat="45.87804" lon="4.77538">
        <ele>223</ele>
        <time>2018-06-12T09:27:30Z</time>
      </trkpt>
      <trkpt lat="45.878" lon="4.77535">
        <ele>223</ele>
        <time>2018-06-12T09:27:31Z</time>
      </trkpt>
      <trkpt lat="45.87793" lon="4.7753">
        <ele>223</ele>
        <time>2018-06-12T09:27:33Z</time>
      </trkpt>
      <trkpt lat="45.87789" lon="4.77527">
        <ele>223</ele>
        <time>2018-06-12T09:27:34Z</time>
      </trkpt>
      <trkpt lat="45.87783" lon="4.77525">
        <ele>223</ele>
        <time>2018-06-12T09:27:35Z</time>
      </trkpt>
      <trkpt lat="45.87779" lon="4.77523">
        <ele>223</ele>
        <time>2018-06-12T09:27:36Z</time>
      </trkpt>
      <trkpt lat="45.87772" lon="4.77518">
        <ele>223</ele>
        <time>2018-06-12T09:27:38Z</time>
      </trkpt>
      <trkpt lat="45.87769" lon="4.77516">
        <ele>223</ele>
        <time>2018-06-12T09:27:39Z</time>
      </trkpt>
      <trkpt lat="45.87764" lon="4.77512">
        <ele>223</ele>
        <time>2018-06-12T09:27:41Z</time>
      </trkpt>
      <trkpt lat="45.87757" lon="4.77507">
        <ele>224</ele>
        <time>2018-06-12T09:27:42Z</time>
      </trkpt>
      <trkpt lat="45.87751" lon="4.77502">
        <ele>224</ele>
        <time>2018-06-12T09:27:45Z</time>
      </trkpt>
      <trkpt lat="45.87745" lon="4.77498">
        <ele>224</ele>
        <time>2018-06-12T09:27:46Z</time>
      </trkpt>
      <trkpt lat="45.87737" lon="4.77495">
        <ele>225</ele>
        <time>2018-06-12T09:27:48Z</time>
      </trkpt>
      <trkpt lat="45.87734" lon="4.77492">
        <ele>225</ele>
        <time>2018-06-12T09:27:49Z</time>
      </trkpt>
      <trkpt lat="45.87725" lon="4.77489">
        <ele>226</ele>
        <time>2018-06-12T09:27:51Z</time>
      </trkpt>
      <trkpt lat="45.87723" lon="4.77488">
        <ele>226</ele>
        <time>2018-06-12T09:27:52Z</time>
      </trkpt>
      <trkpt lat="45.87716" lon="4.77486">
        <ele>226</ele>
        <time>2018-06-12T09:27:53Z</time>
      </trkpt>
      <trkpt lat="45.87712" lon="4.77485">
        <ele>226</ele>
        <time>2018-06-12T09:27:54Z</time>
      </trkpt>
      <trkpt lat="45.87704" lon="4.77485">
        <ele>227</ele>
        <time>2018-06-12T09:27:56Z</time>
      </trkpt>
      <trkpt lat="45.87702" lon="4.77485">
        <ele>227</ele>
        <time>2018-06-12T09:27:57Z</time>
      </trkpt>
      <trkpt lat="45.87693" lon="4.77486">
        <ele>227</ele>
        <time>2018-06-12T09:27:59Z</time>
      </trkpt>
      <trkpt lat="45.87689" lon="4.77486">
        <ele>227</ele>
        <time>2018-06-12T09:28:00Z</time>
      </trkpt>
      <trkpt lat="45.87682" lon="4.77486">
        <ele>227</ele>
        <time>2018-06-12T09:28:02Z</time>
      </trkpt>
      <trkpt lat="45.87678" lon="4.77486">
        <ele>228</ele>
        <time>2018-06-12T09:28:03Z</time>
      </trkpt>
      <trkpt lat="45.87671" lon="4.77486">
        <ele>228</ele>
        <time>2018-06-12T09:28:05Z</time>
      </trkpt>
      <trkpt lat="45.87667" lon="4.77487">
        <ele>228</ele>
        <time>2018-06-12T09:28:06Z</time>
      </trkpt>
      <trkpt lat="45.87659" lon="4.77488">
        <ele>230</ele>
        <time>2018-06-12T09:28:08Z</time>
      </trkpt>
      <trkpt lat="45.87655" lon="4.77489">
        <ele>230</ele>
        <time>2018-06-12T09:28:09Z</time>
      </trkpt>
      <trkpt lat="45.87647" lon="4.7749">
        <ele>230</ele>
        <time>2018-06-12T09:28:12Z</time>
      </trkpt>
      <trkpt lat="45.8764" lon="4.7749">
        <ele>230</ele>
        <time>2018-06-12T09:28:13Z</time>
      </trkpt>
      <trkpt lat="45.87636" lon="4.77491">
        <ele>230</ele>
        <time>2018-06-12T09:28:15Z</time>
      </trkpt>
      <trkpt lat="45.87629" lon="4.77493">
        <ele>231</ele>
        <time>2018-06-12T09:28:16Z</time>
      </trkpt>
      <trkpt lat="45.87622" lon="4.77495">
        <ele>231</ele>
        <time>2018-06-12T09:28:18Z</time>
      </trkpt>
      <trkpt lat="45.87618" lon="4.77495">
        <ele>231</ele>
        <time>2018-06-12T09:28:19Z</time>
      </trkpt>
      <trkpt lat="45.8761" lon="4.77496">
        <ele>231</ele>
        <time>2018-06-12T09:28:21Z</time>
      </trkpt>
      <trkpt lat="45.87609" lon="4.77496">
        <ele>231</ele>
        <time>2018-06-12T09:28:22Z</time>
      </trkpt>
      <trkpt lat="45.87601" lon="4.77496">
        <ele>231</ele>
        <time>2018-06-12T09:28:24Z</time>
      </trkpt>
      <trkpt lat="45.87599" lon="4.77496">
        <ele>232</ele>
        <time>2018-06-12T09:28:25Z</time>
      </trkpt>
      <trkpt lat="45.8759" lon="4.77498">
        <ele>232</ele>
        <time>2018-06-12T09:28:28Z</time>
      </trkpt>
      <trkpt lat="45.87587" lon="4.77499">
        <ele>232</ele>
        <time>2018-06-12T09:28:29Z</time>
      </trkpt>
      <trkpt lat="45.8758" lon="4.775">
        <ele>232</ele>
        <time>2018-06-12T09:28:31Z</time>
      </trkpt>
      <trkpt lat="45.87577" lon="4.77501">
        <ele>232</ele>
        <time>2018-06-12T09:28:32Z</time>
      </trkpt>
      <trkpt lat="45.8757" lon="4.77501">
        <ele>232</ele>
        <time>2018-06-12T09:28:34Z</time>
      </trkpt>
      <trkpt lat="45.87561" lon="4.775">
        <ele>233</ele>
        <time>2018-06-12T09:28:35Z</time>
      </trkpt>
      <trkpt lat="45.87554" lon="4.77494">
        <ele>233</ele>
        <time>2018-06-12T09:28:37Z</time>
      </trkpt>
      <trkpt lat="45.87553" lon="4.77493">
        <ele>233</ele>
        <time>2018-06-12T09:28:38Z</time>
      </trkpt>
      <trkpt lat="45.87549" lon="4.77488">
        <ele>233</ele>
        <time>2018-06-12T09:28:40Z</time>
      </trkpt>
      <trkpt lat="45.87544" lon="4.7748">
        <ele>233</ele>
        <time>2018-06-12T09:28:41Z</time>
      </trkpt>
      <trkpt lat="45.87538" lon="4.77472">
        <ele>233</ele>
        <time>2018-06-12T09:28:43Z</time>
      </trkpt>
      <trkpt lat="45.87535" lon="4.77468">
        <ele>233</ele>
        <time>2018-06-12T09:28:44Z</time>
      </trkpt>
      <trkpt lat="45.87529" lon="4.77459">
        <ele>233</ele>
        <time>2018-06-12T09:28:46Z</time>
      </trkpt>
      <trkpt lat="45.87526" lon="4.77455">
        <ele>233</ele>
        <time>2018-06-12T09:28:47Z</time>
      </trkpt>
      <trkpt lat="45.87522" lon="4.7745">
        <ele>233</ele>
        <time>2018-06-12T09:28:48Z</time>
      </trkpt>
      <trkpt lat="45.8752" lon="4.77445">
        <ele>233</ele>
        <time>2018-06-12T09:28:49Z</time>
      </trkpt>
      <trkpt lat="45.87516" lon="4.77441">
        <ele>233</ele>
        <time>2018-06-12T09:28:50Z</time>
      </trkpt>
      <trkpt lat="45.87513" lon="4.77437">
        <ele>233</ele>
        <time>2018-06-12T09:28:51Z</time>
      </trkpt>
      <trkpt lat="45.87509" lon="4.77432">
        <ele>233</ele>
        <time>2018-06-12T09:28:52Z</time>
      </trkpt>
      <trkpt lat="45.87506" lon="4.77427">
        <ele>233</ele>
        <time>2018-06-12T09:28:53Z</time>
      </trkpt>
      <trkpt lat="45.87499" lon="4.77418">
        <ele>233</ele>
        <time>2018-06-12T09:28:55Z</time>
      </trkpt>
      <trkpt lat="45.87496" lon="4.77413">
        <ele>234</ele>
        <time>2018-06-12T09:28:56Z</time>
      </trkpt>
      <trkpt lat="45.87493" lon="4.77407">
        <ele>234</ele>
        <time>2018-06-12T09:28:57Z</time>
      </trkpt>
      <trkpt lat="45.8749" lon="4.77402">
        <ele>234</ele>
        <time>2018-06-12T09:28:58Z</time>
      </trkpt>
      <trkpt lat="45.87485" lon="4.77392">
        <ele>235</ele>
        <time>2018-06-12T09:29:00Z</time>
      </trkpt>
      <trkpt lat="45.87483" lon="4.77387">
        <ele>235</ele>
        <time>2018-06-12T09:29:01Z</time>
      </trkpt>
      <trkpt lat="45.87479" lon="4.77377">
        <ele>235</ele>
        <time>2018-06-12T09:29:03Z</time>
      </trkpt>
      <trkpt lat="45.87479" lon="4.7737">
        <ele>235</ele>
        <time>2018-06-12T09:29:04Z</time>
      </trkpt>
      <trkpt lat="45.87476" lon="4.77359">
        <ele>235</ele>
        <time>2018-06-12T09:29:06Z</time>
      </trkpt>
      <trkpt lat="45.87476" lon="4.77353">
        <ele>235</ele>
        <time>2018-06-12T09:29:07Z</time>
      </trkpt>
      <trkpt lat="45.87475" lon="4.77341">
        <ele>235</ele>
        <time>2018-06-12T09:29:09Z</time>
      </trkpt>
      <trkpt lat="45.87474" lon="4.77339">
        <ele>235</ele>
        <time>2018-06-12T09:29:10Z</time>
      </trkpt>
      <trkpt lat="45.87472" lon="4.77331">
        <ele>235</ele>
        <time>2018-06-12T09:29:11Z</time>
      </trkpt>
      <trkpt lat="45.87473" lon="4.77325">
        <ele>235</ele>
        <time>2018-06-12T09:29:12Z</time>
      </trkpt>
      <trkpt lat="45.87471" lon="4.77315">
        <ele>235</ele>
        <time>2018-06-12T09:29:14Z</time>
      </trkpt>
      <trkpt lat="45.8747" lon="4.7731">
        <ele>235</ele>
        <time>2018-06-12T09:29:15Z</time>
      </trkpt>
      <trkpt lat="45.87468" lon="4.77299">
        <ele>235</ele>
        <time>2018-06-12T09:29:17Z</time>
      </trkpt>
      <trkpt lat="45.87466" lon="4.77293">
        <ele>235</ele>
        <time>2018-06-12T09:29:18Z</time>
      </trkpt>
      <trkpt lat="45.87465" lon="4.77287">
        <ele>235</ele>
        <time>2018-06-12T09:29:19Z</time>
      </trkpt>
      <trkpt lat="45.87463" lon="4.7728">
        <ele>235</ele>
        <time>2018-06-12T09:29:20Z</time>
      </trkpt>
      <trkpt lat="45.8746" lon="4.77269">
        <ele>235</ele>
        <time>2018-06-12T09:29:22Z</time>
      </trkpt>
      <trkpt lat="45.87458" lon="4.77263">
        <ele>235</ele>
        <time>2018-06-12T09:29:23Z</time>
      </trkpt>
      <trkpt lat="45.87455" lon="4.77257">
        <ele>235</ele>
        <time>2018-06-12T09:29:24Z</time>
      </trkpt>
      <trkpt lat="45.87452" lon="4.77252">
        <ele>235</ele>
        <time>2018-06-12T09:29:25Z</time>
      </trkpt>
      <trkpt lat="45.87446" lon="4.77243">
        <ele>235</ele>
        <time>2018-06-12T09:29:27Z</time>
      </trkpt>
      <trkpt lat="45.87443" lon="4.77238">
        <ele>235</ele>
        <time>2018-06-12T09:29:28Z</time>
      </trkpt>
      <trkpt lat="45.8744" lon="4.77234">
        <ele>235</ele>
        <time>2018-06-12T09:29:29Z</time>
      </trkpt>
      <trkpt lat="45.87435" lon="4.77229">
        <ele>235</ele>
        <time>2018-06-12T09:29:30Z</time>
      </trkpt>
      <trkpt lat="45.87427" lon="4.77223">
        <ele>235</ele>
        <time>2018-06-12T09:29:32Z</time>
      </trkpt>
      <trkpt lat="45.87423" lon="4.77221">
        <ele>235</ele>
        <time>2018-06-12T09:29:33Z</time>
      </trkpt>
      <trkpt lat="45.87415" lon="4.77218">
        <ele>238</ele>
        <time>2018-06-12T09:29:35Z</time>
      </trkpt>
      <trkpt lat="45.87411" lon="4.77216">
        <ele>238</ele>
        <time>2018-06-12T09:29:36Z</time>
      </trkpt>
      <trkpt lat="45.87404" lon="4.77215">
        <ele>238</ele>
        <time>2018-06-12T09:29:37Z</time>
      </trkpt>
      <trkpt lat="45.87399" lon="4.77214">
        <ele>238</ele>
        <time>2018-06-12T09:29:38Z</time>
      </trkpt>
      <trkpt lat="45.87393" lon="4.77213">
        <ele>239</ele>
        <time>2018-06-12T09:29:39Z</time>
      </trkpt>
      <trkpt lat="45.87387" lon="4.77212">
        <ele>239</ele>
        <time>2018-06-12T09:29:40Z</time>
      </trkpt>
      <trkpt lat="45.87382" lon="4.77211">
        <ele>239</ele>
        <time>2018-06-12T09:29:41Z</time>
      </trkpt>
      <trkpt lat="45.87378" lon="4.7721">
        <ele>239</ele>
        <time>2018-06-12T09:29:42Z</time>
      </trkpt>
      <trkpt lat="45.87373" lon="4.7721">
        <ele>239</ele>
        <time>2018-06-12T09:29:43Z</time>
      </trkpt>
      <trkpt lat="45.87367" lon="4.7721">
        <ele>240</ele>
        <time>2018-06-12T09:29:44Z</time>
      </trkpt>
      <trkpt lat="45.87363" lon="4.77211">
        <ele>240</ele>
        <time>2018-06-12T09:29:45Z</time>
      </trkpt>
      <trkpt lat="45.87358" lon="4.77212">
        <ele>240</ele>
        <time>2018-06-12T09:29:46Z</time>
      </trkpt>
      <trkpt lat="45.87353" lon="4.77214">
        <ele>240</ele>
        <time>2018-06-12T09:29:47Z</time>
      </trkpt>
      <trkpt lat="45.87348" lon="4.77215">
        <ele>240</ele>
        <time>2018-06-12T09:29:48Z</time>
      </trkpt>
      <trkpt lat="45.87342" lon="4.77217">
        <ele>240</ele>
        <time>2018-06-12T09:29:49Z</time>
      </trkpt>
      <trkpt lat="45.87337" lon="4.77221">
        <ele>241</ele>
        <time>2018-06-12T09:29:50Z</time>
      </trkpt>
      <trkpt lat="45.87328" lon="4.7722">
        <ele>243</ele>
        <time>2018-06-12T09:29:52Z</time>
      </trkpt>
      <trkpt lat="45.87322" lon="4.77221">
        <ele>244</ele>
        <time>2018-06-12T09:29:53Z</time>
      </trkpt>
      <trkpt lat="45.87317" lon="4.77222">
        <ele>244</ele>
        <time>2018-06-12T09:29:54Z</time>
      </trkpt>
      <trkpt lat="45.87312" lon="4.77221">
        <ele>244</ele>
        <time>2018-06-12T09:29:55Z</time>
      </trkpt>
      <trkpt lat="45.87303" lon="4.77221">
        <ele>244</ele>
        <time>2018-06-12T09:29:57Z</time>
      </trkpt>
      <trkpt lat="45.87299" lon="4.77219">
        <ele>244</ele>
        <time>2018-06-12T09:29:58Z</time>
      </trkpt>
      <trkpt lat="45.8729" lon="4.77216">
        <ele>244</ele>
        <time>2018-06-12T09:30:00Z</time>
      </trkpt>
      <trkpt lat="45.87286" lon="4.77214">
        <ele>244</ele>
        <time>2018-06-12T09:30:01Z</time>
      </trkpt>
      <trkpt lat="45.87278" lon="4.77207">
        <ele>244</ele>
        <time>2018-06-12T09:30:03Z</time>
      </trkpt>
      <trkpt lat="45.87276" lon="4.77201">
        <ele>244</ele>
        <time>2018-06-12T09:30:04Z</time>
      </trkpt>
      <trkpt lat="45.87273" lon="4.77189">
        <ele>244</ele>
        <time>2018-06-12T09:30:06Z</time>
      </trkpt>
      <trkpt lat="45.87272" lon="4.77182">
        <ele>244</ele>
        <time>2018-06-12T09:30:07Z</time>
      </trkpt>
      <trkpt lat="45.87269" lon="4.7717">
        <ele>244</ele>
        <time>2018-06-12T09:30:09Z</time>
      </trkpt>
      <trkpt lat="45.87268" lon="4.77163">
        <ele>242</ele>
        <time>2018-06-12T09:30:10Z</time>
      </trkpt>
      <trkpt lat="45.87268" lon="4.77156">
        <ele>242</ele>
        <time>2018-06-12T09:30:11Z</time>
      </trkpt>
      <trkpt lat="45.87268" lon="4.77149">
        <ele>242</ele>
        <time>2018-06-12T09:30:12Z</time>
      </trkpt>
      <trkpt lat="45.87267" lon="4.77136">
        <ele>241</ele>
        <time>2018-06-12T09:30:14Z</time>
      </trkpt>
      <trkpt lat="45.87267" lon="4.7713">
        <ele>241</ele>
        <time>2018-06-12T09:30:15Z</time>
      </trkpt>
      <trkpt lat="45.87267" lon="4.77119">
        <ele>241</ele>
        <time>2018-06-12T09:30:17Z</time>
      </trkpt>
      <trkpt lat="45.87269" lon="4.77112">
        <ele>240</ele>
        <time>2018-06-12T09:30:18Z</time>
      </trkpt>
      <trkpt lat="45.87267" lon="4.77105">
        <ele>240</ele>
        <time>2018-06-12T09:30:19Z</time>
      </trkpt>
      <trkpt lat="45.87268" lon="4.77099">
        <ele>240</ele>
        <time>2018-06-12T09:30:20Z</time>
      </trkpt>
      <trkpt lat="45.87265" lon="4.77091">
        <ele>240</ele>
        <time>2018-06-12T09:30:21Z</time>
      </trkpt>
      <trkpt lat="45.87266" lon="4.77085">
        <ele>240</ele>
        <time>2018-06-12T09:30:22Z</time>
      </trkpt>
      <trkpt lat="45.87263" lon="4.77077">
        <ele>239</ele>
        <time>2018-06-12T09:30:23Z</time>
      </trkpt>
      <trkpt lat="45.87263" lon="4.77071">
        <ele>239</ele>
        <time>2018-06-12T09:30:24Z</time>
      </trkpt>
      <trkpt lat="45.87263" lon="4.77063">
        <ele>239</ele>
        <time>2018-06-12T09:30:25Z</time>
      </trkpt>
      <trkpt lat="45.87264" lon="4.77056">
        <ele>239</ele>
        <time>2018-06-12T09:30:26Z</time>
      </trkpt>
      <trkpt lat="45.87264" lon="4.7705">
        <ele>239</ele>
        <time>2018-06-12T09:30:27Z</time>
      </trkpt>
      <trkpt lat="45.87264" lon="4.77038">
        <ele>239</ele>
        <time>2018-06-12T09:30:28Z</time>
      </trkpt>
      <trkpt lat="45.87264" lon="4.77029">
        <ele>239</ele>
        <time>2018-06-12T09:30:30Z</time>
      </trkpt>
      <trkpt lat="45.87265" lon="4.7702">
        <ele>239</ele>
        <time>2018-06-12T09:30:31Z</time>
      </trkpt>
      <trkpt lat="45.87263" lon="4.77013">
        <ele>239</ele>
        <time>2018-06-12T09:30:32Z</time>
      </trkpt>
      <trkpt lat="45.87262" lon="4.77006">
        <ele>239</ele>
        <time>2018-06-12T09:30:33Z</time>
      </trkpt>
      <trkpt lat="45.87264" lon="4.76995">
        <ele>240</ele>
        <time>2018-06-12T09:30:35Z</time>
      </trkpt>
      <trkpt lat="45.87263" lon="4.76988">
        <ele>240</ele>
        <time>2018-06-12T09:30:36Z</time>
      </trkpt>
      <trkpt lat="45.87263" lon="4.76976">
        <ele>240</ele>
        <time>2018-06-12T09:30:38Z</time>
      </trkpt>
      <trkpt lat="45.87262" lon="4.7697">
        <ele>240</ele>
        <time>2018-06-12T09:30:39Z</time>
      </trkpt>
      <trkpt lat="45.87262" lon="4.76963">
        <ele>240</ele>
        <time>2018-06-12T09:30:40Z</time>
      </trkpt>
      <trkpt lat="45.87261" lon="4.76957">
        <ele>240</ele>
        <time>2018-06-12T09:30:41Z</time>
      </trkpt>
      <trkpt lat="45.87261" lon="4.76945">
        <ele>241</ele>
        <time>2018-06-12T09:30:43Z</time>
      </trkpt>
      <trkpt lat="45.87262" lon="4.76934">
        <ele>241</ele>
        <time>2018-06-12T09:30:44Z</time>
      </trkpt>
      <trkpt lat="45.87262" lon="4.76927">
        <ele>241</ele>
        <time>2018-06-12T09:30:45Z</time>
      </trkpt>
      <trkpt lat="45.87262" lon="4.76919">
        <ele>241</ele>
        <time>2018-06-12T09:30:46Z</time>
      </trkpt>
      <trkpt lat="45.87261" lon="4.76911">
        <ele>241</ele>
        <time>2018-06-12T09:30:47Z</time>
      </trkpt>
      <trkpt lat="45.8726" lon="4.76903">
        <ele>241</ele>
        <time>2018-06-12T09:30:48Z</time>
      </trkpt>
      <trkpt lat="45.87261" lon="4.76895">
        <ele>240</ele>
        <time>2018-06-12T09:30:49Z</time>
      </trkpt>
      <trkpt lat="45.87261" lon="4.76887">
        <ele>240</ele>
        <time>2018-06-12T09:30:50Z</time>
      </trkpt>
      <trkpt lat="45.87262" lon="4.76878">
        <ele>240</ele>
        <time>2018-06-12T09:30:51Z</time>
      </trkpt>
      <trkpt lat="45.87261" lon="4.76867">
        <ele>239</ele>
        <time>2018-06-12T09:30:52Z</time>
      </trkpt>
      <trkpt lat="45.87261" lon="4.7686">
        <ele>239</ele>
        <time>2018-06-12T09:30:53Z</time>
      </trkpt>
      <trkpt lat="45.8726" lon="4.76852">
        <ele>239</ele>
        <time>2018-06-12T09:30:54Z</time>
      </trkpt>
      <trkpt lat="45.87259" lon="4.76845">
        <ele>239</ele>
        <time>2018-06-12T09:30:55Z</time>
      </trkpt>
      <trkpt lat="45.8726" lon="4.76837">
        <ele>239</ele>
        <time>2018-06-12T09:30:56Z</time>
      </trkpt>
      <trkpt lat="45.87261" lon="4.7683">
        <ele>237</ele>
        <time>2018-06-12T09:30:57Z</time>
      </trkpt>
      <trkpt lat="45.87261" lon="4.76821">
        <ele>237</ele>
        <time>2018-06-12T09:30:58Z</time>
      </trkpt>
      <trkpt lat="45.87261" lon="4.76812">
        <ele>237</ele>
        <time>2018-06-12T09:30:59Z</time>
      </trkpt>
      <trkpt lat="45.87261" lon="4.76804">
        <ele>237</ele>
        <time>2018-06-12T09:31:00Z</time>
      </trkpt>
      <trkpt lat="45.8726" lon="4.76794">
        <ele>236</ele>
        <time>2018-06-12T09:31:01Z</time>
      </trkpt>
      <trkpt lat="45.8726" lon="4.76785">
        <ele>236</ele>
        <time>2018-06-12T09:31:02Z</time>
      </trkpt>
      <trkpt lat="45.87261" lon="4.76776">
        <ele>236</ele>
        <time>2018-06-12T09:31:03Z</time>
      </trkpt>
      <trkpt lat="45.87262" lon="4.76769">
        <ele>236</ele>
        <time>2018-06-12T09:31:04Z</time>
      </trkpt>
      <trkpt lat="45.87259" lon="4.76758">
        <ele>236</ele>
        <time>2018-06-12T09:31:05Z</time>
      </trkpt>
      <trkpt lat="45.87259" lon="4.76751">
        <ele>236</ele>
        <time>2018-06-12T09:31:06Z</time>
      </trkpt>
      <trkpt lat="45.87258" lon="4.76743">
        <ele>235</ele>
        <time>2018-06-12T09:31:07Z</time>
      </trkpt>
      <trkpt lat="45.87259" lon="4.76733">
        <ele>235</ele>
        <time>2018-06-12T09:31:08Z</time>
      </trkpt>
      <trkpt lat="45.87257" lon="4.76725">
        <ele>234</ele>
        <time>2018-06-12T09:31:09Z</time>
      </trkpt>
      <trkpt lat="45.87257" lon="4.76716">
        <ele>234</ele>
        <time>2018-06-12T09:31:10Z</time>
      </trkpt>
      <trkpt lat="45.87257" lon="4.76708">
        <ele>234</ele>
        <time>2018-06-12T09:31:11Z</time>
      </trkpt>
      <trkpt lat="45.87259" lon="4.767">
        <ele>234</ele>
        <time>2018-06-12T09:31:12Z</time>
      </trkpt>
      <trkpt lat="45.87259" lon="4.76691">
        <ele>234</ele>
        <time>2018-06-12T09:31:13Z</time>
      </trkpt>
      <trkpt lat="45.87259" lon="4.76683">
        <ele>234</ele>
        <time>2018-06-12T09:31:14Z</time>
      </trkpt>
      <trkpt lat="45.87259" lon="4.76675">
        <ele>234</ele>
        <time>2018-06-12T09:31:15Z</time>
      </trkpt>
      <trkpt lat="45.87259" lon="4.76667">
        <ele>235</ele>
        <time>2018-06-12T09:31:16Z</time>
      </trkpt>
      <trkpt lat="45.8726" lon="4.7666">
        <ele>234</ele>
        <time>2018-06-12T09:31:17Z</time>
      </trkpt>
      <trkpt lat="45.8726" lon="4.76652">
        <ele>234</ele>
        <time>2018-06-12T09:31:18Z</time>
      </trkpt>
      <trkpt lat="45.8726" lon="4.76645">
        <ele>234</ele>
        <time>2018-06-12T09:31:19Z</time>
      </trkpt>
      <trkpt lat="45.8726" lon="4.76637">
        <ele>234</ele>
        <time>2018-06-12T09:31:20Z</time>
      </trkpt>
      <trkpt lat="45.8726" lon="4.7663">
        <ele>234</ele>
        <time>2018-06-12T09:31:21Z</time>
      </trkpt>
      <trkpt lat="45.87258" lon="4.76622">
        <ele>234</ele>
        <time>2018-06-12T09:31:22Z</time>
      </trkpt>
      <trkpt lat="45.87258" lon="4.76615">
        <ele>234</ele>
        <time>2018-06-12T09:31:23Z</time>
      </trkpt>
      <trkpt lat="45.87259" lon="4.76607">
        <ele>235</ele>
        <time>2018-06-12T09:31:24Z</time>
      </trkpt>
      <trkpt lat="45.87259" lon="4.76599">
        <ele>235</ele>
        <time>2018-06-12T09:31:25Z</time>
      </trkpt>
      <trkpt lat="45.87259" lon="4.76591">
        <ele>235</ele>
        <time>2018-06-12T09:31:26Z</time>
      </trkpt>
      <trkpt lat="45.87257" lon="4.76583">
        <ele>236</ele>
        <time>2018-06-12T09:31:27Z</time>
      </trkpt>
      <trkpt lat="45.87256" lon="4.76575">
        <ele>236</ele>
        <time>2018-06-12T09:31:28Z</time>
      </trkpt>
      <trkpt lat="45.87255" lon="4.76567">
        <ele>236</ele>
        <time>2018-06-12T09:31:29Z</time>
      </trkpt>
      <trkpt lat="45.87252" lon="4.76559">
        <ele>236</ele>
        <time>2018-06-12T09:31:30Z</time>
      </trkpt>
      <trkpt lat="45.87252" lon="4.76551">
        <ele>236</ele>
        <time>2018-06-12T09:31:31Z</time>
      </trkpt>
      <trkpt lat="45.87252" lon="4.76543">
        <ele>236</ele>
        <time>2018-06-12T09:31:32Z</time>
      </trkpt>
      <trkpt lat="45.87253" lon="4.76535">
        <ele>236</ele>
        <time>2018-06-12T09:31:33Z</time>
      </trkpt>
      <trkpt lat="45.87253" lon="4.76527">
        <ele>236</ele>
        <time>2018-06-12T09:31:34Z</time>
      </trkpt>
      <trkpt lat="45.87252" lon="4.7652">
        <ele>236</ele>
        <time>2018-06-12T09:31:35Z</time>
      </trkpt>
      <trkpt lat="45.87253" lon="4.76512">
        <ele>236</ele>
        <time>2018-06-12T09:31:36Z</time>
      </trkpt>
      <trkpt lat="45.87252" lon="4.76503">
        <ele>237</ele>
        <time>2018-06-12T09:31:37Z</time>
      </trkpt>
      <trkpt lat="45.87252" lon="4.76496">
        <ele>237</ele>
        <time>2018-06-12T09:31:38Z</time>
      </trkpt>
      <trkpt lat="45.87252" lon="4.76483">
        <ele>236</ele>
        <time>2018-06-12T09:31:40Z</time>
      </trkpt>
      <trkpt lat="45.87251" lon="4.76477">
        <ele>236</ele>
        <time>2018-06-12T09:31:41Z</time>
      </trkpt>
      <trkpt lat="45.87252" lon="4.7647">
        <ele>236</ele>
        <time>2018-06-12T09:31:42Z</time>
      </trkpt>
      <trkpt lat="45.87252" lon="4.76463">
        <ele>235</ele>
        <time>2018-06-12T09:31:43Z</time>
      </trkpt>
      <trkpt lat="45.87251" lon="4.76457">
        <ele>235</ele>
        <time>2018-06-12T09:31:44Z</time>
      </trkpt>
      <trkpt lat="45.8725" lon="4.76449">
        <ele>235</ele>
        <time>2018-06-12T09:31:45Z</time>
      </trkpt>
      <trkpt lat="45.87249" lon="4.76443">
        <ele>237</ele>
        <time>2018-06-12T09:31:46Z</time>
      </trkpt>
      <trkpt lat="45.87249" lon="4.76434">
        <ele>237</ele>
        <time>2018-06-12T09:31:47Z</time>
      </trkpt>
      <trkpt lat="45.87249" lon="4.76426">
        <ele>237</ele>
        <time>2018-06-12T09:31:48Z</time>
      </trkpt>
      <trkpt lat="45.87249" lon="4.76417">
        <ele>236</ele>
        <time>2018-06-12T09:31:49Z</time>
      </trkpt>
      <trkpt lat="45.87249" lon="4.76409">
        <ele>236</ele>
        <time>2018-06-12T09:31:50Z</time>
      </trkpt>
      <trkpt lat="45.87249" lon="4.76398">
        <ele>237</ele>
        <time>2018-06-12T09:31:51Z</time>
      </trkpt>
      <trkpt lat="45.87249" lon="4.7639">
        <ele>237</ele>
        <time>2018-06-12T09:31:52Z</time>
      </trkpt>
      <trkpt lat="45.87248" lon="4.7638">
        <ele>237</ele>
        <time>2018-06-12T09:31:53Z</time>
      </trkpt>
      <trkpt lat="45.87247" lon="4.76371">
        <ele>236</ele>
        <time>2018-06-12T09:31:54Z</time>
      </trkpt>
      <trkpt lat="45.87249" lon="4.76362">
        <ele>236</ele>
        <time>2018-06-12T09:31:55Z</time>
      </trkpt>
      <trkpt lat="45.87247" lon="4.76351">
        <ele>236</ele>
        <time>2018-06-12T09:31:56Z</time>
      </trkpt>
      <trkpt lat="45.87245" lon="4.76343">
        <ele>235</ele>
        <time>2018-06-12T09:31:57Z</time>
      </trkpt>
      <trkpt lat="45.87247" lon="4.76335">
        <ele>234</ele>
        <time>2018-06-12T09:31:58Z</time>
      </trkpt>
      <trkpt lat="45.87245" lon="4.76326">
        <ele>235</ele>
        <time>2018-06-12T09:31:59Z</time>
      </trkpt>
      <trkpt lat="45.87244" lon="4.76317">
        <ele>235</ele>
        <time>2018-06-12T09:32:00Z</time>
      </trkpt>
      <trkpt lat="45.87246" lon="4.76308">
        <ele>236</ele>
        <time>2018-06-12T09:32:01Z</time>
      </trkpt>
      <trkpt lat="45.87246" lon="4.76299">
        <ele>236</ele>
        <time>2018-06-12T09:32:02Z</time>
      </trkpt>
      <trkpt lat="45.87248" lon="4.76291">
        <ele>236</ele>
        <time>2018-06-12T09:32:03Z</time>
      </trkpt>
      <trkpt lat="45.87249" lon="4.76283">
        <ele>236</ele>
        <time>2018-06-12T09:32:04Z</time>
      </trkpt>
      <trkpt lat="45.87248" lon="4.76275">
        <ele>236</ele>
        <time>2018-06-12T09:32:05Z</time>
      </trkpt>
      <trkpt lat="45.87248" lon="4.76266">
        <ele>236</ele>
        <time>2018-06-12T09:32:06Z</time>
      </trkpt>
      <trkpt lat="45.87248" lon="4.76259">
        <ele>235</ele>
        <time>2018-06-12T09:32:07Z</time>
      </trkpt>
      <trkpt lat="45.87248" lon="4.76253">
        <ele>235</ele>
        <time>2018-06-12T09:32:08Z</time>
      </trkpt>
      <trkpt lat="45.87248" lon="4.76245">
        <ele>235</ele>
        <time>2018-06-12T09:32:09Z</time>
      </trkpt>
      <trkpt lat="45.87247" lon="4.76236">
        <ele>235</ele>
        <time>2018-06-12T09:32:10Z</time>
      </trkpt>
      <trkpt lat="45.87246" lon="4.76227">
        <ele>235</ele>
        <time>2018-06-12T09:32:11Z</time>
      </trkpt>
      <trkpt lat="45.87246" lon="4.76219">
        <ele>235</ele>
        <time>2018-06-12T09:32:12Z</time>
      </trkpt>
      <trkpt lat="45.87243" lon="4.76212">
        <ele>234</ele>
        <time>2018-06-12T09:32:13Z</time>
      </trkpt>
      <trkpt lat="45.87244" lon="4.76203">
        <ele>234</ele>
        <time>2018-06-12T09:32:14Z</time>
      </trkpt>
      <trkpt lat="45.87244" lon="4.76194">
        <ele>234</ele>
        <time>2018-06-12T09:32:15Z</time>
      </trkpt>
      <trkpt lat="45.87244" lon="4.76185">
        <ele>233</ele>
        <time>2018-06-12T09:32:16Z</time>
      </trkpt>
      <trkpt lat="45.87243" lon="4.76176">
        <ele>233</ele>
        <time>2018-06-12T09:32:17Z</time>
      </trkpt>
      <trkpt lat="45.87242" lon="4.76167">
        <ele>232</ele>
        <time>2018-06-12T09:32:18Z</time>
      </trkpt>
      <trkpt lat="45.87241" lon="4.76158">
        <ele>232</ele>
        <time>2018-06-12T09:32:19Z</time>
      </trkpt>
      <trkpt lat="45.87241" lon="4.76149">
        <ele>232</ele>
        <time>2018-06-12T09:32:20Z</time>
      </trkpt>
      <trkpt lat="45.87241" lon="4.76141">
        <ele>232</ele>
        <time>2018-06-12T09:32:21Z</time>
      </trkpt>
      <trkpt lat="45.87239" lon="4.76133">
        <ele>232</ele>
        <time>2018-06-12T09:32:22Z</time>
      </trkpt>
      <trkpt lat="45.87239" lon="4.76124">
        <ele>232</ele>
        <time>2018-06-12T09:32:23Z</time>
      </trkpt>
      <trkpt lat="45.87239" lon="4.76115">
        <ele>232</ele>
        <time>2018-06-12T09:32:24Z</time>
      </trkpt>
      <trkpt lat="45.87237" lon="4.76107">
        <ele>232</ele>
        <time>2018-06-12T09:32:25Z</time>
      </trkpt>
      <trkpt lat="45.87236" lon="4.76098">
        <ele>231</ele>
        <time>2018-06-12T09:32:26Z</time>
      </trkpt>
      <trkpt lat="45.87235" lon="4.7609">
        <ele>231</ele>
        <time>2018-06-12T09:32:27Z</time>
      </trkpt>
      <trkpt lat="45.87234" lon="4.76082">
        <ele>230</ele>
        <time>2018-06-12T09:32:28Z</time>
      </trkpt>
      <trkpt lat="45.87235" lon="4.76073">
        <ele>230</ele>
        <time>2018-06-12T09:32:29Z</time>
      </trkpt>
      <trkpt lat="45.87234" lon="4.76065">
        <ele>230</ele>
        <time>2018-06-12T09:32:30Z</time>
      </trkpt>
      <trkpt lat="45.87234" lon="4.76056">
        <ele>230</ele>
        <time>2018-06-12T09:32:31Z</time>
      </trkpt>
      <trkpt lat="45.87234" lon="4.76047">
        <ele>230</ele>
        <time>2018-06-12T09:32:32Z</time>
      </trkpt>
      <trkpt lat="45.87233" lon="4.76038">
        <ele>230</ele>
        <time>2018-06-12T09:32:33Z</time>
      </trkpt>
      <trkpt lat="45.87233" lon="4.76028">
        <ele>230</ele>
        <time>2018-06-12T09:32:34Z</time>
      </trkpt>
      <trkpt lat="45.87232" lon="4.76019">
        <ele>230</ele>
        <time>2018-06-12T09:32:35Z</time>
      </trkpt>
      <trkpt lat="45.87231" lon="4.7601">
        <ele>230</ele>
        <time>2018-06-12T09:32:36Z</time>
      </trkpt>
      <trkpt lat="45.87231" lon="4.76002">
        <ele>229</ele>
        <time>2018-06-12T09:32:37Z</time>
      </trkpt>
      <trkpt lat="45.8723" lon="4.75992">
        <ele>228</ele>
        <time>2018-06-12T09:32:38Z</time>
      </trkpt>
      <trkpt lat="45.87229" lon="4.75982">
        <ele>228</ele>
        <time>2018-06-12T09:32:39Z</time>
      </trkpt>
      <trkpt lat="45.87228" lon="4.75972">
        <ele>228</ele>
        <time>2018-06-12T09:32:40Z</time>
      </trkpt>
      <trkpt lat="45.87227" lon="4.75962">
        <ele>228</ele>
        <time>2018-06-12T09:32:41Z</time>
      </trkpt>
      <trkpt lat="45.87227" lon="4.75952">
        <ele>228</ele>
        <time>2018-06-12T09:32:42Z</time>
      </trkpt>
      <trkpt lat="45.87225" lon="4.75943">
        <ele>228</ele>
        <time>2018-06-12T09:32:43Z</time>
      </trkpt>
      <trkpt lat="45.87222" lon="4.75933">
        <ele>228</ele>
        <time>2018-06-12T09:32:44Z</time>
      </trkpt>
      <trkpt lat="45.87221" lon="4.75922">
        <ele>228</ele>
        <time>2018-06-12T09:32:45Z</time>
      </trkpt>
      <trkpt lat="45.87221" lon="4.75913">
        <ele>227</ele>
        <time>2018-06-12T09:32:46Z</time>
      </trkpt>
      <trkpt lat="45.8722" lon="4.75902">
        <ele>227</ele>
        <time>2018-06-12T09:32:47Z</time>
      </trkpt>
      <trkpt lat="45.87219" lon="4.75892">
        <ele>227</ele>
        <time>2018-06-12T09:32:48Z</time>
      </trkpt>
      <trkpt lat="45.87218" lon="4.75881">
        <ele>226</ele>
        <time>2018-06-12T09:32:49Z</time>
      </trkpt>
      <trkpt lat="45.87217" lon="4.75871">
        <ele>226</ele>
        <time>2018-06-12T09:32:50Z</time>
      </trkpt>
      <trkpt lat="45.87216" lon="4.75859">
        <ele>226</ele>
        <time>2018-06-12T09:32:51Z</time>
      </trkpt>
      <trkpt lat="45.87216" lon="4.75848">
        <ele>226</ele>
        <time>2018-06-12T09:32:52Z</time>
      </trkpt>
      <trkpt lat="45.87212" lon="4.75838">
        <ele>226</ele>
        <time>2018-06-12T09:32:53Z</time>
      </trkpt>
      <trkpt lat="45.8721" lon="4.75826">
        <ele>225</ele>
        <time>2018-06-12T09:32:54Z</time>
      </trkpt>
      <trkpt lat="45.87207" lon="4.75814">
        <ele>225</ele>
        <time>2018-06-12T09:32:55Z</time>
      </trkpt>
      <trkpt lat="45.87204" lon="4.75803">
        <ele>224</ele>
        <time>2018-06-12T09:32:56Z</time>
      </trkpt>
      <trkpt lat="45.872" lon="4.75792">
        <ele>224</ele>
        <time>2018-06-12T09:32:57Z</time>
      </trkpt>
      <trkpt lat="45.87196" lon="4.75781">
        <ele>224</ele>
        <time>2018-06-12T09:32:58Z</time>
      </trkpt>
      <trkpt lat="45.87193" lon="4.7577">
        <ele>224</ele>
        <time>2018-06-12T09:32:59Z</time>
      </trkpt>
      <trkpt lat="45.87187" lon="4.75759">
        <ele>224</ele>
        <time>2018-06-12T09:33:00Z</time>
      </trkpt>
      <trkpt lat="45.87184" lon="4.75749">
        <ele>223</ele>
        <time>2018-06-12T09:33:01Z</time>
      </trkpt>
      <trkpt lat="45.87181" lon="4.75739">
        <ele>223</ele>
        <time>2018-06-12T09:33:02Z</time>
      </trkpt>
      <trkpt lat="45.87178" lon="4.75729">
        <ele>223</ele>
        <time>2018-06-12T09:33:03Z</time>
      </trkpt>
      <trkpt lat="45.87176" lon="4.7572">
        <ele>223</ele>
        <time>2018-06-12T09:33:04Z</time>
      </trkpt>
      <trkpt lat="45.87174" lon="4.75711">
        <ele>223</ele>
        <time>2018-06-12T09:33:05Z</time>
      </trkpt>
      <trkpt lat="45.87172" lon="4.75701">
        <ele>223</ele>
        <time>2018-06-12T09:33:06Z</time>
      </trkpt>
      <trkpt lat="45.87171" lon="4.75693">
        <ele>223</ele>
        <time>2018-06-12T09:33:07Z</time>
      </trkpt>
      <trkpt lat="45.8717" lon="4.75685">
        <ele>223</ele>
        <time>2018-06-12T09:33:08Z</time>
      </trkpt>
      <trkpt lat="45.8717" lon="4.75677">
        <ele>223</ele>
        <time>2018-06-12T09:33:09Z</time>
      </trkpt>
      <trkpt lat="45.87168" lon="4.75668">
        <ele>223</ele>
        <time>2018-06-12T09:33:10Z</time>
      </trkpt>
      <trkpt lat="45.87168" lon="4.75659">
        <ele>223</ele>
        <time>2018-06-12T09:33:11Z</time>
      </trkpt>
      <trkpt lat="45.87168" lon="4.7565">
        <ele>222</ele>
        <time>2018-06-12T09:33:12Z</time>
      </trkpt>
      <trkpt lat="45.87168" lon="4.7564">
        <ele>222</ele>
        <time>2018-06-12T09:33:13Z</time>
      </trkpt>
      <trkpt lat="45.87169" lon="4.75631">
        <ele>222</ele>
        <time>2018-06-12T09:33:14Z</time>
      </trkpt>
      <trkpt lat="45.87171" lon="4.7562">
        <ele>222</ele>
        <time>2018-06-12T09:33:15Z</time>
      </trkpt>
      <trkpt lat="45.87171" lon="4.7561">
        <ele>222</ele>
        <time>2018-06-12T09:33:16Z</time>
      </trkpt>
      <trkpt lat="45.87172" lon="4.75599">
        <ele>222</ele>
        <time>2018-06-12T09:33:17Z</time>
      </trkpt>
      <trkpt lat="45.87172" lon="4.7559">
        <ele>223</ele>
        <time>2018-06-12T09:33:18Z</time>
      </trkpt>
      <trkpt lat="45.87172" lon="4.75581">
        <ele>223</ele>
        <time>2018-06-12T09:33:19Z</time>
      </trkpt>
      <trkpt lat="45.87173" lon="4.75572">
        <ele>222</ele>
        <time>2018-06-12T09:33:20Z</time>
      </trkpt>
      <trkpt lat="45.87173" lon="4.75561">
        <ele>222</ele>
        <time>2018-06-12T09:33:21Z</time>
      </trkpt>
      <trkpt lat="45.87173" lon="4.75552">
        <ele>222</ele>
        <time>2018-06-12T09:33:22Z</time>
      </trkpt>
      <trkpt lat="45.87173" lon="4.75542">
        <ele>222</ele>
        <time>2018-06-12T09:33:23Z</time>
      </trkpt>
      <trkpt lat="45.87174" lon="4.75532">
        <ele>222</ele>
        <time>2018-06-12T09:33:24Z</time>
      </trkpt>
      <trkpt lat="45.87172" lon="4.75524">
        <ele>222</ele>
        <time>2018-06-12T09:33:25Z</time>
      </trkpt>
      <trkpt lat="45.87172" lon="4.75515">
        <ele>222</ele>
        <time>2018-06-12T09:33:26Z</time>
      </trkpt>
      <trkpt lat="45.87173" lon="4.75505">
        <ele>223</ele>
        <time>2018-06-12T09:33:27Z</time>
      </trkpt>
      <trkpt lat="45.87171" lon="4.75496">
        <ele>223</ele>
        <time>2018-06-12T09:33:28Z</time>
      </trkpt>
      <trkpt lat="45.8717" lon="4.75487">
        <ele>223</ele>
        <time>2018-06-12T09:33:29Z</time>
      </trkpt>
      <trkpt lat="45.87172" lon="4.75478">
        <ele>222</ele>
        <time>2018-06-12T09:33:30Z</time>
      </trkpt>
      <trkpt lat="45.87172" lon="4.75469">
        <ele>222</ele>
        <time>2018-06-12T09:33:31Z</time>
      </trkpt>
      <trkpt lat="45.87171" lon="4.7546">
        <ele>222</ele>
        <time>2018-06-12T09:33:32Z</time>
      </trkpt>
      <trkpt lat="45.8717" lon="4.75452">
        <ele>222</ele>
        <time>2018-06-12T09:33:33Z</time>
      </trkpt>
      <trkpt lat="45.8717" lon="4.75443">
        <ele>222</ele>
        <time>2018-06-12T09:33:34Z</time>
      </trkpt>
      <trkpt lat="45.87169" lon="4.75433">
        <ele>223</ele>
        <time>2018-06-12T09:33:35Z</time>
      </trkpt>
      <trkpt lat="45.87169" lon="4.75424">
        <ele>223</ele>
        <time>2018-06-12T09:33:36Z</time>
      </trkpt>
      <trkpt lat="45.87168" lon="4.75416">
        <ele>223</ele>
        <time>2018-06-12T09:33:37Z</time>
      </trkpt>
      <trkpt lat="45.87169" lon="4.75407">
        <ele>223</ele>
        <time>2018-06-12T09:33:38Z</time>
      </trkpt>
      <trkpt lat="45.87168" lon="4.75398">
        <ele>223</ele>
        <time>2018-06-12T09:33:39Z</time>
      </trkpt>
      <trkpt lat="45.87166" lon="4.7539">
        <ele>224</ele>
        <time>2018-06-12T09:33:40Z</time>
      </trkpt>
      <trkpt lat="45.87166" lon="4.75381">
        <ele>224</ele>
        <time>2018-06-12T09:33:41Z</time>
      </trkpt>
      <trkpt lat="45.87165" lon="4.75372">
        <ele>224</ele>
        <time>2018-06-12T09:33:42Z</time>
      </trkpt>
      <trkpt lat="45.87164" lon="4.75365">
        <ele>224</ele>
        <time>2018-06-12T09:33:43Z</time>
      </trkpt>
      <trkpt lat="45.87164" lon="4.75356">
        <ele>224</ele>
        <time>2018-06-12T09:33:44Z</time>
      </trkpt>
      <trkpt lat="45.87163" lon="4.75349">
        <ele>224</ele>
        <time>2018-06-12T09:33:45Z</time>
      </trkpt>
      <trkpt lat="45.87163" lon="4.75341">
        <ele>224</ele>
        <time>2018-06-12T09:33:46Z</time>
      </trkpt>
      <trkpt lat="45.87163" lon="4.75334">
        <ele>224</ele>
        <time>2018-06-12T09:33:47Z</time>
      </trkpt>
      <trkpt lat="45.87164" lon="4.75326">
        <ele>224</ele>
        <time>2018-06-12T09:33:48Z</time>
      </trkpt>
      <trkpt lat="45.8716" lon="4.75319">
        <ele>224</ele>
        <time>2018-06-12T09:33:49Z</time>
      </trkpt>
      <trkpt lat="45.8716" lon="4.75311">
        <ele>224</ele>
        <time>2018-06-12T09:33:50Z</time>
      </trkpt>
      <trkpt lat="45.8716" lon="4.75303">
        <ele>225</ele>
        <time>2018-06-12T09:33:51Z</time>
      </trkpt>
      <trkpt lat="45.87156" lon="4.75297">
        <ele>225</ele>
        <time>2018-06-12T09:33:52Z</time>
      </trkpt>
      <trkpt lat="45.87154" lon="4.7529">
        <ele>225</ele>
        <time>2018-06-12T09:33:53Z</time>
      </trkpt>
      <trkpt lat="45.87154" lon="4.75282">
        <ele>224</ele>
        <time>2018-06-12T09:33:54Z</time>
      </trkpt>
      <trkpt lat="45.87152" lon="4.75275">
        <ele>224</ele>
        <time>2018-06-12T09:33:55Z</time>
      </trkpt>
      <trkpt lat="45.87153" lon="4.75268">
        <ele>224</ele>
        <time>2018-06-12T09:33:56Z</time>
      </trkpt>
      <trkpt lat="45.87152" lon="4.7526">
        <ele>224</ele>
        <time>2018-06-12T09:33:57Z</time>
      </trkpt>
      <trkpt lat="45.87151" lon="4.75253">
        <ele>224</ele>
        <time>2018-06-12T09:33:58Z</time>
      </trkpt>
      <trkpt lat="45.8715" lon="4.75245">
        <ele>224</ele>
        <time>2018-06-12T09:33:59Z</time>
      </trkpt>
      <trkpt lat="45.87148" lon="4.75237">
        <ele>224</ele>
        <time>2018-06-12T09:34:00Z</time>
      </trkpt>
      <trkpt lat="45.87148" lon="4.75231">
        <ele>225</ele>
        <time>2018-06-12T09:34:01Z</time>
      </trkpt>
      <trkpt lat="45.87147" lon="4.75224">
        <ele>225</ele>
        <time>2018-06-12T09:34:02Z</time>
      </trkpt>
      <trkpt lat="45.87145" lon="4.75216">
        <ele>225</ele>
        <time>2018-06-12T09:34:03Z</time>
      </trkpt>
      <trkpt lat="45.87144" lon="4.75208">
        <ele>225</ele>
        <time>2018-06-12T09:34:04Z</time>
      </trkpt>
      <trkpt lat="45.87141" lon="4.75199">
        <ele>225</ele>
        <time>2018-06-12T09:34:05Z</time>
      </trkpt>
      <trkpt lat="45.87138" lon="4.75191">
        <ele>225</ele>
        <time>2018-06-12T09:34:06Z</time>
      </trkpt>
      <trkpt lat="45.87135" lon="4.75185">
        <ele>225</ele>
        <time>2018-06-12T09:34:07Z</time>
      </trkpt>
      <trkpt lat="45.87134" lon="4.75179">
        <ele>225</ele>
        <time>2018-06-12T09:34:08Z</time>
      </trkpt>
      <trkpt lat="45.87131" lon="4.75173">
        <ele>225</ele>
        <time>2018-06-12T09:34:09Z</time>
      </trkpt>
      <trkpt lat="45.87129" lon="4.75166">
        <ele>225</ele>
        <time>2018-06-12T09:34:10Z</time>
      </trkpt>
      <trkpt lat="45.87128" lon="4.75159">
        <ele>225</ele>
        <time>2018-06-12T09:34:11Z</time>
      </trkpt>
      <trkpt lat="45.87125" lon="4.75151">
        <ele>225</ele>
        <time>2018-06-12T09:34:12Z</time>
      </trkpt>
      <trkpt lat="45.87123" lon="4.75144">
        <ele>225</ele>
        <time>2018-06-12T09:34:13Z</time>
      </trkpt>
      <trkpt lat="45.87124" lon="4.75137">
        <ele>225</ele>
        <time>2018-06-12T09:34:14Z</time>
      </trkpt>
      <trkpt lat="45.87122" lon="4.75129">
        <ele>225</ele>
        <time>2018-06-12T09:34:15Z</time>
      </trkpt>
      <trkpt lat="45.8712" lon="4.75121">
        <ele>225</ele>
        <time>2018-06-12T09:34:16Z</time>
      </trkpt>
      <trkpt lat="45.8712" lon="4.75115">
        <ele>225</ele>
        <time>2018-06-12T09:34:17Z</time>
      </trkpt>
      <trkpt lat="45.87119" lon="4.75108">
        <ele>225</ele>
        <time>2018-06-12T09:34:18Z</time>
      </trkpt>
      <trkpt lat="45.87118" lon="4.751">
        <ele>225</ele>
        <time>2018-06-12T09:34:19Z</time>
      </trkpt>
      <trkpt lat="45.87118" lon="4.75094">
        <ele>225</ele>
        <time>2018-06-12T09:34:20Z</time>
      </trkpt>
      <trkpt lat="45.87118" lon="4.75085">
        <ele>225</ele>
        <time>2018-06-12T09:34:21Z</time>
      </trkpt>
      <trkpt lat="45.87118" lon="4.75077">
        <ele>225</ele>
        <time>2018-06-12T09:34:22Z</time>
      </trkpt>
      <trkpt lat="45.87116" lon="4.75069">
        <ele>225</ele>
        <time>2018-06-12T09:34:23Z</time>
      </trkpt>
      <trkpt lat="45.87115" lon="4.75062">
        <ele>226</ele>
        <time>2018-06-12T09:34:24Z</time>
      </trkpt>
      <trkpt lat="45.87114" lon="4.75053">
        <ele>226</ele>
        <time>2018-06-12T09:34:25Z</time>
      </trkpt>
      <trkpt lat="45.87113" lon="4.75046">
        <ele>226</ele>
        <time>2018-06-12T09:34:26Z</time>
      </trkpt>
      <trkpt lat="45.87112" lon="4.75038">
        <ele>226</ele>
        <time>2018-06-12T09:34:27Z</time>
      </trkpt>
      <trkpt lat="45.87113" lon="4.75029">
        <ele>226</ele>
        <time>2018-06-12T09:34:28Z</time>
      </trkpt>
      <trkpt lat="45.87113" lon="4.75021">
        <ele>226</ele>
        <time>2018-06-12T09:34:29Z</time>
      </trkpt>
      <trkpt lat="45.87113" lon="4.75014">
        <ele>226</ele>
        <time>2018-06-12T09:34:30Z</time>
      </trkpt>
      <trkpt lat="45.87114" lon="4.75005">
        <ele>226</ele>
        <time>2018-06-12T09:34:31Z</time>
      </trkpt>
      <trkpt lat="45.87114" lon="4.74997">
        <ele>226</ele>
        <time>2018-06-12T09:34:32Z</time>
      </trkpt>
      <trkpt lat="45.87115" lon="4.74989">
        <ele>226</ele>
        <time>2018-06-12T09:34:33Z</time>
      </trkpt>
      <trkpt lat="45.87116" lon="4.74982">
        <ele>226</ele>
        <time>2018-06-12T09:34:34Z</time>
      </trkpt>
      <trkpt lat="45.87117" lon="4.74975">
        <ele>226</ele>
        <time>2018-06-12T09:34:35Z</time>
      </trkpt>
      <trkpt lat="45.87119" lon="4.74967">
        <ele>226</ele>
        <time>2018-06-12T09:34:36Z</time>
      </trkpt>
      <trkpt lat="45.87119" lon="4.74959">
        <ele>226</ele>
        <time>2018-06-12T09:34:37Z</time>
      </trkpt>
      <trkpt lat="45.8712" lon="4.74952">
        <ele>226</ele>
        <time>2018-06-12T09:34:38Z</time>
      </trkpt>
      <trkpt lat="45.87123" lon="4.74944">
        <ele>226</ele>
        <time>2018-06-12T09:34:39Z</time>
      </trkpt>
      <trkpt lat="45.87126" lon="4.74937">
        <ele>226</ele>
        <time>2018-06-12T09:34:40Z</time>
      </trkpt>
      <trkpt lat="45.8713" lon="4.74931">
        <ele>226</ele>
        <time>2018-06-12T09:34:41Z</time>
      </trkpt>
      <trkpt lat="45.87132" lon="4.74924">
        <ele>226</ele>
        <time>2018-06-12T09:34:42Z</time>
      </trkpt>
      <trkpt lat="45.87135" lon="4.74916">
        <ele>225</ele>
        <time>2018-06-12T09:34:43Z</time>
      </trkpt>
      <trkpt lat="45.87133" lon="4.74907">
        <ele>225</ele>
        <time>2018-06-12T09:34:44Z</time>
      </trkpt>
      <trkpt lat="45.8713" lon="4.749">
        <ele>225</ele>
        <time>2018-06-12T09:34:45Z</time>
      </trkpt>
      <trkpt lat="45.87128" lon="4.74891">
        <ele>225</ele>
        <time>2018-06-12T09:34:46Z</time>
      </trkpt>
      <trkpt lat="45.87125" lon="4.74883">
        <ele>225</ele>
        <time>2018-06-12T09:34:47Z</time>
      </trkpt>
      <trkpt lat="45.87124" lon="4.74874">
        <ele>225</ele>
        <time>2018-06-12T09:34:48Z</time>
      </trkpt>
      <trkpt lat="45.87122" lon="4.74865">
        <ele>225</ele>
        <time>2018-06-12T09:34:49Z</time>
      </trkpt>
      <trkpt lat="45.87123" lon="4.74855">
        <ele>224</ele>
        <time>2018-06-12T09:34:50Z</time>
      </trkpt>
      <trkpt lat="45.87122" lon="4.74846">
        <ele>224</ele>
        <time>2018-06-12T09:34:51Z</time>
      </trkpt>
      <trkpt lat="45.87121" lon="4.74836">
        <ele>224</ele>
        <time>2018-06-12T09:34:52Z</time>
      </trkpt>
      <trkpt lat="45.87121" lon="4.74828">
        <ele>223</ele>
        <time>2018-06-12T09:34:53Z</time>
      </trkpt>
      <trkpt lat="45.87122" lon="4.74817">
        <ele>223</ele>
        <time>2018-06-12T09:34:54Z</time>
      </trkpt>
      <trkpt lat="45.87122" lon="4.74808">
        <ele>223</ele>
        <time>2018-06-12T09:34:55Z</time>
      </trkpt>
      <trkpt lat="45.87122" lon="4.74798">
        <ele>222</ele>
        <time>2018-06-12T09:34:56Z</time>
      </trkpt>
      <trkpt lat="45.87122" lon="4.74788">
        <ele>222</ele>
        <time>2018-06-12T09:34:57Z</time>
      </trkpt>
      <trkpt lat="45.87122" lon="4.74778">
        <ele>222</ele>
        <time>2018-06-12T09:34:58Z</time>
      </trkpt>
      <trkpt lat="45.87123" lon="4.74768">
        <ele>222</ele>
        <time>2018-06-12T09:34:59Z</time>
      </trkpt>
      <trkpt lat="45.87123" lon="4.74758">
        <ele>222</ele>
        <time>2018-06-12T09:35:00Z</time>
      </trkpt>
      <trkpt lat="45.87122" lon="4.74749">
        <ele>221</ele>
        <time>2018-06-12T09:35:01Z</time>
      </trkpt>
      <trkpt lat="45.87122" lon="4.7474">
        <ele>221</ele>
        <time>2018-06-12T09:35:02Z</time>
      </trkpt>
      <trkpt lat="45.87121" lon="4.74729">
        <ele>221</ele>
        <time>2018-06-12T09:35:03Z</time>
      </trkpt>
      <trkpt lat="45.8712" lon="4.74719">
        <ele>221</ele>
        <time>2018-06-12T09:35:04Z</time>
      </trkpt>
      <trkpt lat="45.8712" lon="4.74709">
        <ele>221</ele>
        <time>2018-06-12T09:35:05Z</time>
      </trkpt>
      <trkpt lat="45.87118" lon="4.74699">
        <ele>221</ele>
        <time>2018-06-12T09:35:06Z</time>
      </trkpt>
      <trkpt lat="45.87119" lon="4.7469">
        <ele>221</ele>
        <time>2018-06-12T09:35:07Z</time>
      </trkpt>
      <trkpt lat="45.87118" lon="4.74681">
        <ele>221</ele>
        <time>2018-06-12T09:35:08Z</time>
      </trkpt>
      <trkpt lat="45.87118" lon="4.74672">
        <ele>222</ele>
        <time>2018-06-12T09:35:09Z</time>
      </trkpt>
      <trkpt lat="45.87117" lon="4.74663">
        <ele>222</ele>
        <time>2018-06-12T09:35:10Z</time>
      </trkpt>
      <trkpt lat="45.87115" lon="4.74653">
        <ele>222</ele>
        <time>2018-06-12T09:35:11Z</time>
      </trkpt>
      <trkpt lat="45.87115" lon="4.74642">
        <ele>222</ele>
        <time>2018-06-12T09:35:12Z</time>
      </trkpt>
      <trkpt lat="45.87114" lon="4.74633">
        <ele>222</ele>
        <time>2018-06-12T09:35:13Z</time>
      </trkpt>
      <trkpt lat="45.87114" lon="4.74625">
        <ele>222</ele>
        <time>2018-06-12T09:35:14Z</time>
      </trkpt>
      <trkpt lat="45.87112" lon="4.74616">
        <ele>222</ele>
        <time>2018-06-12T09:35:15Z</time>
      </trkpt>
      <trkpt lat="45.87111" lon="4.74607">
        <ele>222</ele>
        <time>2018-06-12T09:35:16Z</time>
      </trkpt>
      <trkpt lat="45.8711" lon="4.74597">
        <ele>222</ele>
        <time>2018-06-12T09:35:17Z</time>
      </trkpt>
      <trkpt lat="45.8711" lon="4.74588">
        <ele>222</ele>
        <time>2018-06-12T09:35:18Z</time>
      </trkpt>
      <trkpt lat="45.8711" lon="4.74579">
        <ele>221</ele>
        <time>2018-06-12T09:35:19Z</time>
      </trkpt>
      <trkpt lat="45.87107" lon="4.74571">
        <ele>221</ele>
        <time>2018-06-12T09:35:20Z</time>
      </trkpt>
      <trkpt lat="45.87106" lon="4.74563">
        <ele>220</ele>
        <time>2018-06-12T09:35:21Z</time>
      </trkpt>
      <trkpt lat="45.87103" lon="4.74557">
        <ele>220</ele>
        <time>2018-06-12T09:35:22Z</time>
      </trkpt>
      <trkpt lat="45.87101" lon="4.74549">
        <ele>220</ele>
        <time>2018-06-12T09:35:23Z</time>
      </trkpt>
      <trkpt lat="45.871" lon="4.7454">
        <ele>220</ele>
        <time>2018-06-12T09:35:24Z</time>
      </trkpt>
      <trkpt lat="45.87101" lon="4.74532">
        <ele>220</ele>
        <time>2018-06-12T09:35:25Z</time>
      </trkpt>
      <trkpt lat="45.87103" lon="4.74524">
        <ele>220</ele>
        <time>2018-06-12T09:35:26Z</time>
      </trkpt>
      <trkpt lat="45.87105" lon="4.74517">
        <ele>219</ele>
        <time>2018-06-12T09:35:27Z</time>
      </trkpt>
      <trkpt lat="45.87108" lon="4.74511">
        <ele>219</ele>
        <time>2018-06-12T09:35:28Z</time>
      </trkpt>
      <trkpt lat="45.87109" lon="4.74503">
        <ele>219</ele>
        <time>2018-06-12T09:35:29Z</time>
      </trkpt>
      <trkpt lat="45.8711" lon="4.74494">
        <ele>218</ele>
        <time>2018-06-12T09:35:30Z</time>
      </trkpt>
      <trkpt lat="45.87107" lon="4.74486">
        <ele>218</ele>
        <time>2018-06-12T09:35:31Z</time>
      </trkpt>
      <trkpt lat="45.87106" lon="4.74477">
        <ele>218</ele>
        <time>2018-06-12T09:35:32Z</time>
      </trkpt>
      <trkpt lat="45.87103" lon="4.74468">
        <ele>218</ele>
        <time>2018-06-12T09:35:33Z</time>
      </trkpt>
      <trkpt lat="45.87103" lon="4.74459">
        <ele>218</ele>
        <time>2018-06-12T09:35:34Z</time>
      </trkpt>
      <trkpt lat="45.87102" lon="4.7445">
        <ele>218</ele>
        <time>2018-06-12T09:35:35Z</time>
      </trkpt>
      <trkpt lat="45.87101" lon="4.74441">
        <ele>218</ele>
        <time>2018-06-12T09:35:36Z</time>
      </trkpt>
      <trkpt lat="45.871" lon="4.74432">
        <ele>218</ele>
        <time>2018-06-12T09:35:37Z</time>
      </trkpt>
      <trkpt lat="45.87098" lon="4.74423">
        <ele>218</ele>
        <time>2018-06-12T09:35:38Z</time>
      </trkpt>
      <trkpt lat="45.87095" lon="4.74415">
        <ele>218</ele>
        <time>2018-06-12T09:35:39Z</time>
      </trkpt>
      <trkpt lat="45.87093" lon="4.74405">
        <ele>218</ele>
        <time>2018-06-12T09:35:40Z</time>
      </trkpt>
      <trkpt lat="45.87093" lon="4.74397">
        <ele>218</ele>
        <time>2018-06-12T09:35:41Z</time>
      </trkpt>
      <trkpt lat="45.87092" lon="4.7439">
        <ele>218</ele>
        <time>2018-06-12T09:35:42Z</time>
      </trkpt>
      <trkpt lat="45.8709" lon="4.74381">
        <ele>218</ele>
        <time>2018-06-12T09:35:43Z</time>
      </trkpt>
      <trkpt lat="45.87087" lon="4.74373">
        <ele>218</ele>
        <time>2018-06-12T09:35:44Z</time>
      </trkpt>
      <trkpt lat="45.87087" lon="4.74366">
        <ele>218</ele>
        <time>2018-06-12T09:35:45Z</time>
      </trkpt>
      <trkpt lat="45.87085" lon="4.74358">
        <ele>218</ele>
        <time>2018-06-12T09:35:46Z</time>
      </trkpt>
      <trkpt lat="45.87082" lon="4.7435">
        <ele>219</ele>
        <time>2018-06-12T09:35:47Z</time>
      </trkpt>
      <trkpt lat="45.8708" lon="4.74341">
        <ele>219</ele>
        <time>2018-06-12T09:35:48Z</time>
      </trkpt>
      <trkpt lat="45.87079" lon="4.7433">
        <ele>219</ele>
        <time>2018-06-12T09:35:49Z</time>
      </trkpt>
      <trkpt lat="45.87077" lon="4.74319">
        <ele>218</ele>
        <time>2018-06-12T09:35:50Z</time>
      </trkpt>
      <trkpt lat="45.87077" lon="4.74309">
        <ele>218</ele>
        <time>2018-06-12T09:35:51Z</time>
      </trkpt>
      <trkpt lat="45.87076" lon="4.74299">
        <ele>218</ele>
        <time>2018-06-12T09:35:52Z</time>
      </trkpt>
      <trkpt lat="45.87076" lon="4.74289">
        <ele>217</ele>
        <time>2018-06-12T09:35:53Z</time>
      </trkpt>
      <trkpt lat="45.87073" lon="4.74279">
        <ele>217</ele>
        <time>2018-06-12T09:35:54Z</time>
      </trkpt>
      <trkpt lat="45.87072" lon="4.74268">
        <ele>216</ele>
        <time>2018-06-12T09:35:55Z</time>
      </trkpt>
      <trkpt lat="45.87069" lon="4.74258">
        <ele>216</ele>
        <time>2018-06-12T09:35:56Z</time>
      </trkpt>
      <trkpt lat="45.87067" lon="4.74245">
        <ele>214</ele>
        <time>2018-06-12T09:35:57Z</time>
      </trkpt>
      <trkpt lat="45.87066" lon="4.74234">
        <ele>214</ele>
        <time>2018-06-12T09:35:58Z</time>
      </trkpt>
      <trkpt lat="45.87066" lon="4.74224">
        <ele>214</ele>
        <time>2018-06-12T09:35:59Z</time>
      </trkpt>
      <trkpt lat="45.87067" lon="4.74211">
        <ele>214</ele>
        <time>2018-06-12T09:36:00Z</time>
      </trkpt>
      <trkpt lat="45.87068" lon="4.74199">
        <ele>213</ele>
        <time>2018-06-12T09:36:01Z</time>
      </trkpt>
      <trkpt lat="45.87069" lon="4.74189">
        <ele>213</ele>
        <time>2018-06-12T09:36:02Z</time>
      </trkpt>
      <trkpt lat="45.87072" lon="4.74177">
        <ele>212</ele>
        <time>2018-06-12T09:36:03Z</time>
      </trkpt>
      <trkpt lat="45.87072" lon="4.74166">
        <ele>212</ele>
        <time>2018-06-12T09:36:04Z</time>
      </trkpt>
      <trkpt lat="45.8707" lon="4.74155">
        <ele>212</ele>
        <time>2018-06-12T09:36:05Z</time>
      </trkpt>
      <trkpt lat="45.87071" lon="4.74145">
        <ele>212</ele>
        <time>2018-06-12T09:36:06Z</time>
      </trkpt>
      <trkpt lat="45.87072" lon="4.74136">
        <ele>212</ele>
        <time>2018-06-12T09:36:07Z</time>
      </trkpt>
      <trkpt lat="45.8707" lon="4.74126">
        <ele>212</ele>
        <time>2018-06-12T09:36:08Z</time>
      </trkpt>
      <trkpt lat="45.8707" lon="4.74117">
        <ele>212</ele>
        <time>2018-06-12T09:36:09Z</time>
      </trkpt>
      <trkpt lat="45.8707" lon="4.74109">
        <ele>212</ele>
        <time>2018-06-12T09:36:10Z</time>
      </trkpt>
      <trkpt lat="45.87071" lon="4.74101">
        <ele>212</ele>
        <time>2018-06-12T09:36:11Z</time>
      </trkpt>
      <trkpt lat="45.87071" lon="4.74093">
        <ele>212</ele>
        <time>2018-06-12T09:36:12Z</time>
      </trkpt>
      <trkpt lat="45.87071" lon="4.74085">
        <ele>212</ele>
        <time>2018-06-12T09:36:13Z</time>
      </trkpt>
      <trkpt lat="45.87071" lon="4.74076">
        <ele>213</ele>
        <time>2018-06-12T09:36:14Z</time>
      </trkpt>
      <trkpt lat="45.87071" lon="4.74069">
        <ele>214</ele>
        <time>2018-06-12T09:36:15Z</time>
      </trkpt>
      <trkpt lat="45.8707" lon="4.74062">
        <ele>214</ele>
        <time>2018-06-12T09:36:16Z</time>
      </trkpt>
      <trkpt lat="45.8707" lon="4.74055">
        <ele>214</ele>
        <time>2018-06-12T09:36:17Z</time>
      </trkpt>
      <trkpt lat="45.8707" lon="4.74047">
        <ele>215</ele>
        <time>2018-06-12T09:36:18Z</time>
      </trkpt>
      <trkpt lat="45.8707" lon="4.74039">
        <ele>215</ele>
        <time>2018-06-12T09:36:19Z</time>
      </trkpt>
      <trkpt lat="45.8707" lon="4.74031">
        <ele>215</ele>
        <time>2018-06-12T09:36:20Z</time>
      </trkpt>
      <trkpt lat="45.8707" lon="4.74026">
        <ele>215</ele>
        <time>2018-06-12T09:36:21Z</time>
      </trkpt>
      <trkpt lat="45.8707" lon="4.74018">
        <ele>215</ele>
        <time>2018-06-12T09:36:22Z</time>
      </trkpt>
      <trkpt lat="45.87071" lon="4.74007">
        <ele>216</ele>
        <time>2018-06-12T09:36:24Z</time>
      </trkpt>
      <trkpt lat="45.87071" lon="4.74001">
        <ele>216</ele>
        <time>2018-06-12T09:36:25Z</time>
      </trkpt>
      <trkpt lat="45.8707" lon="4.73988">
        <ele>217</ele>
        <time>2018-06-12T09:36:27Z</time>
      </trkpt>
      <trkpt lat="45.87069" lon="4.73982">
        <ele>217</ele>
        <time>2018-06-12T09:36:28Z</time>
      </trkpt>
      <trkpt lat="45.87069" lon="4.7397">
        <ele>217</ele>
        <time>2018-06-12T09:36:30Z</time>
      </trkpt>
      <trkpt lat="45.87067" lon="4.73965">
        <ele>217</ele>
        <time>2018-06-12T09:36:31Z</time>
      </trkpt>
      <trkpt lat="45.87069" lon="4.73953">
        <ele>218</ele>
        <time>2018-06-12T09:36:33Z</time>
      </trkpt>
      <trkpt lat="45.87069" lon="4.73946">
        <ele>218</ele>
        <time>2018-06-12T09:36:34Z</time>
      </trkpt>
      <trkpt lat="45.87067" lon="4.73934">
        <ele>218</ele>
        <time>2018-06-12T09:36:36Z</time>
      </trkpt>
      <trkpt lat="45.87067" lon="4.73925">
        <ele>218</ele>
        <time>2018-06-12T09:36:37Z</time>
      </trkpt>
      <trkpt lat="45.87067" lon="4.73917">
        <ele>218</ele>
        <time>2018-06-12T09:36:38Z</time>
      </trkpt>
      <trkpt lat="45.87066" lon="4.73909">
        <ele>218</ele>
        <time>2018-06-12T09:36:39Z</time>
      </trkpt>
      <trkpt lat="45.87066" lon="4.73899">
        <ele>218</ele>
        <time>2018-06-12T09:36:40Z</time>
      </trkpt>
      <trkpt lat="45.87066" lon="4.73892">
        <ele>218</ele>
        <time>2018-06-12T09:36:41Z</time>
      </trkpt>
      <trkpt lat="45.87064" lon="4.73885">
        <ele>218</ele>
        <time>2018-06-12T09:36:42Z</time>
      </trkpt>
      <trkpt lat="45.87063" lon="4.73875">
        <ele>218</ele>
        <time>2018-06-12T09:36:43Z</time>
      </trkpt>
      <trkpt lat="45.87062" lon="4.73868">
        <ele>218</ele>
        <time>2018-06-12T09:36:44Z</time>
      </trkpt>
      <trkpt lat="45.87062" lon="4.73859">
        <ele>218</ele>
        <time>2018-06-12T09:36:45Z</time>
      </trkpt>
      <trkpt lat="45.87062" lon="4.73851">
        <ele>218</ele>
        <time>2018-06-12T09:36:46Z</time>
      </trkpt>
      <trkpt lat="45.87061" lon="4.73843">
        <ele>218</ele>
        <time>2018-06-12T09:36:47Z</time>
      </trkpt>
      <trkpt lat="45.87062" lon="4.73834">
        <ele>218</ele>
        <time>2018-06-12T09:36:48Z</time>
      </trkpt>
      <trkpt lat="45.87062" lon="4.73825">
        <ele>217</ele>
        <time>2018-06-12T09:36:49Z</time>
      </trkpt>
      <trkpt lat="45.87062" lon="4.73817">
        <ele>217</ele>
        <time>2018-06-12T09:36:50Z</time>
      </trkpt>
      <trkpt lat="45.87062" lon="4.73808">
        <ele>217</ele>
        <time>2018-06-12T09:36:51Z</time>
      </trkpt>
      <trkpt lat="45.87063" lon="4.73799">
        <ele>217</ele>
        <time>2018-06-12T09:36:52Z</time>
      </trkpt>
      <trkpt lat="45.87062" lon="4.7379">
        <ele>217</ele>
        <time>2018-06-12T09:36:53Z</time>
      </trkpt>
      <trkpt lat="45.87062" lon="4.73781">
        <ele>217</ele>
        <time>2018-06-12T09:36:54Z</time>
      </trkpt>
      <trkpt lat="45.87063" lon="4.73769">
        <ele>217</ele>
        <time>2018-06-12T09:36:55Z</time>
      </trkpt>
      <trkpt lat="45.87062" lon="4.73759">
        <ele>217</ele>
        <time>2018-06-12T09:36:56Z</time>
      </trkpt>
      <trkpt lat="45.87064" lon="4.7375">
        <ele>217</ele>
        <time>2018-06-12T09:36:57Z</time>
      </trkpt>
      <trkpt lat="45.87066" lon="4.7374">
        <ele>216</ele>
        <time>2018-06-12T09:36:58Z</time>
      </trkpt>
      <trkpt lat="45.87069" lon="4.73731">
        <ele>217</ele>
        <time>2018-06-12T09:36:59Z</time>
      </trkpt>
      <trkpt lat="45.8707" lon="4.73722">
        <ele>217</ele>
        <time>2018-06-12T09:37:00Z</time>
      </trkpt>
      <trkpt lat="45.87072" lon="4.73712">
        <ele>217</ele>
        <time>2018-06-12T09:37:01Z</time>
      </trkpt>
      <trkpt lat="45.87073" lon="4.73701">
        <ele>217</ele>
        <time>2018-06-12T09:37:02Z</time>
      </trkpt>
      <trkpt lat="45.87074" lon="4.73691">
        <ele>217</ele>
        <time>2018-06-12T09:37:03Z</time>
      </trkpt>
      <trkpt lat="45.87076" lon="4.73681">
        <ele>217</ele>
        <time>2018-06-12T09:37:04Z</time>
      </trkpt>
      <trkpt lat="45.87078" lon="4.73672">
        <ele>216</ele>
        <time>2018-06-12T09:37:05Z</time>
      </trkpt>
      <trkpt lat="45.87079" lon="4.73663">
        <ele>216</ele>
        <time>2018-06-12T09:37:06Z</time>
      </trkpt>
      <trkpt lat="45.8708" lon="4.73653">
        <ele>216</ele>
        <time>2018-06-12T09:37:07Z</time>
      </trkpt>
      <trkpt lat="45.87082" lon="4.73645">
        <ele>216</ele>
        <time>2018-06-12T09:37:08Z</time>
      </trkpt>
      <trkpt lat="45.87082" lon="4.73637">
        <ele>216</ele>
        <time>2018-06-12T09:37:09Z</time>
      </trkpt>
      <trkpt lat="45.87083" lon="4.73627">
        <ele>216</ele>
        <time>2018-06-12T09:37:10Z</time>
      </trkpt>
      <trkpt lat="45.87085" lon="4.73617">
        <ele>214</ele>
        <time>2018-06-12T09:37:11Z</time>
      </trkpt>
      <trkpt lat="45.87086" lon="4.73606">
        <ele>214</ele>
        <time>2018-06-12T09:37:12Z</time>
      </trkpt>
      <trkpt lat="45.87088" lon="4.73597">
        <ele>214</ele>
        <time>2018-06-12T09:37:13Z</time>
      </trkpt>
      <trkpt lat="45.87089" lon="4.73586">
        <ele>215</ele>
        <time>2018-06-12T09:37:14Z</time>
      </trkpt>
      <trkpt lat="45.8709" lon="4.73576">
        <ele>214</ele>
        <time>2018-06-12T09:37:15Z</time>
      </trkpt>
      <trkpt lat="45.87092" lon="4.73567">
        <ele>213</ele>
        <time>2018-06-12T09:37:16Z</time>
      </trkpt>
      <trkpt lat="45.87093" lon="4.73557">
        <ele>213</ele>
        <time>2018-06-12T09:37:17Z</time>
      </trkpt>
      <trkpt lat="45.87092" lon="4.73546">
        <ele>213</ele>
        <time>2018-06-12T09:37:18Z</time>
      </trkpt>
      <trkpt lat="45.87094" lon="4.73536">
        <ele>213</ele>
        <time>2018-06-12T09:37:19Z</time>
      </trkpt>
      <trkpt lat="45.87095" lon="4.73527">
        <ele>213</ele>
        <time>2018-06-12T09:37:20Z</time>
      </trkpt>
      <trkpt lat="45.87096" lon="4.73517">
        <ele>213</ele>
        <time>2018-06-12T09:37:21Z</time>
      </trkpt>
      <trkpt lat="45.87096" lon="4.73507">
        <ele>213</ele>
        <time>2018-06-12T09:37:22Z</time>
      </trkpt>
      <trkpt lat="45.87097" lon="4.73496">
        <ele>213</ele>
        <time>2018-06-12T09:37:23Z</time>
      </trkpt>
      <trkpt lat="45.87098" lon="4.73486">
        <ele>213</ele>
        <time>2018-06-12T09:37:24Z</time>
      </trkpt>
      <trkpt lat="45.87097" lon="4.73475">
        <ele>212</ele>
        <time>2018-06-12T09:37:25Z</time>
      </trkpt>
      <trkpt lat="45.87097" lon="4.73466">
        <ele>212</ele>
        <time>2018-06-12T09:37:26Z</time>
      </trkpt>
      <trkpt lat="45.87096" lon="4.73456">
        <ele>212</ele>
        <time>2018-06-12T09:37:27Z</time>
      </trkpt>
      <trkpt lat="45.87096" lon="4.73445">
        <ele>212</ele>
        <time>2018-06-12T09:37:28Z</time>
      </trkpt>
      <trkpt lat="45.87098" lon="4.73436">
        <ele>213</ele>
        <time>2018-06-12T09:37:29Z</time>
      </trkpt>
      <trkpt lat="45.87098" lon="4.73425">
        <ele>213</ele>
        <time>2018-06-12T09:37:30Z</time>
      </trkpt>
      <trkpt lat="45.87098" lon="4.73416">
        <ele>212</ele>
        <time>2018-06-12T09:37:31Z</time>
      </trkpt>
      <trkpt lat="45.87098" lon="4.73406">
        <ele>212</ele>
        <time>2018-06-12T09:37:32Z</time>
      </trkpt>
      <trkpt lat="45.87098" lon="4.73393">
        <ele>212</ele>
        <time>2018-06-12T09:37:33Z</time>
      </trkpt>
      <trkpt lat="45.871" lon="4.73383">
        <ele>211</ele>
        <time>2018-06-12T09:37:34Z</time>
      </trkpt>
      <trkpt lat="45.87101" lon="4.73373">
        <ele>211</ele>
        <time>2018-06-12T09:37:35Z</time>
      </trkpt>
      <trkpt lat="45.87102" lon="4.73362">
        <ele>211</ele>
        <time>2018-06-12T09:37:36Z</time>
      </trkpt>
      <trkpt lat="45.87102" lon="4.73349">
        <ele>211</ele>
        <time>2018-06-12T09:37:37Z</time>
      </trkpt>
      <trkpt lat="45.87103" lon="4.73338">
        <ele>211</ele>
        <time>2018-06-12T09:37:38Z</time>
      </trkpt>
      <trkpt lat="45.87104" lon="4.73328">
        <ele>210</ele>
        <time>2018-06-12T09:37:39Z</time>
      </trkpt>
      <trkpt lat="45.87106" lon="4.73317">
        <ele>209</ele>
        <time>2018-06-12T09:37:40Z</time>
      </trkpt>
      <trkpt lat="45.87108" lon="4.73306">
        <ele>209</ele>
        <time>2018-06-12T09:37:41Z</time>
      </trkpt>
      <trkpt lat="45.87111" lon="4.73296">
        <ele>209</ele>
        <time>2018-06-12T09:37:42Z</time>
      </trkpt>
      <trkpt lat="45.87112" lon="4.73285">
        <ele>208</ele>
        <time>2018-06-12T09:37:43Z</time>
      </trkpt>
      <trkpt lat="45.87114" lon="4.73273">
        <ele>208</ele>
        <time>2018-06-12T09:37:44Z</time>
      </trkpt>
      <trkpt lat="45.87116" lon="4.73262">
        <ele>208</ele>
        <time>2018-06-12T09:37:45Z</time>
      </trkpt>
      <trkpt lat="45.87117" lon="4.73251">
        <ele>208</ele>
        <time>2018-06-12T09:37:46Z</time>
      </trkpt>
      <trkpt lat="45.87121" lon="4.7324">
        <ele>207</ele>
        <time>2018-06-12T09:37:47Z</time>
      </trkpt>
      <trkpt lat="45.87124" lon="4.73229">
        <ele>206</ele>
        <time>2018-06-12T09:37:48Z</time>
      </trkpt>
      <trkpt lat="45.87128" lon="4.73219">
        <ele>206</ele>
        <time>2018-06-12T09:37:49Z</time>
      </trkpt>
      <trkpt lat="45.87132" lon="4.73208">
        <ele>206</ele>
        <time>2018-06-12T09:37:50Z</time>
      </trkpt>
      <trkpt lat="45.87135" lon="4.73198">
        <ele>206</ele>
        <time>2018-06-12T09:37:51Z</time>
      </trkpt>
      <trkpt lat="45.87139" lon="4.73189">
        <ele>206</ele>
        <time>2018-06-12T09:37:52Z</time>
      </trkpt>
      <trkpt lat="45.87142" lon="4.73179">
        <ele>205</ele>
        <time>2018-06-12T09:37:53Z</time>
      </trkpt>
      <trkpt lat="45.87148" lon="4.73168">
        <ele>205</ele>
        <time>2018-06-12T09:37:54Z</time>
      </trkpt>
      <trkpt lat="45.87151" lon="4.73159">
        <ele>204</ele>
        <time>2018-06-12T09:37:55Z</time>
      </trkpt>
      <trkpt lat="45.87154" lon="4.73148">
        <ele>204</ele>
        <time>2018-06-12T09:37:56Z</time>
      </trkpt>
      <trkpt lat="45.87157" lon="4.73137">
        <ele>204</ele>
        <time>2018-06-12T09:37:57Z</time>
      </trkpt>
      <trkpt lat="45.87159" lon="4.73128">
        <ele>204</ele>
        <time>2018-06-12T09:37:58Z</time>
      </trkpt>
      <trkpt lat="45.8716" lon="4.73116">
        <ele>204</ele>
        <time>2018-06-12T09:37:59Z</time>
      </trkpt>
      <trkpt lat="45.87161" lon="4.73105">
        <ele>204</ele>
        <time>2018-06-12T09:38:00Z</time>
      </trkpt>
      <trkpt lat="45.87161" lon="4.73094">
        <ele>204</ele>
        <time>2018-06-12T09:38:01Z</time>
      </trkpt>
      <trkpt lat="45.87162" lon="4.73083">
        <ele>203</ele>
        <time>2018-06-12T09:38:02Z</time>
      </trkpt>
      <trkpt lat="45.87162" lon="4.73072">
        <ele>204</ele>
        <time>2018-06-12T09:38:03Z</time>
      </trkpt>
      <trkpt lat="45.87163" lon="4.7306">
        <ele>205</ele>
        <time>2018-06-12T09:38:04Z</time>
      </trkpt>
      <trkpt lat="45.87164" lon="4.7305">
        <ele>205</ele>
        <time>2018-06-12T09:38:05Z</time>
      </trkpt>
      <trkpt lat="45.87165" lon="4.7304">
        <ele>205</ele>
        <time>2018-06-12T09:38:06Z</time>
      </trkpt>
      <trkpt lat="45.87166" lon="4.7303">
        <ele>205</ele>
        <time>2018-06-12T09:38:07Z</time>
      </trkpt>
      <trkpt lat="45.87166" lon="4.7302">
        <ele>205</ele>
        <time>2018-06-12T09:38:08Z</time>
      </trkpt>
      <trkpt lat="45.87166" lon="4.73011">
        <ele>205</ele>
        <time>2018-06-12T09:38:09Z</time>
      </trkpt>
      <trkpt lat="45.87166" lon="4.73002">
        <ele>204</ele>
        <time>2018-06-12T09:38:10Z</time>
      </trkpt>
      <trkpt lat="45.87166" lon="4.72992">
        <ele>205</ele>
        <time>2018-06-12T09:38:11Z</time>
      </trkpt>
      <trkpt lat="45.87167" lon="4.72983">
        <ele>205</ele>
        <time>2018-06-12T09:38:12Z</time>
      </trkpt>
      <trkpt lat="45.87166" lon="4.72973">
        <ele>206</ele>
        <time>2018-06-12T09:38:13Z</time>
      </trkpt>
      <trkpt lat="45.87167" lon="4.72962">
        <ele>202</ele>
        <time>2018-06-12T09:38:14Z</time>
      </trkpt>
      <trkpt lat="45.87166" lon="4.72952">
        <ele>206</ele>
        <time>2018-06-12T09:38:15Z</time>
      </trkpt>
      <trkpt lat="45.87167" lon="4.72942">
        <ele>206</ele>
        <time>2018-06-12T09:38:16Z</time>
      </trkpt>
      <trkpt lat="45.87167" lon="4.72932">
        <ele>202</ele>
        <time>2018-06-12T09:38:17Z</time>
      </trkpt>
      <trkpt lat="45.87166" lon="4.72924">
        <ele>205</ele>
        <time>2018-06-12T09:38:18Z</time>
      </trkpt>
      <trkpt lat="45.87166" lon="4.72914">
        <ele>204</ele>
        <time>2018-06-12T09:38:19Z</time>
      </trkpt>
      <trkpt lat="45.87165" lon="4.72904">
        <ele>205</ele>
        <time>2018-06-12T09:38:20Z</time>
      </trkpt>
      <trkpt lat="45.87165" lon="4.72894">
        <ele>205</ele>
        <time>2018-06-12T09:38:21Z</time>
      </trkpt>
      <trkpt lat="45.87165" lon="4.72883">
        <ele>205</ele>
        <time>2018-06-12T09:38:22Z</time>
      </trkpt>
      <trkpt lat="45.87166" lon="4.7287">
        <ele>205</ele>
        <time>2018-06-12T09:38:23Z</time>
      </trkpt>
      <trkpt lat="45.87166" lon="4.72859">
        <ele>205</ele>
        <time>2018-06-12T09:38:24Z</time>
      </trkpt>
      <trkpt lat="45.87167" lon="4.72849">
        <ele>204</ele>
        <time>2018-06-12T09:38:25Z</time>
      </trkpt>
      <trkpt lat="45.87165" lon="4.72838">
        <ele>203</ele>
        <time>2018-06-12T09:38:26Z</time>
      </trkpt>
      <trkpt lat="45.87165" lon="4.72826">
        <ele>203</ele>
        <time>2018-06-12T09:38:27Z</time>
      </trkpt>
      <trkpt lat="45.87166" lon="4.72815">
        <ele>203</ele>
        <time>2018-06-12T09:38:28Z</time>
      </trkpt>
      <trkpt lat="45.87167" lon="4.72803">
        <ele>203</ele>
        <time>2018-06-12T09:38:29Z</time>
      </trkpt>
      <trkpt lat="45.87166" lon="4.72792">
        <ele>203</ele>
        <time>2018-06-12T09:38:30Z</time>
      </trkpt>
      <trkpt lat="45.87165" lon="4.7278">
        <ele>203</ele>
        <time>2018-06-12T09:38:31Z</time>
      </trkpt>
      <trkpt lat="45.87165" lon="4.72769">
        <ele>203</ele>
        <time>2018-06-12T09:38:32Z</time>
      </trkpt>
      <trkpt lat="45.87166" lon="4.72756">
        <ele>202</ele>
        <time>2018-06-12T09:38:33Z</time>
      </trkpt>
      <trkpt lat="45.87169" lon="4.72742">
        <ele>200</ele>
        <time>2018-06-12T09:38:34Z</time>
      </trkpt>
      <trkpt lat="45.87173" lon="4.7273">
        <ele>200</ele>
        <time>2018-06-12T09:38:35Z</time>
      </trkpt>
      <trkpt lat="45.87175" lon="4.72719">
        <ele>199</ele>
        <time>2018-06-12T09:38:36Z</time>
      </trkpt>
      <trkpt lat="45.87178" lon="4.72706">
        <ele>199</ele>
        <time>2018-06-12T09:38:37Z</time>
      </trkpt>
      <trkpt lat="45.8718" lon="4.72695">
        <ele>199</ele>
        <time>2018-06-12T09:38:38Z</time>
      </trkpt>
      <trkpt lat="45.87183" lon="4.72684">
        <ele>199</ele>
        <time>2018-06-12T09:38:39Z</time>
      </trkpt>
      <trkpt lat="45.87185" lon="4.72673">
        <ele>199</ele>
        <time>2018-06-12T09:38:40Z</time>
      </trkpt>
      <trkpt lat="45.87187" lon="4.72662">
        <ele>199</ele>
        <time>2018-06-12T09:38:41Z</time>
      </trkpt>
      <trkpt lat="45.8719" lon="4.72651">
        <ele>199</ele>
        <time>2018-06-12T09:38:42Z</time>
      </trkpt>
      <trkpt lat="45.87193" lon="4.7264">
        <ele>199</ele>
        <time>2018-06-12T09:38:43Z</time>
      </trkpt>
      <trkpt lat="45.87197" lon="4.72627">
        <ele>199</ele>
        <time>2018-06-12T09:38:44Z</time>
      </trkpt>
      <trkpt lat="45.87199" lon="4.72616">
        <ele>199</ele>
        <time>2018-06-12T09:38:45Z</time>
      </trkpt>
      <trkpt lat="45.87202" lon="4.72605">
        <ele>199</ele>
        <time>2018-06-12T09:38:46Z</time>
      </trkpt>
      <trkpt lat="45.87205" lon="4.72593">
        <ele>199</ele>
        <time>2018-06-12T09:38:47Z</time>
      </trkpt>
      <trkpt lat="45.87205" lon="4.72582">
        <ele>199</ele>
        <time>2018-06-12T09:38:48Z</time>
      </trkpt>
      <trkpt lat="45.87207" lon="4.72572">
        <ele>199</ele>
        <time>2018-06-12T09:38:49Z</time>
      </trkpt>
      <trkpt lat="45.87208" lon="4.7256">
        <ele>199</ele>
        <time>2018-06-12T09:38:50Z</time>
      </trkpt>
      <trkpt lat="45.87209" lon="4.72548">
        <ele>198</ele>
        <time>2018-06-12T09:38:51Z</time>
      </trkpt>
      <trkpt lat="45.87209" lon="4.72536">
        <ele>198</ele>
        <time>2018-06-12T09:38:52Z</time>
      </trkpt>
      <trkpt lat="45.87208" lon="4.72525">
        <ele>198</ele>
        <time>2018-06-12T09:38:53Z</time>
      </trkpt>
      <trkpt lat="45.87206" lon="4.72514">
        <ele>198</ele>
        <time>2018-06-12T09:38:54Z</time>
      </trkpt>
      <trkpt lat="45.87203" lon="4.72502">
        <ele>198</ele>
        <time>2018-06-12T09:38:55Z</time>
      </trkpt>
      <trkpt lat="45.872" lon="4.7249">
        <ele>196</ele>
        <time>2018-06-12T09:38:56Z</time>
      </trkpt>
      <trkpt lat="45.87197" lon="4.72479">
        <ele>195</ele>
        <time>2018-06-12T09:38:57Z</time>
      </trkpt>
      <trkpt lat="45.87194" lon="4.72469">
        <ele>195</ele>
        <time>2018-06-12T09:38:58Z</time>
      </trkpt>
      <trkpt lat="45.8719" lon="4.72459">
        <ele>195</ele>
        <time>2018-06-12T09:38:59Z</time>
      </trkpt>
      <trkpt lat="45.87185" lon="4.72449">
        <ele>194</ele>
        <time>2018-06-12T09:39:00Z</time>
      </trkpt>
      <trkpt lat="45.87181" lon="4.72439">
        <ele>194</ele>
        <time>2018-06-12T09:39:01Z</time>
      </trkpt>
      <trkpt lat="45.87178" lon="4.72429">
        <ele>194</ele>
        <time>2018-06-12T09:39:02Z</time>
      </trkpt>
      <trkpt lat="45.87174" lon="4.72421">
        <ele>194</ele>
        <time>2018-06-12T09:39:03Z</time>
      </trkpt>
      <trkpt lat="45.8717" lon="4.72412">
        <ele>193</ele>
        <time>2018-06-12T09:39:04Z</time>
      </trkpt>
      <trkpt lat="45.87166" lon="4.72402">
        <ele>196</ele>
        <time>2018-06-12T09:39:05Z</time>
      </trkpt>
      <trkpt lat="45.87162" lon="4.72393">
        <ele>197</ele>
        <time>2018-06-12T09:39:06Z</time>
      </trkpt>
      <trkpt lat="45.87158" lon="4.72384">
        <ele>197</ele>
        <time>2018-06-12T09:39:07Z</time>
      </trkpt>
      <trkpt lat="45.87154" lon="4.72375">
        <ele>197</ele>
        <time>2018-06-12T09:39:08Z</time>
      </trkpt>
      <trkpt lat="45.8715" lon="4.72367">
        <ele>197</ele>
        <time>2018-06-12T09:39:09Z</time>
      </trkpt>
      <trkpt lat="45.87147" lon="4.7236">
        <ele>197</ele>
        <time>2018-06-12T09:39:10Z</time>
      </trkpt>
      <trkpt lat="45.87143" lon="4.72352">
        <ele>197</ele>
        <time>2018-06-12T09:39:11Z</time>
      </trkpt>
      <trkpt lat="45.8714" lon="4.72345">
        <ele>197</ele>
        <time>2018-06-12T09:39:12Z</time>
      </trkpt>
      <trkpt lat="45.87136" lon="4.72337">
        <ele>197</ele>
        <time>2018-06-12T09:39:13Z</time>
      </trkpt>
      <trkpt lat="45.87133" lon="4.72329">
        <ele>196</ele>
        <time>2018-06-12T09:39:14Z</time>
      </trkpt>
      <trkpt lat="45.87129" lon="4.72321">
        <ele>196</ele>
        <time>2018-06-12T09:39:15Z</time>
      </trkpt>
      <trkpt lat="45.87127" lon="4.72313">
        <ele>196</ele>
        <time>2018-06-12T09:39:16Z</time>
      </trkpt>
      <trkpt lat="45.87123" lon="4.72305">
        <ele>197</ele>
        <time>2018-06-12T09:39:17Z</time>
      </trkpt>
      <trkpt lat="45.87118" lon="4.72298">
        <ele>197</ele>
        <time>2018-06-12T09:39:18Z</time>
      </trkpt>
      <trkpt lat="45.87114" lon="4.72289">
        <ele>197</ele>
        <time>2018-06-12T09:39:19Z</time>
      </trkpt>
      <trkpt lat="45.87109" lon="4.72282">
        <ele>197</ele>
        <time>2018-06-12T09:39:20Z</time>
      </trkpt>
      <trkpt lat="45.87104" lon="4.72275">
        <ele>197</ele>
        <time>2018-06-12T09:39:21Z</time>
      </trkpt>
      <trkpt lat="45.87099" lon="4.72268">
        <ele>197</ele>
        <time>2018-06-12T09:39:22Z</time>
      </trkpt>
      <trkpt lat="45.87093" lon="4.72261">
        <ele>198</ele>
        <time>2018-06-12T09:39:23Z</time>
      </trkpt>
      <trkpt lat="45.87088" lon="4.72254">
        <ele>198</ele>
        <time>2018-06-12T09:39:24Z</time>
      </trkpt>
      <trkpt lat="45.87083" lon="4.72248">
        <ele>199</ele>
        <time>2018-06-12T09:39:25Z</time>
      </trkpt>
      <trkpt lat="45.87077" lon="4.72242">
        <ele>200</ele>
        <time>2018-06-12T09:39:26Z</time>
      </trkpt>
      <trkpt lat="45.87072" lon="4.72234">
        <ele>200</ele>
        <time>2018-06-12T09:39:27Z</time>
      </trkpt>
      <trkpt lat="45.87066" lon="4.72228">
        <ele>200</ele>
        <time>2018-06-12T09:39:28Z</time>
      </trkpt>
      <trkpt lat="45.87059" lon="4.72222">
        <ele>200</ele>
        <time>2018-06-12T09:39:29Z</time>
      </trkpt>
      <trkpt lat="45.87054" lon="4.72216">
        <ele>200</ele>
        <time>2018-06-12T09:39:30Z</time>
      </trkpt>
      <trkpt lat="45.87047" lon="4.72212">
        <ele>201</ele>
        <time>2018-06-12T09:39:31Z</time>
      </trkpt>
      <trkpt lat="45.87042" lon="4.72207">
        <ele>201</ele>
        <time>2018-06-12T09:39:32Z</time>
      </trkpt>
      <trkpt lat="45.87035" lon="4.72203">
        <ele>201</ele>
        <time>2018-06-12T09:39:33Z</time>
      </trkpt>
      <trkpt lat="45.8703" lon="4.72198">
        <ele>201</ele>
        <time>2018-06-12T09:39:34Z</time>
      </trkpt>
      <trkpt lat="45.87023" lon="4.72194">
        <ele>201</ele>
        <time>2018-06-12T09:39:35Z</time>
      </trkpt>
      <trkpt lat="45.87017" lon="4.72188">
        <ele>201</ele>
        <time>2018-06-12T09:39:36Z</time>
      </trkpt>
      <trkpt lat="45.87009" lon="4.72187">
        <ele>201</ele>
        <time>2018-06-12T09:39:37Z</time>
      </trkpt>
      <trkpt lat="45.87003" lon="4.72183">
        <ele>201</ele>
        <time>2018-06-12T09:39:38Z</time>
      </trkpt>
      <trkpt lat="45.86997" lon="4.72178">
        <ele>205</ele>
        <time>2018-06-12T09:39:39Z</time>
      </trkpt>
      <trkpt lat="45.86991" lon="4.72173">
        <ele>205</ele>
        <time>2018-06-12T09:39:40Z</time>
      </trkpt>
      <trkpt lat="45.86985" lon="4.72169">
        <ele>206</ele>
        <time>2018-06-12T09:39:41Z</time>
      </trkpt>
      <trkpt lat="45.86979" lon="4.72168">
        <ele>207</ele>
        <time>2018-06-12T09:39:42Z</time>
      </trkpt>
      <trkpt lat="45.86973" lon="4.72163">
        <ele>201</ele>
        <time>2018-06-12T09:39:43Z</time>
      </trkpt>
      <trkpt lat="45.86966" lon="4.72158">
        <ele>201</ele>
        <time>2018-06-12T09:39:44Z</time>
      </trkpt>
      <trkpt lat="45.86959" lon="4.72154">
        <ele>201</ele>
        <time>2018-06-12T09:39:45Z</time>
      </trkpt>
      <trkpt lat="45.86952" lon="4.7215">
        <ele>202</ele>
        <time>2018-06-12T09:39:46Z</time>
      </trkpt>
      <trkpt lat="45.86945" lon="4.72144">
        <ele>202</ele>
        <time>2018-06-12T09:39:47Z</time>
      </trkpt>
      <trkpt lat="45.86939" lon="4.7214">
        <ele>202</ele>
        <time>2018-06-12T09:39:48Z</time>
      </trkpt>
      <trkpt lat="45.86932" lon="4.72136">
        <ele>201</ele>
        <time>2018-06-12T09:39:49Z</time>
      </trkpt>
      <trkpt lat="45.86926" lon="4.72132">
        <ele>201</ele>
        <time>2018-06-12T09:39:50Z</time>
      </trkpt>
      <trkpt lat="45.8692" lon="4.72128">
        <ele>200</ele>
        <time>2018-06-12T09:39:51Z</time>
      </trkpt>
      <trkpt lat="45.86912" lon="4.72125">
        <ele>202</ele>
        <time>2018-06-12T09:39:52Z</time>
      </trkpt>
      <trkpt lat="45.86904" lon="4.72123">
        <ele>202</ele>
        <time>2018-06-12T09:39:53Z</time>
      </trkpt>
      <trkpt lat="45.86898" lon="4.7212">
        <ele>202</ele>
        <time>2018-06-12T09:39:54Z</time>
      </trkpt>
      <trkpt lat="45.8689" lon="4.72117">
        <ele>201</ele>
        <time>2018-06-12T09:39:55Z</time>
      </trkpt>
      <trkpt lat="45.86884" lon="4.72114">
        <ele>201</ele>
        <time>2018-06-12T09:39:56Z</time>
      </trkpt>
      <trkpt lat="45.86876" lon="4.72112">
        <ele>201</ele>
        <time>2018-06-12T09:39:57Z</time>
      </trkpt>
      <trkpt lat="45.8687" lon="4.7211">
        <ele>201</ele>
        <time>2018-06-12T09:39:58Z</time>
      </trkpt>
      <trkpt lat="45.86863" lon="4.72107">
        <ele>200</ele>
        <time>2018-06-12T09:39:59Z</time>
      </trkpt>
      <trkpt lat="45.86857" lon="4.72104">
        <ele>200</ele>
        <time>2018-06-12T09:40:00Z</time>
      </trkpt>
      <trkpt lat="45.86851" lon="4.721">
        <ele>199</ele>
        <time>2018-06-12T09:40:01Z</time>
      </trkpt>
      <trkpt lat="45.86846" lon="4.721">
        <ele>199</ele>
        <time>2018-06-12T09:40:02Z</time>
      </trkpt>
      <trkpt lat="45.8684" lon="4.72097">
        <ele>198</ele>
        <time>2018-06-12T09:40:03Z</time>
      </trkpt>
      <trkpt lat="45.86834" lon="4.72094">
        <ele>196</ele>
        <time>2018-06-12T09:40:04Z</time>
      </trkpt>
      <trkpt lat="45.86827" lon="4.72091">
        <ele>197</ele>
        <time>2018-06-12T09:40:05Z</time>
      </trkpt>
      <trkpt lat="45.86822" lon="4.72087">
        <ele>198</ele>
        <time>2018-06-12T09:40:06Z</time>
      </trkpt>
      <trkpt lat="45.86816" lon="4.72085">
        <ele>199</ele>
        <time>2018-06-12T09:40:07Z</time>
      </trkpt>
      <trkpt lat="45.8681" lon="4.72082">
        <ele>194</ele>
        <time>2018-06-12T09:40:08Z</time>
      </trkpt>
      <trkpt lat="45.86803" lon="4.72079">
        <ele>194</ele>
        <time>2018-06-12T09:40:09Z</time>
      </trkpt>
      <trkpt lat="45.86797" lon="4.72077">
        <ele>194</ele>
        <time>2018-06-12T09:40:10Z</time>
      </trkpt>
      <trkpt lat="45.8679" lon="4.72075">
        <ele>194</ele>
        <time>2018-06-12T09:40:11Z</time>
      </trkpt>
      <trkpt lat="45.86784" lon="4.72073">
        <ele>194</ele>
        <time>2018-06-12T09:40:12Z</time>
      </trkpt>
      <trkpt lat="45.86779" lon="4.72074">
        <ele>195</ele>
        <time>2018-06-12T09:40:13Z</time>
      </trkpt>
      <trkpt lat="45.86773" lon="4.72071">
        <ele>195</ele>
        <time>2018-06-12T09:40:14Z</time>
      </trkpt>
      <trkpt lat="45.86768" lon="4.7207">
        <ele>195</ele>
        <time>2018-06-12T09:40:15Z</time>
      </trkpt>
      <trkpt lat="45.86761" lon="4.72067">
        <ele>195</ele>
        <time>2018-06-12T09:40:16Z</time>
      </trkpt>
      <trkpt lat="45.86755" lon="4.72064">
        <ele>195</ele>
        <time>2018-06-12T09:40:17Z</time>
      </trkpt>
      <trkpt lat="45.8675" lon="4.72061">
        <ele>197</ele>
        <time>2018-06-12T09:40:18Z</time>
      </trkpt>
      <trkpt lat="45.86744" lon="4.72058">
        <ele>197</ele>
        <time>2018-06-12T09:40:19Z</time>
      </trkpt>
      <trkpt lat="45.86739" lon="4.72055">
        <ele>197</ele>
        <time>2018-06-12T09:40:20Z</time>
      </trkpt>
      <trkpt lat="45.86733" lon="4.72053">
        <ele>197</ele>
        <time>2018-06-12T09:40:21Z</time>
      </trkpt>
      <trkpt lat="45.86727" lon="4.72051">
        <ele>197</ele>
        <time>2018-06-12T09:40:22Z</time>
      </trkpt>
      <trkpt lat="45.86721" lon="4.72047">
        <ele>197</ele>
        <time>2018-06-12T09:40:23Z</time>
      </trkpt>
      <trkpt lat="45.86715" lon="4.72044">
        <ele>197</ele>
        <time>2018-06-12T09:40:24Z</time>
      </trkpt>
      <trkpt lat="45.8671" lon="4.72044">
        <ele>197</ele>
        <time>2018-06-12T09:40:25Z</time>
      </trkpt>
      <trkpt lat="45.86705" lon="4.7204">
        <ele>197</ele>
        <time>2018-06-12T09:40:26Z</time>
      </trkpt>
      <trkpt lat="45.867" lon="4.72036">
        <ele>197</ele>
        <time>2018-06-12T09:40:27Z</time>
      </trkpt>
      <trkpt lat="45.86695" lon="4.72032">
        <ele>197</ele>
        <time>2018-06-12T09:40:28Z</time>
      </trkpt>
      <trkpt lat="45.8669" lon="4.72027">
        <ele>197</ele>
        <time>2018-06-12T09:40:29Z</time>
      </trkpt>
      <trkpt lat="45.86685" lon="4.72024">
        <ele>197</ele>
        <time>2018-06-12T09:40:30Z</time>
      </trkpt>
      <trkpt lat="45.86679" lon="4.7202">
        <ele>196</ele>
        <time>2018-06-12T09:40:31Z</time>
      </trkpt>
      <trkpt lat="45.86674" lon="4.72015">
        <ele>196</ele>
        <time>2018-06-12T09:40:32Z</time>
      </trkpt>
      <trkpt lat="45.86669" lon="4.72011">
        <ele>196</ele>
        <time>2018-06-12T09:40:33Z</time>
      </trkpt>
      <trkpt lat="45.86663" lon="4.72006">
        <ele>196</ele>
        <time>2018-06-12T09:40:34Z</time>
      </trkpt>
      <trkpt lat="45.86658" lon="4.72002">
        <ele>196</ele>
        <time>2018-06-12T09:40:35Z</time>
      </trkpt>
      <trkpt lat="45.86652" lon="4.71998">
        <ele>195</ele>
        <time>2018-06-12T09:40:36Z</time>
      </trkpt>
      <trkpt lat="45.86647" lon="4.71994">
        <ele>195</ele>
        <time>2018-06-12T09:40:37Z</time>
      </trkpt>
      <trkpt lat="45.86643" lon="4.71989">
        <ele>195</ele>
        <time>2018-06-12T09:40:38Z</time>
      </trkpt>
      <trkpt lat="45.86637" lon="4.71985">
        <ele>195</ele>
        <time>2018-06-12T09:40:39Z</time>
      </trkpt>
      <trkpt lat="45.86633" lon="4.71978">
        <ele>195</ele>
        <time>2018-06-12T09:40:40Z</time>
      </trkpt>
      <trkpt lat="45.86628" lon="4.71974">
        <ele>195</ele>
        <time>2018-06-12T09:40:41Z</time>
      </trkpt>
      <trkpt lat="45.86623" lon="4.71969">
        <ele>195</ele>
        <time>2018-06-12T09:40:42Z</time>
      </trkpt>
      <trkpt lat="45.86619" lon="4.71965">
        <ele>195</ele>
        <time>2018-06-12T09:40:43Z</time>
      </trkpt>
      <trkpt lat="45.86613" lon="4.71961">
        <ele>195</ele>
        <time>2018-06-12T09:40:44Z</time>
      </trkpt>
      <trkpt lat="45.86609" lon="4.71958">
        <ele>194</ele>
        <time>2018-06-12T09:40:45Z</time>
      </trkpt>
      <trkpt lat="45.86604" lon="4.71955">
        <ele>194</ele>
        <time>2018-06-12T09:40:46Z</time>
      </trkpt>
      <trkpt lat="45.86598" lon="4.71952">
        <ele>194</ele>
        <time>2018-06-12T09:40:47Z</time>
      </trkpt>
      <trkpt lat="45.86592" lon="4.71948">
        <ele>194</ele>
        <time>2018-06-12T09:40:48Z</time>
      </trkpt>
      <trkpt lat="45.86587" lon="4.71945">
        <ele>194</ele>
        <time>2018-06-12T09:40:49Z</time>
      </trkpt>
      <trkpt lat="45.86582" lon="4.71941">
        <ele>196</ele>
        <time>2018-06-12T09:40:50Z</time>
      </trkpt>
      <trkpt lat="45.86578" lon="4.71937">
        <ele>195</ele>
        <time>2018-06-12T09:40:51Z</time>
      </trkpt>
      <trkpt lat="45.8657" lon="4.71932">
        <ele>195</ele>
        <time>2018-06-12T09:40:52Z</time>
      </trkpt>
      <trkpt lat="45.86565" lon="4.71928">
        <ele>196</ele>
        <time>2018-06-12T09:40:53Z</time>
      </trkpt>
      <trkpt lat="45.86561" lon="4.71925">
        <ele>196</ele>
        <time>2018-06-12T09:40:54Z</time>
      </trkpt>
      <trkpt lat="45.86555" lon="4.7192">
        <ele>196</ele>
        <time>2018-06-12T09:40:55Z</time>
      </trkpt>
      <trkpt lat="45.8655" lon="4.71916">
        <ele>195</ele>
        <time>2018-06-12T09:40:56Z</time>
      </trkpt>
      <trkpt lat="45.86544" lon="4.71911">
        <ele>195</ele>
        <time>2018-06-12T09:40:57Z</time>
      </trkpt>
      <trkpt lat="45.86539" lon="4.71906">
        <ele>195</ele>
        <time>2018-06-12T09:40:58Z</time>
      </trkpt>
      <trkpt lat="45.86534" lon="4.71903">
        <ele>195</ele>
        <time>2018-06-12T09:40:59Z</time>
      </trkpt>
      <trkpt lat="45.86529" lon="4.71898">
        <ele>195</ele>
        <time>2018-06-12T09:41:00Z</time>
      </trkpt>
      <trkpt lat="45.86524" lon="4.71893">
        <ele>195</ele>
        <time>2018-06-12T09:41:01Z</time>
      </trkpt>
      <trkpt lat="45.86519" lon="4.71889">
        <ele>195</ele>
        <time>2018-06-12T09:41:02Z</time>
      </trkpt>
      <trkpt lat="45.86513" lon="4.71887">
        <ele>195</ele>
        <time>2018-06-12T09:41:03Z</time>
      </trkpt>
      <trkpt lat="45.8651" lon="4.71883">
        <ele>195</ele>
        <time>2018-06-12T09:41:04Z</time>
      </trkpt>
      <trkpt lat="45.86505" lon="4.71881">
        <ele>195</ele>
        <time>2018-06-12T09:41:05Z</time>
      </trkpt>
      <trkpt lat="45.865" lon="4.71877">
        <ele>195</ele>
        <time>2018-06-12T09:41:06Z</time>
      </trkpt>
      <trkpt lat="45.86497" lon="4.7187">
        <ele>199</ele>
        <time>2018-06-12T09:41:07Z</time>
      </trkpt>
      <trkpt lat="45.86493" lon="4.71867">
        <ele>198</ele>
        <time>2018-06-12T09:41:08Z</time>
      </trkpt>
      <trkpt lat="45.86488" lon="4.71864">
        <ele>198</ele>
        <time>2018-06-12T09:41:09Z</time>
      </trkpt>
      <trkpt lat="45.86484" lon="4.71857">
        <ele>198</ele>
        <time>2018-06-12T09:41:10Z</time>
      </trkpt>
      <trkpt lat="45.86479" lon="4.71853">
        <ele>198</ele>
        <time>2018-06-12T09:41:11Z</time>
      </trkpt>
      <trkpt lat="45.86475" lon="4.71849">
        <ele>198</ele>
        <time>2018-06-12T09:41:12Z</time>
      </trkpt>
      <trkpt lat="45.8647" lon="4.71848">
        <ele>199</ele>
        <time>2018-06-12T09:41:13Z</time>
      </trkpt>
      <trkpt lat="45.86465" lon="4.71845">
        <ele>199</ele>
        <time>2018-06-12T09:41:14Z</time>
      </trkpt>
      <trkpt lat="45.8646" lon="4.71839">
        <ele>199</ele>
        <time>2018-06-12T09:41:15Z</time>
      </trkpt>
      <trkpt lat="45.86455" lon="4.71836">
        <ele>200</ele>
        <time>2018-06-12T09:41:16Z</time>
      </trkpt>
      <trkpt lat="45.8645" lon="4.71832">
        <ele>197</ele>
        <time>2018-06-12T09:41:17Z</time>
      </trkpt>
      <trkpt lat="45.86446" lon="4.71827">
        <ele>197</ele>
        <time>2018-06-12T09:41:18Z</time>
      </trkpt>
      <trkpt lat="45.8644" lon="4.71823">
        <ele>198</ele>
        <time>2018-06-12T09:41:19Z</time>
      </trkpt>
      <trkpt lat="45.86435" lon="4.71818">
        <ele>198</ele>
        <time>2018-06-12T09:41:20Z</time>
      </trkpt>
      <trkpt lat="45.8643" lon="4.71815">
        <ele>198</ele>
        <time>2018-06-12T09:41:21Z</time>
      </trkpt>
      <trkpt lat="45.86425" lon="4.71811">
        <ele>198</ele>
        <time>2018-06-12T09:41:22Z</time>
      </trkpt>
      <trkpt lat="45.8642" lon="4.71807">
        <ele>198</ele>
        <time>2018-06-12T09:41:23Z</time>
      </trkpt>
      <trkpt lat="45.86415" lon="4.71805">
        <ele>199</ele>
        <time>2018-06-12T09:41:24Z</time>
      </trkpt>
      <trkpt lat="45.8641" lon="4.71802">
        <ele>199</ele>
        <time>2018-06-12T09:41:25Z</time>
      </trkpt>
      <trkpt lat="45.86405" lon="4.71799">
        <ele>199</ele>
        <time>2018-06-12T09:41:26Z</time>
      </trkpt>
      <trkpt lat="45.864" lon="4.71796">
        <ele>199</ele>
        <time>2018-06-12T09:41:27Z</time>
      </trkpt>
      <trkpt lat="45.86395" lon="4.71791">
        <ele>199</ele>
        <time>2018-06-12T09:41:28Z</time>
      </trkpt>
      <trkpt lat="45.8639" lon="4.71789">
        <ele>199</ele>
        <time>2018-06-12T09:41:29Z</time>
      </trkpt>
      <trkpt lat="45.86385" lon="4.71786">
        <ele>198</ele>
        <time>2018-06-12T09:41:30Z</time>
      </trkpt>
      <trkpt lat="45.8638" lon="4.71784">
        <ele>198</ele>
        <time>2018-06-12T09:41:31Z</time>
      </trkpt>
      <trkpt lat="45.86375" lon="4.71779">
        <ele>198</ele>
        <time>2018-06-12T09:41:32Z</time>
      </trkpt>
      <trkpt lat="45.8637" lon="4.71774">
        <ele>198</ele>
        <time>2018-06-12T09:41:33Z</time>
      </trkpt>
      <trkpt lat="45.86364" lon="4.7177">
        <ele>198</ele>
        <time>2018-06-12T09:41:34Z</time>
      </trkpt>
      <trkpt lat="45.8636" lon="4.71766">
        <ele>198</ele>
        <time>2018-06-12T09:41:35Z</time>
      </trkpt>
      <trkpt lat="45.86355" lon="4.71762">
        <ele>198</ele>
        <time>2018-06-12T09:41:36Z</time>
      </trkpt>
      <trkpt lat="45.8635" lon="4.71758">
        <ele>197</ele>
        <time>2018-06-12T09:41:37Z</time>
      </trkpt>
      <trkpt lat="45.86345" lon="4.71754">
        <ele>197</ele>
        <time>2018-06-12T09:41:38Z</time>
      </trkpt>
      <trkpt lat="45.86337" lon="4.71747">
        <ele>196</ele>
        <time>2018-06-12T09:41:40Z</time>
      </trkpt>
      <trkpt lat="45.86332" lon="4.71742">
        <ele>196</ele>
        <time>2018-06-12T09:41:41Z</time>
      </trkpt>
      <trkpt lat="45.86327" lon="4.71737">
        <ele>196</ele>
        <time>2018-06-12T09:41:42Z</time>
      </trkpt>
      <trkpt lat="45.86322" lon="4.71733">
        <ele>196</ele>
        <time>2018-06-12T09:41:43Z</time>
      </trkpt>
      <trkpt lat="45.86317" lon="4.71728">
        <ele>196</ele>
        <time>2018-06-12T09:41:44Z</time>
      </trkpt>
      <trkpt lat="45.86312" lon="4.71724">
        <ele>196</ele>
        <time>2018-06-12T09:41:45Z</time>
      </trkpt>
      <trkpt lat="45.86307" lon="4.7172">
        <ele>196</ele>
        <time>2018-06-12T09:41:46Z</time>
      </trkpt>
      <trkpt lat="45.86303" lon="4.71716">
        <ele>196</ele>
        <time>2018-06-12T09:41:47Z</time>
      </trkpt>
      <trkpt lat="45.86298" lon="4.71712">
        <ele>196</ele>
        <time>2018-06-12T09:41:48Z</time>
      </trkpt>
      <trkpt lat="45.86293" lon="4.71708">
        <ele>195</ele>
        <time>2018-06-12T09:41:49Z</time>
      </trkpt>
      <trkpt lat="45.86287" lon="4.71704">
        <ele>195</ele>
        <time>2018-06-12T09:41:50Z</time>
      </trkpt>
      <trkpt lat="45.86283" lon="4.71701">
        <ele>195</ele>
        <time>2018-06-12T09:41:51Z</time>
      </trkpt>
      <trkpt lat="45.86278" lon="4.71697">
        <ele>195</ele>
        <time>2018-06-12T09:41:52Z</time>
      </trkpt>
      <trkpt lat="45.86273" lon="4.71694">
        <ele>195</ele>
        <time>2018-06-12T09:41:53Z</time>
      </trkpt>
      <trkpt lat="45.86268" lon="4.71691">
        <ele>195</ele>
        <time>2018-06-12T09:41:54Z</time>
      </trkpt>
      <trkpt lat="45.86262" lon="4.71686">
        <ele>195</ele>
        <time>2018-06-12T09:41:55Z</time>
      </trkpt>
      <trkpt lat="45.86256" lon="4.71682">
        <ele>195</ele>
        <time>2018-06-12T09:41:56Z</time>
      </trkpt>
      <trkpt lat="45.86251" lon="4.71678">
        <ele>195</ele>
        <time>2018-06-12T09:41:57Z</time>
      </trkpt>
      <trkpt lat="45.86244" lon="4.71674">
        <ele>196</ele>
        <time>2018-06-12T09:41:58Z</time>
      </trkpt>
      <trkpt lat="45.86239" lon="4.7167">
        <ele>196</ele>
        <time>2018-06-12T09:41:59Z</time>
      </trkpt>
      <trkpt lat="45.86236" lon="4.71666">
        <ele>195</ele>
        <time>2018-06-12T09:42:00Z</time>
      </trkpt>
      <trkpt lat="45.86231" lon="4.71661">
        <ele>195</ele>
        <time>2018-06-12T09:42:01Z</time>
      </trkpt>
      <trkpt lat="45.86226" lon="4.71657">
        <ele>195</ele>
        <time>2018-06-12T09:42:02Z</time>
      </trkpt>
      <trkpt lat="45.8622" lon="4.71654">
        <ele>195</ele>
        <time>2018-06-12T09:42:03Z</time>
      </trkpt>
      <trkpt lat="45.86217" lon="4.71648">
        <ele>195</ele>
        <time>2018-06-12T09:42:04Z</time>
      </trkpt>
      <trkpt lat="45.86214" lon="4.7164">
        <ele>195</ele>
        <time>2018-06-12T09:42:05Z</time>
      </trkpt>
      <trkpt lat="45.86212" lon="4.71632">
        <ele>195</ele>
        <time>2018-06-12T09:42:06Z</time>
      </trkpt>
      <trkpt lat="45.8621" lon="4.71624">
        <ele>195</ele>
        <time>2018-06-12T09:42:07Z</time>
      </trkpt>
      <trkpt lat="45.86206" lon="4.71615">
        <ele>195</ele>
        <time>2018-06-12T09:42:08Z</time>
      </trkpt>
      <trkpt lat="45.86205" lon="4.71608">
        <ele>195</ele>
        <time>2018-06-12T09:42:09Z</time>
      </trkpt>
      <trkpt lat="45.86202" lon="4.71602">
        <ele>195</ele>
        <time>2018-06-12T09:42:10Z</time>
      </trkpt>
      <trkpt lat="45.86196" lon="4.71596">
        <ele>195</ele>
        <time>2018-06-12T09:42:11Z</time>
      </trkpt>
      <trkpt lat="45.86192" lon="4.71589">
        <ele>195</ele>
        <time>2018-06-12T09:42:12Z</time>
      </trkpt>
      <trkpt lat="45.86188" lon="4.71583">
        <ele>195</ele>
        <time>2018-06-12T09:42:13Z</time>
      </trkpt>
      <trkpt lat="45.86182" lon="4.71577">
        <ele>195</ele>
        <time>2018-06-12T09:42:14Z</time>
      </trkpt>
      <trkpt lat="45.86179" lon="4.7157">
        <ele>195</ele>
        <time>2018-06-12T09:42:15Z</time>
      </trkpt>
      <trkpt lat="45.86174" lon="4.71563">
        <ele>195</ele>
        <time>2018-06-12T09:42:16Z</time>
      </trkpt>
      <trkpt lat="45.86171" lon="4.71556">
        <ele>195</ele>
        <time>2018-06-12T09:42:17Z</time>
      </trkpt>
      <trkpt lat="45.86167" lon="4.7155">
        <ele>195</ele>
        <time>2018-06-12T09:42:18Z</time>
      </trkpt>
      <trkpt lat="45.86165" lon="4.71544">
        <ele>196</ele>
        <time>2018-06-12T09:42:19Z</time>
      </trkpt>
      <trkpt lat="45.86162" lon="4.71538">
        <ele>195</ele>
        <time>2018-06-12T09:42:20Z</time>
      </trkpt>
      <trkpt lat="45.86158" lon="4.71532">
        <ele>195</ele>
        <time>2018-06-12T09:42:21Z</time>
      </trkpt>
      <trkpt lat="45.86154" lon="4.71526">
        <ele>195</ele>
        <time>2018-06-12T09:42:22Z</time>
      </trkpt>
      <trkpt lat="45.86152" lon="4.71519">
        <ele>195</ele>
        <time>2018-06-12T09:42:23Z</time>
      </trkpt>
      <trkpt lat="45.86148" lon="4.71508">
        <ele>195</ele>
        <time>2018-06-12T09:42:25Z</time>
      </trkpt>
      <trkpt lat="45.86146" lon="4.71499">
        <ele>195</ele>
        <time>2018-06-12T09:42:26Z</time>
      </trkpt>
      <trkpt lat="45.86142" lon="4.71494">
        <ele>195</ele>
        <time>2018-06-12T09:42:27Z</time>
      </trkpt>
      <trkpt lat="45.86137" lon="4.71487">
        <ele>195</ele>
        <time>2018-06-12T09:42:28Z</time>
      </trkpt>
      <trkpt lat="45.86136" lon="4.7148">
        <ele>195</ele>
        <time>2018-06-12T09:42:29Z</time>
      </trkpt>
      <trkpt lat="45.86134" lon="4.71472">
        <ele>195</ele>
        <time>2018-06-12T09:42:30Z</time>
      </trkpt>
      <trkpt lat="45.86131" lon="4.71465">
        <ele>195</ele>
        <time>2018-06-12T09:42:31Z</time>
      </trkpt>
      <trkpt lat="45.86129" lon="4.71459">
        <ele>195</ele>
        <time>2018-06-12T09:42:32Z</time>
      </trkpt>
      <trkpt lat="45.86126" lon="4.7145">
        <ele>195</ele>
        <time>2018-06-12T09:42:33Z</time>
      </trkpt>
      <trkpt lat="45.86124" lon="4.71442">
        <ele>195</ele>
        <time>2018-06-12T09:42:34Z</time>
      </trkpt>
      <trkpt lat="45.86123" lon="4.71434">
        <ele>195</ele>
        <time>2018-06-12T09:42:35Z</time>
      </trkpt>
      <trkpt lat="45.86121" lon="4.71426">
        <ele>195</ele>
        <time>2018-06-12T09:42:36Z</time>
      </trkpt>
      <trkpt lat="45.8612" lon="4.71418">
        <ele>195</ele>
        <time>2018-06-12T09:42:37Z</time>
      </trkpt>
      <trkpt lat="45.86117" lon="4.71407">
        <ele>196</ele>
        <time>2018-06-12T09:42:38Z</time>
      </trkpt>
      <trkpt lat="45.86117" lon="4.71399">
        <ele>196</ele>
        <time>2018-06-12T09:42:39Z</time>
      </trkpt>
      <trkpt lat="45.86117" lon="4.71392">
        <ele>196</ele>
        <time>2018-06-12T09:42:40Z</time>
      </trkpt>
      <trkpt lat="45.86116" lon="4.71383">
        <ele>196</ele>
        <time>2018-06-12T09:42:41Z</time>
      </trkpt>
      <trkpt lat="45.86115" lon="4.71377">
        <ele>196</ele>
        <time>2018-06-12T09:42:42Z</time>
      </trkpt>
      <trkpt lat="45.86112" lon="4.71366">
        <ele>196</ele>
        <time>2018-06-12T09:42:44Z</time>
      </trkpt>
      <trkpt lat="45.8611" lon="4.71358">
        <ele>196</ele>
        <time>2018-06-12T09:42:45Z</time>
      </trkpt>
      <trkpt lat="45.8611" lon="4.71352">
        <ele>196</ele>
        <time>2018-06-12T09:42:46Z</time>
      </trkpt>
      <trkpt lat="45.86109" lon="4.71344">
        <ele>196</ele>
        <time>2018-06-12T09:42:47Z</time>
      </trkpt>
      <trkpt lat="45.86108" lon="4.71336">
        <ele>196</ele>
        <time>2018-06-12T09:42:48Z</time>
      </trkpt>
      <trkpt lat="45.86107" lon="4.71328">
        <ele>196</ele>
        <time>2018-06-12T09:42:49Z</time>
      </trkpt>
      <trkpt lat="45.86107" lon="4.71321">
        <ele>196</ele>
        <time>2018-06-12T09:42:50Z</time>
      </trkpt>
      <trkpt lat="45.86106" lon="4.71313">
        <ele>196</ele>
        <time>2018-06-12T09:42:51Z</time>
      </trkpt>
      <trkpt lat="45.86102" lon="4.71305">
        <ele>197</ele>
        <time>2018-06-12T09:42:52Z</time>
      </trkpt>
      <trkpt lat="45.86101" lon="4.71297">
        <ele>197</ele>
        <time>2018-06-12T09:42:53Z</time>
      </trkpt>
      <trkpt lat="45.86099" lon="4.7129">
        <ele>197</ele>
        <time>2018-06-12T09:42:54Z</time>
      </trkpt>
      <trkpt lat="45.86098" lon="4.71284">
        <ele>197</ele>
        <time>2018-06-12T09:42:55Z</time>
      </trkpt>
      <trkpt lat="45.86096" lon="4.71277">
        <ele>197</ele>
        <time>2018-06-12T09:42:56Z</time>
      </trkpt>
      <trkpt lat="45.86094" lon="4.7127">
        <ele>197</ele>
        <time>2018-06-12T09:42:57Z</time>
      </trkpt>
      <trkpt lat="45.86089" lon="4.71265">
        <ele>197</ele>
        <time>2018-06-12T09:42:58Z</time>
      </trkpt>
      <trkpt lat="45.86086" lon="4.71259">
        <ele>197</ele>
        <time>2018-06-12T09:42:59Z</time>
      </trkpt>
      <trkpt lat="45.86084" lon="4.71254">
        <ele>198</ele>
        <time>2018-06-12T09:43:00Z</time>
      </trkpt>
      <trkpt lat="45.86081" lon="4.71248">
        <ele>198</ele>
        <time>2018-06-12T09:43:01Z</time>
      </trkpt>
      <trkpt lat="45.8608" lon="4.71242">
        <ele>198</ele>
        <time>2018-06-12T09:43:02Z</time>
      </trkpt>
      <trkpt lat="45.8608" lon="4.71234">
        <ele>198</ele>
        <time>2018-06-12T09:43:03Z</time>
      </trkpt>
      <trkpt lat="45.8608" lon="4.71226">
        <ele>198</ele>
        <time>2018-06-12T09:43:04Z</time>
      </trkpt>
      <trkpt lat="45.86081" lon="4.71218">
        <ele>198</ele>
        <time>2018-06-12T09:43:05Z</time>
      </trkpt>
      <trkpt lat="45.86082" lon="4.71211">
        <ele>198</ele>
        <time>2018-06-12T09:43:06Z</time>
      </trkpt>
      <trkpt lat="45.86084" lon="4.71204">
        <ele>197</ele>
        <time>2018-06-12T09:43:07Z</time>
      </trkpt>
      <trkpt lat="45.86085" lon="4.71196">
        <ele>197</ele>
        <time>2018-06-12T09:43:08Z</time>
      </trkpt>
      <trkpt lat="45.86086" lon="4.7119">
        <ele>197</ele>
        <time>2018-06-12T09:43:09Z</time>
      </trkpt>
      <trkpt lat="45.86089" lon="4.71181">
        <ele>197</ele>
        <time>2018-06-12T09:43:10Z</time>
      </trkpt>
      <trkpt lat="45.86091" lon="4.71174">
        <ele>198</ele>
        <time>2018-06-12T09:43:11Z</time>
      </trkpt>
      <trkpt lat="45.86092" lon="4.71168">
        <ele>198</ele>
        <time>2018-06-12T09:43:12Z</time>
      </trkpt>
      <trkpt lat="45.86093" lon="4.71161">
        <ele>197</ele>
        <time>2018-06-12T09:43:13Z</time>
      </trkpt>
      <trkpt lat="45.86094" lon="4.71154">
        <ele>197</ele>
        <time>2018-06-12T09:43:14Z</time>
      </trkpt>
      <trkpt lat="45.86094" lon="4.71147">
        <ele>197</ele>
        <time>2018-06-12T09:43:15Z</time>
      </trkpt>
      <trkpt lat="45.86089" lon="4.71142">
        <ele>197</ele>
        <time>2018-06-12T09:43:16Z</time>
      </trkpt>
      <trkpt lat="45.86084" lon="4.71138">
        <ele>197</ele>
        <time>2018-06-12T09:43:17Z</time>
      </trkpt>
      <trkpt lat="45.8608" lon="4.71133">
        <ele>197</ele>
        <time>2018-06-12T09:43:18Z</time>
      </trkpt>
      <trkpt lat="45.86075" lon="4.71129">
        <ele>197</ele>
        <time>2018-06-12T09:43:19Z</time>
      </trkpt>
      <trkpt lat="45.8607" lon="4.71123">
        <ele>197</ele>
        <time>2018-06-12T09:43:20Z</time>
      </trkpt>
      <trkpt lat="45.86065" lon="4.71119">
        <ele>197</ele>
        <time>2018-06-12T09:43:21Z</time>
      </trkpt>
      <trkpt lat="45.86061" lon="4.71116">
        <ele>197</ele>
        <time>2018-06-12T09:43:22Z</time>
      </trkpt>
      <trkpt lat="45.86057" lon="4.71111">
        <ele>197</ele>
        <time>2018-06-12T09:43:23Z</time>
      </trkpt>
      <trkpt lat="45.86053" lon="4.71106">
        <ele>197</ele>
        <time>2018-06-12T09:43:24Z</time>
      </trkpt>
      <trkpt lat="45.8605" lon="4.71101">
        <ele>197</ele>
        <time>2018-06-12T09:43:25Z</time>
      </trkpt>
      <trkpt lat="45.86047" lon="4.71095">
        <ele>197</ele>
        <time>2018-06-12T09:43:26Z</time>
      </trkpt>
      <trkpt lat="45.86044" lon="4.71089">
        <ele>197</ele>
        <time>2018-06-12T09:43:27Z</time>
      </trkpt>
      <trkpt lat="45.86042" lon="4.7108">
        <ele>196</ele>
        <time>2018-06-12T09:43:28Z</time>
      </trkpt>
      <trkpt lat="45.86041" lon="4.71073">
        <ele>197</ele>
        <time>2018-06-12T09:43:29Z</time>
      </trkpt>
      <trkpt lat="45.8604" lon="4.71066">
        <ele>197</ele>
        <time>2018-06-12T09:43:30Z</time>
      </trkpt>
      <trkpt lat="45.86039" lon="4.71058">
        <ele>197</ele>
        <time>2018-06-12T09:43:31Z</time>
      </trkpt>
      <trkpt lat="45.86037" lon="4.71051">
        <ele>197</ele>
        <time>2018-06-12T09:43:32Z</time>
      </trkpt>
      <trkpt lat="45.86036" lon="4.71042">
        <ele>197</ele>
        <time>2018-06-12T09:43:33Z</time>
      </trkpt>
      <trkpt lat="45.86034" lon="4.71034">
        <ele>197</ele>
        <time>2018-06-12T09:43:34Z</time>
      </trkpt>
      <trkpt lat="45.86033" lon="4.71027">
        <ele>197</ele>
        <time>2018-06-12T09:43:35Z</time>
      </trkpt>
      <trkpt lat="45.8603" lon="4.71021">
        <ele>197</ele>
        <time>2018-06-12T09:43:36Z</time>
      </trkpt>
      <trkpt lat="45.86028" lon="4.71015">
        <ele>197</ele>
        <time>2018-06-12T09:43:37Z</time>
      </trkpt>
      <trkpt lat="45.86022" lon="4.71007">
        <ele>197</ele>
        <time>2018-06-12T09:43:39Z</time>
      </trkpt>
      <trkpt lat="45.86018" lon="4.71002">
        <ele>197</ele>
        <time>2018-06-12T09:43:40Z</time>
      </trkpt>
      <trkpt lat="45.86013" lon="4.70997">
        <ele>197</ele>
        <time>2018-06-12T09:43:41Z</time>
      </trkpt>
      <trkpt lat="45.8601" lon="4.70992">
        <ele>197</ele>
        <time>2018-06-12T09:43:42Z</time>
      </trkpt>
      <trkpt lat="45.86005" lon="4.70987">
        <ele>197</ele>
        <time>2018-06-12T09:43:43Z</time>
      </trkpt>
      <trkpt lat="45.86" lon="4.70983">
        <ele>197</ele>
        <time>2018-06-12T09:43:44Z</time>
      </trkpt>
      <trkpt lat="45.85994" lon="4.7098">
        <ele>197</ele>
        <time>2018-06-12T09:43:45Z</time>
      </trkpt>
      <trkpt lat="45.85989" lon="4.70977">
        <ele>197</ele>
        <time>2018-06-12T09:43:46Z</time>
      </trkpt>
      <trkpt lat="45.85984" lon="4.70975">
        <ele>197</ele>
        <time>2018-06-12T09:43:47Z</time>
      </trkpt>
      <trkpt lat="45.85979" lon="4.70973">
        <ele>197</ele>
        <time>2018-06-12T09:43:48Z</time>
      </trkpt>
      <trkpt lat="45.85974" lon="4.70971">
        <ele>197</ele>
        <time>2018-06-12T09:43:49Z</time>
      </trkpt>
      <trkpt lat="45.8597" lon="4.70967">
        <ele>197</ele>
        <time>2018-06-12T09:43:50Z</time>
      </trkpt>
      <trkpt lat="45.85961" lon="4.70969">
        <ele>197</ele>
        <time>2018-06-12T09:43:53Z</time>
      </trkpt>
      <trkpt lat="45.85959" lon="4.70969">
        <ele>197</ele>
        <time>2018-06-12T09:43:54Z</time>
      </trkpt>
      <trkpt lat="45.85951" lon="4.70969">
        <ele>197</ele>
        <time>2018-06-12T09:43:58Z</time>
      </trkpt>
      <trkpt lat="45.8595" lon="4.70969">
        <ele>197</ele>
        <time>2018-06-12T09:43:59Z</time>
      </trkpt>
      <trkpt lat="45.85943" lon="4.70962">
        <ele>197</ele>
        <time>2018-06-12T09:44:10Z</time>
      </trkpt>
      <trkpt lat="45.85942" lon="4.7096">
        <ele>197</ele>
        <time>2018-06-12T09:44:11Z</time>
      </trkpt>
      <trkpt lat="45.85942" lon="4.70948">
        <ele>197</ele>
        <time>2018-06-12T09:44:15Z</time>
      </trkpt>
      <trkpt lat="45.85942" lon="4.70944">
        <ele>197</ele>
        <time>2018-06-12T09:44:16Z</time>
      </trkpt>
      <trkpt lat="45.85943" lon="4.70935">
        <ele>197</ele>
        <time>2018-06-12T09:44:18Z</time>
      </trkpt>
      <trkpt lat="45.85945" lon="4.70923">
        <ele>197</ele>
        <time>2018-06-12T09:44:19Z</time>
      </trkpt>
      <trkpt lat="45.85948" lon="4.70912">
        <ele>197</ele>
        <time>2018-06-12T09:44:21Z</time>
      </trkpt>
      <trkpt lat="45.8595" lon="4.70907">
        <ele>197</ele>
        <time>2018-06-12T09:44:22Z</time>
      </trkpt>
      <trkpt lat="45.85951" lon="4.70899">
        <ele>197</ele>
        <time>2018-06-12T09:44:23Z</time>
      </trkpt>
      <trkpt lat="45.85953" lon="4.70893">
        <ele>197</ele>
        <time>2018-06-12T09:44:24Z</time>
      </trkpt>
      <trkpt lat="45.85956" lon="4.70886">
        <ele>197</ele>
        <time>2018-06-12T09:44:25Z</time>
      </trkpt>
      <trkpt lat="45.85956" lon="4.70879">
        <ele>197</ele>
        <time>2018-06-12T09:44:26Z</time>
      </trkpt>
      <trkpt lat="45.85955" lon="4.70866">
        <ele>196</ele>
        <time>2018-06-12T09:44:28Z</time>
      </trkpt>
      <trkpt lat="45.85955" lon="4.70859">
        <ele>196</ele>
        <time>2018-06-12T09:44:29Z</time>
      </trkpt>
      <trkpt lat="45.85956" lon="4.70852">
        <ele>196</ele>
        <time>2018-06-12T09:44:30Z</time>
      </trkpt>
      <trkpt lat="45.85957" lon="4.70844">
        <ele>196</ele>
        <time>2018-06-12T09:44:31Z</time>
      </trkpt>
      <trkpt lat="45.85957" lon="4.70832">
        <ele>196</ele>
        <time>2018-06-12T09:44:33Z</time>
      </trkpt>
      <trkpt lat="45.85956" lon="4.70825">
        <ele>195</ele>
        <time>2018-06-12T09:44:34Z</time>
      </trkpt>
      <trkpt lat="45.85955" lon="4.70818">
        <ele>195</ele>
        <time>2018-06-12T09:44:35Z</time>
      </trkpt>
      <trkpt lat="45.85954" lon="4.7081">
        <ele>195</ele>
        <time>2018-06-12T09:44:36Z</time>
      </trkpt>
      <trkpt lat="45.85953" lon="4.70803">
        <ele>195</ele>
        <time>2018-06-12T09:44:37Z</time>
      </trkpt>
      <trkpt lat="45.85951" lon="4.70796">
        <ele>195</ele>
        <time>2018-06-12T09:44:38Z</time>
      </trkpt>
      <trkpt lat="45.85949" lon="4.7079">
        <ele>195</ele>
        <time>2018-06-12T09:44:39Z</time>
      </trkpt>
      <trkpt lat="45.8595" lon="4.70783">
        <ele>195</ele>
        <time>2018-06-12T09:44:40Z</time>
      </trkpt>
      <trkpt lat="45.85951" lon="4.70776">
        <ele>195</ele>
        <time>2018-06-12T09:44:41Z</time>
      </trkpt>
      <trkpt lat="45.85952" lon="4.70768">
        <ele>195</ele>
        <time>2018-06-12T09:44:42Z</time>
      </trkpt>
      <trkpt lat="45.85952" lon="4.70761">
        <ele>195</ele>
        <time>2018-06-12T09:44:43Z</time>
      </trkpt>
      <trkpt lat="45.85953" lon="4.70753">
        <ele>195</ele>
        <time>2018-06-12T09:44:44Z</time>
      </trkpt>
      <trkpt lat="45.85954" lon="4.70745">
        <ele>194</ele>
        <time>2018-06-12T09:44:45Z</time>
      </trkpt>
      <trkpt lat="45.85955" lon="4.70736">
        <ele>194</ele>
        <time>2018-06-12T09:44:46Z</time>
      </trkpt>
      <trkpt lat="45.85956" lon="4.70729">
        <ele>194</ele>
        <time>2018-06-12T09:44:47Z</time>
      </trkpt>
      <trkpt lat="45.85956" lon="4.70722">
        <ele>194</ele>
        <time>2018-06-12T09:44:48Z</time>
      </trkpt>
      <trkpt lat="45.85957" lon="4.70715">
        <ele>194</ele>
        <time>2018-06-12T09:44:49Z</time>
      </trkpt>
      <trkpt lat="45.85958" lon="4.70709">
        <ele>194</ele>
        <time>2018-06-12T09:44:50Z</time>
      </trkpt>
      <trkpt lat="45.85959" lon="4.70702">
        <ele>194</ele>
        <time>2018-06-12T09:44:51Z</time>
      </trkpt>
      <trkpt lat="45.8596" lon="4.70694">
        <ele>194</ele>
        <time>2018-06-12T09:44:52Z</time>
      </trkpt>
      <trkpt lat="45.85959" lon="4.70682">
        <ele>194</ele>
        <time>2018-06-12T09:44:54Z</time>
      </trkpt>
      <trkpt lat="45.85957" lon="4.70674">
        <ele>194</ele>
        <time>2018-06-12T09:44:55Z</time>
      </trkpt>
      <trkpt lat="45.85954" lon="4.70667">
        <ele>194</ele>
        <time>2018-06-12T09:44:56Z</time>
      </trkpt>
      <trkpt lat="45.85951" lon="4.7066">
        <ele>194</ele>
        <time>2018-06-12T09:44:57Z</time>
      </trkpt>
      <trkpt lat="45.85947" lon="4.70654">
        <ele>194</ele>
        <time>2018-06-12T09:44:58Z</time>
      </trkpt>
      <trkpt lat="45.85944" lon="4.70648">
        <ele>194</ele>
        <time>2018-06-12T09:44:59Z</time>
      </trkpt>
      <trkpt lat="45.8594" lon="4.70642">
        <ele>194</ele>
        <time>2018-06-12T09:45:00Z</time>
      </trkpt>
      <trkpt lat="45.85936" lon="4.70636">
        <ele>194</ele>
        <time>2018-06-12T09:45:01Z</time>
      </trkpt>
      <trkpt lat="45.85932" lon="4.70631">
        <ele>194</ele>
        <time>2018-06-12T09:45:02Z</time>
      </trkpt>
      <trkpt lat="45.85929" lon="4.70625">
        <ele>194</ele>
        <time>2018-06-12T09:45:03Z</time>
      </trkpt>
      <trkpt lat="45.85925" lon="4.70619">
        <ele>194</ele>
        <time>2018-06-12T09:45:04Z</time>
      </trkpt>
      <trkpt lat="45.85921" lon="4.70614">
        <ele>194</ele>
        <time>2018-06-12T09:45:05Z</time>
      </trkpt>
      <trkpt lat="45.85918" lon="4.70608">
        <ele>194</ele>
        <time>2018-06-12T09:45:06Z</time>
      </trkpt>
      <trkpt lat="45.85915" lon="4.70602">
        <ele>195</ele>
        <time>2018-06-12T09:45:07Z</time>
      </trkpt>
      <trkpt lat="45.85911" lon="4.70597">
        <ele>195</ele>
        <time>2018-06-12T09:45:08Z</time>
      </trkpt>
      <trkpt lat="45.85907" lon="4.70591">
        <ele>195</ele>
        <time>2018-06-12T09:45:09Z</time>
      </trkpt>
      <trkpt lat="45.85903" lon="4.70587">
        <ele>195</ele>
        <time>2018-06-12T09:45:10Z</time>
      </trkpt>
      <trkpt lat="45.85898" lon="4.70584">
        <ele>195</ele>
        <time>2018-06-12T09:45:11Z</time>
      </trkpt>
      <trkpt lat="45.85893" lon="4.70581">
        <ele>195</ele>
        <time>2018-06-12T09:45:12Z</time>
      </trkpt>
      <trkpt lat="45.85883" lon="4.70575">
        <ele>195</ele>
        <time>2018-06-12T09:45:13Z</time>
      </trkpt>
      <trkpt lat="45.85879" lon="4.70572">
        <ele>195</ele>
        <time>2018-06-12T09:45:14Z</time>
      </trkpt>
      <trkpt lat="45.85874" lon="4.7057">
        <ele>195</ele>
        <time>2018-06-12T09:45:15Z</time>
      </trkpt>
      <trkpt lat="45.85868" lon="4.70569">
        <ele>195</ele>
        <time>2018-06-12T09:45:16Z</time>
      </trkpt>
      <trkpt lat="45.85863" lon="4.70567">
        <ele>195</ele>
        <time>2018-06-12T09:45:17Z</time>
      </trkpt>
      <trkpt lat="45.85857" lon="4.70565">
        <ele>195</ele>
        <time>2018-06-12T09:45:18Z</time>
      </trkpt>
      <trkpt lat="45.8585" lon="4.70564">
        <ele>195</ele>
        <time>2018-06-12T09:45:19Z</time>
      </trkpt>
      <trkpt lat="45.85845" lon="4.70562">
        <ele>195</ele>
        <time>2018-06-12T09:45:20Z</time>
      </trkpt>
      <trkpt lat="45.85839" lon="4.70561">
        <ele>195</ele>
        <time>2018-06-12T09:45:21Z</time>
      </trkpt>
      <trkpt lat="45.85836" lon="4.70559">
        <ele>195</ele>
        <time>2018-06-12T09:45:22Z</time>
      </trkpt>
      <trkpt lat="45.8583" lon="4.70556">
        <ele>195</ele>
        <time>2018-06-12T09:45:23Z</time>
      </trkpt>
      <trkpt lat="45.85826" lon="4.70553">
        <ele>195</ele>
        <time>2018-06-12T09:45:24Z</time>
      </trkpt>
      <trkpt lat="45.85819" lon="4.70553">
        <ele>195</ele>
        <time>2018-06-12T09:45:25Z</time>
      </trkpt>
      <trkpt lat="45.85814" lon="4.70551">
        <ele>195</ele>
        <time>2018-06-12T09:45:26Z</time>
      </trkpt>
      <trkpt lat="45.85809" lon="4.70549">
        <ele>195</ele>
        <time>2018-06-12T09:45:27Z</time>
      </trkpt>
      <trkpt lat="45.85803" lon="4.70548">
        <ele>195</ele>
        <time>2018-06-12T09:45:28Z</time>
      </trkpt>
      <trkpt lat="45.85798" lon="4.70546">
        <ele>195</ele>
        <time>2018-06-12T09:45:29Z</time>
      </trkpt>
      <trkpt lat="45.85793" lon="4.70544">
        <ele>195</ele>
        <time>2018-06-12T09:45:30Z</time>
      </trkpt>
      <trkpt lat="45.85789" lon="4.7054">
        <ele>196</ele>
        <time>2018-06-12T09:45:31Z</time>
      </trkpt>
      <trkpt lat="45.85784" lon="4.70537">
        <ele>196</ele>
        <time>2018-06-12T09:45:32Z</time>
      </trkpt>
      <trkpt lat="45.85779" lon="4.70534">
        <ele>196</ele>
        <time>2018-06-12T09:45:33Z</time>
      </trkpt>
      <trkpt lat="45.85775" lon="4.70531">
        <ele>196</ele>
        <time>2018-06-12T09:45:34Z</time>
      </trkpt>
      <trkpt lat="45.8577" lon="4.70529">
        <ele>196</ele>
        <time>2018-06-12T09:45:35Z</time>
      </trkpt>
      <trkpt lat="45.85764" lon="4.70523">
        <ele>196</ele>
        <time>2018-06-12T09:45:37Z</time>
      </trkpt>
      <trkpt lat="45.8576" lon="4.70519">
        <ele>196</ele>
        <time>2018-06-12T09:45:38Z</time>
      </trkpt>
      <trkpt lat="45.85754" lon="4.70512">
        <ele>196</ele>
        <time>2018-06-12T09:45:40Z</time>
      </trkpt>
      <trkpt lat="45.85751" lon="4.7051">
        <ele>196</ele>
        <time>2018-06-12T09:45:41Z</time>
      </trkpt>
      <trkpt lat="45.85744" lon="4.70504">
        <ele>196</ele>
        <time>2018-06-12T09:45:43Z</time>
      </trkpt>
      <trkpt lat="45.8574" lon="4.70501">
        <ele>196</ele>
        <time>2018-06-12T09:45:44Z</time>
      </trkpt>
      <trkpt lat="45.85738" lon="4.70495">
        <ele>196</ele>
        <time>2018-06-12T09:45:45Z</time>
      </trkpt>
      <trkpt lat="45.85734" lon="4.7049">
        <ele>196</ele>
        <time>2018-06-12T09:45:46Z</time>
      </trkpt>
      <trkpt lat="45.85729" lon="4.7048">
        <ele>196</ele>
        <time>2018-06-12T09:45:48Z</time>
      </trkpt>
      <trkpt lat="45.85727" lon="4.70473">
        <ele>196</ele>
        <time>2018-06-12T09:45:49Z</time>
      </trkpt>
      <trkpt lat="45.85725" lon="4.70467">
        <ele>196</ele>
        <time>2018-06-12T09:45:50Z</time>
      </trkpt>
      <trkpt lat="45.85725" lon="4.70459">
        <ele>196</ele>
        <time>2018-06-12T09:45:51Z</time>
      </trkpt>
      <trkpt lat="45.85725" lon="4.70452">
        <ele>196</ele>
        <time>2018-06-12T09:45:52Z</time>
      </trkpt>
      <trkpt lat="45.85723" lon="4.70444">
        <ele>196</ele>
        <time>2018-06-12T09:45:53Z</time>
      </trkpt>
      <trkpt lat="45.85723" lon="4.70437">
        <ele>196</ele>
        <time>2018-06-12T09:45:54Z</time>
      </trkpt>
      <trkpt lat="45.85721" lon="4.7043">
        <ele>196</ele>
        <time>2018-06-12T09:45:55Z</time>
      </trkpt>
      <trkpt lat="45.85719" lon="4.70422">
        <ele>196</ele>
        <time>2018-06-12T09:45:56Z</time>
      </trkpt>
      <trkpt lat="45.85718" lon="4.70413">
        <ele>196</ele>
        <time>2018-06-12T09:45:57Z</time>
      </trkpt>
      <trkpt lat="45.85717" lon="4.70406">
        <ele>196</ele>
        <time>2018-06-12T09:45:58Z</time>
      </trkpt>
      <trkpt lat="45.85715" lon="4.70399">
        <ele>196</ele>
        <time>2018-06-12T09:45:59Z</time>
      </trkpt>
      <trkpt lat="45.85715" lon="4.7039">
        <ele>196</ele>
        <time>2018-06-12T09:46:00Z</time>
      </trkpt>
      <trkpt lat="45.85714" lon="4.70383">
        <ele>196</ele>
        <time>2018-06-12T09:46:01Z</time>
      </trkpt>
      <trkpt lat="45.85714" lon="4.70375">
        <ele>196</ele>
        <time>2018-06-12T09:46:02Z</time>
      </trkpt>
      <trkpt lat="45.85713" lon="4.70368">
        <ele>196</ele>
        <time>2018-06-12T09:46:03Z</time>
      </trkpt>
      <trkpt lat="45.8571" lon="4.70361">
        <ele>196</ele>
        <time>2018-06-12T09:46:04Z</time>
      </trkpt>
      <trkpt lat="45.85709" lon="4.70354">
        <ele>196</ele>
        <time>2018-06-12T09:46:05Z</time>
      </trkpt>
      <trkpt lat="45.85708" lon="4.70346">
        <ele>196</ele>
        <time>2018-06-12T09:46:06Z</time>
      </trkpt>
      <trkpt lat="45.85707" lon="4.70337">
        <ele>196</ele>
        <time>2018-06-12T09:46:07Z</time>
      </trkpt>
      <trkpt lat="45.85708" lon="4.70328">
        <ele>197</ele>
        <time>2018-06-12T09:46:08Z</time>
      </trkpt>
      <trkpt lat="45.85707" lon="4.7032">
        <ele>197</ele>
        <time>2018-06-12T09:46:09Z</time>
      </trkpt>
      <trkpt lat="45.85707" lon="4.70311">
        <ele>197</ele>
        <time>2018-06-12T09:46:10Z</time>
      </trkpt>
      <trkpt lat="45.85704" lon="4.70301">
        <ele>197</ele>
        <time>2018-06-12T09:46:11Z</time>
      </trkpt>
      <trkpt lat="45.85703" lon="4.70291">
        <ele>197</ele>
        <time>2018-06-12T09:46:12Z</time>
      </trkpt>
      <trkpt lat="45.85702" lon="4.70279">
        <ele>197</ele>
        <time>2018-06-12T09:46:13Z</time>
      </trkpt>
      <trkpt lat="45.85701" lon="4.7027">
        <ele>197</ele>
        <time>2018-06-12T09:46:14Z</time>
      </trkpt>
      <trkpt lat="45.857" lon="4.7026">
        <ele>197</ele>
        <time>2018-06-12T09:46:15Z</time>
      </trkpt>
      <trkpt lat="45.85698" lon="4.70249">
        <ele>197</ele>
        <time>2018-06-12T09:46:16Z</time>
      </trkpt>
      <trkpt lat="45.85696" lon="4.7024">
        <ele>197</ele>
        <time>2018-06-12T09:46:17Z</time>
      </trkpt>
      <trkpt lat="45.85698" lon="4.70231">
        <ele>197</ele>
        <time>2018-06-12T09:46:18Z</time>
      </trkpt>
      <trkpt lat="45.85697" lon="4.70221">
        <ele>197</ele>
        <time>2018-06-12T09:46:19Z</time>
      </trkpt>
      <trkpt lat="45.85697" lon="4.70211">
        <ele>197</ele>
        <time>2018-06-12T09:46:20Z</time>
      </trkpt>
      <trkpt lat="45.85696" lon="4.70201">
        <ele>197</ele>
        <time>2018-06-12T09:46:21Z</time>
      </trkpt>
      <trkpt lat="45.85691" lon="4.70191">
        <ele>197</ele>
        <time>2018-06-12T09:46:22Z</time>
      </trkpt>
      <trkpt lat="45.85689" lon="4.70181">
        <ele>197</ele>
        <time>2018-06-12T09:46:23Z</time>
      </trkpt>
      <trkpt lat="45.85687" lon="4.70172">
        <ele>197</ele>
        <time>2018-06-12T09:46:24Z</time>
      </trkpt>
      <trkpt lat="45.85682" lon="4.70163">
        <ele>197</ele>
        <time>2018-06-12T09:46:25Z</time>
      </trkpt>
      <trkpt lat="45.85681" lon="4.70157">
        <ele>197</ele>
        <time>2018-06-12T09:46:26Z</time>
      </trkpt>
      <trkpt lat="45.85678" lon="4.70148">
        <ele>197</ele>
        <time>2018-06-12T09:46:27Z</time>
      </trkpt>
      <trkpt lat="45.85675" lon="4.70141">
        <ele>197</ele>
        <time>2018-06-12T09:46:28Z</time>
      </trkpt>
      <trkpt lat="45.85673" lon="4.70133">
        <ele>197</ele>
        <time>2018-06-12T09:46:29Z</time>
      </trkpt>
      <trkpt lat="45.85672" lon="4.70125">
        <ele>197</ele>
        <time>2018-06-12T09:46:30Z</time>
      </trkpt>
      <trkpt lat="45.85672" lon="4.70117">
        <ele>197</ele>
        <time>2018-06-12T09:46:31Z</time>
      </trkpt>
      <trkpt lat="45.85671" lon="4.70107">
        <ele>196</ele>
        <time>2018-06-12T09:46:32Z</time>
      </trkpt>
      <trkpt lat="45.85672" lon="4.70098">
        <ele>196</ele>
        <time>2018-06-12T09:46:33Z</time>
      </trkpt>
      <trkpt lat="45.85673" lon="4.70089">
        <ele>196</ele>
        <time>2018-06-12T09:46:34Z</time>
      </trkpt>
      <trkpt lat="45.85673" lon="4.7008">
        <ele>196</ele>
        <time>2018-06-12T09:46:35Z</time>
      </trkpt>
      <trkpt lat="45.85674" lon="4.70073">
        <ele>196</ele>
        <time>2018-06-12T09:46:36Z</time>
      </trkpt>
      <trkpt lat="45.85674" lon="4.70066">
        <ele>196</ele>
        <time>2018-06-12T09:46:37Z</time>
      </trkpt>
      <trkpt lat="45.85677" lon="4.70059">
        <ele>196</ele>
        <time>2018-06-12T09:46:38Z</time>
      </trkpt>
      <trkpt lat="45.85678" lon="4.70052">
        <ele>195</ele>
        <time>2018-06-12T09:46:39Z</time>
      </trkpt>
      <trkpt lat="45.8568" lon="4.70046">
        <ele>195</ele>
        <time>2018-06-12T09:46:40Z</time>
      </trkpt>
      <trkpt lat="45.85682" lon="4.70039">
        <ele>195</ele>
        <time>2018-06-12T09:46:41Z</time>
      </trkpt>
      <trkpt lat="45.85683" lon="4.70033">
        <ele>195</ele>
        <time>2018-06-12T09:46:42Z</time>
      </trkpt>
      <trkpt lat="45.85684" lon="4.70025">
        <ele>195</ele>
        <time>2018-06-12T09:46:43Z</time>
      </trkpt>
      <trkpt lat="45.85686" lon="4.70017">
        <ele>195</ele>
        <time>2018-06-12T09:46:44Z</time>
      </trkpt>
      <trkpt lat="45.85687" lon="4.70008">
        <ele>195</ele>
        <time>2018-06-12T09:46:45Z</time>
      </trkpt>
      <trkpt lat="45.85685" lon="4.7">
        <ele>195</ele>
        <time>2018-06-12T09:46:46Z</time>
      </trkpt>
      <trkpt lat="45.85685" lon="4.69991">
        <ele>195</ele>
        <time>2018-06-12T09:46:47Z</time>
      </trkpt>
      <trkpt lat="45.85684" lon="4.69981">
        <ele>195</ele>
        <time>2018-06-12T09:46:48Z</time>
      </trkpt>
      <trkpt lat="45.85683" lon="4.69972">
        <ele>195</ele>
        <time>2018-06-12T09:46:49Z</time>
      </trkpt>
      <trkpt lat="45.85681" lon="4.69964">
        <ele>195</ele>
        <time>2018-06-12T09:46:50Z</time>
      </trkpt>
      <trkpt lat="45.85678" lon="4.69956">
        <ele>195</ele>
        <time>2018-06-12T09:46:51Z</time>
      </trkpt>
      <trkpt lat="45.85677" lon="4.69947">
        <ele>195</ele>
        <time>2018-06-12T09:46:52Z</time>
      </trkpt>
      <trkpt lat="45.85675" lon="4.69939">
        <ele>195</ele>
        <time>2018-06-12T09:46:53Z</time>
      </trkpt>
      <trkpt lat="45.85673" lon="4.69931">
        <ele>195</ele>
        <time>2018-06-12T09:46:54Z</time>
      </trkpt>
      <trkpt lat="45.85671" lon="4.69923">
        <ele>195</ele>
        <time>2018-06-12T09:46:55Z</time>
      </trkpt>
      <trkpt lat="45.85669" lon="4.69915">
        <ele>195</ele>
        <time>2018-06-12T09:46:56Z</time>
      </trkpt>
      <trkpt lat="45.85667" lon="4.69907">
        <ele>195</ele>
        <time>2018-06-12T09:46:57Z</time>
      </trkpt>
      <trkpt lat="45.85665" lon="4.69901">
        <ele>195</ele>
        <time>2018-06-12T09:46:58Z</time>
      </trkpt>
      <trkpt lat="45.85662" lon="4.69892">
        <ele>195</ele>
        <time>2018-06-12T09:46:59Z</time>
      </trkpt>
      <trkpt lat="45.85661" lon="4.69884">
        <ele>195</ele>
        <time>2018-06-12T09:47:00Z</time>
      </trkpt>
      <trkpt lat="45.8566" lon="4.69875">
        <ele>195</ele>
        <time>2018-06-12T09:47:01Z</time>
      </trkpt>
      <trkpt lat="45.8566" lon="4.69864">
        <ele>195</ele>
        <time>2018-06-12T09:47:02Z</time>
      </trkpt>
      <trkpt lat="45.85659" lon="4.69854">
        <ele>195</ele>
        <time>2018-06-12T09:47:03Z</time>
      </trkpt>
      <trkpt lat="45.85658" lon="4.69844">
        <ele>195</ele>
        <time>2018-06-12T09:47:04Z</time>
      </trkpt>
      <trkpt lat="45.85657" lon="4.69834">
        <ele>195</ele>
        <time>2018-06-12T09:47:05Z</time>
      </trkpt>
      <trkpt lat="45.85657" lon="4.69825">
        <ele>195</ele>
        <time>2018-06-12T09:47:06Z</time>
      </trkpt>
      <trkpt lat="45.85655" lon="4.69814">
        <ele>195</ele>
        <time>2018-06-12T09:47:07Z</time>
      </trkpt>
      <trkpt lat="45.85654" lon="4.69805">
        <ele>195</ele>
        <time>2018-06-12T09:47:08Z</time>
      </trkpt>
      <trkpt lat="45.85649" lon="4.69799">
        <ele>195</ele>
        <time>2018-06-12T09:47:09Z</time>
      </trkpt>
      <trkpt lat="45.85648" lon="4.6979">
        <ele>195</ele>
        <time>2018-06-12T09:47:10Z</time>
      </trkpt>
      <trkpt lat="45.85645" lon="4.69782">
        <ele>195</ele>
        <time>2018-06-12T09:47:11Z</time>
      </trkpt>
      <trkpt lat="45.85644" lon="4.69772">
        <ele>195</ele>
        <time>2018-06-12T09:47:12Z</time>
      </trkpt>
      <trkpt lat="45.85644" lon="4.69764">
        <ele>195</ele>
        <time>2018-06-12T09:47:13Z</time>
      </trkpt>
      <trkpt lat="45.85644" lon="4.69756">
        <ele>195</ele>
        <time>2018-06-12T09:47:14Z</time>
      </trkpt>
      <trkpt lat="45.85642" lon="4.69749">
        <ele>195</ele>
        <time>2018-06-12T09:47:15Z</time>
      </trkpt>
      <trkpt lat="45.85642" lon="4.69741">
        <ele>195</ele>
        <time>2018-06-12T09:47:16Z</time>
      </trkpt>
      <trkpt lat="45.85641" lon="4.69734">
        <ele>195</ele>
        <time>2018-06-12T09:47:17Z</time>
      </trkpt>
      <trkpt lat="45.85641" lon="4.69726">
        <ele>196</ele>
        <time>2018-06-12T09:47:18Z</time>
      </trkpt>
      <trkpt lat="45.85639" lon="4.69718">
        <ele>196</ele>
        <time>2018-06-12T09:47:19Z</time>
      </trkpt>
      <trkpt lat="45.85637" lon="4.6971">
        <ele>196</ele>
        <time>2018-06-12T09:47:20Z</time>
      </trkpt>
      <trkpt lat="45.85636" lon="4.69702">
        <ele>196</ele>
        <time>2018-06-12T09:47:21Z</time>
      </trkpt>
      <trkpt lat="45.85637" lon="4.69693">
        <ele>196</ele>
        <time>2018-06-12T09:47:22Z</time>
      </trkpt>
      <trkpt lat="45.85637" lon="4.69684">
        <ele>196</ele>
        <time>2018-06-12T09:47:23Z</time>
      </trkpt>
      <trkpt lat="45.85636" lon="4.69675">
        <ele>196</ele>
        <time>2018-06-12T09:47:24Z</time>
      </trkpt>
      <trkpt lat="45.85634" lon="4.69666">
        <ele>197</ele>
        <time>2018-06-12T09:47:25Z</time>
      </trkpt>
      <trkpt lat="45.85635" lon="4.69658">
        <ele>197</ele>
        <time>2018-06-12T09:47:26Z</time>
      </trkpt>
      <trkpt lat="45.85635" lon="4.69649">
        <ele>197</ele>
        <time>2018-06-12T09:47:27Z</time>
      </trkpt>
      <trkpt lat="45.85633" lon="4.69641">
        <ele>197</ele>
        <time>2018-06-12T09:47:28Z</time>
      </trkpt>
      <trkpt lat="45.85632" lon="4.69632">
        <ele>197</ele>
        <time>2018-06-12T09:47:29Z</time>
      </trkpt>
      <trkpt lat="45.85631" lon="4.69624">
        <ele>197</ele>
        <time>2018-06-12T09:47:30Z</time>
      </trkpt>
      <trkpt lat="45.85631" lon="4.69614">
        <ele>197</ele>
        <time>2018-06-12T09:47:31Z</time>
      </trkpt>
      <trkpt lat="45.8563" lon="4.69605">
        <ele>197</ele>
        <time>2018-06-12T09:47:32Z</time>
      </trkpt>
      <trkpt lat="45.85628" lon="4.69597">
        <ele>197</ele>
        <time>2018-06-12T09:47:33Z</time>
      </trkpt>
      <trkpt lat="45.85627" lon="4.69589">
        <ele>197</ele>
        <time>2018-06-12T09:47:34Z</time>
      </trkpt>
      <trkpt lat="45.85626" lon="4.69579">
        <ele>198</ele>
        <time>2018-06-12T09:47:35Z</time>
      </trkpt>
      <trkpt lat="45.85626" lon="4.69569">
        <ele>198</ele>
        <time>2018-06-12T09:47:36Z</time>
      </trkpt>
      <trkpt lat="45.85625" lon="4.69561">
        <ele>198</ele>
        <time>2018-06-12T09:47:37Z</time>
      </trkpt>
      <trkpt lat="45.85625" lon="4.69552">
        <ele>198</ele>
        <time>2018-06-12T09:47:38Z</time>
      </trkpt>
      <trkpt lat="45.85625" lon="4.69543">
        <ele>198</ele>
        <time>2018-06-12T09:47:39Z</time>
      </trkpt>
      <trkpt lat="45.85625" lon="4.69534">
        <ele>198</ele>
        <time>2018-06-12T09:47:40Z</time>
      </trkpt>
      <trkpt lat="45.85625" lon="4.69524">
        <ele>198</ele>
        <time>2018-06-12T09:47:41Z</time>
      </trkpt>
      <trkpt lat="45.85624" lon="4.69515">
        <ele>198</ele>
        <time>2018-06-12T09:47:42Z</time>
      </trkpt>
      <trkpt lat="45.85624" lon="4.69507">
        <ele>198</ele>
        <time>2018-06-12T09:47:43Z</time>
      </trkpt>
      <trkpt lat="45.85622" lon="4.69497">
        <ele>198</ele>
        <time>2018-06-12T09:47:44Z</time>
      </trkpt>
      <trkpt lat="45.8562" lon="4.6949">
        <ele>198</ele>
        <time>2018-06-12T09:47:45Z</time>
      </trkpt>
      <trkpt lat="45.85619" lon="4.69481">
        <ele>198</ele>
        <time>2018-06-12T09:47:46Z</time>
      </trkpt>
      <trkpt lat="45.8562" lon="4.6947">
        <ele>198</ele>
        <time>2018-06-12T09:47:47Z</time>
      </trkpt>
      <trkpt lat="45.85619" lon="4.69461">
        <ele>198</ele>
        <time>2018-06-12T09:47:48Z</time>
      </trkpt>
      <trkpt lat="45.85618" lon="4.69451">
        <ele>198</ele>
        <time>2018-06-12T09:47:49Z</time>
      </trkpt>
      <trkpt lat="45.85617" lon="4.69441">
        <ele>198</ele>
        <time>2018-06-12T09:47:50Z</time>
      </trkpt>
      <trkpt lat="45.85615" lon="4.69431">
        <ele>198</ele>
        <time>2018-06-12T09:47:51Z</time>
      </trkpt>
      <trkpt lat="45.85614" lon="4.69422">
        <ele>198</ele>
        <time>2018-06-12T09:47:52Z</time>
      </trkpt>
      <trkpt lat="45.85612" lon="4.69413">
        <ele>198</ele>
        <time>2018-06-12T09:47:53Z</time>
      </trkpt>
      <trkpt lat="45.85611" lon="4.69403">
        <ele>198</ele>
        <time>2018-06-12T09:47:54Z</time>
      </trkpt>
      <trkpt lat="45.85611" lon="4.69393">
        <ele>198</ele>
        <time>2018-06-12T09:47:55Z</time>
      </trkpt>
      <trkpt lat="45.8561" lon="4.69383">
        <ele>198</ele>
        <time>2018-06-12T09:47:56Z</time>
      </trkpt>
      <trkpt lat="45.8561" lon="4.69373">
        <ele>198</ele>
        <time>2018-06-12T09:47:57Z</time>
      </trkpt>
      <trkpt lat="45.85609" lon="4.69364">
        <ele>198</ele>
        <time>2018-06-12T09:47:58Z</time>
      </trkpt>
      <trkpt lat="45.85609" lon="4.69354">
        <ele>198</ele>
        <time>2018-06-12T09:47:59Z</time>
      </trkpt>
      <trkpt lat="45.85607" lon="4.69344">
        <ele>198</ele>
        <time>2018-06-12T09:48:00Z</time>
      </trkpt>
      <trkpt lat="45.85606" lon="4.69334">
        <ele>198</ele>
        <time>2018-06-12T09:48:01Z</time>
      </trkpt>
      <trkpt lat="45.85604" lon="4.69324">
        <ele>198</ele>
        <time>2018-06-12T09:48:02Z</time>
      </trkpt>
      <trkpt lat="45.85603" lon="4.69316">
        <ele>198</ele>
        <time>2018-06-12T09:48:03Z</time>
      </trkpt>
      <trkpt lat="45.85603" lon="4.69306">
        <ele>198</ele>
        <time>2018-06-12T09:48:04Z</time>
      </trkpt>
      <trkpt lat="45.85602" lon="4.69296">
        <ele>198</ele>
        <time>2018-06-12T09:48:05Z</time>
      </trkpt>
      <trkpt lat="45.85602" lon="4.69289">
        <ele>198</ele>
        <time>2018-06-12T09:48:06Z</time>
      </trkpt>
      <trkpt lat="45.85601" lon="4.69282">
        <ele>198</ele>
        <time>2018-06-12T09:48:07Z</time>
      </trkpt>
      <trkpt lat="45.85601" lon="4.69275">
        <ele>198</ele>
        <time>2018-06-12T09:48:08Z</time>
      </trkpt>
      <trkpt lat="45.85604" lon="4.69267">
        <ele>198</ele>
        <time>2018-06-12T09:48:09Z</time>
      </trkpt>
      <trkpt lat="45.85604" lon="4.69261">
        <ele>198</ele>
        <time>2018-06-12T09:48:10Z</time>
      </trkpt>
      <trkpt lat="45.85605" lon="4.69254">
        <ele>198</ele>
        <time>2018-06-12T09:48:11Z</time>
      </trkpt>
      <trkpt lat="45.85604" lon="4.69248">
        <ele>199</ele>
        <time>2018-06-12T09:48:12Z</time>
      </trkpt>
      <trkpt lat="45.85602" lon="4.6924">
        <ele>199</ele>
        <time>2018-06-12T09:48:13Z</time>
      </trkpt>
      <trkpt lat="45.856" lon="4.69234">
        <ele>199</ele>
        <time>2018-06-12T09:48:14Z</time>
      </trkpt>
      <trkpt lat="45.85599" lon="4.69228">
        <ele>199</ele>
        <time>2018-06-12T09:48:15Z</time>
      </trkpt>
      <trkpt lat="45.85599" lon="4.69219">
        <ele>199</ele>
        <time>2018-06-12T09:48:16Z</time>
      </trkpt>
      <trkpt lat="45.85597" lon="4.69211">
        <ele>199</ele>
        <time>2018-06-12T09:48:17Z</time>
      </trkpt>
      <trkpt lat="45.85597" lon="4.69203">
        <ele>199</ele>
        <time>2018-06-12T09:48:18Z</time>
      </trkpt>
      <trkpt lat="45.85595" lon="4.69193">
        <ele>199</ele>
        <time>2018-06-12T09:48:19Z</time>
      </trkpt>
      <trkpt lat="45.85593" lon="4.69184">
        <ele>199</ele>
        <time>2018-06-12T09:48:20Z</time>
      </trkpt>
      <trkpt lat="45.85594" lon="4.69175">
        <ele>199</ele>
        <time>2018-06-12T09:48:21Z</time>
      </trkpt>
      <trkpt lat="45.85592" lon="4.69167">
        <ele>199</ele>
        <time>2018-06-12T09:48:22Z</time>
      </trkpt>
      <trkpt lat="45.85591" lon="4.69157">
        <ele>199</ele>
        <time>2018-06-12T09:48:23Z</time>
      </trkpt>
      <trkpt lat="45.8559" lon="4.69148">
        <ele>199</ele>
        <time>2018-06-12T09:48:24Z</time>
      </trkpt>
      <trkpt lat="45.85589" lon="4.69139">
        <ele>199</ele>
        <time>2018-06-12T09:48:25Z</time>
      </trkpt>
      <trkpt lat="45.85586" lon="4.69131">
        <ele>199</ele>
        <time>2018-06-12T09:48:26Z</time>
      </trkpt>
      <trkpt lat="45.85586" lon="4.69122">
        <ele>199</ele>
        <time>2018-06-12T09:48:27Z</time>
      </trkpt>
      <trkpt lat="45.85585" lon="4.69114">
        <ele>199</ele>
        <time>2018-06-12T09:48:28Z</time>
      </trkpt>
      <trkpt lat="45.85584" lon="4.69105">
        <ele>199</ele>
        <time>2018-06-12T09:48:29Z</time>
      </trkpt>
      <trkpt lat="45.85584" lon="4.69096">
        <ele>199</ele>
        <time>2018-06-12T09:48:30Z</time>
      </trkpt>
      <trkpt lat="45.85583" lon="4.69087">
        <ele>199</ele>
        <time>2018-06-12T09:48:31Z</time>
      </trkpt>
      <trkpt lat="45.85582" lon="4.69078">
        <ele>199</ele>
        <time>2018-06-12T09:48:32Z</time>
      </trkpt>
      <trkpt lat="45.85582" lon="4.69069">
        <ele>199</ele>
        <time>2018-06-12T09:48:33Z</time>
      </trkpt>
      <trkpt lat="45.85583" lon="4.6906">
        <ele>199</ele>
        <time>2018-06-12T09:48:34Z</time>
      </trkpt>
      <trkpt lat="45.85583" lon="4.69051">
        <ele>199</ele>
        <time>2018-06-12T09:48:35Z</time>
      </trkpt>
      <trkpt lat="45.85584" lon="4.69043">
        <ele>199</ele>
        <time>2018-06-12T09:48:36Z</time>
      </trkpt>
      <trkpt lat="45.85583" lon="4.69034">
        <ele>200</ele>
        <time>2018-06-12T09:48:37Z</time>
      </trkpt>
      <trkpt lat="45.85582" lon="4.69025">
        <ele>200</ele>
        <time>2018-06-12T09:48:38Z</time>
      </trkpt>
      <trkpt lat="45.85582" lon="4.69016">
        <ele>200</ele>
        <time>2018-06-12T09:48:39Z</time>
      </trkpt>
      <trkpt lat="45.8558" lon="4.69008">
        <ele>200</ele>
        <time>2018-06-12T09:48:40Z</time>
      </trkpt>
      <trkpt lat="45.8558" lon="4.68999">
        <ele>200</ele>
        <time>2018-06-12T09:48:41Z</time>
      </trkpt>
      <trkpt lat="45.85579" lon="4.6899">
        <ele>200</ele>
        <time>2018-06-12T09:48:42Z</time>
      </trkpt>
      <trkpt lat="45.85578" lon="4.68982">
        <ele>200</ele>
        <time>2018-06-12T09:48:43Z</time>
      </trkpt>
      <trkpt lat="45.85577" lon="4.68973">
        <ele>200</ele>
        <time>2018-06-12T09:48:44Z</time>
      </trkpt>
      <trkpt lat="45.85576" lon="4.68964">
        <ele>200</ele>
        <time>2018-06-12T09:48:45Z</time>
      </trkpt>
      <trkpt lat="45.85576" lon="4.68955">
        <ele>200</ele>
        <time>2018-06-12T09:48:46Z</time>
      </trkpt>
      <trkpt lat="45.85575" lon="4.68946">
        <ele>200</ele>
        <time>2018-06-12T09:48:47Z</time>
      </trkpt>
      <trkpt lat="45.85574" lon="4.68937">
        <ele>200</ele>
        <time>2018-06-12T09:48:48Z</time>
      </trkpt>
      <trkpt lat="45.85572" lon="4.68928">
        <ele>200</ele>
        <time>2018-06-12T09:48:49Z</time>
      </trkpt>
      <trkpt lat="45.85571" lon="4.68921">
        <ele>200</ele>
        <time>2018-06-12T09:48:50Z</time>
      </trkpt>
      <trkpt lat="45.8557" lon="4.68913">
        <ele>200</ele>
        <time>2018-06-12T09:48:51Z</time>
      </trkpt>
      <trkpt lat="45.85571" lon="4.68904">
        <ele>200</ele>
        <time>2018-06-12T09:48:52Z</time>
      </trkpt>
      <trkpt lat="45.85569" lon="4.68894">
        <ele>200</ele>
        <time>2018-06-12T09:48:53Z</time>
      </trkpt>
      <trkpt lat="45.85569" lon="4.68886">
        <ele>200</ele>
        <time>2018-06-12T09:48:54Z</time>
      </trkpt>
      <trkpt lat="45.85566" lon="4.68878">
        <ele>200</ele>
        <time>2018-06-12T09:48:55Z</time>
      </trkpt>
      <trkpt lat="45.85567" lon="4.68869">
        <ele>200</ele>
        <time>2018-06-12T09:48:56Z</time>
      </trkpt>
      <trkpt lat="45.85565" lon="4.68862">
        <ele>200</ele>
        <time>2018-06-12T09:48:57Z</time>
      </trkpt>
      <trkpt lat="45.85566" lon="4.68853">
        <ele>200</ele>
        <time>2018-06-12T09:48:58Z</time>
      </trkpt>
      <trkpt lat="45.85565" lon="4.68846">
        <ele>200</ele>
        <time>2018-06-12T09:48:59Z</time>
      </trkpt>
      <trkpt lat="45.85564" lon="4.68833">
        <ele>200</ele>
        <time>2018-06-12T09:49:01Z</time>
      </trkpt>
      <trkpt lat="45.85564" lon="4.68827">
        <ele>200</ele>
        <time>2018-06-12T09:49:02Z</time>
      </trkpt>
      <trkpt lat="45.85564" lon="4.6882">
        <ele>200</ele>
        <time>2018-06-12T09:49:03Z</time>
      </trkpt>
      <trkpt lat="45.85564" lon="4.68812">
        <ele>200</ele>
        <time>2018-06-12T09:49:04Z</time>
      </trkpt>
      <trkpt lat="45.85564" lon="4.68806">
        <ele>200</ele>
        <time>2018-06-12T09:49:05Z</time>
      </trkpt>
      <trkpt lat="45.85563" lon="4.68797">
        <ele>200</ele>
        <time>2018-06-12T09:49:06Z</time>
      </trkpt>
      <trkpt lat="45.85562" lon="4.68789">
        <ele>200</ele>
        <time>2018-06-12T09:49:07Z</time>
      </trkpt>
      <trkpt lat="45.85561" lon="4.68781">
        <ele>200</ele>
        <time>2018-06-12T09:49:08Z</time>
      </trkpt>
      <trkpt lat="45.85561" lon="4.68772">
        <ele>200</ele>
        <time>2018-06-12T09:49:09Z</time>
      </trkpt>
      <trkpt lat="45.8556" lon="4.68764">
        <ele>200</ele>
        <time>2018-06-12T09:49:10Z</time>
      </trkpt>
      <trkpt lat="45.8556" lon="4.68756">
        <ele>200</ele>
        <time>2018-06-12T09:49:11Z</time>
      </trkpt>
      <trkpt lat="45.85562" lon="4.68747">
        <ele>200</ele>
        <time>2018-06-12T09:49:12Z</time>
      </trkpt>
      <trkpt lat="45.85561" lon="4.68738">
        <ele>200</ele>
        <time>2018-06-12T09:49:13Z</time>
      </trkpt>
      <trkpt lat="45.85559" lon="4.6873">
        <ele>200</ele>
        <time>2018-06-12T09:49:14Z</time>
      </trkpt>
      <trkpt lat="45.85558" lon="4.68721">
        <ele>200</ele>
        <time>2018-06-12T09:49:15Z</time>
      </trkpt>
      <trkpt lat="45.85557" lon="4.68713">
        <ele>200</ele>
        <time>2018-06-12T09:49:16Z</time>
      </trkpt>
      <trkpt lat="45.85556" lon="4.68704">
        <ele>200</ele>
        <time>2018-06-12T09:49:17Z</time>
      </trkpt>
      <trkpt lat="45.85555" lon="4.68695">
        <ele>200</ele>
        <time>2018-06-12T09:49:18Z</time>
      </trkpt>
      <trkpt lat="45.85554" lon="4.68686">
        <ele>200</ele>
        <time>2018-06-12T09:49:19Z</time>
      </trkpt>
      <trkpt lat="45.85551" lon="4.68678">
        <ele>200</ele>
        <time>2018-06-12T09:49:20Z</time>
      </trkpt>
      <trkpt lat="45.85549" lon="4.68668">
        <ele>200</ele>
        <time>2018-06-12T09:49:21Z</time>
      </trkpt>
      <trkpt lat="45.85549" lon="4.68658">
        <ele>200</ele>
        <time>2018-06-12T09:49:22Z</time>
      </trkpt>
      <trkpt lat="45.85548" lon="4.68648">
        <ele>201</ele>
        <time>2018-06-12T09:49:23Z</time>
      </trkpt>
      <trkpt lat="45.85547" lon="4.68639">
        <ele>201</ele>
        <time>2018-06-12T09:49:24Z</time>
      </trkpt>
      <trkpt lat="45.85546" lon="4.68629">
        <ele>201</ele>
        <time>2018-06-12T09:49:25Z</time>
      </trkpt>
      <trkpt lat="45.85542" lon="4.68619">
        <ele>201</ele>
        <time>2018-06-12T09:49:26Z</time>
      </trkpt>
      <trkpt lat="45.85541" lon="4.68611">
        <ele>201</ele>
        <time>2018-06-12T09:49:27Z</time>
      </trkpt>
      <trkpt lat="45.8554" lon="4.68604">
        <ele>201</ele>
        <time>2018-06-12T09:49:28Z</time>
      </trkpt>
      <trkpt lat="45.85539" lon="4.68596">
        <ele>201</ele>
        <time>2018-06-12T09:49:29Z</time>
      </trkpt>
      <trkpt lat="45.85538" lon="4.68588">
        <ele>201</ele>
        <time>2018-06-12T09:49:30Z</time>
      </trkpt>
      <trkpt lat="45.85538" lon="4.68581">
        <ele>201</ele>
        <time>2018-06-12T09:49:31Z</time>
      </trkpt>
      <trkpt lat="45.85538" lon="4.68574">
        <ele>201</ele>
        <time>2018-06-12T09:49:32Z</time>
      </trkpt>
      <trkpt lat="45.85538" lon="4.68566">
        <ele>201</ele>
        <time>2018-06-12T09:49:33Z</time>
      </trkpt>
      <trkpt lat="45.85537" lon="4.68553">
        <ele>201</ele>
        <time>2018-06-12T09:49:34Z</time>
      </trkpt>
      <trkpt lat="45.85537" lon="4.68541">
        <ele>201</ele>
        <time>2018-06-12T09:49:35Z</time>
      </trkpt>
      <trkpt lat="45.85536" lon="4.68532">
        <ele>201</ele>
        <time>2018-06-12T09:49:36Z</time>
      </trkpt>
      <trkpt lat="45.85537" lon="4.68523">
        <ele>201</ele>
        <time>2018-06-12T09:49:37Z</time>
      </trkpt>
      <trkpt lat="45.85536" lon="4.68515">
        <ele>201</ele>
        <time>2018-06-12T09:49:38Z</time>
      </trkpt>
      <trkpt lat="45.85536" lon="4.68507">
        <ele>201</ele>
        <time>2018-06-12T09:49:39Z</time>
      </trkpt>
      <trkpt lat="45.85536" lon="4.68499">
        <ele>200</ele>
        <time>2018-06-12T09:49:40Z</time>
      </trkpt>
      <trkpt lat="45.85536" lon="4.6849">
        <ele>200</ele>
        <time>2018-06-12T09:49:41Z</time>
      </trkpt>
      <trkpt lat="45.85536" lon="4.68482">
        <ele>200</ele>
        <time>2018-06-12T09:49:42Z</time>
      </trkpt>
      <trkpt lat="45.85535" lon="4.68474">
        <ele>200</ele>
        <time>2018-06-12T09:49:43Z</time>
      </trkpt>
      <trkpt lat="45.85536" lon="4.68467">
        <ele>200</ele>
        <time>2018-06-12T09:49:44Z</time>
      </trkpt>
      <trkpt lat="45.85535" lon="4.68459">
        <ele>200</ele>
        <time>2018-06-12T09:49:45Z</time>
      </trkpt>
      <trkpt lat="45.85534" lon="4.68452">
        <ele>200</ele>
        <time>2018-06-12T09:49:46Z</time>
      </trkpt>
      <trkpt lat="45.85534" lon="4.68444">
        <ele>200</ele>
        <time>2018-06-12T09:49:47Z</time>
      </trkpt>
      <trkpt lat="45.85534" lon="4.68436">
        <ele>200</ele>
        <time>2018-06-12T09:49:48Z</time>
      </trkpt>
      <trkpt lat="45.85533" lon="4.68429">
        <ele>200</ele>
        <time>2018-06-12T09:49:49Z</time>
      </trkpt>
      <trkpt lat="45.85532" lon="4.68421">
        <ele>200</ele>
        <time>2018-06-12T09:49:50Z</time>
      </trkpt>
      <trkpt lat="45.85531" lon="4.68412">
        <ele>200</ele>
        <time>2018-06-12T09:49:51Z</time>
      </trkpt>
      <trkpt lat="45.85529" lon="4.68404">
        <ele>200</ele>
        <time>2018-06-12T09:49:52Z</time>
      </trkpt>
      <trkpt lat="45.85528" lon="4.68395">
        <ele>200</ele>
        <time>2018-06-12T09:49:53Z</time>
      </trkpt>
      <trkpt lat="45.85526" lon="4.68387">
        <ele>200</ele>
        <time>2018-06-12T09:49:54Z</time>
      </trkpt>
      <trkpt lat="45.85524" lon="4.68379">
        <ele>201</ele>
        <time>2018-06-12T09:49:55Z</time>
      </trkpt>
      <trkpt lat="45.85523" lon="4.6837">
        <ele>201</ele>
        <time>2018-06-12T09:49:56Z</time>
      </trkpt>
      <trkpt lat="45.85522" lon="4.68362">
        <ele>201</ele>
        <time>2018-06-12T09:49:57Z</time>
      </trkpt>
      <trkpt lat="45.85521" lon="4.68353">
        <ele>201</ele>
        <time>2018-06-12T09:49:58Z</time>
      </trkpt>
      <trkpt lat="45.8552" lon="4.68345">
        <ele>201</ele>
        <time>2018-06-12T09:49:59Z</time>
      </trkpt>
      <trkpt lat="45.85519" lon="4.68336">
        <ele>201</ele>
        <time>2018-06-12T09:50:00Z</time>
      </trkpt>
      <trkpt lat="45.85518" lon="4.68329">
        <ele>202</ele>
        <time>2018-06-12T09:50:01Z</time>
      </trkpt>
      <trkpt lat="45.85516" lon="4.68321">
        <ele>202</ele>
        <time>2018-06-12T09:50:02Z</time>
      </trkpt>
      <trkpt lat="45.85515" lon="4.68313">
        <ele>202</ele>
        <time>2018-06-12T09:50:03Z</time>
      </trkpt>
      <trkpt lat="45.85514" lon="4.68307">
        <ele>202</ele>
        <time>2018-06-12T09:50:04Z</time>
      </trkpt>
      <trkpt lat="45.85513" lon="4.68299">
        <ele>202</ele>
        <time>2018-06-12T09:50:05Z</time>
      </trkpt>
      <trkpt lat="45.85511" lon="4.68291">
        <ele>202</ele>
        <time>2018-06-12T09:50:06Z</time>
      </trkpt>
      <trkpt lat="45.8551" lon="4.68283">
        <ele>202</ele>
        <time>2018-06-12T09:50:07Z</time>
      </trkpt>
      <trkpt lat="45.8551" lon="4.68275">
        <ele>202</ele>
        <time>2018-06-12T09:50:08Z</time>
      </trkpt>
      <trkpt lat="45.8551" lon="4.68267">
        <ele>202</ele>
        <time>2018-06-12T09:50:09Z</time>
      </trkpt>
      <trkpt lat="45.85508" lon="4.68259">
        <ele>203</ele>
        <time>2018-06-12T09:50:10Z</time>
      </trkpt>
      <trkpt lat="45.85511" lon="4.68252">
        <ele>203</ele>
        <time>2018-06-12T09:50:11Z</time>
      </trkpt>
      <trkpt lat="45.8551" lon="4.68244">
        <ele>203</ele>
        <time>2018-06-12T09:50:12Z</time>
      </trkpt>
      <trkpt lat="45.85512" lon="4.68235">
        <ele>203</ele>
        <time>2018-06-12T09:50:13Z</time>
      </trkpt>
      <trkpt lat="45.85509" lon="4.68229">
        <ele>203</ele>
        <time>2018-06-12T09:50:14Z</time>
      </trkpt>
      <trkpt lat="45.85509" lon="4.68222">
        <ele>203</ele>
        <time>2018-06-12T09:50:15Z</time>
      </trkpt>
      <trkpt lat="45.85509" lon="4.68215">
        <ele>203</ele>
        <time>2018-06-12T09:50:16Z</time>
      </trkpt>
      <trkpt lat="45.85508" lon="4.68206">
        <ele>203</ele>
        <time>2018-06-12T09:50:17Z</time>
      </trkpt>
      <trkpt lat="45.85508" lon="4.68199">
        <ele>203</ele>
        <time>2018-06-12T09:50:18Z</time>
      </trkpt>
      <trkpt lat="45.85507" lon="4.68191">
        <ele>203</ele>
        <time>2018-06-12T09:50:19Z</time>
      </trkpt>
      <trkpt lat="45.85506" lon="4.68182">
        <ele>204</ele>
        <time>2018-06-12T09:50:20Z</time>
      </trkpt>
      <trkpt lat="45.85506" lon="4.68174">
        <ele>204</ele>
        <time>2018-06-12T09:50:21Z</time>
      </trkpt>
      <trkpt lat="45.85506" lon="4.68166">
        <ele>204</ele>
        <time>2018-06-12T09:50:22Z</time>
      </trkpt>
      <trkpt lat="45.85504" lon="4.68159">
        <ele>204</ele>
        <time>2018-06-12T09:50:23Z</time>
      </trkpt>
      <trkpt lat="45.85503" lon="4.68151">
        <ele>203</ele>
        <time>2018-06-12T09:50:24Z</time>
      </trkpt>
      <trkpt lat="45.85502" lon="4.68143">
        <ele>203</ele>
        <time>2018-06-12T09:50:25Z</time>
      </trkpt>
      <trkpt lat="45.85501" lon="4.68135">
        <ele>203</ele>
        <time>2018-06-12T09:50:26Z</time>
      </trkpt>
      <trkpt lat="45.855" lon="4.68129">
        <ele>204</ele>
        <time>2018-06-12T09:50:27Z</time>
      </trkpt>
      <trkpt lat="45.855" lon="4.68121">
        <ele>204</ele>
        <time>2018-06-12T09:50:28Z</time>
      </trkpt>
      <trkpt lat="45.85499" lon="4.68112">
        <ele>204</ele>
        <time>2018-06-12T09:50:29Z</time>
      </trkpt>
      <trkpt lat="45.85499" lon="4.68105">
        <ele>204</ele>
        <time>2018-06-12T09:50:30Z</time>
      </trkpt>
      <trkpt lat="45.85498" lon="4.68097">
        <ele>204</ele>
        <time>2018-06-12T09:50:31Z</time>
      </trkpt>
      <trkpt lat="45.85497" lon="4.6809">
        <ele>204</ele>
        <time>2018-06-12T09:50:32Z</time>
      </trkpt>
      <trkpt lat="45.85496" lon="4.68082">
        <ele>205</ele>
        <time>2018-06-12T09:50:33Z</time>
      </trkpt>
      <trkpt lat="45.85494" lon="4.68074">
        <ele>205</ele>
        <time>2018-06-12T09:50:34Z</time>
      </trkpt>
      <trkpt lat="45.85493" lon="4.68067">
        <ele>206</ele>
        <time>2018-06-12T09:50:35Z</time>
      </trkpt>
      <trkpt lat="45.85494" lon="4.6806">
        <ele>206</ele>
        <time>2018-06-12T09:50:36Z</time>
      </trkpt>
      <trkpt lat="45.85493" lon="4.68053">
        <ele>206</ele>
        <time>2018-06-12T09:50:37Z</time>
      </trkpt>
      <trkpt lat="45.85494" lon="4.68047">
        <ele>206</ele>
        <time>2018-06-12T09:50:38Z</time>
      </trkpt>
      <trkpt lat="45.85493" lon="4.68036">
        <ele>207</ele>
        <time>2018-06-12T09:50:41Z</time>
      </trkpt>
      <trkpt lat="45.85492" lon="4.68033">
        <ele>207</ele>
        <time>2018-06-12T09:50:42Z</time>
      </trkpt>
      <trkpt lat="45.85492" lon="4.68023">
        <ele>207</ele>
        <time>2018-06-12T09:50:45Z</time>
      </trkpt>
      <trkpt lat="45.85493" lon="4.6802">
        <ele>207</ele>
        <time>2018-06-12T09:50:46Z</time>
      </trkpt>
      <trkpt lat="45.85494" lon="4.6801">
        <ele>206</ele>
        <time>2018-06-12T09:50:47Z</time>
      </trkpt>
      <trkpt lat="45.85495" lon="4.68004">
        <ele>206</ele>
        <time>2018-06-12T09:50:48Z</time>
      </trkpt>
      <trkpt lat="45.85499" lon="4.67994">
        <ele>207</ele>
        <time>2018-06-12T09:50:50Z</time>
      </trkpt>
      <trkpt lat="45.85503" lon="4.67991">
        <ele>206</ele>
        <time>2018-06-12T09:50:51Z</time>
      </trkpt>
      <trkpt lat="45.85506" lon="4.67986">
        <ele>206</ele>
        <time>2018-06-12T09:50:52Z</time>
      </trkpt>
      <trkpt lat="45.8551" lon="4.67983">
        <ele>206</ele>
        <time>2018-06-12T09:50:53Z</time>
      </trkpt>
      <trkpt lat="45.85514" lon="4.67979">
        <ele>206</ele>
        <time>2018-06-12T09:50:54Z</time>
      </trkpt>
      <trkpt lat="45.85519" lon="4.67975">
        <ele>206</ele>
        <time>2018-06-12T09:50:55Z</time>
      </trkpt>
      <trkpt lat="45.85523" lon="4.6797">
        <ele>206</ele>
        <time>2018-06-12T09:50:56Z</time>
      </trkpt>
      <trkpt lat="45.85526" lon="4.67966">
        <ele>206</ele>
        <time>2018-06-12T09:50:57Z</time>
      </trkpt>
      <trkpt lat="45.85532" lon="4.67958">
        <ele>206</ele>
        <time>2018-06-12T09:51:01Z</time>
      </trkpt>
      <trkpt lat="45.85534" lon="4.67956">
        <ele>206</ele>
        <time>2018-06-12T09:51:02Z</time>
      </trkpt>
      <trkpt lat="45.85539" lon="4.6795">
        <ele>206</ele>
        <time>2018-06-12T09:51:05Z</time>
      </trkpt>
      <trkpt lat="45.85541" lon="4.67948">
        <ele>205</ele>
        <time>2018-06-12T09:51:06Z</time>
      </trkpt>
      <trkpt lat="45.85548" lon="4.6794">
        <ele>205</ele>
        <time>2018-06-12T09:51:09Z</time>
      </trkpt>
      <trkpt lat="45.85551" lon="4.67938">
        <ele>205</ele>
        <time>2018-06-12T09:51:10Z</time>
      </trkpt>
      <trkpt lat="45.85558" lon="4.67932">
        <ele>205</ele>
        <time>2018-06-12T09:51:11Z</time>
      </trkpt>
      <trkpt lat="45.85562" lon="4.6793">
        <ele>205</ele>
        <time>2018-06-12T09:51:12Z</time>
      </trkpt>
      <trkpt lat="45.85569" lon="4.67935">
        <ele>205</ele>
        <time>2018-06-12T09:51:14Z</time>
      </trkpt>
      <trkpt lat="45.85572" lon="4.6794">
        <ele>205</ele>
        <time>2018-06-12T09:51:15Z</time>
      </trkpt>
      <trkpt lat="45.85575" lon="4.67946">
        <ele>205</ele>
        <time>2018-06-12T09:51:16Z</time>
      </trkpt>
      <trkpt lat="45.85577" lon="4.67953">
        <ele>204</ele>
        <time>2018-06-12T09:51:17Z</time>
      </trkpt>
      <trkpt lat="45.8558" lon="4.67961">
        <ele>204</ele>
        <time>2018-06-12T09:51:18Z</time>
      </trkpt>
      <trkpt lat="45.85583" lon="4.67967">
        <ele>203</ele>
        <time>2018-06-12T09:51:19Z</time>
      </trkpt>
      <trkpt lat="45.85587" lon="4.67975">
        <ele>203</ele>
        <time>2018-06-12T09:51:20Z</time>
      </trkpt>
      <trkpt lat="45.8559" lon="4.67983">
        <ele>202</ele>
        <time>2018-06-12T09:51:21Z</time>
      </trkpt>
      <trkpt lat="45.85594" lon="4.67989">
        <ele>202</ele>
        <time>2018-06-12T09:51:22Z</time>
      </trkpt>
      <trkpt lat="45.85597" lon="4.67996">
        <ele>202</ele>
        <time>2018-06-12T09:51:23Z</time>
      </trkpt>
      <trkpt lat="45.856" lon="4.68002">
        <ele>201</ele>
        <time>2018-06-12T09:51:24Z</time>
      </trkpt>
      <trkpt lat="45.85603" lon="4.68008">
        <ele>201</ele>
        <time>2018-06-12T09:51:25Z</time>
      </trkpt>
      <trkpt lat="45.85607" lon="4.68018">
        <ele>201</ele>
        <time>2018-06-12T09:51:29Z</time>
      </trkpt>
      <trkpt lat="45.85608" lon="4.68021">
        <ele>201</ele>
        <time>2018-06-12T09:51:30Z</time>
      </trkpt>
      <trkpt lat="45.85612" lon="4.68032">
        <ele>201</ele>
        <time>2018-06-12T09:51:35Z</time>
      </trkpt>
      <trkpt lat="45.85612" lon="4.68033">
        <ele>201</ele>
        <time>2018-06-12T09:51:36Z</time>
      </trkpt>
      <trkpt lat="45.85604" lon="4.68032">
        <ele>201</ele>
        <time>2018-06-12T09:57:29Z</time>
      </trkpt>
      <trkpt lat="45.85603" lon="4.68031">
        <ele>201</ele>
        <time>2018-06-12T09:57:30Z</time>
      </trkpt>
      <trkpt lat="45.85597" lon="4.68022">
        <ele>201</ele>
        <time>2018-06-12T09:57:52Z</time>
      </trkpt>
      <trkpt lat="45.85596" lon="4.68022">
        <ele>201</ele>
        <time>2018-06-12T09:57:53Z</time>
      </trkpt>
      <trkpt lat="45.85592" lon="4.6801">
        <ele>201</ele>
        <time>2018-06-12T09:58:04Z</time>
      </trkpt>
      <trkpt lat="45.85592" lon="4.68009">
        <ele>201</ele>
        <time>2018-06-12T09:58:05Z</time>
      </trkpt>
      <trkpt lat="45.85589" lon="4.67998">
        <ele>202</ele>
        <time>2018-06-12T09:58:19Z</time>
      </trkpt>
      <trkpt lat="45.85589" lon="4.67997">
        <ele>202</ele>
        <time>2018-06-12T09:58:20Z</time>
      </trkpt>
      <trkpt lat="45.85585" lon="4.67986">
        <ele>202</ele>
        <time>2018-06-12T09:58:28Z</time>
      </trkpt>
      <trkpt lat="45.85584" lon="4.67985">
        <ele>202</ele>
        <time>2018-06-12T09:58:29Z</time>
      </trkpt>
      <trkpt lat="45.8558" lon="4.67974">
        <ele>204</ele>
        <time>2018-06-12T09:58:38Z</time>
      </trkpt>
      <trkpt lat="45.85579" lon="4.67973">
        <ele>204</ele>
        <time>2018-06-12T09:58:39Z</time>
      </trkpt>
      <trkpt lat="45.85577" lon="4.6797">
        <ele>204</ele>
        <time>2018-06-12T10:02:08Z</time>
      </trkpt>
      <trkpt lat="45.85577" lon="4.6797">
        <ele>204</ele>
        <time>2018-06-12T10:02:09Z</time>
      </trkpt>
      <trkpt lat="45.85578" lon="4.67971">
        <ele>204</ele>
        <time>2018-06-12T10:02:15Z</time>
      </trkpt>
      <trkpt lat="45.85578" lon="4.67971">
        <ele>204</ele>
        <time>2018-06-12T10:02:16Z</time>
      </trkpt>
      <trkpt lat="45.85582" lon="4.67981">
        <ele>203</ele>
        <time>2018-06-12T10:02:30Z</time>
      </trkpt>
      <trkpt lat="45.85583" lon="4.67982">
        <ele>203</ele>
        <time>2018-06-12T10:02:31Z</time>
      </trkpt>
      <trkpt lat="45.85587" lon="4.67992">
        <ele>202</ele>
        <time>2018-06-12T10:02:42Z</time>
      </trkpt>
      <trkpt lat="45.85588" lon="4.67993">
        <ele>202</ele>
        <time>2018-06-12T10:02:43Z</time>
      </trkpt>
      <trkpt lat="45.85592" lon="4.68004">
        <ele>201</ele>
        <time>2018-06-12T10:02:54Z</time>
      </trkpt>
      <trkpt lat="45.85592" lon="4.68006">
        <ele>201</ele>
        <time>2018-06-12T10:02:55Z</time>
      </trkpt>
      <trkpt lat="45.85596" lon="4.68017">
        <ele>201</ele>
        <time>2018-06-12T10:03:07Z</time>
      </trkpt>
      <trkpt lat="45.85596" lon="4.68018">
        <ele>201</ele>
        <time>2018-06-12T10:03:08Z</time>
      </trkpt>
      <trkpt lat="45.85602" lon="4.68026">
        <ele>201</ele>
        <time>2018-06-12T10:03:20Z</time>
      </trkpt>
      <trkpt lat="45.85603" lon="4.68027">
        <ele>201</ele>
        <time>2018-06-12T10:03:21Z</time>
      </trkpt>
      <trkpt lat="45.8561" lon="4.68033">
        <ele>201</ele>
        <time>2018-06-12T10:03:37Z</time>
      </trkpt>
      <trkpt lat="45.8561" lon="4.68034">
        <ele>201</ele>
        <time>2018-06-12T10:03:38Z</time>
      </trkpt>
      <trkpt lat="45.8561" lon="4.68043">
        <ele>200</ele>
        <time>2018-06-12T10:06:02.547Z</time>
      </trkpt>
      <trkpt lat="45.85609" lon="4.68042">
        <ele>200</ele>
        <time>2018-06-12T10:06:03Z</time>
      </trkpt>
      <trkpt lat="45.85606" lon="4.68035">
        <ele>200</ele>
        <time>2018-06-12T10:06:35Z</time>
      </trkpt>
      <trkpt lat="45.85605" lon="4.68035">
        <ele>200</ele>
        <time>2018-06-12T10:06:36Z</time>
      </trkpt>
      <trkpt lat="45.85605" lon="4.68035">
        <ele>200</ele>
        <time>2018-06-12T10:06:37Z</time>
      </trkpt>
      <trkpt lat="45.85605" lon="4.68035">
        <ele>200</ele>
        <time>2018-06-12T10:06:38Z</time>
      </trkpt>
      <trkpt lat="45.85605" lon="4.68035">
        <ele>200</ele>
        <time>2018-06-12T10:06:39Z</time>
      </trkpt>
      <trkpt lat="45.85606" lon="4.68035">
        <ele>200</ele>
        <time>2018-06-12T10:06:43Z</time>
      </trkpt>
      <trkpt lat="45.85606" lon="4.68035">
        <ele>200</ele>
        <time>2018-06-12T10:06:44Z</time>
      </trkpt>
      <trkpt lat="45.85607" lon="4.68034">
        <ele>200</ele>
        <time>2018-06-12T10:06:45Z</time>
      </trkpt>
      <trkpt lat="45.85608" lon="4.68033">
        <ele>201</ele>
        <time>2018-06-12T10:06:47Z</time>
      </trkpt>
      <trkpt lat="45.85609" lon="4.68032">
        <ele>201</ele>
        <time>2018-06-12T10:06:48Z</time>
      </trkpt>
      <trkpt lat="45.8561" lon="4.68032">
        <ele>201</ele>
        <time>2018-06-12T10:06:49Z</time>
      </trkpt>
      <trkpt lat="45.85618" lon="4.68032">
        <ele>201</ele>
        <time>2018-06-12T10:07:16Z</time>
      </trkpt>
      <trkpt lat="45.8562" lon="4.68034">
        <ele>201</ele>
        <time>2018-06-12T10:07:17Z</time>
      </trkpt>
      <trkpt lat="45.85624" lon="4.68043">
        <ele>200</ele>
        <time>2018-06-12T10:07:20Z</time>
      </trkpt>
      <trkpt lat="45.85625" lon="4.68047">
        <ele>200</ele>
        <time>2018-06-12T10:07:21Z</time>
      </trkpt>
      <trkpt lat="45.85629" lon="4.68054">
        <ele>200</ele>
        <time>2018-06-12T10:07:23Z</time>
      </trkpt>
      <trkpt lat="45.85631" lon="4.68058">
        <ele>200</ele>
        <time>2018-06-12T10:07:24Z</time>
      </trkpt>
      <trkpt lat="45.85637" lon="4.68067">
        <ele>200</ele>
        <time>2018-06-12T10:07:27.215Z</time>
      </trkpt>
      <trkpt lat="45.85641" lon="4.68075">
        <ele>200</ele>
        <time>2018-06-12T10:07:27Z</time>
      </trkpt>
      <trkpt lat="45.85645" lon="4.68083">
        <ele>200</ele>
        <time>2018-06-12T10:07:29Z</time>
      </trkpt>
      <trkpt lat="45.85648" lon="4.68087">
        <ele>200</ele>
        <time>2018-06-12T10:07:30Z</time>
      </trkpt>
      <trkpt lat="45.85654" lon="4.68094">
        <ele>200</ele>
        <time>2018-06-12T10:07:32Z</time>
      </trkpt>
      <trkpt lat="45.85656" lon="4.68097">
        <ele>200</ele>
        <time>2018-06-12T10:07:33Z</time>
      </trkpt>
      <trkpt lat="45.85662" lon="4.68106">
        <ele>200</ele>
        <time>2018-06-12T10:07:35Z</time>
      </trkpt>
      <trkpt lat="45.85665" lon="4.6811">
        <ele>200</ele>
        <time>2018-06-12T10:07:36Z</time>
      </trkpt>
      <trkpt lat="45.85668" lon="4.68115">
        <ele>200</ele>
        <time>2018-06-12T10:07:37Z</time>
      </trkpt>
      <trkpt lat="45.85672" lon="4.68119">
        <ele>200</ele>
        <time>2018-06-12T10:07:38Z</time>
      </trkpt>
      <trkpt lat="45.85675" lon="4.68124">
        <ele>200</ele>
        <time>2018-06-12T10:07:39Z</time>
      </trkpt>
      <trkpt lat="45.85681" lon="4.68128">
        <ele>200</ele>
        <time>2018-06-12T10:07:40Z</time>
      </trkpt>
      <trkpt lat="45.85684" lon="4.68134">
        <ele>200</ele>
        <time>2018-06-12T10:07:41Z</time>
      </trkpt>
      <trkpt lat="45.85688" lon="4.68139">
        <ele>200</ele>
        <time>2018-06-12T10:07:42Z</time>
      </trkpt>
      <trkpt lat="45.85693" lon="4.68142">
        <ele>200</ele>
        <time>2018-06-12T10:07:43Z</time>
      </trkpt>
      <trkpt lat="45.85698" lon="4.68147">
        <ele>200</ele>
        <time>2018-06-12T10:07:44Z</time>
      </trkpt>
      <trkpt lat="45.85702" lon="4.68153">
        <ele>200</ele>
        <time>2018-06-12T10:07:45Z</time>
      </trkpt>
      <trkpt lat="45.85706" lon="4.68156">
        <ele>200</ele>
        <time>2018-06-12T10:07:46Z</time>
      </trkpt>
      <trkpt lat="45.85708" lon="4.68161">
        <ele>200</ele>
        <time>2018-06-12T10:07:47Z</time>
      </trkpt>
      <trkpt lat="45.85712" lon="4.68166">
        <ele>200</ele>
        <time>2018-06-12T10:07:48Z</time>
      </trkpt>
      <trkpt lat="45.85715" lon="4.68171">
        <ele>199</ele>
        <time>2018-06-12T10:07:49Z</time>
      </trkpt>
      <trkpt lat="45.85719" lon="4.68176">
        <ele>199</ele>
        <time>2018-06-12T10:07:50Z</time>
      </trkpt>
      <trkpt lat="45.85723" lon="4.6818">
        <ele>199</ele>
        <time>2018-06-12T10:07:51Z</time>
      </trkpt>
      <trkpt lat="45.85727" lon="4.68185">
        <ele>199</ele>
        <time>2018-06-12T10:07:52Z</time>
      </trkpt>
      <trkpt lat="45.85732" lon="4.6819">
        <ele>199</ele>
        <time>2018-06-12T10:07:53Z</time>
      </trkpt>
      <trkpt lat="45.85736" lon="4.68195">
        <ele>199</ele>
        <time>2018-06-12T10:07:54Z</time>
      </trkpt>
      <trkpt lat="45.85741" lon="4.682">
        <ele>199</ele>
        <time>2018-06-12T10:07:55Z</time>
      </trkpt>
      <trkpt lat="45.85744" lon="4.68205">
        <ele>199</ele>
        <time>2018-06-12T10:07:56Z</time>
      </trkpt>
      <trkpt lat="45.85748" lon="4.6821">
        <ele>199</ele>
        <time>2018-06-12T10:07:57Z</time>
      </trkpt>
      <trkpt lat="45.85752" lon="4.68215">
        <ele>201</ele>
        <time>2018-06-12T10:07:58Z</time>
      </trkpt>
      <trkpt lat="45.85756" lon="4.6822">
        <ele>201</ele>
        <time>2018-06-12T10:07:59Z</time>
      </trkpt>
      <trkpt lat="45.8576" lon="4.68225">
        <ele>201</ele>
        <time>2018-06-12T10:08:00Z</time>
      </trkpt>
      <trkpt lat="45.85765" lon="4.68231">
        <ele>201</ele>
        <time>2018-06-12T10:08:01Z</time>
      </trkpt>
      <trkpt lat="45.85768" lon="4.68238">
        <ele>201</ele>
        <time>2018-06-12T10:08:02Z</time>
      </trkpt>
      <trkpt lat="45.85772" lon="4.68243">
        <ele>201</ele>
        <time>2018-06-12T10:08:03Z</time>
      </trkpt>
      <trkpt lat="45.85776" lon="4.68246">
        <ele>201</ele>
        <time>2018-06-12T10:08:04Z</time>
      </trkpt>
      <trkpt lat="45.8578" lon="4.68252">
        <ele>200</ele>
        <time>2018-06-12T10:08:05Z</time>
      </trkpt>
      <trkpt lat="45.85784" lon="4.68257">
        <ele>200</ele>
        <time>2018-06-12T10:08:06Z</time>
      </trkpt>
      <trkpt lat="45.85788" lon="4.68263">
        <ele>200</ele>
        <time>2018-06-12T10:08:07Z</time>
      </trkpt>
      <trkpt lat="45.85791" lon="4.68268">
        <ele>200</ele>
        <time>2018-06-12T10:08:08Z</time>
      </trkpt>
      <trkpt lat="45.85796" lon="4.68273">
        <ele>201</ele>
        <time>2018-06-12T10:08:09Z</time>
      </trkpt>
      <trkpt lat="45.85801" lon="4.68279">
        <ele>201</ele>
        <time>2018-06-12T10:08:10Z</time>
      </trkpt>
      <trkpt lat="45.85805" lon="4.68285">
        <ele>201</ele>
        <time>2018-06-12T10:08:11Z</time>
      </trkpt>
      <trkpt lat="45.85809" lon="4.68291">
        <ele>201</ele>
        <time>2018-06-12T10:08:12Z</time>
      </trkpt>
      <trkpt lat="45.85813" lon="4.68296">
        <ele>201</ele>
        <time>2018-06-12T10:08:13Z</time>
      </trkpt>
      <trkpt lat="45.85816" lon="4.68302">
        <ele>201</ele>
        <time>2018-06-12T10:08:14Z</time>
      </trkpt>
      <trkpt lat="45.8582" lon="4.68309">
        <ele>200</ele>
        <time>2018-06-12T10:08:15Z</time>
      </trkpt>
      <trkpt lat="45.85823" lon="4.68316">
        <ele>200</ele>
        <time>2018-06-12T10:08:16Z</time>
      </trkpt>
      <trkpt lat="45.85827" lon="4.68324">
        <ele>200</ele>
        <time>2018-06-12T10:08:17Z</time>
      </trkpt>
      <trkpt lat="45.8583" lon="4.68331">
        <ele>200</ele>
        <time>2018-06-12T10:08:18Z</time>
      </trkpt>
      <trkpt lat="45.85834" lon="4.68338">
        <ele>200</ele>
        <time>2018-06-12T10:08:19Z</time>
      </trkpt>
      <trkpt lat="45.85837" lon="4.68344">
        <ele>200</ele>
        <time>2018-06-12T10:08:20Z</time>
      </trkpt>
      <trkpt lat="45.8584" lon="4.68349">
        <ele>201</ele>
        <time>2018-06-12T10:08:21Z</time>
      </trkpt>
      <trkpt lat="45.85842" lon="4.68357">
        <ele>201</ele>
        <time>2018-06-12T10:08:22Z</time>
      </trkpt>
      <trkpt lat="45.85845" lon="4.68363">
        <ele>201</ele>
        <time>2018-06-12T10:08:23Z</time>
      </trkpt>
      <trkpt lat="45.85848" lon="4.68371">
        <ele>201</ele>
        <time>2018-06-12T10:08:24Z</time>
      </trkpt>
      <trkpt lat="45.8585" lon="4.6838">
        <ele>201</ele>
        <time>2018-06-12T10:08:25Z</time>
      </trkpt>
      <trkpt lat="45.85852" lon="4.68389">
        <ele>201</ele>
        <time>2018-06-12T10:08:26Z</time>
      </trkpt>
      <trkpt lat="45.85854" lon="4.68396">
        <ele>201</ele>
        <time>2018-06-12T10:08:27Z</time>
      </trkpt>
      <trkpt lat="45.85855" lon="4.68405">
        <ele>200</ele>
        <time>2018-06-12T10:08:28Z</time>
      </trkpt>
      <trkpt lat="45.85857" lon="4.68413">
        <ele>200</ele>
        <time>2018-06-12T10:08:29Z</time>
      </trkpt>
      <trkpt lat="45.85859" lon="4.68421">
        <ele>200</ele>
        <time>2018-06-12T10:08:30Z</time>
      </trkpt>
      <trkpt lat="45.85861" lon="4.68428">
        <ele>200</ele>
        <time>2018-06-12T10:08:31Z</time>
      </trkpt>
      <trkpt lat="45.85863" lon="4.68433">
        <ele>200</ele>
        <time>2018-06-12T10:08:32Z</time>
      </trkpt>
      <trkpt lat="45.85864" lon="4.6844">
        <ele>200</ele>
        <time>2018-06-12T10:08:33Z</time>
      </trkpt>
      <trkpt lat="45.85866" lon="4.68448">
        <ele>200</ele>
        <time>2018-06-12T10:08:34Z</time>
      </trkpt>
      <trkpt lat="45.85868" lon="4.68456">
        <ele>200</ele>
        <time>2018-06-12T10:08:35Z</time>
      </trkpt>
      <trkpt lat="45.85868" lon="4.68463">
        <ele>200</ele>
        <time>2018-06-12T10:08:36Z</time>
      </trkpt>
      <trkpt lat="45.85869" lon="4.6847">
        <ele>200</ele>
        <time>2018-06-12T10:08:37Z</time>
      </trkpt>
      <trkpt lat="45.8587" lon="4.68477">
        <ele>200</ele>
        <time>2018-06-12T10:08:38Z</time>
      </trkpt>
      <trkpt lat="45.85871" lon="4.68485">
        <ele>200</ele>
        <time>2018-06-12T10:08:39Z</time>
      </trkpt>
      <trkpt lat="45.85872" lon="4.68493">
        <ele>200</ele>
        <time>2018-06-12T10:08:40Z</time>
      </trkpt>
      <trkpt lat="45.85873" lon="4.68501">
        <ele>200</ele>
        <time>2018-06-12T10:08:41Z</time>
      </trkpt>
      <trkpt lat="45.85875" lon="4.68508">
        <ele>200</ele>
        <time>2018-06-12T10:08:42Z</time>
      </trkpt>
      <trkpt lat="45.85876" lon="4.68517">
        <ele>200</ele>
        <time>2018-06-12T10:08:43Z</time>
      </trkpt>
      <trkpt lat="45.85877" lon="4.68524">
        <ele>200</ele>
        <time>2018-06-12T10:08:44Z</time>
      </trkpt>
      <trkpt lat="45.85877" lon="4.68532">
        <ele>200</ele>
        <time>2018-06-12T10:08:45Z</time>
      </trkpt>
      <trkpt lat="45.85878" lon="4.6854">
        <ele>200</ele>
        <time>2018-06-12T10:08:46Z</time>
      </trkpt>
      <trkpt lat="45.8588" lon="4.68547">
        <ele>200</ele>
        <time>2018-06-12T10:08:47Z</time>
      </trkpt>
      <trkpt lat="45.85882" lon="4.68553">
        <ele>200</ele>
        <time>2018-06-12T10:08:48Z</time>
      </trkpt>
      <trkpt lat="45.85883" lon="4.68562">
        <ele>200</ele>
        <time>2018-06-12T10:08:49Z</time>
      </trkpt>
      <trkpt lat="45.85882" lon="4.6857">
        <ele>200</ele>
        <time>2018-06-12T10:08:50Z</time>
      </trkpt>
      <trkpt lat="45.85883" lon="4.68578">
        <ele>199</ele>
        <time>2018-06-12T10:08:51Z</time>
      </trkpt>
      <trkpt lat="45.85883" lon="4.68584">
        <ele>199</ele>
        <time>2018-06-12T10:08:52Z</time>
      </trkpt>
      <trkpt lat="45.85884" lon="4.68593">
        <ele>199</ele>
        <time>2018-06-12T10:08:53Z</time>
      </trkpt>
      <trkpt lat="45.85885" lon="4.68602">
        <ele>199</ele>
        <time>2018-06-12T10:08:54Z</time>
      </trkpt>
      <trkpt lat="45.85886" lon="4.68609">
        <ele>199</ele>
        <time>2018-06-12T10:08:55Z</time>
      </trkpt>
      <trkpt lat="45.85886" lon="4.68617">
        <ele>199</ele>
        <time>2018-06-12T10:08:56Z</time>
      </trkpt>
      <trkpt lat="45.85886" lon="4.68625">
        <ele>199</ele>
        <time>2018-06-12T10:08:57Z</time>
      </trkpt>
      <trkpt lat="45.85886" lon="4.68634">
        <ele>198</ele>
        <time>2018-06-12T10:08:58Z</time>
      </trkpt>
      <trkpt lat="45.85886" lon="4.68641">
        <ele>198</ele>
        <time>2018-06-12T10:08:59Z</time>
      </trkpt>
      <trkpt lat="45.85886" lon="4.68649">
        <ele>198</ele>
        <time>2018-06-12T10:09:00Z</time>
      </trkpt>
      <trkpt lat="45.85886" lon="4.68657">
        <ele>198</ele>
        <time>2018-06-12T10:09:01Z</time>
      </trkpt>
      <trkpt lat="45.85885" lon="4.68665">
        <ele>198</ele>
        <time>2018-06-12T10:09:02Z</time>
      </trkpt>
      <trkpt lat="45.85885" lon="4.68674">
        <ele>198</ele>
        <time>2018-06-12T10:09:03Z</time>
      </trkpt>
      <trkpt lat="45.85884" lon="4.68682">
        <ele>198</ele>
        <time>2018-06-12T10:09:04Z</time>
      </trkpt>
      <trkpt lat="45.85883" lon="4.68689">
        <ele>198</ele>
        <time>2018-06-12T10:09:05Z</time>
      </trkpt>
      <trkpt lat="45.85881" lon="4.68699">
        <ele>198</ele>
        <time>2018-06-12T10:09:06Z</time>
      </trkpt>
      <trkpt lat="45.8588" lon="4.68709">
        <ele>198</ele>
        <time>2018-06-12T10:09:07Z</time>
      </trkpt>
      <trkpt lat="45.85879" lon="4.68716">
        <ele>198</ele>
        <time>2018-06-12T10:09:08Z</time>
      </trkpt>
      <trkpt lat="45.85877" lon="4.68723">
        <ele>198</ele>
        <time>2018-06-12T10:09:09Z</time>
      </trkpt>
      <trkpt lat="45.85876" lon="4.68733">
        <ele>198</ele>
        <time>2018-06-12T10:09:10Z</time>
      </trkpt>
      <trkpt lat="45.85873" lon="4.68742">
        <ele>198</ele>
        <time>2018-06-12T10:09:11Z</time>
      </trkpt>
      <trkpt lat="45.85873" lon="4.68751">
        <ele>198</ele>
        <time>2018-06-12T10:09:12Z</time>
      </trkpt>
      <trkpt lat="45.85871" lon="4.6876">
        <ele>198</ele>
        <time>2018-06-12T10:09:13Z</time>
      </trkpt>
      <trkpt lat="45.85869" lon="4.68769">
        <ele>198</ele>
        <time>2018-06-12T10:09:14Z</time>
      </trkpt>
      <trkpt lat="45.85868" lon="4.68777">
        <ele>198</ele>
        <time>2018-06-12T10:09:15Z</time>
      </trkpt>
      <trkpt lat="45.85867" lon="4.68789">
        <ele>198</ele>
        <time>2018-06-12T10:09:16Z</time>
      </trkpt>
      <trkpt lat="45.85866" lon="4.68798">
        <ele>198</ele>
        <time>2018-06-12T10:09:17Z</time>
      </trkpt>
      <trkpt lat="45.85864" lon="4.68807">
        <ele>198</ele>
        <time>2018-06-12T10:09:18Z</time>
      </trkpt>
      <trkpt lat="45.85864" lon="4.68816">
        <ele>198</ele>
        <time>2018-06-12T10:09:19Z</time>
      </trkpt>
      <trkpt lat="45.85862" lon="4.68825">
        <ele>198</ele>
        <time>2018-06-12T10:09:20Z</time>
      </trkpt>
      <trkpt lat="45.85862" lon="4.68832">
        <ele>198</ele>
        <time>2018-06-12T10:09:21Z</time>
      </trkpt>
      <trkpt lat="45.85862" lon="4.68841">
        <ele>198</ele>
        <time>2018-06-12T10:09:22Z</time>
      </trkpt>
      <trkpt lat="45.8586" lon="4.68853">
        <ele>198</ele>
        <time>2018-06-12T10:09:23Z</time>
      </trkpt>
      <trkpt lat="45.8586" lon="4.68861">
        <ele>198</ele>
        <time>2018-06-12T10:09:24Z</time>
      </trkpt>
      <trkpt lat="45.85859" lon="4.68873">
        <ele>198</ele>
        <time>2018-06-12T10:09:25Z</time>
      </trkpt>
      <trkpt lat="45.85859" lon="4.68882">
        <ele>197</ele>
        <time>2018-06-12T10:09:26Z</time>
      </trkpt>
      <trkpt lat="45.85858" lon="4.6889">
        <ele>197</ele>
        <time>2018-06-12T10:09:27Z</time>
      </trkpt>
      <trkpt lat="45.85858" lon="4.68898">
        <ele>197</ele>
        <time>2018-06-12T10:09:28Z</time>
      </trkpt>
      <trkpt lat="45.85857" lon="4.68907">
        <ele>197</ele>
        <time>2018-06-12T10:09:29Z</time>
      </trkpt>
      <trkpt lat="45.85857" lon="4.68918">
        <ele>197</ele>
        <time>2018-06-12T10:09:30Z</time>
      </trkpt>
      <trkpt lat="45.85856" lon="4.68925">
        <ele>197</ele>
        <time>2018-06-12T10:09:31Z</time>
      </trkpt>
      <trkpt lat="45.85855" lon="4.68933">
        <ele>197</ele>
        <time>2018-06-12T10:09:32Z</time>
      </trkpt>
      <trkpt lat="45.85856" lon="4.68944">
        <ele>197</ele>
        <time>2018-06-12T10:09:33Z</time>
      </trkpt>
      <trkpt lat="45.85856" lon="4.68954">
        <ele>197</ele>
        <time>2018-06-12T10:09:34Z</time>
      </trkpt>
      <trkpt lat="45.85857" lon="4.68961">
        <ele>197</ele>
        <time>2018-06-12T10:09:35Z</time>
      </trkpt>
      <trkpt lat="45.85857" lon="4.68972">
        <ele>197</ele>
        <time>2018-06-12T10:09:36Z</time>
      </trkpt>
      <trkpt lat="45.85858" lon="4.68981">
        <ele>197</ele>
        <time>2018-06-12T10:09:37Z</time>
      </trkpt>
      <trkpt lat="45.8586" lon="4.68989">
        <ele>197</ele>
        <time>2018-06-12T10:09:38Z</time>
      </trkpt>
      <trkpt lat="45.85861" lon="4.68998">
        <ele>197</ele>
        <time>2018-06-12T10:09:39Z</time>
      </trkpt>
      <trkpt lat="45.85864" lon="4.69007">
        <ele>197</ele>
        <time>2018-06-12T10:09:40Z</time>
      </trkpt>
      <trkpt lat="45.85866" lon="4.69015">
        <ele>197</ele>
        <time>2018-06-12T10:09:41Z</time>
      </trkpt>
      <trkpt lat="45.85868" lon="4.69024">
        <ele>197</ele>
        <time>2018-06-12T10:09:42Z</time>
      </trkpt>
      <trkpt lat="45.85872" lon="4.69032">
        <ele>197</ele>
        <time>2018-06-12T10:09:43Z</time>
      </trkpt>
      <trkpt lat="45.85877" lon="4.69036">
        <ele>198</ele>
        <time>2018-06-12T10:09:44Z</time>
      </trkpt>
      <trkpt lat="45.85881" lon="4.69041">
        <ele>198</ele>
        <time>2018-06-12T10:09:45Z</time>
      </trkpt>
      <trkpt lat="45.85884" lon="4.69046">
        <ele>198</ele>
        <time>2018-06-12T10:09:46Z</time>
      </trkpt>
      <trkpt lat="45.85889" lon="4.69054">
        <ele>198</ele>
        <time>2018-06-12T10:09:47Z</time>
      </trkpt>
      <trkpt lat="45.85893" lon="4.69059">
        <ele>198</ele>
        <time>2018-06-12T10:09:48Z</time>
      </trkpt>
      <trkpt lat="45.85898" lon="4.69065">
        <ele>198</ele>
        <time>2018-06-12T10:09:49Z</time>
      </trkpt>
      <trkpt lat="45.85902" lon="4.6907">
        <ele>198</ele>
        <time>2018-06-12T10:09:50Z</time>
      </trkpt>
      <trkpt lat="45.85907" lon="4.69074">
        <ele>198</ele>
        <time>2018-06-12T10:09:51Z</time>
      </trkpt>
      <trkpt lat="45.85913" lon="4.69079">
        <ele>198</ele>
        <time>2018-06-12T10:09:52Z</time>
      </trkpt>
      <trkpt lat="45.85919" lon="4.69083">
        <ele>198</ele>
        <time>2018-06-12T10:09:53Z</time>
      </trkpt>
      <trkpt lat="45.85924" lon="4.69086">
        <ele>198</ele>
        <time>2018-06-12T10:09:54Z</time>
      </trkpt>
      <trkpt lat="45.8593" lon="4.69088">
        <ele>198</ele>
        <time>2018-06-12T10:09:55Z</time>
      </trkpt>
      <trkpt lat="45.85935" lon="4.6909">
        <ele>197</ele>
        <time>2018-06-12T10:09:56Z</time>
      </trkpt>
      <trkpt lat="45.8594" lon="4.69092">
        <ele>197</ele>
        <time>2018-06-12T10:09:57Z</time>
      </trkpt>
      <trkpt lat="45.85945" lon="4.69093">
        <ele>197</ele>
        <time>2018-06-12T10:09:58Z</time>
      </trkpt>
      <trkpt lat="45.8595" lon="4.69093">
        <ele>197</ele>
        <time>2018-06-12T10:09:59Z</time>
      </trkpt>
      <trkpt lat="45.85956" lon="4.69094">
        <ele>197</ele>
        <time>2018-06-12T10:10:00Z</time>
      </trkpt>
      <trkpt lat="45.85963" lon="4.69094">
        <ele>197</ele>
        <time>2018-06-12T10:10:01Z</time>
      </trkpt>
      <trkpt lat="45.85969" lon="4.69094">
        <ele>197</ele>
        <time>2018-06-12T10:10:02Z</time>
      </trkpt>
      <trkpt lat="45.85975" lon="4.69094">
        <ele>197</ele>
        <time>2018-06-12T10:10:03Z</time>
      </trkpt>
      <trkpt lat="45.85981" lon="4.69094">
        <ele>197</ele>
        <time>2018-06-12T10:10:04Z</time>
      </trkpt>
      <trkpt lat="45.85988" lon="4.69094">
        <ele>196</ele>
        <time>2018-06-12T10:10:05Z</time>
      </trkpt>
      <trkpt lat="45.85994" lon="4.69094">
        <ele>196</ele>
        <time>2018-06-12T10:10:06Z</time>
      </trkpt>
      <trkpt lat="45.86001" lon="4.69093">
        <ele>196</ele>
        <time>2018-06-12T10:10:07Z</time>
      </trkpt>
      <trkpt lat="45.86007" lon="4.69093">
        <ele>196</ele>
        <time>2018-06-12T10:10:08Z</time>
      </trkpt>
      <trkpt lat="45.86013" lon="4.69091">
        <ele>197</ele>
        <time>2018-06-12T10:10:09Z</time>
      </trkpt>
      <trkpt lat="45.8602" lon="4.69092">
        <ele>197</ele>
        <time>2018-06-12T10:10:10Z</time>
      </trkpt>
      <trkpt lat="45.86023" lon="4.69091">
        <ele>197</ele>
        <time>2018-06-12T10:10:11Z</time>
      </trkpt>
      <trkpt lat="45.86029" lon="4.69093">
        <ele>197</ele>
        <time>2018-06-12T10:10:12Z</time>
      </trkpt>
      <trkpt lat="45.86036" lon="4.69091">
        <ele>197</ele>
        <time>2018-06-12T10:10:13Z</time>
      </trkpt>
      <trkpt lat="45.86042" lon="4.69091">
        <ele>197</ele>
        <time>2018-06-12T10:10:14Z</time>
      </trkpt>
      <trkpt lat="45.86047" lon="4.6909">
        <ele>197</ele>
        <time>2018-06-12T10:10:15Z</time>
      </trkpt>
      <trkpt lat="45.86053" lon="4.69089">
        <ele>197</ele>
        <time>2018-06-12T10:10:16Z</time>
      </trkpt>
      <trkpt lat="45.8606" lon="4.69086">
        <ele>197</ele>
        <time>2018-06-12T10:10:17Z</time>
      </trkpt>
      <trkpt lat="45.86065" lon="4.69086">
        <ele>198</ele>
        <time>2018-06-12T10:10:18Z</time>
      </trkpt>
      <trkpt lat="45.86071" lon="4.69085">
        <ele>198</ele>
        <time>2018-06-12T10:10:19Z</time>
      </trkpt>
      <trkpt lat="45.86074" lon="4.69085">
        <ele>198</ele>
        <time>2018-06-12T10:10:20Z</time>
      </trkpt>
      <trkpt lat="45.8608" lon="4.69086">
        <ele>198</ele>
        <time>2018-06-12T10:10:21Z</time>
      </trkpt>
      <trkpt lat="45.86084" lon="4.69085">
        <ele>198</ele>
        <time>2018-06-12T10:10:22Z</time>
      </trkpt>
      <trkpt lat="45.86089" lon="4.69085">
        <ele>199</ele>
        <time>2018-06-12T10:10:23Z</time>
      </trkpt>
      <trkpt lat="45.86094" lon="4.69085">
        <ele>199</ele>
        <time>2018-06-12T10:10:24Z</time>
      </trkpt>
      <trkpt lat="45.86099" lon="4.69085">
        <ele>200</ele>
        <time>2018-06-12T10:10:25Z</time>
      </trkpt>
      <trkpt lat="45.86103" lon="4.69084">
        <ele>200</ele>
        <time>2018-06-12T10:10:26Z</time>
      </trkpt>
      <trkpt lat="45.86108" lon="4.69084">
        <ele>200</ele>
        <time>2018-06-12T10:10:27Z</time>
      </trkpt>
      <trkpt lat="45.86115" lon="4.69082">
        <ele>202</ele>
        <time>2018-06-12T10:10:28Z</time>
      </trkpt>
      <trkpt lat="45.86124" lon="4.69082">
        <ele>202</ele>
        <time>2018-06-12T10:10:30Z</time>
      </trkpt>
      <trkpt lat="45.86125" lon="4.69083">
        <ele>203</ele>
        <time>2018-06-12T10:10:31Z</time>
      </trkpt>
      <trkpt lat="45.86134" lon="4.69083">
        <ele>203</ele>
        <time>2018-06-12T10:10:33Z</time>
      </trkpt>
      <trkpt lat="45.86139" lon="4.69083">
        <ele>203</ele>
        <time>2018-06-12T10:10:34Z</time>
      </trkpt>
      <trkpt lat="45.86146" lon="4.69083">
        <ele>204</ele>
        <time>2018-06-12T10:10:37Z</time>
      </trkpt>
      <trkpt lat="45.86149" lon="4.69082">
        <ele>204</ele>
        <time>2018-06-12T10:10:38Z</time>
      </trkpt>
      <trkpt lat="45.86157" lon="4.69082">
        <ele>204</ele>
        <time>2018-06-12T10:10:41Z</time>
      </trkpt>
      <trkpt lat="45.8616" lon="4.69082">
        <ele>205</ele>
        <time>2018-06-12T10:10:42Z</time>
      </trkpt>
      <trkpt lat="45.86166" lon="4.69082">
        <ele>205</ele>
        <time>2018-06-12T10:10:46Z</time>
      </trkpt>
      <trkpt lat="45.86173" lon="4.69082">
        <ele>206</ele>
        <time>2018-06-12T10:10:47Z</time>
      </trkpt>
      <trkpt lat="45.8618" lon="4.69082">
        <ele>207</ele>
        <time>2018-06-12T10:10:49Z</time>
      </trkpt>
      <trkpt lat="45.86183" lon="4.69082">
        <ele>208</ele>
        <time>2018-06-12T10:10:50Z</time>
      </trkpt>
      <trkpt lat="45.8619" lon="4.69081">
        <ele>208</ele>
        <time>2018-06-12T10:10:53Z</time>
      </trkpt>
      <trkpt lat="45.86193" lon="4.69081">
        <ele>209</ele>
        <time>2018-06-12T10:10:54Z</time>
      </trkpt>
      <trkpt lat="45.86201" lon="4.69081">
        <ele>209</ele>
        <time>2018-06-12T10:10:57Z</time>
      </trkpt>
      <trkpt lat="45.86209" lon="4.6908">
        <ele>210</ele>
        <time>2018-06-12T10:10:58Z</time>
      </trkpt>
      <trkpt lat="45.86217" lon="4.69079">
        <ele>210</ele>
        <time>2018-06-12T10:11:02Z</time>
      </trkpt>
      <trkpt lat="45.8622" lon="4.69078">
        <ele>210</ele>
        <time>2018-06-12T10:11:03Z</time>
      </trkpt>
      <trkpt lat="45.86228" lon="4.69079">
        <ele>210</ele>
        <time>2018-06-12T10:11:06Z</time>
      </trkpt>
      <trkpt lat="45.86231" lon="4.69079">
        <ele>211</ele>
        <time>2018-06-12T10:11:07Z</time>
      </trkpt>
      <trkpt lat="45.86239" lon="4.6908">
        <ele>211</ele>
        <time>2018-06-12T10:11:10Z</time>
      </trkpt>
      <trkpt lat="45.86242" lon="4.6908">
        <ele>211</ele>
        <time>2018-06-12T10:11:11Z</time>
      </trkpt>
      <trkpt lat="45.8625" lon="4.69082">
        <ele>211</ele>
        <time>2018-06-12T10:11:14Z</time>
      </trkpt>
      <trkpt lat="45.86253" lon="4.69083">
        <ele>211</ele>
        <time>2018-06-12T10:11:15Z</time>
      </trkpt>
      <trkpt lat="45.86261" lon="4.69087">
        <ele>212</ele>
        <time>2018-06-12T10:11:18Z</time>
      </trkpt>
      <trkpt lat="45.86264" lon="4.69088">
        <ele>212</ele>
        <time>2018-06-12T10:11:19Z</time>
      </trkpt>
      <trkpt lat="45.86272" lon="4.69091">
        <ele>213</ele>
        <time>2018-06-12T10:11:22Z</time>
      </trkpt>
      <trkpt lat="45.86275" lon="4.69093">
        <ele>213</ele>
        <time>2018-06-12T10:11:23Z</time>
      </trkpt>
      <trkpt lat="45.86281" lon="4.69095">
        <ele>213</ele>
        <time>2018-06-12T10:11:25Z</time>
      </trkpt>
      <trkpt lat="45.86284" lon="4.69097">
        <ele>213</ele>
        <time>2018-06-12T10:11:26Z</time>
      </trkpt>
      <trkpt lat="45.86292" lon="4.69101">
        <ele>214</ele>
        <time>2018-06-12T10:11:29Z</time>
      </trkpt>
      <trkpt lat="45.86295" lon="4.69103">
        <ele>214</ele>
        <time>2018-06-12T10:11:30Z</time>
      </trkpt>
      <trkpt lat="45.86302" lon="4.69108">
        <ele>214</ele>
        <time>2018-06-12T10:11:33Z</time>
      </trkpt>
      <trkpt lat="45.86304" lon="4.6911">
        <ele>214</ele>
        <time>2018-06-12T10:11:34Z</time>
      </trkpt>
      <trkpt lat="45.8631" lon="4.69117">
        <ele>214</ele>
        <time>2018-06-12T10:11:37Z</time>
      </trkpt>
      <trkpt lat="45.86312" lon="4.69119">
        <ele>214</ele>
        <time>2018-06-12T10:11:38Z</time>
      </trkpt>
      <trkpt lat="45.86318" lon="4.69127">
        <ele>214</ele>
        <time>2018-06-12T10:11:41Z</time>
      </trkpt>
      <trkpt lat="45.86321" lon="4.69129">
        <ele>215</ele>
        <time>2018-06-12T10:11:42Z</time>
      </trkpt>
      <trkpt lat="45.86327" lon="4.69136">
        <ele>215</ele>
        <time>2018-06-12T10:11:45Z</time>
      </trkpt>
      <trkpt lat="45.86329" lon="4.69139">
        <ele>215</ele>
        <time>2018-06-12T10:11:46Z</time>
      </trkpt>
      <trkpt lat="45.86334" lon="4.69146">
        <ele>217</ele>
        <time>2018-06-12T10:11:49Z</time>
      </trkpt>
      <trkpt lat="45.86336" lon="4.69148">
        <ele>217</ele>
        <time>2018-06-12T10:11:50Z</time>
      </trkpt>
      <trkpt lat="45.86341" lon="4.69156">
        <ele>217</ele>
        <time>2018-06-12T10:11:53Z</time>
      </trkpt>
      <trkpt lat="45.86342" lon="4.69159">
        <ele>217</ele>
        <time>2018-06-12T10:11:54Z</time>
      </trkpt>
      <trkpt lat="45.86347" lon="4.69167">
        <ele>218</ele>
        <time>2018-06-12T10:11:57Z</time>
      </trkpt>
      <trkpt lat="45.86349" lon="4.6917">
        <ele>218</ele>
        <time>2018-06-12T10:11:58Z</time>
      </trkpt>
      <trkpt lat="45.86353" lon="4.69179">
        <ele>218</ele>
        <time>2018-06-12T10:12:01Z</time>
      </trkpt>
      <trkpt lat="45.86354" lon="4.69183">
        <ele>218</ele>
        <time>2018-06-12T10:12:02Z</time>
      </trkpt>
      <trkpt lat="45.86359" lon="4.69192">
        <ele>218</ele>
        <time>2018-06-12T10:12:05Z</time>
      </trkpt>
      <trkpt lat="45.8636" lon="4.69195">
        <ele>218</ele>
        <time>2018-06-12T10:12:06Z</time>
      </trkpt>
      <trkpt lat="45.86365" lon="4.69206">
        <ele>219</ele>
        <time>2018-06-12T10:12:09Z</time>
      </trkpt>
      <trkpt lat="45.86367" lon="4.69209">
        <ele>219</ele>
        <time>2018-06-12T10:12:10Z</time>
      </trkpt>
      <trkpt lat="45.8637" lon="4.69216">
        <ele>219</ele>
        <time>2018-06-12T10:12:12Z</time>
      </trkpt>
      <trkpt lat="45.86372" lon="4.6922">
        <ele>219</ele>
        <time>2018-06-12T10:12:13Z</time>
      </trkpt>
      <trkpt lat="45.86375" lon="4.69228">
        <ele>219</ele>
        <time>2018-06-12T10:12:15Z</time>
      </trkpt>
      <trkpt lat="45.86377" lon="4.69232">
        <ele>219</ele>
        <time>2018-06-12T10:12:16Z</time>
      </trkpt>
      <trkpt lat="45.86381" lon="4.69241">
        <ele>219</ele>
        <time>2018-06-12T10:12:18Z</time>
      </trkpt>
      <trkpt lat="45.86383" lon="4.69245">
        <ele>219</ele>
        <time>2018-06-12T10:12:19Z</time>
      </trkpt>
      <trkpt lat="45.86386" lon="4.69253">
        <ele>219</ele>
        <time>2018-06-12T10:12:21Z</time>
      </trkpt>
      <trkpt lat="45.86391" lon="4.69265">
        <ele>219</ele>
        <time>2018-06-12T10:12:22Z</time>
      </trkpt>
      <trkpt lat="45.86395" lon="4.69275">
        <ele>219</ele>
        <time>2018-06-12T10:12:25Z</time>
      </trkpt>
      <trkpt lat="45.86398" lon="4.69283">
        <ele>219</ele>
        <time>2018-06-12T10:12:26Z</time>
      </trkpt>
      <trkpt lat="45.86401" lon="4.69294">
        <ele>219</ele>
        <time>2018-06-12T10:12:28Z</time>
      </trkpt>
      <trkpt lat="45.86403" lon="4.69299">
        <ele>219</ele>
        <time>2018-06-12T10:12:29Z</time>
      </trkpt>
      <trkpt lat="45.86408" lon="4.69309">
        <ele>219</ele>
        <time>2018-06-12T10:12:31Z</time>
      </trkpt>
      <trkpt lat="45.8641" lon="4.69315">
        <ele>219</ele>
        <time>2018-06-12T10:12:32Z</time>
      </trkpt>
      <trkpt lat="45.86415" lon="4.69325">
        <ele>219</ele>
        <time>2018-06-12T10:12:34Z</time>
      </trkpt>
      <trkpt lat="45.86417" lon="4.6933">
        <ele>219</ele>
        <time>2018-06-12T10:12:35Z</time>
      </trkpt>
      <trkpt lat="45.86418" lon="4.69335">
        <ele>219</ele>
        <time>2018-06-12T10:12:36Z</time>
      </trkpt>
      <trkpt lat="45.86421" lon="4.69342">
        <ele>219</ele>
        <time>2018-06-12T10:12:37Z</time>
      </trkpt>
      <trkpt lat="45.86424" lon="4.69348">
        <ele>219</ele>
        <time>2018-06-12T10:12:38Z</time>
      </trkpt>
      <trkpt lat="45.86427" lon="4.69354">
        <ele>219</ele>
        <time>2018-06-12T10:12:39Z</time>
      </trkpt>
      <trkpt lat="45.8643" lon="4.6936">
        <ele>219</ele>
        <time>2018-06-12T10:12:40Z</time>
      </trkpt>
      <trkpt lat="45.86433" lon="4.69367">
        <ele>219</ele>
        <time>2018-06-12T10:12:41Z</time>
      </trkpt>
      <trkpt lat="45.86436" lon="4.69373">
        <ele>219</ele>
        <time>2018-06-12T10:12:42Z</time>
      </trkpt>
      <trkpt lat="45.86438" lon="4.6938">
        <ele>219</ele>
        <time>2018-06-12T10:12:43Z</time>
      </trkpt>
      <trkpt lat="45.86444" lon="4.69389">
        <ele>219</ele>
        <time>2018-06-12T10:12:45Z</time>
      </trkpt>
      <trkpt lat="45.86448" lon="4.69394">
        <ele>219</ele>
        <time>2018-06-12T10:12:46Z</time>
      </trkpt>
      <trkpt lat="45.86451" lon="4.69399">
        <ele>219</ele>
        <time>2018-06-12T10:12:47Z</time>
      </trkpt>
      <trkpt lat="45.86455" lon="4.69405">
        <ele>219</ele>
        <time>2018-06-12T10:12:48Z</time>
      </trkpt>
      <trkpt lat="45.86458" lon="4.6941">
        <ele>219</ele>
        <time>2018-06-12T10:12:49Z</time>
      </trkpt>
      <trkpt lat="45.86462" lon="4.69415">
        <ele>219</ele>
        <time>2018-06-12T10:12:50Z</time>
      </trkpt>
      <trkpt lat="45.86465" lon="4.6942">
        <ele>218</ele>
        <time>2018-06-12T10:12:51Z</time>
      </trkpt>
      <trkpt lat="45.86468" lon="4.69425">
        <ele>218</ele>
        <time>2018-06-12T10:12:52Z</time>
      </trkpt>
      <trkpt lat="45.86471" lon="4.69429">
        <ele>218</ele>
        <time>2018-06-12T10:12:53Z</time>
      </trkpt>
      <trkpt lat="45.86475" lon="4.69434">
        <ele>218</ele>
        <time>2018-06-12T10:12:54Z</time>
      </trkpt>
      <trkpt lat="45.86481" lon="4.69444">
        <ele>218</ele>
        <time>2018-06-12T10:12:56Z</time>
      </trkpt>
      <trkpt lat="45.86483" lon="4.69448">
        <ele>218</ele>
        <time>2018-06-12T10:12:57Z</time>
      </trkpt>
      <trkpt lat="45.86487" lon="4.69453">
        <ele>218</ele>
        <time>2018-06-12T10:12:58Z</time>
      </trkpt>
      <trkpt lat="45.86491" lon="4.69458">
        <ele>218</ele>
        <time>2018-06-12T10:12:59Z</time>
      </trkpt>
      <trkpt lat="45.86494" lon="4.69463">
        <ele>218</ele>
        <time>2018-06-12T10:13:00Z</time>
      </trkpt>
      <trkpt lat="45.86498" lon="4.69467">
        <ele>218</ele>
        <time>2018-06-12T10:13:01Z</time>
      </trkpt>
      <trkpt lat="45.86502" lon="4.69472">
        <ele>219</ele>
        <time>2018-06-12T10:13:02Z</time>
      </trkpt>
      <trkpt lat="45.86504" lon="4.69478">
        <ele>219</ele>
        <time>2018-06-12T10:13:03Z</time>
      </trkpt>
      <trkpt lat="45.8651" lon="4.69488">
        <ele>219</ele>
        <time>2018-06-12T10:13:05Z</time>
      </trkpt>
      <trkpt lat="45.86513" lon="4.69494">
        <ele>219</ele>
        <time>2018-06-12T10:13:06Z</time>
      </trkpt>
      <trkpt lat="45.86515" lon="4.69498">
        <ele>219</ele>
        <time>2018-06-12T10:13:07Z</time>
      </trkpt>
      <trkpt lat="45.86518" lon="4.69503">
        <ele>218</ele>
        <time>2018-06-12T10:13:08Z</time>
      </trkpt>
      <trkpt lat="45.86522" lon="4.69509">
        <ele>219</ele>
        <time>2018-06-12T10:13:09Z</time>
      </trkpt>
      <trkpt lat="45.86526" lon="4.69514">
        <ele>219</ele>
        <time>2018-06-12T10:13:10Z</time>
      </trkpt>
      <trkpt lat="45.86529" lon="4.69521">
        <ele>219</ele>
        <time>2018-06-12T10:13:11Z</time>
      </trkpt>
      <trkpt lat="45.86532" lon="4.69527">
        <ele>219</ele>
        <time>2018-06-12T10:13:12Z</time>
      </trkpt>
      <trkpt lat="45.86536" lon="4.69533">
        <ele>219</ele>
        <time>2018-06-12T10:13:13Z</time>
      </trkpt>
      <trkpt lat="45.8654" lon="4.69538">
        <ele>219</ele>
        <time>2018-06-12T10:13:14Z</time>
      </trkpt>
      <trkpt lat="45.86545" lon="4.69543">
        <ele>219</ele>
        <time>2018-06-12T10:13:15Z</time>
      </trkpt>
      <trkpt lat="45.86547" lon="4.69548">
        <ele>219</ele>
        <time>2018-06-12T10:13:16Z</time>
      </trkpt>
      <trkpt lat="45.86551" lon="4.69554">
        <ele>219</ele>
        <time>2018-06-12T10:13:17Z</time>
      </trkpt>
      <trkpt lat="45.86554" lon="4.6956">
        <ele>219</ele>
        <time>2018-06-12T10:13:18Z</time>
      </trkpt>
      <trkpt lat="45.86558" lon="4.69566">
        <ele>219</ele>
        <time>2018-06-12T10:13:19Z</time>
      </trkpt>
      <trkpt lat="45.86562" lon="4.69571">
        <ele>219</ele>
        <time>2018-06-12T10:13:20Z</time>
      </trkpt>
      <trkpt lat="45.86564" lon="4.69576">
        <ele>219</ele>
        <time>2018-06-12T10:13:21Z</time>
      </trkpt>
      <trkpt lat="45.86567" lon="4.69581">
        <ele>219</ele>
        <time>2018-06-12T10:13:22Z</time>
      </trkpt>
      <trkpt lat="45.86573" lon="4.6959">
        <ele>219</ele>
        <time>2018-06-12T10:13:24Z</time>
      </trkpt>
      <trkpt lat="45.86576" lon="4.69595">
        <ele>219</ele>
        <time>2018-06-12T10:13:25Z</time>
      </trkpt>
      <trkpt lat="45.86579" lon="4.69601">
        <ele>219</ele>
        <time>2018-06-12T10:13:26Z</time>
      </trkpt>
      <trkpt lat="45.86582" lon="4.69606">
        <ele>219</ele>
        <time>2018-06-12T10:13:27Z</time>
      </trkpt>
      <trkpt lat="45.86586" lon="4.69611">
        <ele>219</ele>
        <time>2018-06-12T10:13:28Z</time>
      </trkpt>
      <trkpt lat="45.8659" lon="4.69616">
        <ele>219</ele>
        <time>2018-06-12T10:13:29Z</time>
      </trkpt>
      <trkpt lat="45.86593" lon="4.69621">
        <ele>219</ele>
        <time>2018-06-12T10:13:30Z</time>
      </trkpt>
      <trkpt lat="45.86597" lon="4.69627">
        <ele>219</ele>
        <time>2018-06-12T10:13:31Z</time>
      </trkpt>
      <trkpt lat="45.866" lon="4.69632">
        <ele>219</ele>
        <time>2018-06-12T10:13:32Z</time>
      </trkpt>
      <trkpt lat="45.86605" lon="4.69636">
        <ele>219</ele>
        <time>2018-06-12T10:13:33Z</time>
      </trkpt>
      <trkpt lat="45.86609" lon="4.69642">
        <ele>219</ele>
        <time>2018-06-12T10:13:34Z</time>
      </trkpt>
      <trkpt lat="45.86612" lon="4.69648">
        <ele>219</ele>
        <time>2018-06-12T10:13:35Z</time>
      </trkpt>
      <trkpt lat="45.86615" lon="4.69654">
        <ele>219</ele>
        <time>2018-06-12T10:13:36Z</time>
      </trkpt>
      <trkpt lat="45.86619" lon="4.6966">
        <ele>219</ele>
        <time>2018-06-12T10:13:37Z</time>
      </trkpt>
      <trkpt lat="45.86624" lon="4.69664">
        <ele>219</ele>
        <time>2018-06-12T10:13:38Z</time>
      </trkpt>
      <trkpt lat="45.86626" lon="4.69669">
        <ele>218</ele>
        <time>2018-06-12T10:13:39Z</time>
      </trkpt>
      <trkpt lat="45.86633" lon="4.69678">
        <ele>218</ele>
        <time>2018-06-12T10:13:41Z</time>
      </trkpt>
      <trkpt lat="45.86637" lon="4.69682">
        <ele>218</ele>
        <time>2018-06-12T10:13:42Z</time>
      </trkpt>
      <trkpt lat="45.86641" lon="4.69686">
        <ele>218</ele>
        <time>2018-06-12T10:13:43Z</time>
      </trkpt>
      <trkpt lat="45.86646" lon="4.69691">
        <ele>218</ele>
        <time>2018-06-12T10:13:44Z</time>
      </trkpt>
      <trkpt lat="45.8665" lon="4.69696">
        <ele>218</ele>
        <time>2018-06-12T10:13:45Z</time>
      </trkpt>
      <trkpt lat="45.86655" lon="4.69699">
        <ele>218</ele>
        <time>2018-06-12T10:13:46Z</time>
      </trkpt>
      <trkpt lat="45.8666" lon="4.69702">
        <ele>218</ele>
        <time>2018-06-12T10:13:47Z</time>
      </trkpt>
      <trkpt lat="45.86666" lon="4.69706">
        <ele>218</ele>
        <time>2018-06-12T10:13:48Z</time>
      </trkpt>
      <trkpt lat="45.8667" lon="4.69709">
        <ele>217</ele>
        <time>2018-06-12T10:13:49Z</time>
      </trkpt>
      <trkpt lat="45.86676" lon="4.69712">
        <ele>217</ele>
        <time>2018-06-12T10:13:50Z</time>
      </trkpt>
      <trkpt lat="45.8668" lon="4.69716">
        <ele>217</ele>
        <time>2018-06-12T10:13:51Z</time>
      </trkpt>
      <trkpt lat="45.86685" lon="4.69723">
        <ele>217</ele>
        <time>2018-06-12T10:13:52Z</time>
      </trkpt>
      <trkpt lat="45.8669" lon="4.69728">
        <ele>217</ele>
        <time>2018-06-12T10:13:53Z</time>
      </trkpt>
      <trkpt lat="45.86694" lon="4.69731">
        <ele>217</ele>
        <time>2018-06-12T10:13:54Z</time>
      </trkpt>
      <trkpt lat="45.86699" lon="4.69735">
        <ele>217</ele>
        <time>2018-06-12T10:13:55Z</time>
      </trkpt>
      <trkpt lat="45.86704" lon="4.69739">
        <ele>217</ele>
        <time>2018-06-12T10:13:56Z</time>
      </trkpt>
      <trkpt lat="45.86709" lon="4.69744">
        <ele>217</ele>
        <time>2018-06-12T10:13:57Z</time>
      </trkpt>
      <trkpt lat="45.86713" lon="4.69748">
        <ele>217</ele>
        <time>2018-06-12T10:13:58Z</time>
      </trkpt>
      <trkpt lat="45.86717" lon="4.69752">
        <ele>217</ele>
        <time>2018-06-12T10:13:59Z</time>
      </trkpt>
      <trkpt lat="45.86721" lon="4.69756">
        <ele>217</ele>
        <time>2018-06-12T10:14:00Z</time>
      </trkpt>
      <trkpt lat="45.86725" lon="4.6976">
        <ele>217</ele>
        <time>2018-06-12T10:14:01Z</time>
      </trkpt>
      <trkpt lat="45.8673" lon="4.69764">
        <ele>217</ele>
        <time>2018-06-12T10:14:02Z</time>
      </trkpt>
      <trkpt lat="45.86733" lon="4.69769">
        <ele>217</ele>
        <time>2018-06-12T10:14:03Z</time>
      </trkpt>
      <trkpt lat="45.86738" lon="4.69774">
        <ele>217</ele>
        <time>2018-06-12T10:14:04Z</time>
      </trkpt>
      <trkpt lat="45.86742" lon="4.6978">
        <ele>217</ele>
        <time>2018-06-12T10:14:05Z</time>
      </trkpt>
      <trkpt lat="45.86748" lon="4.6978">
        <ele>217</ele>
        <time>2018-06-12T10:14:06Z</time>
      </trkpt>
      <trkpt lat="45.86754" lon="4.69784">
        <ele>217</ele>
        <time>2018-06-12T10:14:07Z</time>
      </trkpt>
      <trkpt lat="45.86758" lon="4.69789">
        <ele>217</ele>
        <time>2018-06-12T10:14:08Z</time>
      </trkpt>
      <trkpt lat="45.86763" lon="4.69793">
        <ele>217</ele>
        <time>2018-06-12T10:14:09Z</time>
      </trkpt>
      <trkpt lat="45.86767" lon="4.69797">
        <ele>217</ele>
        <time>2018-06-12T10:14:10Z</time>
      </trkpt>
      <trkpt lat="45.86771" lon="4.69802">
        <ele>217</ele>
        <time>2018-06-12T10:14:11Z</time>
      </trkpt>
      <trkpt lat="45.86776" lon="4.69806">
        <ele>217</ele>
        <time>2018-06-12T10:14:12Z</time>
      </trkpt>
      <trkpt lat="45.8678" lon="4.69811">
        <ele>217</ele>
        <time>2018-06-12T10:14:13Z</time>
      </trkpt>
      <trkpt lat="45.86784" lon="4.69814">
        <ele>217</ele>
        <time>2018-06-12T10:14:14Z</time>
      </trkpt>
      <trkpt lat="45.86788" lon="4.69817">
        <ele>217</ele>
        <time>2018-06-12T10:14:15Z</time>
      </trkpt>
      <trkpt lat="45.86793" lon="4.69822">
        <ele>217</ele>
        <time>2018-06-12T10:14:16Z</time>
      </trkpt>
      <trkpt lat="45.86797" lon="4.69827">
        <ele>217</ele>
        <time>2018-06-12T10:14:17Z</time>
      </trkpt>
      <trkpt lat="45.86802" lon="4.6983">
        <ele>217</ele>
        <time>2018-06-12T10:14:18Z</time>
      </trkpt>
      <trkpt lat="45.86807" lon="4.69834">
        <ele>217</ele>
        <time>2018-06-12T10:14:19Z</time>
      </trkpt>
      <trkpt lat="45.86811" lon="4.69839">
        <ele>217</ele>
        <time>2018-06-12T10:14:20Z</time>
      </trkpt>
      <trkpt lat="45.86816" lon="4.69843">
        <ele>217</ele>
        <time>2018-06-12T10:14:21Z</time>
      </trkpt>
      <trkpt lat="45.8682" lon="4.69849">
        <ele>217</ele>
        <time>2018-06-12T10:14:22Z</time>
      </trkpt>
      <trkpt lat="45.86826" lon="4.69854">
        <ele>217</ele>
        <time>2018-06-12T10:14:23Z</time>
      </trkpt>
      <trkpt lat="45.86829" lon="4.69859">
        <ele>217</ele>
        <time>2018-06-12T10:14:24Z</time>
      </trkpt>
      <trkpt lat="45.86833" lon="4.69864">
        <ele>216</ele>
        <time>2018-06-12T10:14:25Z</time>
      </trkpt>
      <trkpt lat="45.86838" lon="4.69869">
        <ele>217</ele>
        <time>2018-06-12T10:14:26Z</time>
      </trkpt>
      <trkpt lat="45.86843" lon="4.69871">
        <ele>217</ele>
        <time>2018-06-12T10:14:27Z</time>
      </trkpt>
      <trkpt lat="45.86848" lon="4.69875">
        <ele>217</ele>
        <time>2018-06-12T10:14:28Z</time>
      </trkpt>
      <trkpt lat="45.86851" lon="4.69879">
        <ele>217</ele>
        <time>2018-06-12T10:14:29Z</time>
      </trkpt>
      <trkpt lat="45.86856" lon="4.69884">
        <ele>217</ele>
        <time>2018-06-12T10:14:30Z</time>
      </trkpt>
      <trkpt lat="45.86861" lon="4.69889">
        <ele>217</ele>
        <time>2018-06-12T10:14:31Z</time>
      </trkpt>
      <trkpt lat="45.86865" lon="4.69893">
        <ele>217</ele>
        <time>2018-06-12T10:14:32Z</time>
      </trkpt>
      <trkpt lat="45.86869" lon="4.69898">
        <ele>217</ele>
        <time>2018-06-12T10:14:33Z</time>
      </trkpt>
      <trkpt lat="45.86873" lon="4.69903">
        <ele>217</ele>
        <time>2018-06-12T10:14:34Z</time>
      </trkpt>
      <trkpt lat="45.86878" lon="4.69907">
        <ele>217</ele>
        <time>2018-06-12T10:14:35Z</time>
      </trkpt>
      <trkpt lat="45.86884" lon="4.69909">
        <ele>217</ele>
        <time>2018-06-12T10:14:36Z</time>
      </trkpt>
      <trkpt lat="45.86888" lon="4.69913">
        <ele>217</ele>
        <time>2018-06-12T10:14:37Z</time>
      </trkpt>
      <trkpt lat="45.86893" lon="4.69917">
        <ele>217</ele>
        <time>2018-06-12T10:14:38Z</time>
      </trkpt>
      <trkpt lat="45.86899" lon="4.69922">
        <ele>217</ele>
        <time>2018-06-12T10:14:39Z</time>
      </trkpt>
      <trkpt lat="45.86905" lon="4.69925">
        <ele>217</ele>
        <time>2018-06-12T10:14:40Z</time>
      </trkpt>
      <trkpt lat="45.8691" lon="4.69929">
        <ele>217</ele>
        <time>2018-06-12T10:14:41Z</time>
      </trkpt>
      <trkpt lat="45.86915" lon="4.69934">
        <ele>217</ele>
        <time>2018-06-12T10:14:42Z</time>
      </trkpt>
      <trkpt lat="45.86919" lon="4.69938">
        <ele>217</ele>
        <time>2018-06-12T10:14:43Z</time>
      </trkpt>
      <trkpt lat="45.86924" lon="4.69942">
        <ele>217</ele>
        <time>2018-06-12T10:14:44Z</time>
      </trkpt>
      <trkpt lat="45.86929" lon="4.69946">
        <ele>217</ele>
        <time>2018-06-12T10:14:45Z</time>
      </trkpt>
      <trkpt lat="45.86934" lon="4.69949">
        <ele>217</ele>
        <time>2018-06-12T10:14:46Z</time>
      </trkpt>
      <trkpt lat="45.8694" lon="4.69952">
        <ele>217</ele>
        <time>2018-06-12T10:14:47Z</time>
      </trkpt>
      <trkpt lat="45.86945" lon="4.69956">
        <ele>217</ele>
        <time>2018-06-12T10:14:48Z</time>
      </trkpt>
      <trkpt lat="45.8695" lon="4.6996">
        <ele>217</ele>
        <time>2018-06-12T10:14:49Z</time>
      </trkpt>
      <trkpt lat="45.86955" lon="4.69964">
        <ele>217</ele>
        <time>2018-06-12T10:14:50Z</time>
      </trkpt>
      <trkpt lat="45.8696" lon="4.69968">
        <ele>217</ele>
        <time>2018-06-12T10:14:51Z</time>
      </trkpt>
      <trkpt lat="45.86964" lon="4.69972">
        <ele>217</ele>
        <time>2018-06-12T10:14:52Z</time>
      </trkpt>
      <trkpt lat="45.86968" lon="4.69977">
        <ele>217</ele>
        <time>2018-06-12T10:14:53Z</time>
      </trkpt>
      <trkpt lat="45.8697" lon="4.69984">
        <ele>217</ele>
        <time>2018-06-12T10:14:54Z</time>
      </trkpt>
      <trkpt lat="45.86973" lon="4.69991">
        <ele>217</ele>
        <time>2018-06-12T10:14:55Z</time>
      </trkpt>
      <trkpt lat="45.86977" lon="4.69996">
        <ele>217</ele>
        <time>2018-06-12T10:14:56Z</time>
      </trkpt>
      <trkpt lat="45.86982" lon="4.7">
        <ele>217</ele>
        <time>2018-06-12T10:14:57Z</time>
      </trkpt>
      <trkpt lat="45.86986" lon="4.70002">
        <ele>217</ele>
        <time>2018-06-12T10:14:58Z</time>
      </trkpt>
      <trkpt lat="45.86992" lon="4.70004">
        <ele>217</ele>
        <time>2018-06-12T10:14:59Z</time>
      </trkpt>
      <trkpt lat="45.86997" lon="4.70004">
        <ele>217</ele>
        <time>2018-06-12T10:15:00Z</time>
      </trkpt>
      <trkpt lat="45.87002" lon="4.70001">
        <ele>217</ele>
        <time>2018-06-12T10:15:01Z</time>
      </trkpt>
      <trkpt lat="45.87007" lon="4.70001">
        <ele>217</ele>
        <time>2018-06-12T10:15:02Z</time>
      </trkpt>
      <trkpt lat="45.8701" lon="4.70006">
        <ele>217</ele>
        <time>2018-06-12T10:15:03Z</time>
      </trkpt>
      <trkpt lat="45.87015" lon="4.70009">
        <ele>217</ele>
        <time>2018-06-12T10:15:04Z</time>
      </trkpt>
      <trkpt lat="45.8702" lon="4.70013">
        <ele>217</ele>
        <time>2018-06-12T10:15:05Z</time>
      </trkpt>
      <trkpt lat="45.87026" lon="4.70017">
        <ele>217</ele>
        <time>2018-06-12T10:15:06Z</time>
      </trkpt>
      <trkpt lat="45.8703" lon="4.70022">
        <ele>217</ele>
        <time>2018-06-12T10:15:07Z</time>
      </trkpt>
      <trkpt lat="45.87033" lon="4.70029">
        <ele>217</ele>
        <time>2018-06-12T10:15:08Z</time>
      </trkpt>
      <trkpt lat="45.87036" lon="4.70035">
        <ele>217</ele>
        <time>2018-06-12T10:15:09Z</time>
      </trkpt>
      <trkpt lat="45.8704" lon="4.70041">
        <ele>217</ele>
        <time>2018-06-12T10:15:10Z</time>
      </trkpt>
      <trkpt lat="45.87044" lon="4.70048">
        <ele>217</ele>
        <time>2018-06-12T10:15:11Z</time>
      </trkpt>
      <trkpt lat="45.87047" lon="4.70055">
        <ele>217</ele>
        <time>2018-06-12T10:15:12Z</time>
      </trkpt>
      <trkpt lat="45.87052" lon="4.7006">
        <ele>217</ele>
        <time>2018-06-12T10:15:13Z</time>
      </trkpt>
      <trkpt lat="45.87055" lon="4.70066">
        <ele>217</ele>
        <time>2018-06-12T10:15:14Z</time>
      </trkpt>
      <trkpt lat="45.87059" lon="4.70073">
        <ele>217</ele>
        <time>2018-06-12T10:15:15Z</time>
      </trkpt>
      <trkpt lat="45.87062" lon="4.7008">
        <ele>217</ele>
        <time>2018-06-12T10:15:16Z</time>
      </trkpt>
      <trkpt lat="45.87065" lon="4.70087">
        <ele>217</ele>
        <time>2018-06-12T10:15:17Z</time>
      </trkpt>
      <trkpt lat="45.87069" lon="4.70094">
        <ele>217</ele>
        <time>2018-06-12T10:15:18Z</time>
      </trkpt>
      <trkpt lat="45.87073" lon="4.70102">
        <ele>217</ele>
        <time>2018-06-12T10:15:19Z</time>
      </trkpt>
      <trkpt lat="45.87077" lon="4.70108">
        <ele>217</ele>
        <time>2018-06-12T10:15:20Z</time>
      </trkpt>
      <trkpt lat="45.87078" lon="4.70114">
        <ele>217</ele>
        <time>2018-06-12T10:15:21Z</time>
      </trkpt>
      <trkpt lat="45.87082" lon="4.7012">
        <ele>217</ele>
        <time>2018-06-12T10:15:22Z</time>
      </trkpt>
      <trkpt lat="45.87086" lon="4.70126">
        <ele>217</ele>
        <time>2018-06-12T10:15:23Z</time>
      </trkpt>
      <trkpt lat="45.8709" lon="4.70133">
        <ele>217</ele>
        <time>2018-06-12T10:15:24Z</time>
      </trkpt>
      <trkpt lat="45.87094" lon="4.7014">
        <ele>217</ele>
        <time>2018-06-12T10:15:25Z</time>
      </trkpt>
      <trkpt lat="45.87098" lon="4.70144">
        <ele>217</ele>
        <time>2018-06-12T10:15:26Z</time>
      </trkpt>
      <trkpt lat="45.87102" lon="4.70152">
        <ele>217</ele>
        <time>2018-06-12T10:15:27Z</time>
      </trkpt>
      <trkpt lat="45.87106" lon="4.70158">
        <ele>217</ele>
        <time>2018-06-12T10:15:28Z</time>
      </trkpt>
      <trkpt lat="45.8711" lon="4.70165">
        <ele>217</ele>
        <time>2018-06-12T10:15:29Z</time>
      </trkpt>
      <trkpt lat="45.87113" lon="4.70172">
        <ele>216</ele>
        <time>2018-06-12T10:15:30Z</time>
      </trkpt>
      <trkpt lat="45.87117" lon="4.70178">
        <ele>216</ele>
        <time>2018-06-12T10:15:31Z</time>
      </trkpt>
      <trkpt lat="45.87121" lon="4.70184">
        <ele>216</ele>
        <time>2018-06-12T10:15:32Z</time>
      </trkpt>
      <trkpt lat="45.87125" lon="4.70189">
        <ele>216</ele>
        <time>2018-06-12T10:15:33Z</time>
      </trkpt>
      <trkpt lat="45.87129" lon="4.70195">
        <ele>216</ele>
        <time>2018-06-12T10:15:34Z</time>
      </trkpt>
      <trkpt lat="45.87133" lon="4.70201">
        <ele>216</ele>
        <time>2018-06-12T10:15:35Z</time>
      </trkpt>
      <trkpt lat="45.87138" lon="4.70207">
        <ele>216</ele>
        <time>2018-06-12T10:15:36Z</time>
      </trkpt>
      <trkpt lat="45.87142" lon="4.70213">
        <ele>216</ele>
        <time>2018-06-12T10:15:37Z</time>
      </trkpt>
      <trkpt lat="45.87147" lon="4.70218">
        <ele>216</ele>
        <time>2018-06-12T10:15:38Z</time>
      </trkpt>
      <trkpt lat="45.87152" lon="4.70224">
        <ele>216</ele>
        <time>2018-06-12T10:15:39Z</time>
      </trkpt>
      <trkpt lat="45.87156" lon="4.70231">
        <ele>216</ele>
        <time>2018-06-12T10:15:40Z</time>
      </trkpt>
      <trkpt lat="45.87161" lon="4.70236">
        <ele>216</ele>
        <time>2018-06-12T10:15:41Z</time>
      </trkpt>
      <trkpt lat="45.87166" lon="4.70241">
        <ele>216</ele>
        <time>2018-06-12T10:15:42Z</time>
      </trkpt>
      <trkpt lat="45.8717" lon="4.70248">
        <ele>216</ele>
        <time>2018-06-12T10:15:43Z</time>
      </trkpt>
      <trkpt lat="45.87174" lon="4.70254">
        <ele>216</ele>
        <time>2018-06-12T10:15:44Z</time>
      </trkpt>
      <trkpt lat="45.87179" lon="4.7026">
        <ele>216</ele>
        <time>2018-06-12T10:15:45Z</time>
      </trkpt>
      <trkpt lat="45.87184" lon="4.70266">
        <ele>216</ele>
        <time>2018-06-12T10:15:46Z</time>
      </trkpt>
      <trkpt lat="45.87188" lon="4.70272">
        <ele>217</ele>
        <time>2018-06-12T10:15:47Z</time>
      </trkpt>
      <trkpt lat="45.87194" lon="4.70279">
        <ele>217</ele>
        <time>2018-06-12T10:15:48Z</time>
      </trkpt>
      <trkpt lat="45.87198" lon="4.70285">
        <ele>217</ele>
        <time>2018-06-12T10:15:49Z</time>
      </trkpt>
      <trkpt lat="45.87201" lon="4.70291">
        <ele>217</ele>
        <time>2018-06-12T10:15:50Z</time>
      </trkpt>
      <trkpt lat="45.87205" lon="4.70298">
        <ele>217</ele>
        <time>2018-06-12T10:15:51Z</time>
      </trkpt>
      <trkpt lat="45.8721" lon="4.70303">
        <ele>217</ele>
        <time>2018-06-12T10:15:52Z</time>
      </trkpt>
      <trkpt lat="45.87215" lon="4.70309">
        <ele>217</ele>
        <time>2018-06-12T10:15:53Z</time>
      </trkpt>
      <trkpt lat="45.87218" lon="4.70317">
        <ele>217</ele>
        <time>2018-06-12T10:15:54Z</time>
      </trkpt>
      <trkpt lat="45.87223" lon="4.70323">
        <ele>217</ele>
        <time>2018-06-12T10:15:55Z</time>
      </trkpt>
      <trkpt lat="45.87228" lon="4.70328">
        <ele>217</ele>
        <time>2018-06-12T10:15:56Z</time>
      </trkpt>
      <trkpt lat="45.87233" lon="4.70334">
        <ele>217</ele>
        <time>2018-06-12T10:15:57Z</time>
      </trkpt>
      <trkpt lat="45.87237" lon="4.70339">
        <ele>217</ele>
        <time>2018-06-12T10:15:58Z</time>
      </trkpt>
      <trkpt lat="45.87241" lon="4.70344">
        <ele>217</ele>
        <time>2018-06-12T10:15:59Z</time>
      </trkpt>
      <trkpt lat="45.87244" lon="4.70349">
        <ele>217</ele>
        <time>2018-06-12T10:16:00Z</time>
      </trkpt>
      <trkpt lat="45.87249" lon="4.70355">
        <ele>217</ele>
        <time>2018-06-12T10:16:01Z</time>
      </trkpt>
      <trkpt lat="45.87254" lon="4.70362">
        <ele>216</ele>
        <time>2018-06-12T10:16:02Z</time>
      </trkpt>
      <trkpt lat="45.87257" lon="4.70368">
        <ele>216</ele>
        <time>2018-06-12T10:16:03Z</time>
      </trkpt>
      <trkpt lat="45.87261" lon="4.70374">
        <ele>216</ele>
        <time>2018-06-12T10:16:04Z</time>
      </trkpt>
      <trkpt lat="45.87264" lon="4.70381">
        <ele>216</ele>
        <time>2018-06-12T10:16:05Z</time>
      </trkpt>
      <trkpt lat="45.87267" lon="4.70388">
        <ele>216</ele>
        <time>2018-06-12T10:16:06Z</time>
      </trkpt>
      <trkpt lat="45.8727" lon="4.70394">
        <ele>216</ele>
        <time>2018-06-12T10:16:07Z</time>
      </trkpt>
      <trkpt lat="45.87273" lon="4.70399">
        <ele>216</ele>
        <time>2018-06-12T10:16:08Z</time>
      </trkpt>
      <trkpt lat="45.87278" lon="4.70406">
        <ele>216</ele>
        <time>2018-06-12T10:16:09Z</time>
      </trkpt>
      <trkpt lat="45.87283" lon="4.70411">
        <ele>216</ele>
        <time>2018-06-12T10:16:10Z</time>
      </trkpt>
      <trkpt lat="45.87289" lon="4.70419">
        <ele>214</ele>
        <time>2018-06-12T10:16:11Z</time>
      </trkpt>
      <trkpt lat="45.87294" lon="4.70426">
        <ele>214</ele>
        <time>2018-06-12T10:16:12Z</time>
      </trkpt>
      <trkpt lat="45.87298" lon="4.70434">
        <ele>214</ele>
        <time>2018-06-12T10:16:13Z</time>
      </trkpt>
      <trkpt lat="45.87303" lon="4.70442">
        <ele>214</ele>
        <time>2018-06-12T10:16:14Z</time>
      </trkpt>
      <trkpt lat="45.87308" lon="4.70449">
        <ele>214</ele>
        <time>2018-06-12T10:16:15Z</time>
      </trkpt>
      <trkpt lat="45.87312" lon="4.70457">
        <ele>214</ele>
        <time>2018-06-12T10:16:16Z</time>
      </trkpt>
      <trkpt lat="45.87317" lon="4.70465">
        <ele>214</ele>
        <time>2018-06-12T10:16:17Z</time>
      </trkpt>
      <trkpt lat="45.87321" lon="4.70473">
        <ele>214</ele>
        <time>2018-06-12T10:16:18Z</time>
      </trkpt>
      <trkpt lat="45.87326" lon="4.70481">
        <ele>214</ele>
        <time>2018-06-12T10:16:19Z</time>
      </trkpt>
      <trkpt lat="45.8733" lon="4.70489">
        <ele>213</ele>
        <time>2018-06-12T10:16:20Z</time>
      </trkpt>
      <trkpt lat="45.87336" lon="4.70497">
        <ele>213</ele>
        <time>2018-06-12T10:16:21Z</time>
      </trkpt>
      <trkpt lat="45.87342" lon="4.70505">
        <ele>213</ele>
        <time>2018-06-12T10:16:22Z</time>
      </trkpt>
      <trkpt lat="45.87348" lon="4.70514">
        <ele>212</ele>
        <time>2018-06-12T10:16:23Z</time>
      </trkpt>
      <trkpt lat="45.87353" lon="4.70523">
        <ele>212</ele>
        <time>2018-06-12T10:16:24Z</time>
      </trkpt>
      <trkpt lat="45.87359" lon="4.70532">
        <ele>212</ele>
        <time>2018-06-12T10:16:25Z</time>
      </trkpt>
      <trkpt lat="45.87365" lon="4.70543">
        <ele>212</ele>
        <time>2018-06-12T10:16:26Z</time>
      </trkpt>
      <trkpt lat="45.87371" lon="4.70552">
        <ele>212</ele>
        <time>2018-06-12T10:16:27Z</time>
      </trkpt>
      <trkpt lat="45.87378" lon="4.7056">
        <ele>212</ele>
        <time>2018-06-12T10:16:28Z</time>
      </trkpt>
      <trkpt lat="45.87384" lon="4.70569">
        <ele>211</ele>
        <time>2018-06-12T10:16:29Z</time>
      </trkpt>
      <trkpt lat="45.87389" lon="4.70577">
        <ele>211</ele>
        <time>2018-06-12T10:16:30Z</time>
      </trkpt>
      <trkpt lat="45.87394" lon="4.70584">
        <ele>210</ele>
        <time>2018-06-12T10:16:31Z</time>
      </trkpt>
      <trkpt lat="45.87399" lon="4.70594">
        <ele>210</ele>
        <time>2018-06-12T10:16:32Z</time>
      </trkpt>
      <trkpt lat="45.87404" lon="4.70602">
        <ele>210</ele>
        <time>2018-06-12T10:16:33Z</time>
      </trkpt>
      <trkpt lat="45.87409" lon="4.7061">
        <ele>210</ele>
        <time>2018-06-12T10:16:34Z</time>
      </trkpt>
      <trkpt lat="45.87411" lon="4.7062">
        <ele>209</ele>
        <time>2018-06-12T10:16:35Z</time>
      </trkpt>
      <trkpt lat="45.87415" lon="4.70628">
        <ele>209</ele>
        <time>2018-06-12T10:16:36Z</time>
      </trkpt>
      <trkpt lat="45.87418" lon="4.7064">
        <ele>209</ele>
        <time>2018-06-12T10:16:37Z</time>
      </trkpt>
      <trkpt lat="45.87419" lon="4.70652">
        <ele>209</ele>
        <time>2018-06-12T10:16:38Z</time>
      </trkpt>
      <trkpt lat="45.8742" lon="4.70661">
        <ele>208</ele>
        <time>2018-06-12T10:16:39Z</time>
      </trkpt>
      <trkpt lat="45.87422" lon="4.7067">
        <ele>208</ele>
        <time>2018-06-12T10:16:40Z</time>
      </trkpt>
      <trkpt lat="45.87423" lon="4.70677">
        <ele>208</ele>
        <time>2018-06-12T10:16:41Z</time>
      </trkpt>
      <trkpt lat="45.87423" lon="4.70686">
        <ele>209</ele>
        <time>2018-06-12T10:16:42Z</time>
      </trkpt>
      <trkpt lat="45.87424" lon="4.70695">
        <ele>209</ele>
        <time>2018-06-12T10:16:43Z</time>
      </trkpt>
      <trkpt lat="45.87425" lon="4.70704">
        <ele>209</ele>
        <time>2018-06-12T10:16:44Z</time>
      </trkpt>
      <trkpt lat="45.87428" lon="4.70711">
        <ele>209</ele>
        <time>2018-06-12T10:16:45Z</time>
      </trkpt>
      <trkpt lat="45.87429" lon="4.70719">
        <ele>209</ele>
        <time>2018-06-12T10:16:46Z</time>
      </trkpt>
      <trkpt lat="45.87431" lon="4.70726">
        <ele>209</ele>
        <time>2018-06-12T10:16:47Z</time>
      </trkpt>
      <trkpt lat="45.87432" lon="4.70734">
        <ele>209</ele>
        <time>2018-06-12T10:16:48Z</time>
      </trkpt>
      <trkpt lat="45.87432" lon="4.70742">
        <ele>209</ele>
        <time>2018-06-12T10:16:49Z</time>
      </trkpt>
      <trkpt lat="45.87434" lon="4.70749">
        <ele>209</ele>
        <time>2018-06-12T10:16:50Z</time>
      </trkpt>
      <trkpt lat="45.87436" lon="4.70756">
        <ele>209</ele>
        <time>2018-06-12T10:16:51Z</time>
      </trkpt>
      <trkpt lat="45.87437" lon="4.70763">
        <ele>210</ele>
        <time>2018-06-12T10:16:52Z</time>
      </trkpt>
      <trkpt lat="45.87438" lon="4.7077">
        <ele>210</ele>
        <time>2018-06-12T10:16:53Z</time>
      </trkpt>
      <trkpt lat="45.87439" lon="4.70777">
        <ele>210</ele>
        <time>2018-06-12T10:16:54Z</time>
      </trkpt>
      <trkpt lat="45.87441" lon="4.70783">
        <ele>210</ele>
        <time>2018-06-12T10:16:55Z</time>
      </trkpt>
      <trkpt lat="45.87442" lon="4.7079">
        <ele>211</ele>
        <time>2018-06-12T10:16:56Z</time>
      </trkpt>
      <trkpt lat="45.87444" lon="4.70801">
        <ele>211</ele>
        <time>2018-06-12T10:16:58Z</time>
      </trkpt>
      <trkpt lat="45.87446" lon="4.70807">
        <ele>211</ele>
        <time>2018-06-12T10:16:59Z</time>
      </trkpt>
      <trkpt lat="45.87448" lon="4.70819">
        <ele>211</ele>
        <time>2018-06-12T10:17:01Z</time>
      </trkpt>
      <trkpt lat="45.87451" lon="4.70824">
        <ele>211</ele>
        <time>2018-06-12T10:17:02Z</time>
      </trkpt>
      <trkpt lat="45.87454" lon="4.70835">
        <ele>213</ele>
        <time>2018-06-12T10:17:04Z</time>
      </trkpt>
      <trkpt lat="45.87454" lon="4.70842">
        <ele>213</ele>
        <time>2018-06-12T10:17:05Z</time>
      </trkpt>
      <trkpt lat="45.87458" lon="4.70854">
        <ele>213</ele>
        <time>2018-06-12T10:17:07Z</time>
      </trkpt>
      <trkpt lat="45.87458" lon="4.70867">
        <ele>213</ele>
        <time>2018-06-12T10:17:08Z</time>
      </trkpt>
      <trkpt lat="45.8746" lon="4.70874">
        <ele>213</ele>
        <time>2018-06-12T10:17:09Z</time>
      </trkpt>
      <trkpt lat="45.87461" lon="4.70879">
        <ele>213</ele>
        <time>2018-06-12T10:17:10Z</time>
      </trkpt>
      <trkpt lat="45.87463" lon="4.70887">
        <ele>214</ele>
        <time>2018-06-12T10:17:11Z</time>
      </trkpt>
      <trkpt lat="45.87465" lon="4.70894">
        <ele>214</ele>
        <time>2018-06-12T10:17:12Z</time>
      </trkpt>
      <trkpt lat="45.87466" lon="4.70902">
        <ele>214</ele>
        <time>2018-06-12T10:17:13Z</time>
      </trkpt>
      <trkpt lat="45.87469" lon="4.7091">
        <ele>214</ele>
        <time>2018-06-12T10:17:14Z</time>
      </trkpt>
      <trkpt lat="45.8747" lon="4.70916">
        <ele>214</ele>
        <time>2018-06-12T10:17:15Z</time>
      </trkpt>
      <trkpt lat="45.87472" lon="4.70922">
        <ele>215</ele>
        <time>2018-06-12T10:17:16Z</time>
      </trkpt>
      <trkpt lat="45.87473" lon="4.70928">
        <ele>215</ele>
        <time>2018-06-12T10:17:17Z</time>
      </trkpt>
      <trkpt lat="45.87475" lon="4.70935">
        <ele>215</ele>
        <time>2018-06-12T10:17:18Z</time>
      </trkpt>
      <trkpt lat="45.87477" lon="4.70941">
        <ele>215</ele>
        <time>2018-06-12T10:17:19Z</time>
      </trkpt>
      <trkpt lat="45.87479" lon="4.70946">
        <ele>215</ele>
        <time>2018-06-12T10:17:20Z</time>
      </trkpt>
      <trkpt lat="45.8748" lon="4.70953">
        <ele>215</ele>
        <time>2018-06-12T10:17:21Z</time>
      </trkpt>
      <trkpt lat="45.87483" lon="4.70959">
        <ele>215</ele>
        <time>2018-06-12T10:17:22Z</time>
      </trkpt>
      <trkpt lat="45.87485" lon="4.70964">
        <ele>215</ele>
        <time>2018-06-12T10:17:23Z</time>
      </trkpt>
      <trkpt lat="45.87487" lon="4.70971">
        <ele>215</ele>
        <time>2018-06-12T10:17:24Z</time>
      </trkpt>
      <trkpt lat="45.87491" lon="4.70982">
        <ele>215</ele>
        <time>2018-06-12T10:17:26Z</time>
      </trkpt>
      <trkpt lat="45.87494" lon="4.70987">
        <ele>214</ele>
        <time>2018-06-12T10:17:27Z</time>
      </trkpt>
      <trkpt lat="45.87501" lon="4.70993">
        <ele>214</ele>
        <time>2018-06-12T10:17:29Z</time>
      </trkpt>
      <trkpt lat="45.87504" lon="4.70997">
        <ele>214</ele>
        <time>2018-06-12T10:17:30Z</time>
      </trkpt>
      <trkpt lat="45.8751" lon="4.71007">
        <ele>214</ele>
        <time>2018-06-12T10:17:32Z</time>
      </trkpt>
      <trkpt lat="45.87514" lon="4.71014">
        <ele>215</ele>
        <time>2018-06-12T10:17:33Z</time>
      </trkpt>
      <trkpt lat="45.87519" lon="4.71024">
        <ele>215</ele>
        <time>2018-06-12T10:17:35Z</time>
      </trkpt>
      <trkpt lat="45.87522" lon="4.71029">
        <ele>215</ele>
        <time>2018-06-12T10:17:36Z</time>
      </trkpt>
      <trkpt lat="45.87528" lon="4.71037">
        <ele>215</ele>
        <time>2018-06-12T10:17:38Z</time>
      </trkpt>
      <trkpt lat="45.87531" lon="4.71042">
        <ele>215</ele>
        <time>2018-06-12T10:17:39Z</time>
      </trkpt>
      <trkpt lat="45.87537" lon="4.7105">
        <ele>215</ele>
        <time>2018-06-12T10:17:43Z</time>
      </trkpt>
      <trkpt lat="45.87539" lon="4.71053">
        <ele>215</ele>
        <time>2018-06-12T10:17:44Z</time>
      </trkpt>
      <trkpt lat="45.87547" lon="4.7106">
        <ele>216</ele>
        <time>2018-06-12T10:17:47Z</time>
      </trkpt>
      <trkpt lat="45.87548" lon="4.71062">
        <ele>216</ele>
        <time>2018-06-12T10:17:48Z</time>
      </trkpt>
      <trkpt lat="45.87554" lon="4.7107">
        <ele>216</ele>
        <time>2018-06-12T10:18:14Z</time>
      </trkpt>
      <trkpt lat="45.87556" lon="4.71071">
        <ele>216</ele>
        <time>2018-06-12T10:18:15Z</time>
      </trkpt>
      <trkpt lat="45.87562" lon="4.71076">
        <ele>216</ele>
        <time>2018-06-12T10:18:18Z</time>
      </trkpt>
      <trkpt lat="45.87564" lon="4.71078">
        <ele>216</ele>
        <time>2018-06-12T10:18:19Z</time>
      </trkpt>
      <trkpt lat="45.87569" lon="4.71082">
        <ele>216</ele>
        <time>2018-06-12T10:18:21Z</time>
      </trkpt>
      <trkpt lat="45.87577" lon="4.71087">
        <ele>217</ele>
        <time>2018-06-12T10:18:22Z</time>
      </trkpt>
      <trkpt lat="45.87581" lon="4.71088">
        <ele>217</ele>
        <time>2018-06-12T10:18:24Z</time>
      </trkpt>
      <trkpt lat="45.87588" lon="4.71088">
        <ele>218</ele>
        <time>2018-06-12T10:18:25Z</time>
      </trkpt>
      <trkpt lat="45.87594" lon="4.71086">
        <ele>218</ele>
        <time>2018-06-12T10:18:27Z</time>
      </trkpt>
      <trkpt lat="45.87598" lon="4.71084">
        <ele>218</ele>
        <time>2018-06-12T10:18:28Z</time>
      </trkpt>
      <trkpt lat="45.87606" lon="4.7108">
        <ele>217</ele>
        <time>2018-06-12T10:18:30Z</time>
      </trkpt>
      <trkpt lat="45.8761" lon="4.71078">
        <ele>217</ele>
        <time>2018-06-12T10:18:31Z</time>
      </trkpt>
      <trkpt lat="45.87617" lon="4.71076">
        <ele>217</ele>
        <time>2018-06-12T10:18:33Z</time>
      </trkpt>
      <trkpt lat="45.87621" lon="4.71074">
        <ele>217</ele>
        <time>2018-06-12T10:18:34Z</time>
      </trkpt>
      <trkpt lat="45.87629" lon="4.71071">
        <ele>218</ele>
        <time>2018-06-12T10:18:36Z</time>
      </trkpt>
      <trkpt lat="45.87636" lon="4.7107">
        <ele>218</ele>
        <time>2018-06-12T10:18:37Z</time>
      </trkpt>
      <trkpt lat="45.8764" lon="4.71068">
        <ele>218</ele>
        <time>2018-06-12T10:18:38Z</time>
      </trkpt>
      <trkpt lat="45.87645" lon="4.71063">
        <ele>218</ele>
        <time>2018-06-12T10:18:39Z</time>
      </trkpt>
      <trkpt lat="45.87653" lon="4.7106">
        <ele>218</ele>
        <time>2018-06-12T10:18:41Z</time>
      </trkpt>
      <trkpt lat="45.87657" lon="4.7106">
        <ele>218</ele>
        <time>2018-06-12T10:18:42Z</time>
      </trkpt>
      <trkpt lat="45.87664" lon="4.71057">
        <ele>218</ele>
        <time>2018-06-12T10:18:44Z</time>
      </trkpt>
      <trkpt lat="45.8767" lon="4.71054">
        <ele>220</ele>
        <time>2018-06-12T10:18:45Z</time>
      </trkpt>
      <trkpt lat="45.87677" lon="4.71054">
        <ele>220</ele>
        <time>2018-06-12T10:18:47Z</time>
      </trkpt>
      <trkpt lat="45.87682" lon="4.71052">
        <ele>220</ele>
        <time>2018-06-12T10:18:48Z</time>
      </trkpt>
      <trkpt lat="45.8769" lon="4.71049">
        <ele>220</ele>
        <time>2018-06-12T10:18:50Z</time>
      </trkpt>
      <trkpt lat="45.87695" lon="4.71045">
        <ele>220</ele>
        <time>2018-06-12T10:18:51Z</time>
      </trkpt>
      <trkpt lat="45.87702" lon="4.71042">
        <ele>220</ele>
        <time>2018-06-12T10:18:53Z</time>
      </trkpt>
      <trkpt lat="45.87705" lon="4.71041">
        <ele>220</ele>
        <time>2018-06-12T10:18:54Z</time>
      </trkpt>
      <trkpt lat="45.87712" lon="4.7104">
        <ele>220</ele>
        <time>2018-06-12T10:18:56Z</time>
      </trkpt>
      <trkpt lat="45.87716" lon="4.71039">
        <ele>220</ele>
        <time>2018-06-12T10:18:57Z</time>
      </trkpt>
      <trkpt lat="45.87725" lon="4.71036">
        <ele>220</ele>
        <time>2018-06-12T10:18:59Z</time>
      </trkpt>
      <trkpt lat="45.87731" lon="4.71035">
        <ele>220</ele>
        <time>2018-06-12T10:19:00Z</time>
      </trkpt>
      <trkpt lat="45.87735" lon="4.71034">
        <ele>220</ele>
        <time>2018-06-12T10:19:01Z</time>
      </trkpt>
      <trkpt lat="45.87742" lon="4.71032">
        <ele>220</ele>
        <time>2018-06-12T10:19:02Z</time>
      </trkpt>
      <trkpt lat="45.87749" lon="4.71029">
        <ele>220</ele>
        <time>2018-06-12T10:19:04Z</time>
      </trkpt>
      <trkpt lat="45.87752" lon="4.71029">
        <ele>222</ele>
        <time>2018-06-12T10:19:05Z</time>
      </trkpt>
      <trkpt lat="45.87759" lon="4.71025">
        <ele>222</ele>
        <time>2018-06-12T10:19:07Z</time>
      </trkpt>
      <trkpt lat="45.87764" lon="4.71023">
        <ele>222</ele>
        <time>2018-06-12T10:19:08Z</time>
      </trkpt>
      <trkpt lat="45.87769" lon="4.71021">
        <ele>222</ele>
        <time>2018-06-12T10:19:09Z</time>
      </trkpt>
      <trkpt lat="45.87774" lon="4.7102">
        <ele>222</ele>
        <time>2018-06-12T10:19:10Z</time>
      </trkpt>
      <trkpt lat="45.87777" lon="4.71018">
        <ele>222</ele>
        <time>2018-06-12T10:19:11Z</time>
      </trkpt>
      <trkpt lat="45.87783" lon="4.71015">
        <ele>222</ele>
        <time>2018-06-12T10:19:12Z</time>
      </trkpt>
      <trkpt lat="45.87787" lon="4.71013">
        <ele>223</ele>
        <time>2018-06-12T10:19:13Z</time>
      </trkpt>
      <trkpt lat="45.87792" lon="4.71011">
        <ele>223</ele>
        <time>2018-06-12T10:19:14Z</time>
      </trkpt>
      <trkpt lat="45.87798" lon="4.71008">
        <ele>223</ele>
        <time>2018-06-12T10:19:16Z</time>
      </trkpt>
      <trkpt lat="45.87804" lon="4.71006">
        <ele>223</ele>
        <time>2018-06-12T10:19:17Z</time>
      </trkpt>
      <trkpt lat="45.87809" lon="4.71005">
        <ele>223</ele>
        <time>2018-06-12T10:19:18Z</time>
      </trkpt>
      <trkpt lat="45.87813" lon="4.71005">
        <ele>223</ele>
        <time>2018-06-12T10:19:19Z</time>
      </trkpt>
      <trkpt lat="45.87818" lon="4.71001">
        <ele>223</ele>
        <time>2018-06-12T10:19:20Z</time>
      </trkpt>
      <trkpt lat="45.87822" lon="4.71">
        <ele>223</ele>
        <time>2018-06-12T10:19:21Z</time>
      </trkpt>
      <trkpt lat="45.87828" lon="4.70997">
        <ele>224</ele>
        <time>2018-06-12T10:19:23Z</time>
      </trkpt>
      <trkpt lat="45.87832" lon="4.70995">
        <ele>224</ele>
        <time>2018-06-12T10:19:24Z</time>
      </trkpt>
      <trkpt lat="45.8784" lon="4.70992">
        <ele>224</ele>
        <time>2018-06-12T10:19:26Z</time>
      </trkpt>
      <trkpt lat="45.87844" lon="4.7099">
        <ele>224</ele>
        <time>2018-06-12T10:19:27Z</time>
      </trkpt>
      <trkpt lat="45.87852" lon="4.70986">
        <ele>224</ele>
        <time>2018-06-12T10:19:29Z</time>
      </trkpt>
      <trkpt lat="45.87856" lon="4.70983">
        <ele>224</ele>
        <time>2018-06-12T10:19:30Z</time>
      </trkpt>
      <trkpt lat="45.8786" lon="4.70981">
        <ele>224</ele>
        <time>2018-06-12T10:19:31Z</time>
      </trkpt>
      <trkpt lat="45.87865" lon="4.70978">
        <ele>224</ele>
        <time>2018-06-12T10:19:32Z</time>
      </trkpt>
      <trkpt lat="45.87871" lon="4.70974">
        <ele>225</ele>
        <time>2018-06-12T10:19:34Z</time>
      </trkpt>
      <trkpt lat="45.87874" lon="4.70971">
        <ele>225</ele>
        <time>2018-06-12T10:19:35Z</time>
      </trkpt>
      <trkpt lat="45.87882" lon="4.70966">
        <ele>225</ele>
        <time>2018-06-12T10:19:37Z</time>
      </trkpt>
      <trkpt lat="45.87885" lon="4.70963">
        <ele>225</ele>
        <time>2018-06-12T10:19:38Z</time>
      </trkpt>
      <trkpt lat="45.87893" lon="4.70956">
        <ele>225</ele>
        <time>2018-06-12T10:19:40Z</time>
      </trkpt>
      <trkpt lat="45.87896" lon="4.70955">
        <ele>225</ele>
        <time>2018-06-12T10:19:41Z</time>
      </trkpt>
      <trkpt lat="45.87899" lon="4.70953">
        <ele>225</ele>
        <time>2018-06-12T10:19:43Z</time>
      </trkpt>
      <trkpt lat="45.87907" lon="4.70948">
        <ele>225</ele>
        <time>2018-06-12T10:19:44Z</time>
      </trkpt>
      <trkpt lat="45.87913" lon="4.70943">
        <ele>224</ele>
        <time>2018-06-12T10:19:45Z</time>
      </trkpt>
      <trkpt lat="45.87918" lon="4.7094">
        <ele>225</ele>
        <time>2018-06-12T10:19:46Z</time>
      </trkpt>
      <trkpt lat="45.87925" lon="4.70936">
        <ele>225</ele>
        <time>2018-06-12T10:19:49Z</time>
      </trkpt>
      <trkpt lat="45.87927" lon="4.70934">
        <ele>225</ele>
        <time>2018-06-12T10:19:50Z</time>
      </trkpt>
      <trkpt lat="45.87933" lon="4.7093">
        <ele>225</ele>
        <time>2018-06-12T10:19:51Z</time>
      </trkpt>
      <trkpt lat="45.87935" lon="4.70927">
        <ele>225</ele>
        <time>2018-06-12T10:19:52Z</time>
      </trkpt>
      <trkpt lat="45.87941" lon="4.70924">
        <ele>225</ele>
        <time>2018-06-12T10:19:53Z</time>
      </trkpt>
      <trkpt lat="45.87946" lon="4.70921">
        <ele>225</ele>
        <time>2018-06-12T10:19:54Z</time>
      </trkpt>
      <trkpt lat="45.87953" lon="4.70915">
        <ele>224</ele>
        <time>2018-06-12T10:19:56Z</time>
      </trkpt>
      <trkpt lat="45.87956" lon="4.70912">
        <ele>224</ele>
        <time>2018-06-12T10:19:57Z</time>
      </trkpt>
      <trkpt lat="45.8796" lon="4.70909">
        <ele>225</ele>
        <time>2018-06-12T10:19:58Z</time>
      </trkpt>
      <trkpt lat="45.87965" lon="4.70905">
        <ele>225</ele>
        <time>2018-06-12T10:19:59Z</time>
      </trkpt>
      <trkpt lat="45.8797" lon="4.70903">
        <ele>225</ele>
        <time>2018-06-12T10:20:00Z</time>
      </trkpt>
      <trkpt lat="45.87974" lon="4.70901">
        <ele>225</ele>
        <time>2018-06-12T10:20:01Z</time>
      </trkpt>
      <trkpt lat="45.87977" lon="4.70898">
        <ele>225</ele>
        <time>2018-06-12T10:20:02Z</time>
      </trkpt>
      <trkpt lat="45.87983" lon="4.70895">
        <ele>225</ele>
        <time>2018-06-12T10:20:03Z</time>
      </trkpt>
      <trkpt lat="45.87987" lon="4.70892">
        <ele>225</ele>
        <time>2018-06-12T10:20:05Z</time>
      </trkpt>
      <trkpt lat="45.87994" lon="4.70887">
        <ele>225</ele>
        <time>2018-06-12T10:20:06Z</time>
      </trkpt>
      <trkpt lat="45.88002" lon="4.70881">
        <ele>226</ele>
        <time>2018-06-12T10:20:08Z</time>
      </trkpt>
      <trkpt lat="45.88005" lon="4.70879">
        <ele>226</ele>
        <time>2018-06-12T10:20:09Z</time>
      </trkpt>
      <trkpt lat="45.88012" lon="4.70874">
        <ele>226</ele>
        <time>2018-06-12T10:20:11Z</time>
      </trkpt>
      <trkpt lat="45.88016" lon="4.70872">
        <ele>226</ele>
        <time>2018-06-12T10:20:12Z</time>
      </trkpt>
      <trkpt lat="45.88023" lon="4.70868">
        <ele>226</ele>
        <time>2018-06-12T10:20:14Z</time>
      </trkpt>
      <trkpt lat="45.88028" lon="4.70867">
        <ele>226</ele>
        <time>2018-06-12T10:20:15Z</time>
      </trkpt>
      <trkpt lat="45.88035" lon="4.70863">
        <ele>226</ele>
        <time>2018-06-12T10:20:17Z</time>
      </trkpt>
      <trkpt lat="45.88039" lon="4.7086">
        <ele>227</ele>
        <time>2018-06-12T10:20:18Z</time>
      </trkpt>
      <trkpt lat="45.88046" lon="4.70856">
        <ele>227</ele>
        <time>2018-06-12T10:20:20Z</time>
      </trkpt>
      <trkpt lat="45.88051" lon="4.70853">
        <ele>227</ele>
        <time>2018-06-12T10:20:21Z</time>
      </trkpt>
      <trkpt lat="45.88058" lon="4.70848">
        <ele>227</ele>
        <time>2018-06-12T10:20:23Z</time>
      </trkpt>
      <trkpt lat="45.88062" lon="4.70846">
        <ele>227</ele>
        <time>2018-06-12T10:20:24Z</time>
      </trkpt>
      <trkpt lat="45.8807" lon="4.7084">
        <ele>228</ele>
        <time>2018-06-12T10:20:26Z</time>
      </trkpt>
      <trkpt lat="45.88071" lon="4.70839">
        <ele>228</ele>
        <time>2018-06-12T10:20:27Z</time>
      </trkpt>
      <trkpt lat="45.88077" lon="4.70837">
        <ele>228</ele>
        <time>2018-06-12T10:20:28Z</time>
      </trkpt>
      <trkpt lat="45.88082" lon="4.7084">
        <ele>228</ele>
        <time>2018-06-12T10:20:29Z</time>
      </trkpt>
      <trkpt lat="45.88086" lon="4.7084">
        <ele>229</ele>
        <time>2018-06-12T10:20:30Z</time>
      </trkpt>
      <trkpt lat="45.88091" lon="4.70842">
        <ele>229</ele>
        <time>2018-06-12T10:20:31Z</time>
      </trkpt>
      <trkpt lat="45.88095" lon="4.70844">
        <ele>229</ele>
        <time>2018-06-12T10:20:32Z</time>
      </trkpt>
      <trkpt lat="45.881" lon="4.70844">
        <ele>229</ele>
        <time>2018-06-12T10:20:33Z</time>
      </trkpt>
      <trkpt lat="45.88108" lon="4.70838">
        <ele>229</ele>
        <time>2018-06-12T10:20:35Z</time>
      </trkpt>
      <trkpt lat="45.8811" lon="4.70833">
        <ele>230</ele>
        <time>2018-06-12T10:20:36Z</time>
      </trkpt>
      <trkpt lat="45.88115" lon="4.70823">
        <ele>230</ele>
        <time>2018-06-12T10:20:38Z</time>
      </trkpt>
      <trkpt lat="45.88115" lon="4.70821">
        <ele>230</ele>
        <time>2018-06-12T10:20:39Z</time>
      </trkpt>
      <trkpt lat="45.88119" lon="4.70813">
        <ele>230</ele>
        <time>2018-06-12T10:20:41Z</time>
      </trkpt>
      <trkpt lat="45.88122" lon="4.70807">
        <ele>230</ele>
        <time>2018-06-12T10:20:42Z</time>
      </trkpt>
      <trkpt lat="45.88127" lon="4.70803">
        <ele>230</ele>
        <time>2018-06-12T10:20:43Z</time>
      </trkpt>
      <trkpt lat="45.88131" lon="4.70799">
        <ele>231</ele>
        <time>2018-06-12T10:20:44Z</time>
      </trkpt>
      <trkpt lat="45.88137" lon="4.70793">
        <ele>231</ele>
        <time>2018-06-12T10:20:46Z</time>
      </trkpt>
      <trkpt lat="45.8814" lon="4.70789">
        <ele>231</ele>
        <time>2018-06-12T10:20:47Z</time>
      </trkpt>
      <trkpt lat="45.88147" lon="4.70783">
        <ele>231</ele>
        <time>2018-06-12T10:20:49Z</time>
      </trkpt>
      <trkpt lat="45.8815" lon="4.70779">
        <ele>231</ele>
        <time>2018-06-12T10:20:50Z</time>
      </trkpt>
      <trkpt lat="45.88157" lon="4.70774">
        <ele>231</ele>
        <time>2018-06-12T10:20:52Z</time>
      </trkpt>
      <trkpt lat="45.8816" lon="4.70771">
        <ele>232</ele>
        <time>2018-06-12T10:20:53Z</time>
      </trkpt>
      <trkpt lat="45.88166" lon="4.70767">
        <ele>232</ele>
        <time>2018-06-12T10:20:55Z</time>
      </trkpt>
      <trkpt lat="45.88171" lon="4.70764">
        <ele>232</ele>
        <time>2018-06-12T10:20:56Z</time>
      </trkpt>
      <trkpt lat="45.88179" lon="4.70759">
        <ele>232</ele>
        <time>2018-06-12T10:20:58Z</time>
      </trkpt>
      <trkpt lat="45.88182" lon="4.70756">
        <ele>232</ele>
        <time>2018-06-12T10:20:59Z</time>
      </trkpt>
      <trkpt lat="45.88189" lon="4.70751">
        <ele>232</ele>
        <time>2018-06-12T10:21:01Z</time>
      </trkpt>
      <trkpt lat="45.88193" lon="4.70748">
        <ele>235</ele>
        <time>2018-06-12T10:21:02Z</time>
      </trkpt>
      <trkpt lat="45.882" lon="4.70743">
        <ele>235</ele>
        <time>2018-06-12T10:21:04Z</time>
      </trkpt>
      <trkpt lat="45.88204" lon="4.70741">
        <ele>235</ele>
        <time>2018-06-12T10:21:05Z</time>
      </trkpt>
      <trkpt lat="45.88208" lon="4.70738">
        <ele>235</ele>
        <time>2018-06-12T10:21:06Z</time>
      </trkpt>
      <trkpt lat="45.88212" lon="4.70735">
        <ele>235</ele>
        <time>2018-06-12T10:21:07Z</time>
      </trkpt>
      <trkpt lat="45.8822" lon="4.70729">
        <ele>235</ele>
        <time>2018-06-12T10:21:09Z</time>
      </trkpt>
      <trkpt lat="45.88224" lon="4.70726">
        <ele>235</ele>
        <time>2018-06-12T10:21:10Z</time>
      </trkpt>
      <trkpt lat="45.88232" lon="4.7072">
        <ele>235</ele>
        <time>2018-06-12T10:21:12Z</time>
      </trkpt>
      <trkpt lat="45.88236" lon="4.70718">
        <ele>235</ele>
        <time>2018-06-12T10:21:13Z</time>
      </trkpt>
      <trkpt lat="45.88243" lon="4.70712">
        <ele>236</ele>
        <time>2018-06-12T10:21:15Z</time>
      </trkpt>
      <trkpt lat="45.88247" lon="4.70709">
        <ele>236</ele>
        <time>2018-06-12T10:21:16Z</time>
      </trkpt>
      <trkpt lat="45.88254" lon="4.70703">
        <ele>235</ele>
        <time>2018-06-12T10:21:18Z</time>
      </trkpt>
      <trkpt lat="45.88258" lon="4.707">
        <ele>235</ele>
        <time>2018-06-12T10:21:19Z</time>
      </trkpt>
      <trkpt lat="45.88263" lon="4.70697">
        <ele>235</ele>
        <time>2018-06-12T10:21:20Z</time>
      </trkpt>
      <trkpt lat="45.88267" lon="4.70694">
        <ele>235</ele>
        <time>2018-06-12T10:21:21Z</time>
      </trkpt>
      <trkpt lat="45.88271" lon="4.70691">
        <ele>235</ele>
        <time>2018-06-12T10:21:22Z</time>
      </trkpt>
      <trkpt lat="45.88275" lon="4.70688">
        <ele>235</ele>
        <time>2018-06-12T10:21:23Z</time>
      </trkpt>
      <trkpt lat="45.88283" lon="4.70682">
        <ele>235</ele>
        <time>2018-06-12T10:21:25Z</time>
      </trkpt>
      <trkpt lat="45.88285" lon="4.7068">
        <ele>235</ele>
        <time>2018-06-12T10:21:26Z</time>
      </trkpt>
      <trkpt lat="45.8829" lon="4.70677">
        <ele>235</ele>
        <time>2018-06-12T10:21:27Z</time>
      </trkpt>
      <trkpt lat="45.88296" lon="4.70672">
        <ele>235</ele>
        <time>2018-06-12T10:21:28Z</time>
      </trkpt>
      <trkpt lat="45.88303" lon="4.70666">
        <ele>238</ele>
        <time>2018-06-12T10:21:30Z</time>
      </trkpt>
      <trkpt lat="45.88308" lon="4.70663">
        <ele>238</ele>
        <time>2018-06-12T10:21:31Z</time>
      </trkpt>
      <trkpt lat="45.88312" lon="4.70658">
        <ele>238</ele>
        <time>2018-06-12T10:21:32Z</time>
      </trkpt>
      <trkpt lat="45.88316" lon="4.70655">
        <ele>238</ele>
        <time>2018-06-12T10:21:33Z</time>
      </trkpt>
      <trkpt lat="45.88324" lon="4.7065">
        <ele>238</ele>
        <time>2018-06-12T10:21:35Z</time>
      </trkpt>
      <trkpt lat="45.88327" lon="4.70648">
        <ele>238</ele>
        <time>2018-06-12T10:21:36Z</time>
      </trkpt>
      <trkpt lat="45.88335" lon="4.70643">
        <ele>235</ele>
        <time>2018-06-12T10:21:38Z</time>
      </trkpt>
      <trkpt lat="45.88339" lon="4.7064">
        <ele>235</ele>
        <time>2018-06-12T10:21:39Z</time>
      </trkpt>
      <trkpt lat="45.88344" lon="4.70636">
        <ele>235</ele>
        <time>2018-06-12T10:21:40Z</time>
      </trkpt>
      <trkpt lat="45.88348" lon="4.70633">
        <ele>235</ele>
        <time>2018-06-12T10:21:41Z</time>
      </trkpt>
      <trkpt lat="45.88352" lon="4.7063">
        <ele>235</ele>
        <time>2018-06-12T10:21:42Z</time>
      </trkpt>
      <trkpt lat="45.88356" lon="4.70627">
        <ele>235</ele>
        <time>2018-06-12T10:21:43Z</time>
      </trkpt>
      <trkpt lat="45.8836" lon="4.70624">
        <ele>235</ele>
        <time>2018-06-12T10:21:44Z</time>
      </trkpt>
      <trkpt lat="45.88365" lon="4.7062">
        <ele>235</ele>
        <time>2018-06-12T10:21:45Z</time>
      </trkpt>
      <trkpt lat="45.8837" lon="4.70617">
        <ele>235</ele>
        <time>2018-06-12T10:21:46Z</time>
      </trkpt>
      <trkpt lat="45.88374" lon="4.70614">
        <ele>235</ele>
        <time>2018-06-12T10:21:47Z</time>
      </trkpt>
      <trkpt lat="45.88378" lon="4.70611">
        <ele>235</ele>
        <time>2018-06-12T10:21:48Z</time>
      </trkpt>
      <trkpt lat="45.88383" lon="4.70607">
        <ele>235</ele>
        <time>2018-06-12T10:21:49Z</time>
      </trkpt>
      <trkpt lat="45.88388" lon="4.70602">
        <ele>235</ele>
        <time>2018-06-12T10:21:50Z</time>
      </trkpt>
      <trkpt lat="45.88392" lon="4.70599">
        <ele>235</ele>
        <time>2018-06-12T10:21:51Z</time>
      </trkpt>
      <trkpt lat="45.88397" lon="4.70595">
        <ele>235</ele>
        <time>2018-06-12T10:21:52Z</time>
      </trkpt>
      <trkpt lat="45.88402" lon="4.70591">
        <ele>235</ele>
        <time>2018-06-12T10:21:53Z</time>
      </trkpt>
      <trkpt lat="45.88407" lon="4.70587">
        <ele>235</ele>
        <time>2018-06-12T10:21:54Z</time>
      </trkpt>
      <trkpt lat="45.88413" lon="4.70582">
        <ele>236</ele>
        <time>2018-06-12T10:21:55Z</time>
      </trkpt>
      <trkpt lat="45.88418" lon="4.70578">
        <ele>235</ele>
        <time>2018-06-12T10:21:56Z</time>
      </trkpt>
      <trkpt lat="45.88423" lon="4.70574">
        <ele>235</ele>
        <time>2018-06-12T10:21:57Z</time>
      </trkpt>
      <trkpt lat="45.88429" lon="4.70572">
        <ele>235</ele>
        <time>2018-06-12T10:21:58Z</time>
      </trkpt>
      <trkpt lat="45.88434" lon="4.70568">
        <ele>235</ele>
        <time>2018-06-12T10:21:59Z</time>
      </trkpt>
      <trkpt lat="45.88439" lon="4.70564">
        <ele>234</ele>
        <time>2018-06-12T10:22:00Z</time>
      </trkpt>
      <trkpt lat="45.88443" lon="4.70563">
        <ele>234</ele>
        <time>2018-06-12T10:22:01Z</time>
      </trkpt>
      <trkpt lat="45.88448" lon="4.7056">
        <ele>234</ele>
        <time>2018-06-12T10:22:02Z</time>
      </trkpt>
      <trkpt lat="45.88453" lon="4.70555">
        <ele>234</ele>
        <time>2018-06-12T10:22:03Z</time>
      </trkpt>
      <trkpt lat="45.88457" lon="4.70552">
        <ele>234</ele>
        <time>2018-06-12T10:22:04Z</time>
      </trkpt>
      <trkpt lat="45.88461" lon="4.70548">
        <ele>234</ele>
        <time>2018-06-12T10:22:05Z</time>
      </trkpt>
      <trkpt lat="45.88467" lon="4.70544">
        <ele>234</ele>
        <time>2018-06-12T10:22:06Z</time>
      </trkpt>
      <trkpt lat="45.88471" lon="4.70539">
        <ele>234</ele>
        <time>2018-06-12T10:22:07Z</time>
      </trkpt>
      <trkpt lat="45.88475" lon="4.70536">
        <ele>234</ele>
        <time>2018-06-12T10:22:08Z</time>
      </trkpt>
      <trkpt lat="45.8848" lon="4.70531">
        <ele>234</ele>
        <time>2018-06-12T10:22:09Z</time>
      </trkpt>
      <trkpt lat="45.88484" lon="4.70528">
        <ele>234</ele>
        <time>2018-06-12T10:22:10Z</time>
      </trkpt>
      <trkpt lat="45.88488" lon="4.70524">
        <ele>234</ele>
        <time>2018-06-12T10:22:11Z</time>
      </trkpt>
      <trkpt lat="45.88493" lon="4.7052">
        <ele>234</ele>
        <time>2018-06-12T10:22:12Z</time>
      </trkpt>
      <trkpt lat="45.88498" lon="4.70516">
        <ele>233</ele>
        <time>2018-06-12T10:22:13Z</time>
      </trkpt>
      <trkpt lat="45.88503" lon="4.70512">
        <ele>231</ele>
        <time>2018-06-12T10:22:14Z</time>
      </trkpt>
      <trkpt lat="45.8851" lon="4.70509">
        <ele>231</ele>
        <time>2018-06-12T10:22:15Z</time>
      </trkpt>
      <trkpt lat="45.88515" lon="4.70506">
        <ele>231</ele>
        <time>2018-06-12T10:22:16Z</time>
      </trkpt>
      <trkpt lat="45.8852" lon="4.70501">
        <ele>230</ele>
        <time>2018-06-12T10:22:17Z</time>
      </trkpt>
      <trkpt lat="45.88526" lon="4.70498">
        <ele>232</ele>
        <time>2018-06-12T10:22:18Z</time>
      </trkpt>
      <trkpt lat="45.88531" lon="4.70492">
        <ele>232</ele>
        <time>2018-06-12T10:22:19Z</time>
      </trkpt>
      <trkpt lat="45.88536" lon="4.70487">
        <ele>232</ele>
        <time>2018-06-12T10:22:20Z</time>
      </trkpt>
      <trkpt lat="45.8854" lon="4.70482">
        <ele>232</ele>
        <time>2018-06-12T10:22:21Z</time>
      </trkpt>
      <trkpt lat="45.88545" lon="4.70477">
        <ele>232</ele>
        <time>2018-06-12T10:22:22Z</time>
      </trkpt>
      <trkpt lat="45.88549" lon="4.70472">
        <ele>232</ele>
        <time>2018-06-12T10:22:23Z</time>
      </trkpt>
      <trkpt lat="45.88555" lon="4.70468">
        <ele>232</ele>
        <time>2018-06-12T10:22:24Z</time>
      </trkpt>
      <trkpt lat="45.88562" lon="4.70462">
        <ele>232</ele>
        <time>2018-06-12T10:22:25Z</time>
      </trkpt>
      <trkpt lat="45.88567" lon="4.70458">
        <ele>232</ele>
        <time>2018-06-12T10:22:26Z</time>
      </trkpt>
      <trkpt lat="45.88573" lon="4.70454">
        <ele>232</ele>
        <time>2018-06-12T10:22:27Z</time>
      </trkpt>
      <trkpt lat="45.88578" lon="4.70452">
        <ele>232</ele>
        <time>2018-06-12T10:22:28Z</time>
      </trkpt>
      <trkpt lat="45.88583" lon="4.70448">
        <ele>229</ele>
        <time>2018-06-12T10:22:29Z</time>
      </trkpt>
      <trkpt lat="45.88589" lon="4.70444">
        <ele>229</ele>
        <time>2018-06-12T10:22:30Z</time>
      </trkpt>
      <trkpt lat="45.88593" lon="4.70439">
        <ele>229</ele>
        <time>2018-06-12T10:22:31Z</time>
      </trkpt>
      <trkpt lat="45.88599" lon="4.70435">
        <ele>229</ele>
        <time>2018-06-12T10:22:32Z</time>
      </trkpt>
      <trkpt lat="45.88604" lon="4.70431">
        <ele>229</ele>
        <time>2018-06-12T10:22:33Z</time>
      </trkpt>
      <trkpt lat="45.8861" lon="4.70426">
        <ele>229</ele>
        <time>2018-06-12T10:22:34Z</time>
      </trkpt>
      <trkpt lat="45.88616" lon="4.7042">
        <ele>228</ele>
        <time>2018-06-12T10:22:35Z</time>
      </trkpt>
      <trkpt lat="45.88622" lon="4.70414">
        <ele>231</ele>
        <time>2018-06-12T10:22:36Z</time>
      </trkpt>
      <trkpt lat="45.88628" lon="4.70411">
        <ele>231</ele>
        <time>2018-06-12T10:22:37Z</time>
      </trkpt>
      <trkpt lat="45.88633" lon="4.70405">
        <ele>230</ele>
        <time>2018-06-12T10:22:38Z</time>
      </trkpt>
      <trkpt lat="45.8864" lon="4.704">
        <ele>230</ele>
        <time>2018-06-12T10:22:39Z</time>
      </trkpt>
      <trkpt lat="45.88644" lon="4.70396">
        <ele>230</ele>
        <time>2018-06-12T10:22:40Z</time>
      </trkpt>
      <trkpt lat="45.88648" lon="4.70393">
        <ele>230</ele>
        <time>2018-06-12T10:22:41Z</time>
      </trkpt>
      <trkpt lat="45.88653" lon="4.7039">
        <ele>230</ele>
        <time>2018-06-12T10:22:42Z</time>
      </trkpt>
      <trkpt lat="45.88657" lon="4.70386">
        <ele>230</ele>
        <time>2018-06-12T10:22:43Z</time>
      </trkpt>
      <trkpt lat="45.88661" lon="4.70386">
        <ele>230</ele>
        <time>2018-06-12T10:22:44Z</time>
      </trkpt>
      <trkpt lat="45.88667" lon="4.70382">
        <ele>230</ele>
        <time>2018-06-12T10:22:45Z</time>
      </trkpt>
      <trkpt lat="45.88672" lon="4.7038">
        <ele>228</ele>
        <time>2018-06-12T10:22:46Z</time>
      </trkpt>
      <trkpt lat="45.88676" lon="4.70375">
        <ele>228</ele>
        <time>2018-06-12T10:22:47Z</time>
      </trkpt>
      <trkpt lat="45.88682" lon="4.70371">
        <ele>229</ele>
        <time>2018-06-12T10:22:48Z</time>
      </trkpt>
      <trkpt lat="45.88687" lon="4.70367">
        <ele>229</ele>
        <time>2018-06-12T10:22:49Z</time>
      </trkpt>
      <trkpt lat="45.88692" lon="4.70362">
        <ele>229</ele>
        <time>2018-06-12T10:22:50Z</time>
      </trkpt>
      <trkpt lat="45.88698" lon="4.70358">
        <ele>229</ele>
        <time>2018-06-12T10:22:51Z</time>
      </trkpt>
      <trkpt lat="45.88703" lon="4.70356">
        <ele>229</ele>
        <time>2018-06-12T10:22:52Z</time>
      </trkpt>
      <trkpt lat="45.88707" lon="4.70353">
        <ele>229</ele>
        <time>2018-06-12T10:22:53Z</time>
      </trkpt>
      <trkpt lat="45.88713" lon="4.70348">
        <ele>229</ele>
        <time>2018-06-12T10:22:54Z</time>
      </trkpt>
      <trkpt lat="45.88719" lon="4.70343">
        <ele>229</ele>
        <time>2018-06-12T10:22:55Z</time>
      </trkpt>
      <trkpt lat="45.88724" lon="4.7034">
        <ele>229</ele>
        <time>2018-06-12T10:22:56Z</time>
      </trkpt>
      <trkpt lat="45.88728" lon="4.70335">
        <ele>229</ele>
        <time>2018-06-12T10:22:57Z</time>
      </trkpt>
      <trkpt lat="45.88734" lon="4.70331">
        <ele>232</ele>
        <time>2018-06-12T10:22:58Z</time>
      </trkpt>
      <trkpt lat="45.8874" lon="4.70326">
        <ele>232</ele>
        <time>2018-06-12T10:22:59Z</time>
      </trkpt>
      <trkpt lat="45.88745" lon="4.7032">
        <ele>232</ele>
        <time>2018-06-12T10:23:00Z</time>
      </trkpt>
      <trkpt lat="45.88751" lon="4.70315">
        <ele>232</ele>
        <time>2018-06-12T10:23:01Z</time>
      </trkpt>
      <trkpt lat="45.88757" lon="4.70311">
        <ele>232</ele>
        <time>2018-06-12T10:23:02Z</time>
      </trkpt>
      <trkpt lat="45.88762" lon="4.70307">
        <ele>233</ele>
        <time>2018-06-12T10:23:03Z</time>
      </trkpt>
      <trkpt lat="45.88767" lon="4.70302">
        <ele>233</ele>
        <time>2018-06-12T10:23:04Z</time>
      </trkpt>
      <trkpt lat="45.88772" lon="4.70298">
        <ele>233</ele>
        <time>2018-06-12T10:23:05Z</time>
      </trkpt>
      <trkpt lat="45.88778" lon="4.70294">
        <ele>234</ele>
        <time>2018-06-12T10:23:06Z</time>
      </trkpt>
      <trkpt lat="45.88783" lon="4.70291">
        <ele>234</ele>
        <time>2018-06-12T10:23:07Z</time>
      </trkpt>
      <trkpt lat="45.88789" lon="4.70287">
        <ele>234</ele>
        <time>2018-06-12T10:23:08Z</time>
      </trkpt>
      <trkpt lat="45.88794" lon="4.70281">
        <ele>234</ele>
        <time>2018-06-12T10:23:09Z</time>
      </trkpt>
      <trkpt lat="45.88799" lon="4.70276">
        <ele>234</ele>
        <time>2018-06-12T10:23:10Z</time>
      </trkpt>
      <trkpt lat="45.88805" lon="4.7027">
        <ele>235</ele>
        <time>2018-06-12T10:23:11Z</time>
      </trkpt>
      <trkpt lat="45.8881" lon="4.70266">
        <ele>235</ele>
        <time>2018-06-12T10:23:12Z</time>
      </trkpt>
      <trkpt lat="45.88814" lon="4.70263">
        <ele>235</ele>
        <time>2018-06-12T10:23:13Z</time>
      </trkpt>
      <trkpt lat="45.88822" lon="4.70258">
        <ele>236</ele>
        <time>2018-06-12T10:23:15Z</time>
      </trkpt>
      <trkpt lat="45.88827" lon="4.70255">
        <ele>236</ele>
        <time>2018-06-12T10:23:16Z</time>
      </trkpt>
      <trkpt lat="45.88831" lon="4.70251">
        <ele>237</ele>
        <time>2018-06-12T10:23:17Z</time>
      </trkpt>
      <trkpt lat="45.88836" lon="4.70247">
        <ele>237</ele>
        <time>2018-06-12T10:23:18Z</time>
      </trkpt>
      <trkpt lat="45.88841" lon="4.70246">
        <ele>238</ele>
        <time>2018-06-12T10:23:19Z</time>
      </trkpt>
      <trkpt lat="45.88847" lon="4.70244">
        <ele>238</ele>
        <time>2018-06-12T10:23:20Z</time>
      </trkpt>
      <trkpt lat="45.88853" lon="4.7024">
        <ele>238</ele>
        <time>2018-06-12T10:23:21Z</time>
      </trkpt>
      <trkpt lat="45.88858" lon="4.70237">
        <ele>238</ele>
        <time>2018-06-12T10:23:22Z</time>
      </trkpt>
      <trkpt lat="45.88864" lon="4.70234">
        <ele>238</ele>
        <time>2018-06-12T10:23:23Z</time>
      </trkpt>
      <trkpt lat="45.88868" lon="4.70232">
        <ele>238</ele>
        <time>2018-06-12T10:23:24Z</time>
      </trkpt>
      <trkpt lat="45.88874" lon="4.70229">
        <ele>238</ele>
        <time>2018-06-12T10:23:25Z</time>
      </trkpt>
      <trkpt lat="45.88878" lon="4.70227">
        <ele>238</ele>
        <time>2018-06-12T10:23:26Z</time>
      </trkpt>
      <trkpt lat="45.88884" lon="4.70224">
        <ele>238</ele>
        <time>2018-06-12T10:23:27Z</time>
      </trkpt>
      <trkpt lat="45.88889" lon="4.7022">
        <ele>238</ele>
        <time>2018-06-12T10:23:28Z</time>
      </trkpt>
      <trkpt lat="45.88894" lon="4.70217">
        <ele>238</ele>
        <time>2018-06-12T10:23:29Z</time>
      </trkpt>
      <trkpt lat="45.88902" lon="4.70212">
        <ele>238</ele>
        <time>2018-06-12T10:23:30Z</time>
      </trkpt>
      <trkpt lat="45.88911" lon="4.70209">
        <ele>238</ele>
        <time>2018-06-12T10:23:31Z</time>
      </trkpt>
      <trkpt lat="45.88917" lon="4.70203">
        <ele>239</ele>
        <time>2018-06-12T10:23:32Z</time>
      </trkpt>
      <trkpt lat="45.88921" lon="4.702">
        <ele>235</ele>
        <time>2018-06-12T10:23:33Z</time>
      </trkpt>
      <trkpt lat="45.88926" lon="4.70195">
        <ele>235</ele>
        <time>2018-06-12T10:23:34Z</time>
      </trkpt>
      <trkpt lat="45.88931" lon="4.70191">
        <ele>236</ele>
        <time>2018-06-12T10:23:35Z</time>
      </trkpt>
      <trkpt lat="45.88937" lon="4.7019">
        <ele>235</ele>
        <time>2018-06-12T10:23:36Z</time>
      </trkpt>
      <trkpt lat="45.88943" lon="4.70186">
        <ele>235</ele>
        <time>2018-06-12T10:23:37Z</time>
      </trkpt>
      <trkpt lat="45.88949" lon="4.70183">
        <ele>235</ele>
        <time>2018-06-12T10:23:38Z</time>
      </trkpt>
      <trkpt lat="45.88954" lon="4.7018">
        <ele>234</ele>
        <time>2018-06-12T10:23:39Z</time>
      </trkpt>
      <trkpt lat="45.8896" lon="4.70178">
        <ele>234</ele>
        <time>2018-06-12T10:23:40Z</time>
      </trkpt>
      <trkpt lat="45.88966" lon="4.70172">
        <ele>234</ele>
        <time>2018-06-12T10:23:41Z</time>
      </trkpt>
      <trkpt lat="45.88972" lon="4.70169">
        <ele>233</ele>
        <time>2018-06-12T10:23:42Z</time>
      </trkpt>
      <trkpt lat="45.88978" lon="4.70164">
        <ele>236</ele>
        <time>2018-06-12T10:23:43Z</time>
      </trkpt>
      <trkpt lat="45.88984" lon="4.70162">
        <ele>235</ele>
        <time>2018-06-12T10:23:44Z</time>
      </trkpt>
      <trkpt lat="45.88989" lon="4.70157">
        <ele>235</ele>
        <time>2018-06-12T10:23:45Z</time>
      </trkpt>
      <trkpt lat="45.88993" lon="4.70154">
        <ele>235</ele>
        <time>2018-06-12T10:23:46Z</time>
      </trkpt>
      <trkpt lat="45.89" lon="4.70151">
        <ele>235</ele>
        <time>2018-06-12T10:23:47Z</time>
      </trkpt>
      <trkpt lat="45.89004" lon="4.70148">
        <ele>232</ele>
        <time>2018-06-12T10:23:48Z</time>
      </trkpt>
      <trkpt lat="45.89011" lon="4.70147">
        <ele>232</ele>
        <time>2018-06-12T10:23:49Z</time>
      </trkpt>
      <trkpt lat="45.89015" lon="4.70143">
        <ele>231</ele>
        <time>2018-06-12T10:23:50Z</time>
      </trkpt>
      <trkpt lat="45.89021" lon="4.70139">
        <ele>231</ele>
        <time>2018-06-12T10:23:51Z</time>
      </trkpt>
      <trkpt lat="45.89027" lon="4.70136">
        <ele>231</ele>
        <time>2018-06-12T10:23:52Z</time>
      </trkpt>
      <trkpt lat="45.89033" lon="4.70133">
        <ele>231</ele>
        <time>2018-06-12T10:23:53Z</time>
      </trkpt>
      <trkpt lat="45.89038" lon="4.7013">
        <ele>231</ele>
        <time>2018-06-12T10:23:54Z</time>
      </trkpt>
      <trkpt lat="45.89043" lon="4.70126">
        <ele>231</ele>
        <time>2018-06-12T10:23:55Z</time>
      </trkpt>
      <trkpt lat="45.89051" lon="4.70122">
        <ele>231</ele>
        <time>2018-06-12T10:23:57Z</time>
      </trkpt>
      <trkpt lat="45.89055" lon="4.7012">
        <ele>231</ele>
        <time>2018-06-12T10:23:58Z</time>
      </trkpt>
      <trkpt lat="45.89061" lon="4.70118">
        <ele>230</ele>
        <time>2018-06-12T10:23:59Z</time>
      </trkpt>
      <trkpt lat="45.89066" lon="4.70115">
        <ele>230</ele>
        <time>2018-06-12T10:24:00Z</time>
      </trkpt>
      <trkpt lat="45.89073" lon="4.70109">
        <ele>230</ele>
        <time>2018-06-12T10:24:02Z</time>
      </trkpt>
      <trkpt lat="45.89079" lon="4.70106">
        <ele>230</ele>
        <time>2018-06-12T10:24:03Z</time>
      </trkpt>
      <trkpt lat="45.89085" lon="4.70103">
        <ele>228</ele>
        <time>2018-06-12T10:24:04Z</time>
      </trkpt>
      <trkpt lat="45.89091" lon="4.70099">
        <ele>228</ele>
        <time>2018-06-12T10:24:05Z</time>
      </trkpt>
      <trkpt lat="45.89097" lon="4.70095">
        <ele>228</ele>
        <time>2018-06-12T10:24:06Z</time>
      </trkpt>
      <trkpt lat="45.89103" lon="4.70092">
        <ele>228</ele>
        <time>2018-06-12T10:24:07Z</time>
      </trkpt>
      <trkpt lat="45.89109" lon="4.70089">
        <ele>228</ele>
        <time>2018-06-12T10:24:08Z</time>
      </trkpt>
      <trkpt lat="45.89115" lon="4.70086">
        <ele>228</ele>
        <time>2018-06-12T10:24:09Z</time>
      </trkpt>
      <trkpt lat="45.8912" lon="4.70082">
        <ele>231</ele>
        <time>2018-06-12T10:24:10Z</time>
      </trkpt>
      <trkpt lat="45.89126" lon="4.70079">
        <ele>231</ele>
        <time>2018-06-12T10:24:11Z</time>
      </trkpt>
      <trkpt lat="45.89131" lon="4.70075">
        <ele>231</ele>
        <time>2018-06-12T10:24:12Z</time>
      </trkpt>
      <trkpt lat="45.89137" lon="4.70071">
        <ele>231</ele>
        <time>2018-06-12T10:24:13Z</time>
      </trkpt>
      <trkpt lat="45.89142" lon="4.70068">
        <ele>231</ele>
        <time>2018-06-12T10:24:14Z</time>
      </trkpt>
      <trkpt lat="45.89147" lon="4.70066">
        <ele>231</ele>
        <time>2018-06-12T10:24:15Z</time>
      </trkpt>
      <trkpt lat="45.89153" lon="4.70064">
        <ele>230</ele>
        <time>2018-06-12T10:24:16Z</time>
      </trkpt>
      <trkpt lat="45.89158" lon="4.70062">
        <ele>230</ele>
        <time>2018-06-12T10:24:17Z</time>
      </trkpt>
      <trkpt lat="45.89163" lon="4.70057">
        <ele>231</ele>
        <time>2018-06-12T10:24:18Z</time>
      </trkpt>
      <trkpt lat="45.89167" lon="4.70055">
        <ele>229</ele>
        <time>2018-06-12T10:24:19Z</time>
      </trkpt>
      <trkpt lat="45.89173" lon="4.70053">
        <ele>229</ele>
        <time>2018-06-12T10:24:20Z</time>
      </trkpt>
      <trkpt lat="45.8918" lon="4.7005">
        <ele>229</ele>
        <time>2018-06-12T10:24:21Z</time>
      </trkpt>
      <trkpt lat="45.89186" lon="4.70047">
        <ele>229</ele>
        <time>2018-06-12T10:24:22Z</time>
      </trkpt>
      <trkpt lat="45.89192" lon="4.70045">
        <ele>229</ele>
        <time>2018-06-12T10:24:23Z</time>
      </trkpt>
      <trkpt lat="45.89198" lon="4.70042">
        <ele>229</ele>
        <time>2018-06-12T10:24:24Z</time>
      </trkpt>
      <trkpt lat="45.89203" lon="4.70038">
        <ele>229</ele>
        <time>2018-06-12T10:24:25Z</time>
      </trkpt>
      <trkpt lat="45.89208" lon="4.70037">
        <ele>229</ele>
        <time>2018-06-12T10:24:26Z</time>
      </trkpt>
      <trkpt lat="45.89213" lon="4.70035">
        <ele>229</ele>
        <time>2018-06-12T10:24:27Z</time>
      </trkpt>
      <trkpt lat="45.89219" lon="4.70031">
        <ele>229</ele>
        <time>2018-06-12T10:24:28Z</time>
      </trkpt>
      <trkpt lat="45.89224" lon="4.70029">
        <ele>229</ele>
        <time>2018-06-12T10:24:29Z</time>
      </trkpt>
      <trkpt lat="45.89229" lon="4.70027">
        <ele>228</ele>
        <time>2018-06-12T10:24:30Z</time>
      </trkpt>
      <trkpt lat="45.89235" lon="4.70026">
        <ele>228</ele>
        <time>2018-06-12T10:24:31Z</time>
      </trkpt>
      <trkpt lat="45.8924" lon="4.70024">
        <ele>228</ele>
        <time>2018-06-12T10:24:32Z</time>
      </trkpt>
      <trkpt lat="45.89245" lon="4.7002">
        <ele>229</ele>
        <time>2018-06-12T10:24:33Z</time>
      </trkpt>
      <trkpt lat="45.89251" lon="4.70018">
        <ele>227</ele>
        <time>2018-06-12T10:24:34Z</time>
      </trkpt>
      <trkpt lat="45.89257" lon="4.70017">
        <ele>227</ele>
        <time>2018-06-12T10:24:35Z</time>
      </trkpt>
      <trkpt lat="45.89262" lon="4.70016">
        <ele>227</ele>
        <time>2018-06-12T10:24:36Z</time>
      </trkpt>
      <trkpt lat="45.89268" lon="4.70014">
        <ele>227</ele>
        <time>2018-06-12T10:24:37Z</time>
      </trkpt>
      <trkpt lat="45.89276" lon="4.70009">
        <ele>227</ele>
        <time>2018-06-12T10:24:39Z</time>
      </trkpt>
      <trkpt lat="45.89281" lon="4.70007">
        <ele>226</ele>
        <time>2018-06-12T10:24:40Z</time>
      </trkpt>
      <trkpt lat="45.89286" lon="4.70005">
        <ele>226</ele>
        <time>2018-06-12T10:24:41Z</time>
      </trkpt>
      <trkpt lat="45.89291" lon="4.70003">
        <ele>226</ele>
        <time>2018-06-12T10:24:42Z</time>
      </trkpt>
      <trkpt lat="45.89298" lon="4.7">
        <ele>226</ele>
        <time>2018-06-12T10:24:43Z</time>
      </trkpt>
      <trkpt lat="45.89302" lon="4.69999">
        <ele>229</ele>
        <time>2018-06-12T10:24:44Z</time>
      </trkpt>
      <trkpt lat="45.89307" lon="4.69999">
        <ele>228</ele>
        <time>2018-06-12T10:24:45Z</time>
      </trkpt>
      <trkpt lat="45.89313" lon="4.69997">
        <ele>228</ele>
        <time>2018-06-12T10:24:46Z</time>
      </trkpt>
      <trkpt lat="45.89319" lon="4.69995">
        <ele>228</ele>
        <time>2018-06-12T10:24:47Z</time>
      </trkpt>
      <trkpt lat="45.89325" lon="4.69993">
        <ele>227</ele>
        <time>2018-06-12T10:24:48Z</time>
      </trkpt>
      <trkpt lat="45.89331" lon="4.6999">
        <ele>227</ele>
        <time>2018-06-12T10:24:49Z</time>
      </trkpt>
      <trkpt lat="45.89336" lon="4.6999">
        <ele>227</ele>
        <time>2018-06-12T10:24:50Z</time>
      </trkpt>
      <trkpt lat="45.89341" lon="4.6999">
        <ele>227</ele>
        <time>2018-06-12T10:24:51Z</time>
      </trkpt>
      <trkpt lat="45.89346" lon="4.6999">
        <ele>227</ele>
        <time>2018-06-12T10:24:52Z</time>
      </trkpt>
      <trkpt lat="45.89352" lon="4.69993">
        <ele>227</ele>
        <time>2018-06-12T10:24:53Z</time>
      </trkpt>
      <trkpt lat="45.89358" lon="4.69993">
        <ele>227</ele>
        <time>2018-06-12T10:24:54Z</time>
      </trkpt>
      <trkpt lat="45.89364" lon="4.69994">
        <ele>227</ele>
        <time>2018-06-12T10:24:55Z</time>
      </trkpt>
      <trkpt lat="45.89369" lon="4.69995">
        <ele>227</ele>
        <time>2018-06-12T10:24:56Z</time>
      </trkpt>
      <trkpt lat="45.89375" lon="4.69996">
        <ele>227</ele>
        <time>2018-06-12T10:24:57Z</time>
      </trkpt>
      <trkpt lat="45.89381" lon="4.69998">
        <ele>227</ele>
        <time>2018-06-12T10:24:58Z</time>
      </trkpt>
      <trkpt lat="45.89386" lon="4.69999">
        <ele>227</ele>
        <time>2018-06-12T10:24:59Z</time>
      </trkpt>
      <trkpt lat="45.89393" lon="4.70001">
        <ele>226</ele>
        <time>2018-06-12T10:25:00Z</time>
      </trkpt>
      <trkpt lat="45.89399" lon="4.70003">
        <ele>226</ele>
        <time>2018-06-12T10:25:01Z</time>
      </trkpt>
      <trkpt lat="45.89405" lon="4.70005">
        <ele>226</ele>
        <time>2018-06-12T10:25:02Z</time>
      </trkpt>
      <trkpt lat="45.89412" lon="4.70005">
        <ele>226</ele>
        <time>2018-06-12T10:25:03Z</time>
      </trkpt>
      <trkpt lat="45.89418" lon="4.70006">
        <ele>226</ele>
        <time>2018-06-12T10:25:04Z</time>
      </trkpt>
      <trkpt lat="45.89424" lon="4.70007">
        <ele>226</ele>
        <time>2018-06-12T10:25:05Z</time>
      </trkpt>
      <trkpt lat="45.8943" lon="4.70007">
        <ele>226</ele>
        <time>2018-06-12T10:25:06Z</time>
      </trkpt>
      <trkpt lat="45.89432" lon="4.70011">
        <ele>226</ele>
        <time>2018-06-12T10:25:07Z</time>
      </trkpt>
      <trkpt lat="45.89439" lon="4.70013">
        <ele>225</ele>
        <time>2018-06-12T10:25:08Z</time>
      </trkpt>
      <trkpt lat="45.89444" lon="4.70018">
        <ele>225</ele>
        <time>2018-06-12T10:25:09Z</time>
      </trkpt>
      <trkpt lat="45.89451" lon="4.7002">
        <ele>225</ele>
        <time>2018-06-12T10:25:10Z</time>
      </trkpt>
      <trkpt lat="45.89457" lon="4.70021">
        <ele>225</ele>
        <time>2018-06-12T10:25:11Z</time>
      </trkpt>
      <trkpt lat="45.8947" lon="4.70016">
        <ele>225</ele>
        <time>2018-06-12T10:25:12Z</time>
      </trkpt>
      <trkpt lat="45.89476" lon="4.70018">
        <ele>225</ele>
        <time>2018-06-12T10:25:13Z</time>
      </trkpt>
      <trkpt lat="45.89482" lon="4.70019">
        <ele>224</ele>
        <time>2018-06-12T10:25:14Z</time>
      </trkpt>
      <trkpt lat="45.89491" lon="4.70016">
        <ele>225</ele>
        <time>2018-06-12T10:25:15Z</time>
      </trkpt>
      <trkpt lat="45.89497" lon="4.70017">
        <ele>225</ele>
        <time>2018-06-12T10:25:16Z</time>
      </trkpt>
      <trkpt lat="45.89502" lon="4.70019">
        <ele>223</ele>
        <time>2018-06-12T10:25:17Z</time>
      </trkpt>
      <trkpt lat="45.89508" lon="4.7002">
        <ele>223</ele>
        <time>2018-06-12T10:25:18Z</time>
      </trkpt>
      <trkpt lat="45.89515" lon="4.70021">
        <ele>223</ele>
        <time>2018-06-12T10:25:19Z</time>
      </trkpt>
      <trkpt lat="45.89524" lon="4.70021">
        <ele>223</ele>
        <time>2018-06-12T10:25:20Z</time>
      </trkpt>
      <trkpt lat="45.89532" lon="4.70021">
        <ele>223</ele>
        <time>2018-06-12T10:25:21Z</time>
      </trkpt>
      <trkpt lat="45.89537" lon="4.70024">
        <ele>223</ele>
        <time>2018-06-12T10:25:22Z</time>
      </trkpt>
      <trkpt lat="45.89543" lon="4.70025">
        <ele>223</ele>
        <time>2018-06-12T10:25:23Z</time>
      </trkpt>
      <trkpt lat="45.89549" lon="4.70026">
        <ele>222</ele>
        <time>2018-06-12T10:25:24Z</time>
      </trkpt>
      <trkpt lat="45.89553" lon="4.70029">
        <ele>222</ele>
        <time>2018-06-12T10:25:25Z</time>
      </trkpt>
      <trkpt lat="45.89559" lon="4.7003">
        <ele>222</ele>
        <time>2018-06-12T10:25:26Z</time>
      </trkpt>
      <trkpt lat="45.89565" lon="4.70031">
        <ele>222</ele>
        <time>2018-06-12T10:25:27Z</time>
      </trkpt>
      <trkpt lat="45.89572" lon="4.70032">
        <ele>222</ele>
        <time>2018-06-12T10:25:28Z</time>
      </trkpt>
      <trkpt lat="45.89578" lon="4.70035">
        <ele>222</ele>
        <time>2018-06-12T10:25:29Z</time>
      </trkpt>
      <trkpt lat="45.89583" lon="4.70037">
        <ele>222</ele>
        <time>2018-06-12T10:25:30Z</time>
      </trkpt>
      <trkpt lat="45.89591" lon="4.70038">
        <ele>222</ele>
        <time>2018-06-12T10:25:31Z</time>
      </trkpt>
      <trkpt lat="45.89596" lon="4.70039">
        <ele>222</ele>
        <time>2018-06-12T10:25:32Z</time>
      </trkpt>
      <trkpt lat="45.89602" lon="4.7004">
        <ele>222</ele>
        <time>2018-06-12T10:25:33Z</time>
      </trkpt>
      <trkpt lat="45.89608" lon="4.70041">
        <ele>222</ele>
        <time>2018-06-12T10:25:34Z</time>
      </trkpt>
      <trkpt lat="45.89615" lon="4.70041">
        <ele>222</ele>
        <time>2018-06-12T10:25:35Z</time>
      </trkpt>
      <trkpt lat="45.89621" lon="4.70041">
        <ele>222</ele>
        <time>2018-06-12T10:25:36Z</time>
      </trkpt>
      <trkpt lat="45.89625" lon="4.70043">
        <ele>222</ele>
        <time>2018-06-12T10:25:37Z</time>
      </trkpt>
      <trkpt lat="45.89631" lon="4.70044">
        <ele>222</ele>
        <time>2018-06-12T10:25:38Z</time>
      </trkpt>
      <trkpt lat="45.89635" lon="4.70047">
        <ele>222</ele>
        <time>2018-06-12T10:25:39Z</time>
      </trkpt>
      <trkpt lat="45.8964" lon="4.70047">
        <ele>222</ele>
        <time>2018-06-12T10:25:40Z</time>
      </trkpt>
      <trkpt lat="45.89647" lon="4.70048">
        <ele>222</ele>
        <time>2018-06-12T10:25:41Z</time>
      </trkpt>
      <trkpt lat="45.89652" lon="4.70049">
        <ele>222</ele>
        <time>2018-06-12T10:25:42Z</time>
      </trkpt>
      <trkpt lat="45.89658" lon="4.70051">
        <ele>222</ele>
        <time>2018-06-12T10:25:43Z</time>
      </trkpt>
      <trkpt lat="45.89663" lon="4.70053">
        <ele>222</ele>
        <time>2018-06-12T10:25:44Z</time>
      </trkpt>
      <trkpt lat="45.89669" lon="4.70055">
        <ele>222</ele>
        <time>2018-06-12T10:25:45Z</time>
      </trkpt>
      <trkpt lat="45.89676" lon="4.70057">
        <ele>222</ele>
        <time>2018-06-12T10:25:46Z</time>
      </trkpt>
      <trkpt lat="45.89683" lon="4.70058">
        <ele>222</ele>
        <time>2018-06-12T10:25:47Z</time>
      </trkpt>
      <trkpt lat="45.8969" lon="4.70059">
        <ele>222</ele>
        <time>2018-06-12T10:25:48Z</time>
      </trkpt>
      <trkpt lat="45.89698" lon="4.70061">
        <ele>221</ele>
        <time>2018-06-12T10:25:49Z</time>
      </trkpt>
      <trkpt lat="45.89707" lon="4.70062">
        <ele>221</ele>
        <time>2018-06-12T10:25:50Z</time>
      </trkpt>
      <trkpt lat="45.89717" lon="4.70063">
        <ele>221</ele>
        <time>2018-06-12T10:25:51Z</time>
      </trkpt>
      <trkpt lat="45.89725" lon="4.70065">
        <ele>221</ele>
        <time>2018-06-12T10:25:52Z</time>
      </trkpt>
      <trkpt lat="45.89733" lon="4.70066">
        <ele>221</ele>
        <time>2018-06-12T10:25:53Z</time>
      </trkpt>
      <trkpt lat="45.89741" lon="4.70068">
        <ele>220</ele>
        <time>2018-06-12T10:25:54Z</time>
      </trkpt>
      <trkpt lat="45.89751" lon="4.70069">
        <ele>220</ele>
        <time>2018-06-12T10:25:55Z</time>
      </trkpt>
      <trkpt lat="45.89762" lon="4.7007">
        <ele>220</ele>
        <time>2018-06-12T10:25:56Z</time>
      </trkpt>
      <trkpt lat="45.89769" lon="4.7007">
        <ele>220</ele>
        <time>2018-06-12T10:25:57Z</time>
      </trkpt>
      <trkpt lat="45.89775" lon="4.70072">
        <ele>220</ele>
        <time>2018-06-12T10:25:58Z</time>
      </trkpt>
      <trkpt lat="45.89785" lon="4.70071">
        <ele>221</ele>
        <time>2018-06-12T10:25:59Z</time>
      </trkpt>
      <trkpt lat="45.89796" lon="4.70068">
        <ele>221</ele>
        <time>2018-06-12T10:26:00Z</time>
      </trkpt>
      <trkpt lat="45.89803" lon="4.70068">
        <ele>221</ele>
        <time>2018-06-12T10:26:01Z</time>
      </trkpt>
      <trkpt lat="45.89807" lon="4.70072">
        <ele>221</ele>
        <time>2018-06-12T10:26:02Z</time>
      </trkpt>
      <trkpt lat="45.89813" lon="4.70073">
        <ele>221</ele>
        <time>2018-06-12T10:26:03Z</time>
      </trkpt>
      <trkpt lat="45.89817" lon="4.70076">
        <ele>221</ele>
        <time>2018-06-12T10:26:04Z</time>
      </trkpt>
      <trkpt lat="45.89824" lon="4.70076">
        <ele>220</ele>
        <time>2018-06-12T10:26:05Z</time>
      </trkpt>
      <trkpt lat="45.89829" lon="4.70076">
        <ele>220</ele>
        <time>2018-06-12T10:26:06Z</time>
      </trkpt>
      <trkpt lat="45.89834" lon="4.70076">
        <ele>220</ele>
        <time>2018-06-12T10:26:07Z</time>
      </trkpt>
      <trkpt lat="45.8984" lon="4.70077">
        <ele>221</ele>
        <time>2018-06-12T10:26:08Z</time>
      </trkpt>
      <trkpt lat="45.89845" lon="4.70077">
        <ele>221</ele>
        <time>2018-06-12T10:26:09Z</time>
      </trkpt>
      <trkpt lat="45.89852" lon="4.70077">
        <ele>221</ele>
        <time>2018-06-12T10:26:10Z</time>
      </trkpt>
      <trkpt lat="45.89858" lon="4.70079">
        <ele>221</ele>
        <time>2018-06-12T10:26:11Z</time>
      </trkpt>
      <trkpt lat="45.89864" lon="4.70079">
        <ele>221</ele>
        <time>2018-06-12T10:26:12Z</time>
      </trkpt>
      <trkpt lat="45.89869" lon="4.70079">
        <ele>221</ele>
        <time>2018-06-12T10:26:13Z</time>
      </trkpt>
      <trkpt lat="45.89875" lon="4.7008">
        <ele>221</ele>
        <time>2018-06-12T10:26:14Z</time>
      </trkpt>
      <trkpt lat="45.89885" lon="4.70078">
        <ele>221</ele>
        <time>2018-06-12T10:26:15Z</time>
      </trkpt>
      <trkpt lat="45.89894" lon="4.70076">
        <ele>221</ele>
        <time>2018-06-12T10:26:16Z</time>
      </trkpt>
      <trkpt lat="45.899" lon="4.70076">
        <ele>221</ele>
        <time>2018-06-12T10:26:17Z</time>
      </trkpt>
      <trkpt lat="45.89906" lon="4.70076">
        <ele>221</ele>
        <time>2018-06-12T10:26:18Z</time>
      </trkpt>
      <trkpt lat="45.89911" lon="4.70078">
        <ele>221</ele>
        <time>2018-06-12T10:26:19Z</time>
      </trkpt>
      <trkpt lat="45.89916" lon="4.7008">
        <ele>221</ele>
        <time>2018-06-12T10:26:20Z</time>
      </trkpt>
      <trkpt lat="45.89922" lon="4.70081">
        <ele>221</ele>
        <time>2018-06-12T10:26:21Z</time>
      </trkpt>
      <trkpt lat="45.89926" lon="4.7008">
        <ele>222</ele>
        <time>2018-06-12T10:26:22Z</time>
      </trkpt>
      <trkpt lat="45.89933" lon="4.7008">
        <ele>222</ele>
        <time>2018-06-12T10:26:23Z</time>
      </trkpt>
      <trkpt lat="45.89938" lon="4.70081">
        <ele>222</ele>
        <time>2018-06-12T10:26:24Z</time>
      </trkpt>
      <trkpt lat="45.89944" lon="4.70082">
        <ele>222</ele>
        <time>2018-06-12T10:26:25Z</time>
      </trkpt>
      <trkpt lat="45.89949" lon="4.70083">
        <ele>222</ele>
        <time>2018-06-12T10:26:26Z</time>
      </trkpt>
      <trkpt lat="45.89954" lon="4.70083">
        <ele>221</ele>
        <time>2018-06-12T10:26:27Z</time>
      </trkpt>
      <trkpt lat="45.8996" lon="4.70084">
        <ele>221</ele>
        <time>2018-06-12T10:26:28Z</time>
      </trkpt>
      <trkpt lat="45.89965" lon="4.70084">
        <ele>221</ele>
        <time>2018-06-12T10:26:29Z</time>
      </trkpt>
      <trkpt lat="45.8997" lon="4.70085">
        <ele>221</ele>
        <time>2018-06-12T10:26:30Z</time>
      </trkpt>
      <trkpt lat="45.89975" lon="4.70085">
        <ele>221</ele>
        <time>2018-06-12T10:26:31Z</time>
      </trkpt>
      <trkpt lat="45.8998" lon="4.70085">
        <ele>221</ele>
        <time>2018-06-12T10:26:32Z</time>
      </trkpt>
      <trkpt lat="45.89985" lon="4.70086">
        <ele>222</ele>
        <time>2018-06-12T10:26:33Z</time>
      </trkpt>
      <trkpt lat="45.89991" lon="4.70086">
        <ele>222</ele>
        <time>2018-06-12T10:26:34Z</time>
      </trkpt>
      <trkpt lat="45.89995" lon="4.70088">
        <ele>222</ele>
        <time>2018-06-12T10:26:35Z</time>
      </trkpt>
      <trkpt lat="45.90001" lon="4.70088">
        <ele>222</ele>
        <time>2018-06-12T10:26:36Z</time>
      </trkpt>
      <trkpt lat="45.90007" lon="4.70088">
        <ele>222</ele>
        <time>2018-06-12T10:26:37Z</time>
      </trkpt>
      <trkpt lat="45.90012" lon="4.70089">
        <ele>222</ele>
        <time>2018-06-12T10:26:38Z</time>
      </trkpt>
      <trkpt lat="45.90021" lon="4.70091">
        <ele>222</ele>
        <time>2018-06-12T10:26:40Z</time>
      </trkpt>
      <trkpt lat="45.90027" lon="4.7009">
        <ele>222</ele>
        <time>2018-06-12T10:26:41Z</time>
      </trkpt>
      <trkpt lat="45.90033" lon="4.7009">
        <ele>222</ele>
        <time>2018-06-12T10:26:42Z</time>
      </trkpt>
      <trkpt lat="45.90038" lon="4.7009">
        <ele>222</ele>
        <time>2018-06-12T10:26:43Z</time>
      </trkpt>
      <trkpt lat="45.90044" lon="4.70089">
        <ele>222</ele>
        <time>2018-06-12T10:26:44Z</time>
      </trkpt>
      <trkpt lat="45.9005" lon="4.70089">
        <ele>222</ele>
        <time>2018-06-12T10:26:45Z</time>
      </trkpt>
      <trkpt lat="45.90054" lon="4.70089">
        <ele>222</ele>
        <time>2018-06-12T10:26:46Z</time>
      </trkpt>
      <trkpt lat="45.9006" lon="4.70089">
        <ele>223</ele>
        <time>2018-06-12T10:26:47Z</time>
      </trkpt>
      <trkpt lat="45.90064" lon="4.70088">
        <ele>223</ele>
        <time>2018-06-12T10:26:48Z</time>
      </trkpt>
      <trkpt lat="45.90069" lon="4.70087">
        <ele>223</ele>
        <time>2018-06-12T10:26:49Z</time>
      </trkpt>
      <trkpt lat="45.90074" lon="4.70085">
        <ele>223</ele>
        <time>2018-06-12T10:26:50Z</time>
      </trkpt>
      <trkpt lat="45.9008" lon="4.70084">
        <ele>224</ele>
        <time>2018-06-12T10:26:51Z</time>
      </trkpt>
      <trkpt lat="45.90086" lon="4.70084">
        <ele>224</ele>
        <time>2018-06-12T10:26:52Z</time>
      </trkpt>
      <trkpt lat="45.9009" lon="4.70084">
        <ele>224</ele>
        <time>2018-06-12T10:26:53Z</time>
      </trkpt>
      <trkpt lat="45.90095" lon="4.70083">
        <ele>224</ele>
        <time>2018-06-12T10:26:54Z</time>
      </trkpt>
      <trkpt lat="45.90101" lon="4.70082">
        <ele>225</ele>
        <time>2018-06-12T10:26:55Z</time>
      </trkpt>
      <trkpt lat="45.90105" lon="4.70081">
        <ele>226</ele>
        <time>2018-06-12T10:26:56Z</time>
      </trkpt>
      <trkpt lat="45.9011" lon="4.70081">
        <ele>226</ele>
        <time>2018-06-12T10:26:57Z</time>
      </trkpt>
      <trkpt lat="45.90116" lon="4.70081">
        <ele>226</ele>
        <time>2018-06-12T10:26:58Z</time>
      </trkpt>
      <trkpt lat="45.9012" lon="4.7008">
        <ele>226</ele>
        <time>2018-06-12T10:26:59Z</time>
      </trkpt>
      <trkpt lat="45.90126" lon="4.7008">
        <ele>226</ele>
        <time>2018-06-12T10:27:00Z</time>
      </trkpt>
      <trkpt lat="45.9013" lon="4.7008">
        <ele>226</ele>
        <time>2018-06-12T10:27:01Z</time>
      </trkpt>
      <trkpt lat="45.90134" lon="4.70081">
        <ele>226</ele>
        <time>2018-06-12T10:27:02Z</time>
      </trkpt>
      <trkpt lat="45.9014" lon="4.70081">
        <ele>226</ele>
        <time>2018-06-12T10:27:03Z</time>
      </trkpt>
      <trkpt lat="45.90144" lon="4.7008">
        <ele>226</ele>
        <time>2018-06-12T10:27:04Z</time>
      </trkpt>
      <trkpt lat="45.9015" lon="4.70078">
        <ele>226</ele>
        <time>2018-06-12T10:27:05Z</time>
      </trkpt>
      <trkpt lat="45.90155" lon="4.70077">
        <ele>226</ele>
        <time>2018-06-12T10:27:06Z</time>
      </trkpt>
      <trkpt lat="45.9016" lon="4.70076">
        <ele>226</ele>
        <time>2018-06-12T10:27:07Z</time>
      </trkpt>
      <trkpt lat="45.90165" lon="4.70075">
        <ele>226</ele>
        <time>2018-06-12T10:27:08Z</time>
      </trkpt>
      <trkpt lat="45.90169" lon="4.70075">
        <ele>225</ele>
        <time>2018-06-12T10:27:09Z</time>
      </trkpt>
      <trkpt lat="45.90178" lon="4.70074">
        <ele>226</ele>
        <time>2018-06-12T10:27:11Z</time>
      </trkpt>
      <trkpt lat="45.90184" lon="4.70071">
        <ele>226</ele>
        <time>2018-06-12T10:27:12Z</time>
      </trkpt>
      <trkpt lat="45.90189" lon="4.7007">
        <ele>226</ele>
        <time>2018-06-12T10:27:13Z</time>
      </trkpt>
      <trkpt lat="45.90194" lon="4.70069">
        <ele>226</ele>
        <time>2018-06-12T10:27:14Z</time>
      </trkpt>
      <trkpt lat="45.90199" lon="4.70068">
        <ele>226</ele>
        <time>2018-06-12T10:27:15Z</time>
      </trkpt>
      <trkpt lat="45.90204" lon="4.70068">
        <ele>226</ele>
        <time>2018-06-12T10:27:16Z</time>
      </trkpt>
      <trkpt lat="45.9021" lon="4.70067">
        <ele>226</ele>
        <time>2018-06-12T10:27:17Z</time>
      </trkpt>
      <trkpt lat="45.90214" lon="4.70068">
        <ele>226</ele>
        <time>2018-06-12T10:27:18Z</time>
      </trkpt>
      <trkpt lat="45.90219" lon="4.70067">
        <ele>225</ele>
        <time>2018-06-12T10:27:19Z</time>
      </trkpt>
      <trkpt lat="45.90224" lon="4.70066">
        <ele>225</ele>
        <time>2018-06-12T10:27:20Z</time>
      </trkpt>
      <trkpt lat="45.90228" lon="4.70065">
        <ele>225</ele>
        <time>2018-06-12T10:27:21Z</time>
      </trkpt>
      <trkpt lat="45.90233" lon="4.70064">
        <ele>225</ele>
        <time>2018-06-12T10:27:22Z</time>
      </trkpt>
      <trkpt lat="45.90238" lon="4.70063">
        <ele>225</ele>
        <time>2018-06-12T10:27:23Z</time>
      </trkpt>
      <trkpt lat="45.90243" lon="4.7006">
        <ele>225</ele>
        <time>2018-06-12T10:27:24Z</time>
      </trkpt>
      <trkpt lat="45.90247" lon="4.70061">
        <ele>225</ele>
        <time>2018-06-12T10:27:25Z</time>
      </trkpt>
      <trkpt lat="45.90252" lon="4.7006">
        <ele>224</ele>
        <time>2018-06-12T10:27:26Z</time>
      </trkpt>
      <trkpt lat="45.9026" lon="4.70059">
        <ele>224</ele>
        <time>2018-06-12T10:27:27Z</time>
      </trkpt>
      <trkpt lat="45.90264" lon="4.70058">
        <ele>224</ele>
        <time>2018-06-12T10:27:28Z</time>
      </trkpt>
      <trkpt lat="45.90269" lon="4.70057">
        <ele>224</ele>
        <time>2018-06-12T10:27:29Z</time>
      </trkpt>
      <trkpt lat="45.90273" lon="4.70056">
        <ele>224</ele>
        <time>2018-06-12T10:27:30Z</time>
      </trkpt>
      <trkpt lat="45.90278" lon="4.70056">
        <ele>224</ele>
        <time>2018-06-12T10:27:31Z</time>
      </trkpt>
      <trkpt lat="45.90282" lon="4.70054">
        <ele>224</ele>
        <time>2018-06-12T10:27:32Z</time>
      </trkpt>
      <trkpt lat="45.90286" lon="4.70054">
        <ele>224</ele>
        <time>2018-06-12T10:27:33Z</time>
      </trkpt>
      <trkpt lat="45.90291" lon="4.70053">
        <ele>224</ele>
        <time>2018-06-12T10:27:34Z</time>
      </trkpt>
      <trkpt lat="45.903" lon="4.70049">
        <ele>224</ele>
        <time>2018-06-12T10:27:36Z</time>
      </trkpt>
      <trkpt lat="45.90306" lon="4.70048">
        <ele>224</ele>
        <time>2018-06-12T10:27:37Z</time>
      </trkpt>
      <trkpt lat="45.90311" lon="4.70046">
        <ele>224</ele>
        <time>2018-06-12T10:27:38Z</time>
      </trkpt>
      <trkpt lat="45.90314" lon="4.70043">
        <ele>224</ele>
        <time>2018-06-12T10:27:39Z</time>
      </trkpt>
      <trkpt lat="45.90323" lon="4.70041">
        <ele>224</ele>
        <time>2018-06-12T10:27:41Z</time>
      </trkpt>
      <trkpt lat="45.90328" lon="4.7004">
        <ele>224</ele>
        <time>2018-06-12T10:27:42Z</time>
      </trkpt>
      <trkpt lat="45.90333" lon="4.7004">
        <ele>224</ele>
        <time>2018-06-12T10:27:43Z</time>
      </trkpt>
      <trkpt lat="45.90338" lon="4.70039">
        <ele>224</ele>
        <time>2018-06-12T10:27:44Z</time>
      </trkpt>
      <trkpt lat="45.90346" lon="4.70036">
        <ele>224</ele>
        <time>2018-06-12T10:27:46Z</time>
      </trkpt>
      <trkpt lat="45.9035" lon="4.70036">
        <ele>224</ele>
        <time>2018-06-12T10:27:47Z</time>
      </trkpt>
      <trkpt lat="45.90355" lon="4.70035">
        <ele>224</ele>
        <time>2018-06-12T10:27:48Z</time>
      </trkpt>
      <trkpt lat="45.90361" lon="4.70035">
        <ele>224</ele>
        <time>2018-06-12T10:27:49Z</time>
      </trkpt>
      <trkpt lat="45.90365" lon="4.70034">
        <ele>224</ele>
        <time>2018-06-12T10:27:50Z</time>
      </trkpt>
      <trkpt lat="45.9037" lon="4.70033">
        <ele>224</ele>
        <time>2018-06-12T10:27:51Z</time>
      </trkpt>
      <trkpt lat="45.90375" lon="4.70033">
        <ele>225</ele>
        <time>2018-06-12T10:27:52Z</time>
      </trkpt>
      <trkpt lat="45.9038" lon="4.70032">
        <ele>225</ele>
        <time>2018-06-12T10:27:53Z</time>
      </trkpt>
      <trkpt lat="45.90386" lon="4.70031">
        <ele>225</ele>
        <time>2018-06-12T10:27:54Z</time>
      </trkpt>
      <trkpt lat="45.90391" lon="4.70031">
        <ele>225</ele>
        <time>2018-06-12T10:27:55Z</time>
      </trkpt>
      <trkpt lat="45.90397" lon="4.70029">
        <ele>225</ele>
        <time>2018-06-12T10:27:56Z</time>
      </trkpt>
      <trkpt lat="45.90402" lon="4.70028">
        <ele>225</ele>
        <time>2018-06-12T10:27:57Z</time>
      </trkpt>
      <trkpt lat="45.90407" lon="4.70027">
        <ele>225</ele>
        <time>2018-06-12T10:27:58Z</time>
      </trkpt>
      <trkpt lat="45.90412" lon="4.70027">
        <ele>225</ele>
        <time>2018-06-12T10:27:59Z</time>
      </trkpt>
      <trkpt lat="45.90418" lon="4.70026">
        <ele>226</ele>
        <time>2018-06-12T10:28:00Z</time>
      </trkpt>
      <trkpt lat="45.90422" lon="4.70025">
        <ele>226</ele>
        <time>2018-06-12T10:28:01Z</time>
      </trkpt>
      <trkpt lat="45.90428" lon="4.70025">
        <ele>226</ele>
        <time>2018-06-12T10:28:02Z</time>
      </trkpt>
      <trkpt lat="45.90433" lon="4.70025">
        <ele>225</ele>
        <time>2018-06-12T10:28:03Z</time>
      </trkpt>
      <trkpt lat="45.90438" lon="4.70025">
        <ele>225</ele>
        <time>2018-06-12T10:28:04Z</time>
      </trkpt>
      <trkpt lat="45.90443" lon="4.70023">
        <ele>225</ele>
        <time>2018-06-12T10:28:05Z</time>
      </trkpt>
      <trkpt lat="45.90448" lon="4.70024">
        <ele>225</ele>
        <time>2018-06-12T10:28:06Z</time>
      </trkpt>
      <trkpt lat="45.90453" lon="4.70024">
        <ele>225</ele>
        <time>2018-06-12T10:28:07Z</time>
      </trkpt>
      <trkpt lat="45.90458" lon="4.70026">
        <ele>225</ele>
        <time>2018-06-12T10:28:08Z</time>
      </trkpt>
      <trkpt lat="45.90463" lon="4.70026">
        <ele>225</ele>
        <time>2018-06-12T10:28:09Z</time>
      </trkpt>
      <trkpt lat="45.90468" lon="4.70028">
        <ele>225</ele>
        <time>2018-06-12T10:28:10Z</time>
      </trkpt>
      <trkpt lat="45.90473" lon="4.70028">
        <ele>225</ele>
        <time>2018-06-12T10:28:11Z</time>
      </trkpt>
      <trkpt lat="45.90479" lon="4.70029">
        <ele>225</ele>
        <time>2018-06-12T10:28:12Z</time>
      </trkpt>
      <trkpt lat="45.90483" lon="4.7003">
        <ele>225</ele>
        <time>2018-06-12T10:28:13Z</time>
      </trkpt>
      <trkpt lat="45.90489" lon="4.70031">
        <ele>225</ele>
        <time>2018-06-12T10:28:14Z</time>
      </trkpt>
      <trkpt lat="45.90495" lon="4.70032">
        <ele>225</ele>
        <time>2018-06-12T10:28:15Z</time>
      </trkpt>
      <trkpt lat="45.905" lon="4.70033">
        <ele>224</ele>
        <time>2018-06-12T10:28:16Z</time>
      </trkpt>
      <trkpt lat="45.90506" lon="4.70034">
        <ele>224</ele>
        <time>2018-06-12T10:28:17Z</time>
      </trkpt>
      <trkpt lat="45.90512" lon="4.70035">
        <ele>224</ele>
        <time>2018-06-12T10:28:18Z</time>
      </trkpt>
      <trkpt lat="45.90518" lon="4.70036">
        <ele>224</ele>
        <time>2018-06-12T10:28:19Z</time>
      </trkpt>
      <trkpt lat="45.90523" lon="4.70037">
        <ele>224</ele>
        <time>2018-06-12T10:28:20Z</time>
      </trkpt>
      <trkpt lat="45.90528" lon="4.70038">
        <ele>224</ele>
        <time>2018-06-12T10:28:21Z</time>
      </trkpt>
      <trkpt lat="45.90534" lon="4.70039">
        <ele>224</ele>
        <time>2018-06-12T10:28:22Z</time>
      </trkpt>
      <trkpt lat="45.9054" lon="4.7004">
        <ele>224</ele>
        <time>2018-06-12T10:28:23Z</time>
      </trkpt>
      <trkpt lat="45.90545" lon="4.70043">
        <ele>224</ele>
        <time>2018-06-12T10:28:24Z</time>
      </trkpt>
      <trkpt lat="45.9055" lon="4.70045">
        <ele>224</ele>
        <time>2018-06-12T10:28:25Z</time>
      </trkpt>
      <trkpt lat="45.90556" lon="4.70048">
        <ele>224</ele>
        <time>2018-06-12T10:28:26Z</time>
      </trkpt>
      <trkpt lat="45.90561" lon="4.70052">
        <ele>224</ele>
        <time>2018-06-12T10:28:27Z</time>
      </trkpt>
      <trkpt lat="45.90568" lon="4.70055">
        <ele>223</ele>
        <time>2018-06-12T10:28:28Z</time>
      </trkpt>
      <trkpt lat="45.90573" lon="4.70058">
        <ele>223</ele>
        <time>2018-06-12T10:28:29Z</time>
      </trkpt>
      <trkpt lat="45.90578" lon="4.70062">
        <ele>223</ele>
        <time>2018-06-12T10:28:30Z</time>
      </trkpt>
      <trkpt lat="45.90584" lon="4.70065">
        <ele>223</ele>
        <time>2018-06-12T10:28:31Z</time>
      </trkpt>
      <trkpt lat="45.90589" lon="4.70068">
        <ele>223</ele>
        <time>2018-06-12T10:28:32Z</time>
      </trkpt>
      <trkpt lat="45.90594" lon="4.70071">
        <ele>223</ele>
        <time>2018-06-12T10:28:33Z</time>
      </trkpt>
      <trkpt lat="45.90599" lon="4.70075">
        <ele>223</ele>
        <time>2018-06-12T10:28:34Z</time>
      </trkpt>
      <trkpt lat="45.90604" lon="4.70079">
        <ele>223</ele>
        <time>2018-06-12T10:28:35Z</time>
      </trkpt>
      <trkpt lat="45.90609" lon="4.70083">
        <ele>223</ele>
        <time>2018-06-12T10:28:36Z</time>
      </trkpt>
      <trkpt lat="45.90615" lon="4.70087">
        <ele>221</ele>
        <time>2018-06-12T10:28:37Z</time>
      </trkpt>
      <trkpt lat="45.9062" lon="4.70089">
        <ele>221</ele>
        <time>2018-06-12T10:28:38Z</time>
      </trkpt>
      <trkpt lat="45.90626" lon="4.70091">
        <ele>221</ele>
        <time>2018-06-12T10:28:39Z</time>
      </trkpt>
      <trkpt lat="45.90631" lon="4.70093">
        <ele>221</ele>
        <time>2018-06-12T10:28:40Z</time>
      </trkpt>
      <trkpt lat="45.90636" lon="4.70095">
        <ele>221</ele>
        <time>2018-06-12T10:28:41Z</time>
      </trkpt>
      <trkpt lat="45.90644" lon="4.70101">
        <ele>221</ele>
        <time>2018-06-12T10:28:43Z</time>
      </trkpt>
      <trkpt lat="45.90649" lon="4.70104">
        <ele>221</ele>
        <time>2018-06-12T10:28:44Z</time>
      </trkpt>
      <trkpt lat="45.90654" lon="4.70107">
        <ele>221</ele>
        <time>2018-06-12T10:28:45Z</time>
      </trkpt>
      <trkpt lat="45.90659" lon="4.7011">
        <ele>221</ele>
        <time>2018-06-12T10:28:46Z</time>
      </trkpt>
      <trkpt lat="45.90664" lon="4.70112">
        <ele>221</ele>
        <time>2018-06-12T10:28:47Z</time>
      </trkpt>
      <trkpt lat="45.90669" lon="4.70117">
        <ele>222</ele>
        <time>2018-06-12T10:28:48Z</time>
      </trkpt>
      <trkpt lat="45.90674" lon="4.7012">
        <ele>221</ele>
        <time>2018-06-12T10:28:49Z</time>
      </trkpt>
      <trkpt lat="45.90679" lon="4.70124">
        <ele>221</ele>
        <time>2018-06-12T10:28:50Z</time>
      </trkpt>
      <trkpt lat="45.90685" lon="4.70126">
        <ele>221</ele>
        <time>2018-06-12T10:28:51Z</time>
      </trkpt>
      <trkpt lat="45.90689" lon="4.70131">
        <ele>221</ele>
        <time>2018-06-12T10:28:52Z</time>
      </trkpt>
      <trkpt lat="45.90692" lon="4.70137">
        <ele>221</ele>
        <time>2018-06-12T10:28:53Z</time>
      </trkpt>
      <trkpt lat="45.90697" lon="4.70141">
        <ele>221</ele>
        <time>2018-06-12T10:28:54Z</time>
      </trkpt>
      <trkpt lat="45.90702" lon="4.70144">
        <ele>220</ele>
        <time>2018-06-12T10:28:55Z</time>
      </trkpt>
      <trkpt lat="45.90707" lon="4.70146">
        <ele>220</ele>
        <time>2018-06-12T10:28:56Z</time>
      </trkpt>
      <trkpt lat="45.90711" lon="4.70143">
        <ele>220</ele>
        <time>2018-06-12T10:28:57Z</time>
      </trkpt>
      <trkpt lat="45.90716" lon="4.70142">
        <ele>220</ele>
        <time>2018-06-12T10:28:58Z</time>
      </trkpt>
      <trkpt lat="45.90721" lon="4.70141">
        <ele>220</ele>
        <time>2018-06-12T10:28:59Z</time>
      </trkpt>
      <trkpt lat="45.90725" lon="4.70142">
        <ele>220</ele>
        <time>2018-06-12T10:29:00Z</time>
      </trkpt>
      <trkpt lat="45.90733" lon="4.70141">
        <ele>220</ele>
        <time>2018-06-12T10:29:01Z</time>
      </trkpt>
      <trkpt lat="45.9074" lon="4.70141">
        <ele>220</ele>
        <time>2018-06-12T10:29:02Z</time>
      </trkpt>
      <trkpt lat="45.90746" lon="4.70142">
        <ele>220</ele>
        <time>2018-06-12T10:29:03Z</time>
      </trkpt>
      <trkpt lat="45.90752" lon="4.70142">
        <ele>219</ele>
        <time>2018-06-12T10:29:04Z</time>
      </trkpt>
      <trkpt lat="45.90759" lon="4.70142">
        <ele>219</ele>
        <time>2018-06-12T10:29:05Z</time>
      </trkpt>
      <trkpt lat="45.90765" lon="4.70142">
        <ele>219</ele>
        <time>2018-06-12T10:29:06Z</time>
      </trkpt>
      <trkpt lat="45.90769" lon="4.70142">
        <ele>219</ele>
        <time>2018-06-12T10:29:07Z</time>
      </trkpt>
      <trkpt lat="45.90776" lon="4.70144">
        <ele>219</ele>
        <time>2018-06-12T10:29:08Z</time>
      </trkpt>
      <trkpt lat="45.90783" lon="4.70143">
        <ele>219</ele>
        <time>2018-06-12T10:29:09Z</time>
      </trkpt>
      <trkpt lat="45.90789" lon="4.70143">
        <ele>219</ele>
        <time>2018-06-12T10:29:10Z</time>
      </trkpt>
      <trkpt lat="45.90795" lon="4.70143">
        <ele>219</ele>
        <time>2018-06-12T10:29:11Z</time>
      </trkpt>
      <trkpt lat="45.90801" lon="4.70142">
        <ele>219</ele>
        <time>2018-06-12T10:29:12Z</time>
      </trkpt>
      <trkpt lat="45.90806" lon="4.70142">
        <ele>219</ele>
        <time>2018-06-12T10:29:13Z</time>
      </trkpt>
      <trkpt lat="45.90811" lon="4.70141">
        <ele>219</ele>
        <time>2018-06-12T10:29:14Z</time>
      </trkpt>
      <trkpt lat="45.90817" lon="4.70141">
        <ele>219</ele>
        <time>2018-06-12T10:29:15Z</time>
      </trkpt>
      <trkpt lat="45.90823" lon="4.70141">
        <ele>218</ele>
        <time>2018-06-12T10:29:16Z</time>
      </trkpt>
      <trkpt lat="45.9083" lon="4.7014">
        <ele>218</ele>
        <time>2018-06-12T10:29:17Z</time>
      </trkpt>
      <trkpt lat="45.90837" lon="4.70139">
        <ele>218</ele>
        <time>2018-06-12T10:29:18Z</time>
      </trkpt>
      <trkpt lat="45.90842" lon="4.70137">
        <ele>218</ele>
        <time>2018-06-12T10:29:19Z</time>
      </trkpt>
      <trkpt lat="45.90847" lon="4.70136">
        <ele>218</ele>
        <time>2018-06-12T10:29:20Z</time>
      </trkpt>
      <trkpt lat="45.90854" lon="4.70134">
        <ele>218</ele>
        <time>2018-06-12T10:29:21Z</time>
      </trkpt>
      <trkpt lat="45.90859" lon="4.70134">
        <ele>218</ele>
        <time>2018-06-12T10:29:22Z</time>
      </trkpt>
      <trkpt lat="45.90865" lon="4.70134">
        <ele>218</ele>
        <time>2018-06-12T10:29:23Z</time>
      </trkpt>
      <trkpt lat="45.9087" lon="4.70133">
        <ele>218</ele>
        <time>2018-06-12T10:29:24Z</time>
      </trkpt>
      <trkpt lat="45.90876" lon="4.70133">
        <ele>218</ele>
        <time>2018-06-12T10:29:25Z</time>
      </trkpt>
      <trkpt lat="45.90882" lon="4.70134">
        <ele>218</ele>
        <time>2018-06-12T10:29:26Z</time>
      </trkpt>
      <trkpt lat="45.90888" lon="4.70133">
        <ele>218</ele>
        <time>2018-06-12T10:29:27Z</time>
      </trkpt>
      <trkpt lat="45.90894" lon="4.70133">
        <ele>218</ele>
        <time>2018-06-12T10:29:28Z</time>
      </trkpt>
      <trkpt lat="45.909" lon="4.70131">
        <ele>219</ele>
        <time>2018-06-12T10:29:29Z</time>
      </trkpt>
      <trkpt lat="45.90905" lon="4.70131">
        <ele>219</ele>
        <time>2018-06-12T10:29:30Z</time>
      </trkpt>
      <trkpt lat="45.9091" lon="4.70131">
        <ele>219</ele>
        <time>2018-06-12T10:29:31Z</time>
      </trkpt>
      <trkpt lat="45.90917" lon="4.70129">
        <ele>219</ele>
        <time>2018-06-12T10:29:32Z</time>
      </trkpt>
      <trkpt lat="45.90926" lon="4.7013">
        <ele>219</ele>
        <time>2018-06-12T10:29:34Z</time>
      </trkpt>
      <trkpt lat="45.90931" lon="4.70131">
        <ele>219</ele>
        <time>2018-06-12T10:29:35Z</time>
      </trkpt>
      <trkpt lat="45.90938" lon="4.70133">
        <ele>219</ele>
        <time>2018-06-12T10:29:36Z</time>
      </trkpt>
      <trkpt lat="45.90944" lon="4.70135">
        <ele>219</ele>
        <time>2018-06-12T10:29:37Z</time>
      </trkpt>
      <trkpt lat="45.9095" lon="4.70137">
        <ele>219</ele>
        <time>2018-06-12T10:29:38Z</time>
      </trkpt>
      <trkpt lat="45.90957" lon="4.70139">
        <ele>218</ele>
        <time>2018-06-12T10:29:39Z</time>
      </trkpt>
      <trkpt lat="45.90963" lon="4.70141">
        <ele>218</ele>
        <time>2018-06-12T10:29:40Z</time>
      </trkpt>
      <trkpt lat="45.90969" lon="4.70144">
        <ele>218</ele>
        <time>2018-06-12T10:29:41Z</time>
      </trkpt>
      <trkpt lat="45.90975" lon="4.70145">
        <ele>218</ele>
        <time>2018-06-12T10:29:42Z</time>
      </trkpt>
      <trkpt lat="45.90981" lon="4.70146">
        <ele>218</ele>
        <time>2018-06-12T10:29:43Z</time>
      </trkpt>
      <trkpt lat="45.90985" lon="4.70148">
        <ele>218</ele>
        <time>2018-06-12T10:29:44Z</time>
      </trkpt>
      <trkpt lat="45.90992" lon="4.70149">
        <ele>218</ele>
        <time>2018-06-12T10:29:45Z</time>
      </trkpt>
      <trkpt lat="45.90998" lon="4.70151">
        <ele>217</ele>
        <time>2018-06-12T10:29:46Z</time>
      </trkpt>
      <trkpt lat="45.91004" lon="4.70153">
        <ele>217</ele>
        <time>2018-06-12T10:29:47Z</time>
      </trkpt>
      <trkpt lat="45.91011" lon="4.70155">
        <ele>218</ele>
        <time>2018-06-12T10:29:48Z</time>
      </trkpt>
      <trkpt lat="45.91017" lon="4.70156">
        <ele>218</ele>
        <time>2018-06-12T10:29:49Z</time>
      </trkpt>
      <trkpt lat="45.91022" lon="4.70157">
        <ele>218</ele>
        <time>2018-06-12T10:29:50Z</time>
      </trkpt>
      <trkpt lat="45.91029" lon="4.70159">
        <ele>218</ele>
        <time>2018-06-12T10:29:51Z</time>
      </trkpt>
      <trkpt lat="45.91035" lon="4.70162">
        <ele>218</ele>
        <time>2018-06-12T10:29:52Z</time>
      </trkpt>
      <trkpt lat="45.91041" lon="4.70165">
        <ele>218</ele>
        <time>2018-06-12T10:29:53Z</time>
      </trkpt>
      <trkpt lat="45.91048" lon="4.70167">
        <ele>215</ele>
        <time>2018-06-12T10:29:54Z</time>
      </trkpt>
      <trkpt lat="45.91056" lon="4.70169">
        <ele>216</ele>
        <time>2018-06-12T10:29:55Z</time>
      </trkpt>
      <trkpt lat="45.91063" lon="4.70173">
        <ele>216</ele>
        <time>2018-06-12T10:29:56Z</time>
      </trkpt>
      <trkpt lat="45.91068" lon="4.70175">
        <ele>216</ele>
        <time>2018-06-12T10:29:57Z</time>
      </trkpt>
      <trkpt lat="45.91075" lon="4.70177">
        <ele>216</ele>
        <time>2018-06-12T10:29:58Z</time>
      </trkpt>
      <trkpt lat="45.91081" lon="4.7018">
        <ele>216</ele>
        <time>2018-06-12T10:29:59Z</time>
      </trkpt>
      <trkpt lat="45.91088" lon="4.70182">
        <ele>216</ele>
        <time>2018-06-12T10:30:00Z</time>
      </trkpt>
      <trkpt lat="45.91096" lon="4.70184">
        <ele>216</ele>
        <time>2018-06-12T10:30:01Z</time>
      </trkpt>
      <trkpt lat="45.91105" lon="4.70186">
        <ele>215</ele>
        <time>2018-06-12T10:30:02Z</time>
      </trkpt>
      <trkpt lat="45.91112" lon="4.70188">
        <ele>215</ele>
        <time>2018-06-12T10:30:03Z</time>
      </trkpt>
      <trkpt lat="45.91118" lon="4.70191">
        <ele>215</ele>
        <time>2018-06-12T10:30:04Z</time>
      </trkpt>
      <trkpt lat="45.91126" lon="4.70191">
        <ele>215</ele>
        <time>2018-06-12T10:30:05Z</time>
      </trkpt>
      <trkpt lat="45.91133" lon="4.70193">
        <ele>215</ele>
        <time>2018-06-12T10:30:06Z</time>
      </trkpt>
      <trkpt lat="45.91141" lon="4.70194">
        <ele>215</ele>
        <time>2018-06-12T10:30:07Z</time>
      </trkpt>
      <trkpt lat="45.91149" lon="4.70195">
        <ele>215</ele>
        <time>2018-06-12T10:30:08Z</time>
      </trkpt>
      <trkpt lat="45.91157" lon="4.70197">
        <ele>215</ele>
        <time>2018-06-12T10:30:09Z</time>
      </trkpt>
      <trkpt lat="45.91162" lon="4.702">
        <ele>215</ele>
        <time>2018-06-12T10:30:10Z</time>
      </trkpt>
      <trkpt lat="45.9117" lon="4.70202">
        <ele>214</ele>
        <time>2018-06-12T10:30:11Z</time>
      </trkpt>
      <trkpt lat="45.91177" lon="4.70204">
        <ele>214</ele>
        <time>2018-06-12T10:30:12Z</time>
      </trkpt>
      <trkpt lat="45.91183" lon="4.70208">
        <ele>214</ele>
        <time>2018-06-12T10:30:13Z</time>
      </trkpt>
      <trkpt lat="45.91189" lon="4.70213">
        <ele>214</ele>
        <time>2018-06-12T10:30:14Z</time>
      </trkpt>
      <trkpt lat="45.91197" lon="4.70212">
        <ele>214</ele>
        <time>2018-06-12T10:30:15Z</time>
      </trkpt>
      <trkpt lat="45.91202" lon="4.70213">
        <ele>214</ele>
        <time>2018-06-12T10:30:16Z</time>
      </trkpt>
      <trkpt lat="45.91208" lon="4.70215">
        <ele>214</ele>
        <time>2018-06-12T10:30:17Z</time>
      </trkpt>
      <trkpt lat="45.91214" lon="4.7022">
        <ele>214</ele>
        <time>2018-06-12T10:30:18Z</time>
      </trkpt>
      <trkpt lat="45.91219" lon="4.70224">
        <ele>213</ele>
        <time>2018-06-12T10:30:19Z</time>
      </trkpt>
      <trkpt lat="45.91222" lon="4.70228">
        <ele>213</ele>
        <time>2018-06-12T10:30:20Z</time>
      </trkpt>
      <trkpt lat="45.91231" lon="4.70229">
        <ele>213</ele>
        <time>2018-06-12T10:30:21Z</time>
      </trkpt>
      <trkpt lat="45.91237" lon="4.70231">
        <ele>213</ele>
        <time>2018-06-12T10:30:22Z</time>
      </trkpt>
      <trkpt lat="45.91244" lon="4.70232">
        <ele>213</ele>
        <time>2018-06-12T10:30:23Z</time>
      </trkpt>
      <trkpt lat="45.91252" lon="4.70235">
        <ele>213</ele>
        <time>2018-06-12T10:30:24Z</time>
      </trkpt>
      <trkpt lat="45.91258" lon="4.70238">
        <ele>213</ele>
        <time>2018-06-12T10:30:25Z</time>
      </trkpt>
      <trkpt lat="45.91266" lon="4.70239">
        <ele>213</ele>
        <time>2018-06-12T10:30:26Z</time>
      </trkpt>
      <trkpt lat="45.9127" lon="4.70244">
        <ele>213</ele>
        <time>2018-06-12T10:30:27Z</time>
      </trkpt>
      <trkpt lat="45.91278" lon="4.70245">
        <ele>213</ele>
        <time>2018-06-12T10:30:28Z</time>
      </trkpt>
      <trkpt lat="45.91288" lon="4.70243">
        <ele>214</ele>
        <time>2018-06-12T10:30:29Z</time>
      </trkpt>
      <trkpt lat="45.91296" lon="4.70245">
        <ele>214</ele>
        <time>2018-06-12T10:30:30Z</time>
      </trkpt>
      <trkpt lat="45.91305" lon="4.70249">
        <ele>214</ele>
        <time>2018-06-12T10:30:31Z</time>
      </trkpt>
      <trkpt lat="45.91309" lon="4.70253">
        <ele>210</ele>
        <time>2018-06-12T10:30:32Z</time>
      </trkpt>
      <trkpt lat="45.91313" lon="4.70258">
        <ele>210</ele>
        <time>2018-06-12T10:30:33Z</time>
      </trkpt>
      <trkpt lat="45.91321" lon="4.7026">
        <ele>211</ele>
        <time>2018-06-12T10:30:34Z</time>
      </trkpt>
      <trkpt lat="45.91328" lon="4.70264">
        <ele>211</ele>
        <time>2018-06-12T10:30:35Z</time>
      </trkpt>
      <trkpt lat="45.91334" lon="4.7027">
        <ele>211</ele>
        <time>2018-06-12T10:30:36Z</time>
      </trkpt>
      <trkpt lat="45.91341" lon="4.70273">
        <ele>210</ele>
        <time>2018-06-12T10:30:37Z</time>
      </trkpt>
      <trkpt lat="45.91347" lon="4.70281">
        <ele>210</ele>
        <time>2018-06-12T10:30:38Z</time>
      </trkpt>
      <trkpt lat="45.91352" lon="4.70286">
        <ele>210</ele>
        <time>2018-06-12T10:30:39Z</time>
      </trkpt>
      <trkpt lat="45.91358" lon="4.70292">
        <ele>209</ele>
        <time>2018-06-12T10:30:40Z</time>
      </trkpt>
      <trkpt lat="45.91363" lon="4.70298">
        <ele>209</ele>
        <time>2018-06-12T10:30:41Z</time>
      </trkpt>
      <trkpt lat="45.9137" lon="4.703">
        <ele>209</ele>
        <time>2018-06-12T10:30:42Z</time>
      </trkpt>
      <trkpt lat="45.91376" lon="4.70305">
        <ele>209</ele>
        <time>2018-06-12T10:30:43Z</time>
      </trkpt>
      <trkpt lat="45.91382" lon="4.7031">
        <ele>209</ele>
        <time>2018-06-12T10:30:44Z</time>
      </trkpt>
      <trkpt lat="45.91387" lon="4.70314">
        <ele>209</ele>
        <time>2018-06-12T10:30:45Z</time>
      </trkpt>
      <trkpt lat="45.91393" lon="4.7032">
        <ele>209</ele>
        <time>2018-06-12T10:30:46Z</time>
      </trkpt>
      <trkpt lat="45.91399" lon="4.70325">
        <ele>209</ele>
        <time>2018-06-12T10:30:47Z</time>
      </trkpt>
      <trkpt lat="45.91405" lon="4.7033">
        <ele>208</ele>
        <time>2018-06-12T10:30:48Z</time>
      </trkpt>
      <trkpt lat="45.91413" lon="4.70336">
        <ele>208</ele>
        <time>2018-06-12T10:30:49Z</time>
      </trkpt>
      <trkpt lat="45.91419" lon="4.70343">
        <ele>207</ele>
        <time>2018-06-12T10:30:50Z</time>
      </trkpt>
      <trkpt lat="45.91425" lon="4.70349">
        <ele>207</ele>
        <time>2018-06-12T10:30:51Z</time>
      </trkpt>
      <trkpt lat="45.91432" lon="4.70354">
        <ele>207</ele>
        <time>2018-06-12T10:30:52Z</time>
      </trkpt>
      <trkpt lat="45.91439" lon="4.70361">
        <ele>206</ele>
        <time>2018-06-12T10:30:53Z</time>
      </trkpt>
      <trkpt lat="45.91445" lon="4.70367">
        <ele>206</ele>
        <time>2018-06-12T10:30:54Z</time>
      </trkpt>
      <trkpt lat="45.91451" lon="4.70373">
        <ele>206</ele>
        <time>2018-06-12T10:30:55Z</time>
      </trkpt>
      <trkpt lat="45.91459" lon="4.70379">
        <ele>206</ele>
        <time>2018-06-12T10:30:56Z</time>
      </trkpt>
      <trkpt lat="45.91464" lon="4.70385">
        <ele>206</ele>
        <time>2018-06-12T10:30:57Z</time>
      </trkpt>
      <trkpt lat="45.91471" lon="4.7039">
        <ele>205</ele>
        <time>2018-06-12T10:30:58Z</time>
      </trkpt>
      <trkpt lat="45.91477" lon="4.70396">
        <ele>205</ele>
        <time>2018-06-12T10:30:59Z</time>
      </trkpt>
      <trkpt lat="45.91484" lon="4.704">
        <ele>205</ele>
        <time>2018-06-12T10:31:00Z</time>
      </trkpt>
      <trkpt lat="45.91491" lon="4.70405">
        <ele>204</ele>
        <time>2018-06-12T10:31:01Z</time>
      </trkpt>
      <trkpt lat="45.91498" lon="4.70407">
        <ele>204</ele>
        <time>2018-06-12T10:31:02Z</time>
      </trkpt>
      <trkpt lat="45.91504" lon="4.70412">
        <ele>204</ele>
        <time>2018-06-12T10:31:03Z</time>
      </trkpt>
      <trkpt lat="45.9151" lon="4.70416">
        <ele>204</ele>
        <time>2018-06-12T10:31:04Z</time>
      </trkpt>
      <trkpt lat="45.91517" lon="4.70421">
        <ele>203</ele>
        <time>2018-06-12T10:31:05Z</time>
      </trkpt>
      <trkpt lat="45.91523" lon="4.70428">
        <ele>203</ele>
        <time>2018-06-12T10:31:06Z</time>
      </trkpt>
      <trkpt lat="45.91528" lon="4.70434">
        <ele>203</ele>
        <time>2018-06-12T10:31:07Z</time>
      </trkpt>
      <trkpt lat="45.91535" lon="4.7044">
        <ele>203</ele>
        <time>2018-06-12T10:31:08Z</time>
      </trkpt>
      <trkpt lat="45.91546" lon="4.70442">
        <ele>203</ele>
        <time>2018-06-12T10:31:09Z</time>
      </trkpt>
      <trkpt lat="45.91553" lon="4.70447">
        <ele>203</ele>
        <time>2018-06-12T10:31:10Z</time>
      </trkpt>
      <trkpt lat="45.9156" lon="4.70452">
        <ele>203</ele>
        <time>2018-06-12T10:31:11Z</time>
      </trkpt>
      <trkpt lat="45.91566" lon="4.70458">
        <ele>203</ele>
        <time>2018-06-12T10:31:12Z</time>
      </trkpt>
      <trkpt lat="45.91575" lon="4.70463">
        <ele>203</ele>
        <time>2018-06-12T10:31:13Z</time>
      </trkpt>
      <trkpt lat="45.91581" lon="4.70468">
        <ele>203</ele>
        <time>2018-06-12T10:31:14Z</time>
      </trkpt>
      <trkpt lat="45.91588" lon="4.70473">
        <ele>202</ele>
        <time>2018-06-12T10:31:15Z</time>
      </trkpt>
      <trkpt lat="45.91595" lon="4.70479">
        <ele>202</ele>
        <time>2018-06-12T10:31:16Z</time>
      </trkpt>
      <trkpt lat="45.91601" lon="4.70483">
        <ele>202</ele>
        <time>2018-06-12T10:31:17Z</time>
      </trkpt>
      <trkpt lat="45.91609" lon="4.70489">
        <ele>202</ele>
        <time>2018-06-12T10:31:18Z</time>
      </trkpt>
      <trkpt lat="45.91616" lon="4.70494">
        <ele>202</ele>
        <time>2018-06-12T10:31:19Z</time>
      </trkpt>
      <trkpt lat="45.91621" lon="4.705">
        <ele>202</ele>
        <time>2018-06-12T10:31:20Z</time>
      </trkpt>
      <trkpt lat="45.91628" lon="4.70506">
        <ele>199</ele>
        <time>2018-06-12T10:31:21Z</time>
      </trkpt>
      <trkpt lat="45.91634" lon="4.70511">
        <ele>199</ele>
        <time>2018-06-12T10:31:22Z</time>
      </trkpt>
      <trkpt lat="45.91643" lon="4.70515">
        <ele>199</ele>
        <time>2018-06-12T10:31:23Z</time>
      </trkpt>
      <trkpt lat="45.9165" lon="4.70521">
        <ele>199</ele>
        <time>2018-06-12T10:31:24Z</time>
      </trkpt>
      <trkpt lat="45.91656" lon="4.70527">
        <ele>198</ele>
        <time>2018-06-12T10:31:25Z</time>
      </trkpt>
      <trkpt lat="45.91663" lon="4.70533">
        <ele>198</ele>
        <time>2018-06-12T10:31:26Z</time>
      </trkpt>
      <trkpt lat="45.91669" lon="4.70539">
        <ele>198</ele>
        <time>2018-06-12T10:31:27Z</time>
      </trkpt>
      <trkpt lat="45.91675" lon="4.70543">
        <ele>198</ele>
        <time>2018-06-12T10:31:28Z</time>
      </trkpt>
      <trkpt lat="45.9168" lon="4.70548">
        <ele>198</ele>
        <time>2018-06-12T10:31:29Z</time>
      </trkpt>
      <trkpt lat="45.91684" lon="4.70554">
        <ele>198</ele>
        <time>2018-06-12T10:31:30Z</time>
      </trkpt>
      <trkpt lat="45.9169" lon="4.70559">
        <ele>198</ele>
        <time>2018-06-12T10:31:31Z</time>
      </trkpt>
      <trkpt lat="45.91697" lon="4.70562">
        <ele>198</ele>
        <time>2018-06-12T10:31:32Z</time>
      </trkpt>
      <trkpt lat="45.91701" lon="4.70567">
        <ele>197</ele>
        <time>2018-06-12T10:31:33Z</time>
      </trkpt>
      <trkpt lat="45.91705" lon="4.70574">
        <ele>197</ele>
        <time>2018-06-12T10:31:34Z</time>
      </trkpt>
      <trkpt lat="45.91708" lon="4.70581">
        <ele>197</ele>
        <time>2018-06-12T10:31:35Z</time>
      </trkpt>
      <trkpt lat="45.91713" lon="4.70587">
        <ele>196</ele>
        <time>2018-06-12T10:31:36Z</time>
      </trkpt>
      <trkpt lat="45.91719" lon="4.70591">
        <ele>195</ele>
        <time>2018-06-12T10:31:37Z</time>
      </trkpt>
      <trkpt lat="45.91728" lon="4.70592">
        <ele>196</ele>
        <time>2018-06-12T10:31:39Z</time>
      </trkpt>
      <trkpt lat="45.91736" lon="4.7059">
        <ele>196</ele>
        <time>2018-06-12T10:31:40Z</time>
      </trkpt>
      <trkpt lat="45.9174" lon="4.70597">
        <ele>196</ele>
        <time>2018-06-12T10:31:41Z</time>
      </trkpt>
      <trkpt lat="45.91746" lon="4.70602">
        <ele>195</ele>
        <time>2018-06-12T10:31:42Z</time>
      </trkpt>
      <trkpt lat="45.91752" lon="4.70606">
        <ele>195</ele>
        <time>2018-06-12T10:31:43Z</time>
      </trkpt>
      <trkpt lat="45.91759" lon="4.70608">
        <ele>195</ele>
        <time>2018-06-12T10:31:44Z</time>
      </trkpt>
      <trkpt lat="45.91766" lon="4.70611">
        <ele>195</ele>
        <time>2018-06-12T10:31:45Z</time>
      </trkpt>
      <trkpt lat="45.91774" lon="4.70613">
        <ele>195</ele>
        <time>2018-06-12T10:31:46Z</time>
      </trkpt>
      <trkpt lat="45.91781" lon="4.70616">
        <ele>194</ele>
        <time>2018-06-12T10:31:47Z</time>
      </trkpt>
      <trkpt lat="45.91787" lon="4.70617">
        <ele>194</ele>
        <time>2018-06-12T10:31:48Z</time>
      </trkpt>
      <trkpt lat="45.91794" lon="4.70618">
        <ele>194</ele>
        <time>2018-06-12T10:31:49Z</time>
      </trkpt>
      <trkpt lat="45.918" lon="4.70618">
        <ele>194</ele>
        <time>2018-06-12T10:31:50Z</time>
      </trkpt>
      <trkpt lat="45.91807" lon="4.70618">
        <ele>194</ele>
        <time>2018-06-12T10:31:51Z</time>
      </trkpt>
      <trkpt lat="45.91813" lon="4.7062">
        <ele>194</ele>
        <time>2018-06-12T10:31:52Z</time>
      </trkpt>
      <trkpt lat="45.9182" lon="4.70619">
        <ele>194</ele>
        <time>2018-06-12T10:31:53Z</time>
      </trkpt>
      <trkpt lat="45.91827" lon="4.7062">
        <ele>194</ele>
        <time>2018-06-12T10:31:54Z</time>
      </trkpt>
      <trkpt lat="45.91834" lon="4.7062">
        <ele>194</ele>
        <time>2018-06-12T10:31:55Z</time>
      </trkpt>
      <trkpt lat="45.91841" lon="4.7062">
        <ele>194</ele>
        <time>2018-06-12T10:31:56Z</time>
      </trkpt>
      <trkpt lat="45.91847" lon="4.70622">
        <ele>194</ele>
        <time>2018-06-12T10:31:57Z</time>
      </trkpt>
      <trkpt lat="45.91853" lon="4.70622">
        <ele>194</ele>
        <time>2018-06-12T10:31:58Z</time>
      </trkpt>
      <trkpt lat="45.9186" lon="4.70621">
        <ele>194</ele>
        <time>2018-06-12T10:31:59Z</time>
      </trkpt>
      <trkpt lat="45.91866" lon="4.70621">
        <ele>194</ele>
        <time>2018-06-12T10:32:00Z</time>
      </trkpt>
      <trkpt lat="45.91873" lon="4.70622">
        <ele>194</ele>
        <time>2018-06-12T10:32:01Z</time>
      </trkpt>
      <trkpt lat="45.9188" lon="4.70619">
        <ele>194</ele>
        <time>2018-06-12T10:32:02Z</time>
      </trkpt>
      <trkpt lat="45.91886" lon="4.70618">
        <ele>194</ele>
        <time>2018-06-12T10:32:03Z</time>
      </trkpt>
      <trkpt lat="45.91893" lon="4.70618">
        <ele>194</ele>
        <time>2018-06-12T10:32:04Z</time>
      </trkpt>
      <trkpt lat="45.91898" lon="4.70617">
        <ele>194</ele>
        <time>2018-06-12T10:32:05Z</time>
      </trkpt>
      <trkpt lat="45.91903" lon="4.70618">
        <ele>194</ele>
        <time>2018-06-12T10:32:06Z</time>
      </trkpt>
      <trkpt lat="45.91911" lon="4.70617">
        <ele>194</ele>
        <time>2018-06-12T10:32:07Z</time>
      </trkpt>
      <trkpt lat="45.91916" lon="4.70617">
        <ele>194</ele>
        <time>2018-06-12T10:32:08Z</time>
      </trkpt>
      <trkpt lat="45.9192" lon="4.70618">
        <ele>194</ele>
        <time>2018-06-12T10:32:09Z</time>
      </trkpt>
      <trkpt lat="45.91927" lon="4.70617">
        <ele>194</ele>
        <time>2018-06-12T10:32:10Z</time>
      </trkpt>
      <trkpt lat="45.91933" lon="4.70617">
        <ele>194</ele>
        <time>2018-06-12T10:32:11Z</time>
      </trkpt>
      <trkpt lat="45.9194" lon="4.70615">
        <ele>194</ele>
        <time>2018-06-12T10:32:12Z</time>
      </trkpt>
      <trkpt lat="45.91945" lon="4.70613">
        <ele>194</ele>
        <time>2018-06-12T10:32:13Z</time>
      </trkpt>
      <trkpt lat="45.91952" lon="4.70611">
        <ele>194</ele>
        <time>2018-06-12T10:32:14Z</time>
      </trkpt>
      <trkpt lat="45.91959" lon="4.7061">
        <ele>194</ele>
        <time>2018-06-12T10:32:15Z</time>
      </trkpt>
      <trkpt lat="45.91967" lon="4.70608">
        <ele>194</ele>
        <time>2018-06-12T10:32:16Z</time>
      </trkpt>
      <trkpt lat="45.91973" lon="4.70608">
        <ele>194</ele>
        <time>2018-06-12T10:32:17Z</time>
      </trkpt>
      <trkpt lat="45.91978" lon="4.70607">
        <ele>194</ele>
        <time>2018-06-12T10:32:18Z</time>
      </trkpt>
      <trkpt lat="45.91985" lon="4.70606">
        <ele>194</ele>
        <time>2018-06-12T10:32:19Z</time>
      </trkpt>
      <trkpt lat="45.91992" lon="4.70605">
        <ele>194</ele>
        <time>2018-06-12T10:32:20Z</time>
      </trkpt>
      <trkpt lat="45.91999" lon="4.70605">
        <ele>194</ele>
        <time>2018-06-12T10:32:21Z</time>
      </trkpt>
      <trkpt lat="45.92007" lon="4.70604">
        <ele>194</ele>
        <time>2018-06-12T10:32:22Z</time>
      </trkpt>
      <trkpt lat="45.92011" lon="4.706">
        <ele>194</ele>
        <time>2018-06-12T10:32:23Z</time>
      </trkpt>
      <trkpt lat="45.92017" lon="4.70599">
        <ele>194</ele>
        <time>2018-06-12T10:32:24Z</time>
      </trkpt>
      <trkpt lat="45.92024" lon="4.706">
        <ele>194</ele>
        <time>2018-06-12T10:32:25Z</time>
      </trkpt>
      <trkpt lat="45.92031" lon="4.70601">
        <ele>193</ele>
        <time>2018-06-12T10:32:26Z</time>
      </trkpt>
      <trkpt lat="45.92037" lon="4.70599">
        <ele>193</ele>
        <time>2018-06-12T10:32:27Z</time>
      </trkpt>
      <trkpt lat="45.92043" lon="4.70598">
        <ele>193</ele>
        <time>2018-06-12T10:32:28Z</time>
      </trkpt>
      <trkpt lat="45.92049" lon="4.706">
        <ele>193</ele>
        <time>2018-06-12T10:32:29Z</time>
      </trkpt>
      <trkpt lat="45.92055" lon="4.70599">
        <ele>193</ele>
        <time>2018-06-12T10:32:30Z</time>
      </trkpt>
      <trkpt lat="45.92061" lon="4.706">
        <ele>193</ele>
        <time>2018-06-12T10:32:31Z</time>
      </trkpt>
      <trkpt lat="45.92067" lon="4.70599">
        <ele>193</ele>
        <time>2018-06-12T10:32:32Z</time>
      </trkpt>
      <trkpt lat="45.92073" lon="4.70598">
        <ele>193</ele>
        <time>2018-06-12T10:32:33Z</time>
      </trkpt>
      <trkpt lat="45.92079" lon="4.70598">
        <ele>194</ele>
        <time>2018-06-12T10:32:34Z</time>
      </trkpt>
      <trkpt lat="45.92087" lon="4.70596">
        <ele>193</ele>
        <time>2018-06-12T10:32:35Z</time>
      </trkpt>
      <trkpt lat="45.92093" lon="4.70595">
        <ele>193</ele>
        <time>2018-06-12T10:32:36Z</time>
      </trkpt>
      <trkpt lat="45.92097" lon="4.70597">
        <ele>192</ele>
        <time>2018-06-12T10:32:37Z</time>
      </trkpt>
      <trkpt lat="45.92103" lon="4.70596">
        <ele>192</ele>
        <time>2018-06-12T10:32:38Z</time>
      </trkpt>
      <trkpt lat="45.92111" lon="4.70595">
        <ele>192</ele>
        <time>2018-06-12T10:32:39Z</time>
      </trkpt>
      <trkpt lat="45.92117" lon="4.70595">
        <ele>191</ele>
        <time>2018-06-12T10:32:40Z</time>
      </trkpt>
      <trkpt lat="45.92124" lon="4.70595">
        <ele>191</ele>
        <time>2018-06-12T10:32:41Z</time>
      </trkpt>
      <trkpt lat="45.92129" lon="4.70595">
        <ele>191</ele>
        <time>2018-06-12T10:32:42Z</time>
      </trkpt>
      <trkpt lat="45.92137" lon="4.70595">
        <ele>191</ele>
        <time>2018-06-12T10:32:43Z</time>
      </trkpt>
      <trkpt lat="45.92141" lon="4.70595">
        <ele>191</ele>
        <time>2018-06-12T10:32:44Z</time>
      </trkpt>
      <trkpt lat="45.92146" lon="4.70595">
        <ele>191</ele>
        <time>2018-06-12T10:32:45Z</time>
      </trkpt>
      <trkpt lat="45.9215" lon="4.7059">
        <ele>190</ele>
        <time>2018-06-12T10:32:46Z</time>
      </trkpt>
      <trkpt lat="45.92155" lon="4.70589">
        <ele>190</ele>
        <time>2018-06-12T10:32:47Z</time>
      </trkpt>
      <trkpt lat="45.92161" lon="4.70588">
        <ele>190</ele>
        <time>2018-06-12T10:32:48Z</time>
      </trkpt>
      <trkpt lat="45.92166" lon="4.70588">
        <ele>190</ele>
        <time>2018-06-12T10:32:49Z</time>
      </trkpt>
      <trkpt lat="45.92171" lon="4.70588">
        <ele>190</ele>
        <time>2018-06-12T10:32:50Z</time>
      </trkpt>
      <trkpt lat="45.92176" lon="4.70588">
        <ele>191</ele>
        <time>2018-06-12T10:32:51Z</time>
      </trkpt>
      <trkpt lat="45.92181" lon="4.70589">
        <ele>191</ele>
        <time>2018-06-12T10:32:52Z</time>
      </trkpt>
      <trkpt lat="45.92187" lon="4.70589">
        <ele>191</ele>
        <time>2018-06-12T10:32:53Z</time>
      </trkpt>
      <trkpt lat="45.92193" lon="4.70589">
        <ele>192</ele>
        <time>2018-06-12T10:32:54Z</time>
      </trkpt>
      <trkpt lat="45.92198" lon="4.7059">
        <ele>192</ele>
        <time>2018-06-12T10:32:55Z</time>
      </trkpt>
      <trkpt lat="45.92202" lon="4.70592">
        <ele>192</ele>
        <time>2018-06-12T10:32:56Z</time>
      </trkpt>
      <trkpt lat="45.92209" lon="4.70592">
        <ele>193</ele>
        <time>2018-06-12T10:32:57Z</time>
      </trkpt>
      <trkpt lat="45.92213" lon="4.70592">
        <ele>193</ele>
        <time>2018-06-12T10:32:58Z</time>
      </trkpt>
      <trkpt lat="45.92222" lon="4.70596">
        <ele>193</ele>
        <time>2018-06-12T10:33:00Z</time>
      </trkpt>
      <trkpt lat="45.92227" lon="4.70598">
        <ele>193</ele>
        <time>2018-06-12T10:33:01Z</time>
      </trkpt>
      <trkpt lat="45.92231" lon="4.706">
        <ele>194</ele>
        <time>2018-06-12T10:33:02Z</time>
      </trkpt>
      <trkpt lat="45.92237" lon="4.70601">
        <ele>194</ele>
        <time>2018-06-12T10:33:03Z</time>
      </trkpt>
      <trkpt lat="45.92242" lon="4.70603">
        <ele>194</ele>
        <time>2018-06-12T10:33:04Z</time>
      </trkpt>
      <trkpt lat="45.92247" lon="4.70604">
        <ele>194</ele>
        <time>2018-06-12T10:33:05Z</time>
      </trkpt>
      <trkpt lat="45.92253" lon="4.70606">
        <ele>196</ele>
        <time>2018-06-12T10:33:06Z</time>
      </trkpt>
      <trkpt lat="45.92257" lon="4.7061">
        <ele>196</ele>
        <time>2018-06-12T10:33:07Z</time>
      </trkpt>
      <trkpt lat="45.92264" lon="4.70611">
        <ele>196</ele>
        <time>2018-06-12T10:33:08Z</time>
      </trkpt>
      <trkpt lat="45.92268" lon="4.70613">
        <ele>196</ele>
        <time>2018-06-12T10:33:09Z</time>
      </trkpt>
      <trkpt lat="45.92276" lon="4.70618">
        <ele>196</ele>
        <time>2018-06-12T10:33:11Z</time>
      </trkpt>
      <trkpt lat="45.92282" lon="4.70619">
        <ele>196</ele>
        <time>2018-06-12T10:33:12Z</time>
      </trkpt>
      <trkpt lat="45.92287" lon="4.70623">
        <ele>196</ele>
        <time>2018-06-12T10:33:13Z</time>
      </trkpt>
      <trkpt lat="45.92294" lon="4.70624">
        <ele>196</ele>
        <time>2018-06-12T10:33:14Z</time>
      </trkpt>
      <trkpt lat="45.92299" lon="4.70627">
        <ele>196</ele>
        <time>2018-06-12T10:33:15Z</time>
      </trkpt>
      <trkpt lat="45.92305" lon="4.70629">
        <ele>196</ele>
        <time>2018-06-12T10:33:16Z</time>
      </trkpt>
      <trkpt lat="45.9231" lon="4.70632">
        <ele>196</ele>
        <time>2018-06-12T10:33:17Z</time>
      </trkpt>
      <trkpt lat="45.92314" lon="4.70636">
        <ele>196</ele>
        <time>2018-06-12T10:33:18Z</time>
      </trkpt>
      <trkpt lat="45.9232" lon="4.70639">
        <ele>196</ele>
        <time>2018-06-12T10:33:19Z</time>
      </trkpt>
      <trkpt lat="45.92324" lon="4.70643">
        <ele>196</ele>
        <time>2018-06-12T10:33:20Z</time>
      </trkpt>
      <trkpt lat="45.9233" lon="4.70646">
        <ele>196</ele>
        <time>2018-06-12T10:33:21Z</time>
      </trkpt>
      <trkpt lat="45.92335" lon="4.7065">
        <ele>196</ele>
        <time>2018-06-12T10:33:22Z</time>
      </trkpt>
      <trkpt lat="45.9234" lon="4.70653">
        <ele>196</ele>
        <time>2018-06-12T10:33:23Z</time>
      </trkpt>
      <trkpt lat="45.92346" lon="4.70656">
        <ele>196</ele>
        <time>2018-06-12T10:33:24Z</time>
      </trkpt>
      <trkpt lat="45.9235" lon="4.7066">
        <ele>196</ele>
        <time>2018-06-12T10:33:25Z</time>
      </trkpt>
      <trkpt lat="45.92355" lon="4.70663">
        <ele>196</ele>
        <time>2018-06-12T10:33:26Z</time>
      </trkpt>
      <trkpt lat="45.9236" lon="4.70666">
        <ele>196</ele>
        <time>2018-06-12T10:33:27Z</time>
      </trkpt>
      <trkpt lat="45.92366" lon="4.70669">
        <ele>194</ele>
        <time>2018-06-12T10:33:28Z</time>
      </trkpt>
      <trkpt lat="45.92371" lon="4.70672">
        <ele>194</ele>
        <time>2018-06-12T10:33:29Z</time>
      </trkpt>
      <trkpt lat="45.92377" lon="4.70674">
        <ele>194</ele>
        <time>2018-06-12T10:33:30Z</time>
      </trkpt>
      <trkpt lat="45.92382" lon="4.70678">
        <ele>194</ele>
        <time>2018-06-12T10:33:31Z</time>
      </trkpt>
      <trkpt lat="45.92386" lon="4.7068">
        <ele>194</ele>
        <time>2018-06-12T10:33:32Z</time>
      </trkpt>
      <trkpt lat="45.9239" lon="4.70684">
        <ele>194</ele>
        <time>2018-06-12T10:33:33Z</time>
      </trkpt>
      <trkpt lat="45.92395" lon="4.70687">
        <ele>194</ele>
        <time>2018-06-12T10:33:34Z</time>
      </trkpt>
      <trkpt lat="45.92401" lon="4.7069">
        <ele>194</ele>
        <time>2018-06-12T10:33:35Z</time>
      </trkpt>
      <trkpt lat="45.92407" lon="4.70693">
        <ele>194</ele>
        <time>2018-06-12T10:33:36Z</time>
      </trkpt>
      <trkpt lat="45.92413" lon="4.70695">
        <ele>194</ele>
        <time>2018-06-12T10:33:37Z</time>
      </trkpt>
      <trkpt lat="45.92416" lon="4.70698">
        <ele>194</ele>
        <time>2018-06-12T10:33:38Z</time>
      </trkpt>
      <trkpt lat="45.9242" lon="4.707">
        <ele>194</ele>
        <time>2018-06-12T10:33:39Z</time>
      </trkpt>
      <trkpt lat="45.92427" lon="4.70704">
        <ele>194</ele>
        <time>2018-06-12T10:33:40Z</time>
      </trkpt>
      <trkpt lat="45.92431" lon="4.70707">
        <ele>194</ele>
        <time>2018-06-12T10:33:41Z</time>
      </trkpt>
      <trkpt lat="45.92437" lon="4.70711">
        <ele>194</ele>
        <time>2018-06-12T10:33:42Z</time>
      </trkpt>
      <trkpt lat="45.92442" lon="4.70713">
        <ele>194</ele>
        <time>2018-06-12T10:33:43Z</time>
      </trkpt>
      <trkpt lat="45.9245" lon="4.70713">
        <ele>194</ele>
        <time>2018-06-12T10:33:44Z</time>
      </trkpt>
      <trkpt lat="45.92454" lon="4.70716">
        <ele>194</ele>
        <time>2018-06-12T10:33:45Z</time>
      </trkpt>
      <trkpt lat="45.9246" lon="4.70719">
        <ele>194</ele>
        <time>2018-06-12T10:33:46Z</time>
      </trkpt>
      <trkpt lat="45.92465" lon="4.70723">
        <ele>194</ele>
        <time>2018-06-12T10:33:47Z</time>
      </trkpt>
      <trkpt lat="45.92469" lon="4.70726">
        <ele>194</ele>
        <time>2018-06-12T10:33:48Z</time>
      </trkpt>
      <trkpt lat="45.92474" lon="4.70729">
        <ele>194</ele>
        <time>2018-06-12T10:33:49Z</time>
      </trkpt>
      <trkpt lat="45.92478" lon="4.70732">
        <ele>194</ele>
        <time>2018-06-12T10:33:50Z</time>
      </trkpt>
      <trkpt lat="45.92483" lon="4.70734">
        <ele>194</ele>
        <time>2018-06-12T10:33:51Z</time>
      </trkpt>
      <trkpt lat="45.92489" lon="4.70736">
        <ele>194</ele>
        <time>2018-06-12T10:33:52Z</time>
      </trkpt>
      <trkpt lat="45.92493" lon="4.70739">
        <ele>194</ele>
        <time>2018-06-12T10:33:53Z</time>
      </trkpt>
      <trkpt lat="45.92498" lon="4.70741">
        <ele>194</ele>
        <time>2018-06-12T10:33:54Z</time>
      </trkpt>
      <trkpt lat="45.92503" lon="4.70743">
        <ele>195</ele>
        <time>2018-06-12T10:33:55Z</time>
      </trkpt>
      <trkpt lat="45.92508" lon="4.70746">
        <ele>195</ele>
        <time>2018-06-12T10:33:56Z</time>
      </trkpt>
      <trkpt lat="45.92512" lon="4.70747">
        <ele>195</ele>
        <time>2018-06-12T10:33:57Z</time>
      </trkpt>
      <trkpt lat="45.92517" lon="4.70749">
        <ele>196</ele>
        <time>2018-06-12T10:33:58Z</time>
      </trkpt>
      <trkpt lat="45.92521" lon="4.70751">
        <ele>195</ele>
        <time>2018-06-12T10:33:59Z</time>
      </trkpt>
      <trkpt lat="45.92525" lon="4.70753">
        <ele>195</ele>
        <time>2018-06-12T10:34:00Z</time>
      </trkpt>
      <trkpt lat="45.9253" lon="4.70756">
        <ele>195</ele>
        <time>2018-06-12T10:34:01Z</time>
      </trkpt>
      <trkpt lat="45.92534" lon="4.70758">
        <ele>195</ele>
        <time>2018-06-12T10:34:02Z</time>
      </trkpt>
      <trkpt lat="45.92539" lon="4.70762">
        <ele>195</ele>
        <time>2018-06-12T10:34:03Z</time>
      </trkpt>
      <trkpt lat="45.92543" lon="4.70765">
        <ele>195</ele>
        <time>2018-06-12T10:34:04Z</time>
      </trkpt>
      <trkpt lat="45.92547" lon="4.70767">
        <ele>195</ele>
        <time>2018-06-12T10:34:05Z</time>
      </trkpt>
      <trkpt lat="45.92551" lon="4.7077">
        <ele>196</ele>
        <time>2018-06-12T10:34:06Z</time>
      </trkpt>
      <trkpt lat="45.92559" lon="4.70775">
        <ele>196</ele>
        <time>2018-06-12T10:34:08Z</time>
      </trkpt>
      <trkpt lat="45.92564" lon="4.70778">
        <ele>196</ele>
        <time>2018-06-12T10:34:09Z</time>
      </trkpt>
      <trkpt lat="45.92568" lon="4.70781">
        <ele>196</ele>
        <time>2018-06-12T10:34:10Z</time>
      </trkpt>
      <trkpt lat="45.92571" lon="4.70786">
        <ele>196</ele>
        <time>2018-06-12T10:34:11Z</time>
      </trkpt>
      <trkpt lat="45.92576" lon="4.70789">
        <ele>196</ele>
        <time>2018-06-12T10:34:12Z</time>
      </trkpt>
      <trkpt lat="45.9258" lon="4.70792">
        <ele>196</ele>
        <time>2018-06-12T10:34:13Z</time>
      </trkpt>
      <trkpt lat="45.92584" lon="4.70795">
        <ele>198</ele>
        <time>2018-06-12T10:34:14Z</time>
      </trkpt>
      <trkpt lat="45.92588" lon="4.708">
        <ele>198</ele>
        <time>2018-06-12T10:34:15Z</time>
      </trkpt>
      <trkpt lat="45.92595" lon="4.70808">
        <ele>198</ele>
        <time>2018-06-12T10:34:17Z</time>
      </trkpt>
      <trkpt lat="45.92599" lon="4.70812">
        <ele>198</ele>
        <time>2018-06-12T10:34:18Z</time>
      </trkpt>
      <trkpt lat="45.92603" lon="4.70816">
        <ele>198</ele>
        <time>2018-06-12T10:34:19Z</time>
      </trkpt>
      <trkpt lat="45.92606" lon="4.70819">
        <ele>198</ele>
        <time>2018-06-12T10:34:20Z</time>
      </trkpt>
      <trkpt lat="45.92613" lon="4.70826">
        <ele>198</ele>
        <time>2018-06-12T10:34:22Z</time>
      </trkpt>
      <trkpt lat="45.92617" lon="4.70829">
        <ele>199</ele>
        <time>2018-06-12T10:34:23Z</time>
      </trkpt>
      <trkpt lat="45.92621" lon="4.70833">
        <ele>199</ele>
        <time>2018-06-12T10:34:24Z</time>
      </trkpt>
      <trkpt lat="45.92624" lon="4.70837">
        <ele>198</ele>
        <time>2018-06-12T10:34:25Z</time>
      </trkpt>
      <trkpt lat="45.92628" lon="4.70841">
        <ele>198</ele>
        <time>2018-06-12T10:34:26Z</time>
      </trkpt>
      <trkpt lat="45.92633" lon="4.70844">
        <ele>198</ele>
        <time>2018-06-12T10:34:27Z</time>
      </trkpt>
      <trkpt lat="45.92637" lon="4.70848">
        <ele>198</ele>
        <time>2018-06-12T10:34:28Z</time>
      </trkpt>
      <trkpt lat="45.9264" lon="4.70852">
        <ele>198</ele>
        <time>2018-06-12T10:34:29Z</time>
      </trkpt>
      <trkpt lat="45.92644" lon="4.70857">
        <ele>198</ele>
        <time>2018-06-12T10:34:30Z</time>
      </trkpt>
      <trkpt lat="45.92648" lon="4.70861">
        <ele>198</ele>
        <time>2018-06-12T10:34:31Z</time>
      </trkpt>
      <trkpt lat="45.92653" lon="4.70863">
        <ele>198</ele>
        <time>2018-06-12T10:34:32Z</time>
      </trkpt>
      <trkpt lat="45.92659" lon="4.70867">
        <ele>198</ele>
        <time>2018-06-12T10:34:33Z</time>
      </trkpt>
      <trkpt lat="45.92666" lon="4.70874">
        <ele>198</ele>
        <time>2018-06-12T10:34:35Z</time>
      </trkpt>
      <trkpt lat="45.9267" lon="4.70879">
        <ele>198</ele>
        <time>2018-06-12T10:34:36Z</time>
      </trkpt>
      <trkpt lat="45.92674" lon="4.70881">
        <ele>198</ele>
        <time>2018-06-12T10:34:37Z</time>
      </trkpt>
      <trkpt lat="45.92679" lon="4.70885">
        <ele>198</ele>
        <time>2018-06-12T10:34:38Z</time>
      </trkpt>
      <trkpt lat="45.92684" lon="4.7089">
        <ele>198</ele>
        <time>2018-06-12T10:34:39Z</time>
      </trkpt>
      <trkpt lat="45.92687" lon="4.70893">
        <ele>198</ele>
        <time>2018-06-12T10:34:40Z</time>
      </trkpt>
      <trkpt lat="45.92693" lon="4.70896">
        <ele>197</ele>
        <time>2018-06-12T10:34:41Z</time>
      </trkpt>
      <trkpt lat="45.92697" lon="4.70899">
        <ele>197</ele>
        <time>2018-06-12T10:34:42Z</time>
      </trkpt>
      <trkpt lat="45.92702" lon="4.70903">
        <ele>197</ele>
        <time>2018-06-12T10:34:43Z</time>
      </trkpt>
      <trkpt lat="45.92706" lon="4.70906">
        <ele>197</ele>
        <time>2018-06-12T10:34:44Z</time>
      </trkpt>
      <trkpt lat="45.9271" lon="4.70909">
        <ele>197</ele>
        <time>2018-06-12T10:34:45Z</time>
      </trkpt>
      <trkpt lat="45.92715" lon="4.70911">
        <ele>197</ele>
        <time>2018-06-12T10:34:46Z</time>
      </trkpt>
      <trkpt lat="45.9272" lon="4.70913">
        <ele>197</ele>
        <time>2018-06-12T10:34:47Z</time>
      </trkpt>
      <trkpt lat="45.92726" lon="4.70915">
        <ele>197</ele>
        <time>2018-06-12T10:34:48Z</time>
      </trkpt>
      <trkpt lat="45.92731" lon="4.70918">
        <ele>195</ele>
        <time>2018-06-12T10:34:49Z</time>
      </trkpt>
      <trkpt lat="45.92736" lon="4.7092">
        <ele>195</ele>
        <time>2018-06-12T10:34:50Z</time>
      </trkpt>
      <trkpt lat="45.92742" lon="4.70921">
        <ele>195</ele>
        <time>2018-06-12T10:34:51Z</time>
      </trkpt>
      <trkpt lat="45.92747" lon="4.70922">
        <ele>196</ele>
        <time>2018-06-12T10:34:52Z</time>
      </trkpt>
      <trkpt lat="45.92753" lon="4.70923">
        <ele>196</ele>
        <time>2018-06-12T10:34:53Z</time>
      </trkpt>
      <trkpt lat="45.92758" lon="4.70924">
        <ele>196</ele>
        <time>2018-06-12T10:34:54Z</time>
      </trkpt>
      <trkpt lat="45.92763" lon="4.70925">
        <ele>196</ele>
        <time>2018-06-12T10:34:55Z</time>
      </trkpt>
      <trkpt lat="45.92769" lon="4.70926">
        <ele>196</ele>
        <time>2018-06-12T10:34:56Z</time>
      </trkpt>
      <trkpt lat="45.92774" lon="4.70927">
        <ele>196</ele>
        <time>2018-06-12T10:34:57Z</time>
      </trkpt>
      <trkpt lat="45.92779" lon="4.70927">
        <ele>196</ele>
        <time>2018-06-12T10:34:58Z</time>
      </trkpt>
      <trkpt lat="45.92785" lon="4.7093">
        <ele>196</ele>
        <time>2018-06-12T10:34:59Z</time>
      </trkpt>
      <trkpt lat="45.92789" lon="4.70932">
        <ele>196</ele>
        <time>2018-06-12T10:35:00Z</time>
      </trkpt>
      <trkpt lat="45.92794" lon="4.70935">
        <ele>196</ele>
        <time>2018-06-12T10:35:01Z</time>
      </trkpt>
      <trkpt lat="45.92799" lon="4.70938">
        <ele>196</ele>
        <time>2018-06-12T10:35:02Z</time>
      </trkpt>
      <trkpt lat="45.92804" lon="4.70942">
        <ele>196</ele>
        <time>2018-06-12T10:35:03Z</time>
      </trkpt>
      <trkpt lat="45.92809" lon="4.70946">
        <ele>196</ele>
        <time>2018-06-12T10:35:04Z</time>
      </trkpt>
      <trkpt lat="45.92817" lon="4.70946">
        <ele>197</ele>
        <time>2018-06-12T10:35:05Z</time>
      </trkpt>
      <trkpt lat="45.92821" lon="4.70945">
        <ele>197</ele>
        <time>2018-06-12T10:35:06Z</time>
      </trkpt>
      <trkpt lat="45.92826" lon="4.70944">
        <ele>197</ele>
        <time>2018-06-12T10:35:07Z</time>
      </trkpt>
      <trkpt lat="45.92831" lon="4.70941">
        <ele>197</ele>
        <time>2018-06-12T10:35:08Z</time>
      </trkpt>
      <trkpt lat="45.92836" lon="4.7094">
        <ele>198</ele>
        <time>2018-06-12T10:35:09Z</time>
      </trkpt>
      <trkpt lat="45.9284" lon="4.7094">
        <ele>198</ele>
        <time>2018-06-12T10:35:10Z</time>
      </trkpt>
      <trkpt lat="45.92845" lon="4.70941">
        <ele>198</ele>
        <time>2018-06-12T10:35:11Z</time>
      </trkpt>
      <trkpt lat="45.9285" lon="4.70943">
        <ele>198</ele>
        <time>2018-06-12T10:35:12Z</time>
      </trkpt>
      <trkpt lat="45.92856" lon="4.70946">
        <ele>198</ele>
        <time>2018-06-12T10:35:13Z</time>
      </trkpt>
      <trkpt lat="45.92861" lon="4.70946">
        <ele>198</ele>
        <time>2018-06-12T10:35:14Z</time>
      </trkpt>
      <trkpt lat="45.92867" lon="4.70947">
        <ele>198</ele>
        <time>2018-06-12T10:35:15Z</time>
      </trkpt>
      <trkpt lat="45.92873" lon="4.70948">
        <ele>198</ele>
        <time>2018-06-12T10:35:16Z</time>
      </trkpt>
      <trkpt lat="45.92878" lon="4.7095">
        <ele>198</ele>
        <time>2018-06-12T10:35:17Z</time>
      </trkpt>
      <trkpt lat="45.92884" lon="4.70951">
        <ele>198</ele>
        <time>2018-06-12T10:35:18Z</time>
      </trkpt>
      <trkpt lat="45.92891" lon="4.70953">
        <ele>198</ele>
        <time>2018-06-12T10:35:19Z</time>
      </trkpt>
      <trkpt lat="45.92897" lon="4.70954">
        <ele>198</ele>
        <time>2018-06-12T10:35:20Z</time>
      </trkpt>
      <trkpt lat="45.92903" lon="4.70956">
        <ele>198</ele>
        <time>2018-06-12T10:35:21Z</time>
      </trkpt>
      <trkpt lat="45.92908" lon="4.70957">
        <ele>198</ele>
        <time>2018-06-12T10:35:22Z</time>
      </trkpt>
      <trkpt lat="45.92913" lon="4.70958">
        <ele>198</ele>
        <time>2018-06-12T10:35:23Z</time>
      </trkpt>
      <trkpt lat="45.92919" lon="4.7096">
        <ele>198</ele>
        <time>2018-06-12T10:35:24Z</time>
      </trkpt>
      <trkpt lat="45.92925" lon="4.70963">
        <ele>198</ele>
        <time>2018-06-12T10:35:25Z</time>
      </trkpt>
      <trkpt lat="45.92929" lon="4.70965">
        <ele>198</ele>
        <time>2018-06-12T10:35:26Z</time>
      </trkpt>
      <trkpt lat="45.92935" lon="4.70966">
        <ele>198</ele>
        <time>2018-06-12T10:35:27Z</time>
      </trkpt>
      <trkpt lat="45.92941" lon="4.70967">
        <ele>198</ele>
        <time>2018-06-12T10:35:28Z</time>
      </trkpt>
      <trkpt lat="45.92947" lon="4.7097">
        <ele>198</ele>
        <time>2018-06-12T10:35:29Z</time>
      </trkpt>
      <trkpt lat="45.92951" lon="4.70972">
        <ele>198</ele>
        <time>2018-06-12T10:35:30Z</time>
      </trkpt>
      <trkpt lat="45.92958" lon="4.70973">
        <ele>198</ele>
        <time>2018-06-12T10:35:31Z</time>
      </trkpt>
      <trkpt lat="45.92963" lon="4.70974">
        <ele>198</ele>
        <time>2018-06-12T10:35:32Z</time>
      </trkpt>
      <trkpt lat="45.9297" lon="4.70975">
        <ele>198</ele>
        <time>2018-06-12T10:35:33Z</time>
      </trkpt>
      <trkpt lat="45.92976" lon="4.70977">
        <ele>198</ele>
        <time>2018-06-12T10:35:34Z</time>
      </trkpt>
      <trkpt lat="45.92981" lon="4.70981">
        <ele>198</ele>
        <time>2018-06-12T10:35:35Z</time>
      </trkpt>
      <trkpt lat="45.92988" lon="4.70981">
        <ele>198</ele>
        <time>2018-06-12T10:35:36Z</time>
      </trkpt>
      <trkpt lat="45.92994" lon="4.70983">
        <ele>198</ele>
        <time>2018-06-12T10:35:37Z</time>
      </trkpt>
      <trkpt lat="45.93" lon="4.70986">
        <ele>197</ele>
        <time>2018-06-12T10:35:38Z</time>
      </trkpt>
      <trkpt lat="45.93006" lon="4.70989">
        <ele>198</ele>
        <time>2018-06-12T10:35:39Z</time>
      </trkpt>
      <trkpt lat="45.93012" lon="4.70992">
        <ele>198</ele>
        <time>2018-06-12T10:35:40Z</time>
      </trkpt>
      <trkpt lat="45.9302" lon="4.70995">
        <ele>198</ele>
        <time>2018-06-12T10:35:41Z</time>
      </trkpt>
      <trkpt lat="45.93026" lon="4.70999">
        <ele>198</ele>
        <time>2018-06-12T10:35:42Z</time>
      </trkpt>
      <trkpt lat="45.93032" lon="4.71003">
        <ele>197</ele>
        <time>2018-06-12T10:35:43Z</time>
      </trkpt>
      <trkpt lat="45.93038" lon="4.71006">
        <ele>197</ele>
        <time>2018-06-12T10:35:44Z</time>
      </trkpt>
      <trkpt lat="45.93044" lon="4.71011">
        <ele>197</ele>
        <time>2018-06-12T10:35:45Z</time>
      </trkpt>
      <trkpt lat="45.93052" lon="4.71014">
        <ele>197</ele>
        <time>2018-06-12T10:35:46Z</time>
      </trkpt>
      <trkpt lat="45.93057" lon="4.71019">
        <ele>197</ele>
        <time>2018-06-12T10:35:47Z</time>
      </trkpt>
      <trkpt lat="45.93063" lon="4.71025">
        <ele>197</ele>
        <time>2018-06-12T10:35:48Z</time>
      </trkpt>
      <trkpt lat="45.93069" lon="4.7103">
        <ele>197</ele>
        <time>2018-06-12T10:35:49Z</time>
      </trkpt>
      <trkpt lat="45.93074" lon="4.71036">
        <ele>196</ele>
        <time>2018-06-12T10:35:50Z</time>
      </trkpt>
      <trkpt lat="45.9308" lon="4.71042">
        <ele>196</ele>
        <time>2018-06-12T10:35:51Z</time>
      </trkpt>
      <trkpt lat="45.93086" lon="4.71048">
        <ele>196</ele>
        <time>2018-06-12T10:35:52Z</time>
      </trkpt>
      <trkpt lat="45.93091" lon="4.71055">
        <ele>195</ele>
        <time>2018-06-12T10:35:53Z</time>
      </trkpt>
      <trkpt lat="45.93096" lon="4.71063">
        <ele>195</ele>
        <time>2018-06-12T10:35:54Z</time>
      </trkpt>
      <trkpt lat="45.93103" lon="4.71069">
        <ele>195</ele>
        <time>2018-06-12T10:35:55Z</time>
      </trkpt>
      <trkpt lat="45.93107" lon="4.71076">
        <ele>195</ele>
        <time>2018-06-12T10:35:56Z</time>
      </trkpt>
      <trkpt lat="45.93112" lon="4.71084">
        <ele>193</ele>
        <time>2018-06-12T10:35:57Z</time>
      </trkpt>
      <trkpt lat="45.93117" lon="4.71091">
        <ele>193</ele>
        <time>2018-06-12T10:35:58Z</time>
      </trkpt>
      <trkpt lat="45.93119" lon="4.711">
        <ele>192</ele>
        <time>2018-06-12T10:35:59Z</time>
      </trkpt>
      <trkpt lat="45.93123" lon="4.71109">
        <ele>192</ele>
        <time>2018-06-12T10:36:00Z</time>
      </trkpt>
      <trkpt lat="45.93127" lon="4.71118">
        <ele>192</ele>
        <time>2018-06-12T10:36:01Z</time>
      </trkpt>
      <trkpt lat="45.93132" lon="4.71127">
        <ele>192</ele>
        <time>2018-06-12T10:36:02Z</time>
      </trkpt>
      <trkpt lat="45.93136" lon="4.71135">
        <ele>192</ele>
        <time>2018-06-12T10:36:03Z</time>
      </trkpt>
      <trkpt lat="45.9314" lon="4.71144">
        <ele>191</ele>
        <time>2018-06-12T10:36:04Z</time>
      </trkpt>
      <trkpt lat="45.93144" lon="4.71154">
        <ele>191</ele>
        <time>2018-06-12T10:36:05Z</time>
      </trkpt>
      <trkpt lat="45.93148" lon="4.71162">
        <ele>191</ele>
        <time>2018-06-12T10:36:06Z</time>
      </trkpt>
      <trkpt lat="45.9315" lon="4.71172">
        <ele>190</ele>
        <time>2018-06-12T10:36:07Z</time>
      </trkpt>
      <trkpt lat="45.93154" lon="4.71181">
        <ele>190</ele>
        <time>2018-06-12T10:36:08Z</time>
      </trkpt>
      <trkpt lat="45.9316" lon="4.71188">
        <ele>190</ele>
        <time>2018-06-12T10:36:09Z</time>
      </trkpt>
      <trkpt lat="45.93165" lon="4.71196">
        <ele>190</ele>
        <time>2018-06-12T10:36:10Z</time>
      </trkpt>
      <trkpt lat="45.9317" lon="4.71205">
        <ele>190</ele>
        <time>2018-06-12T10:36:11Z</time>
      </trkpt>
      <trkpt lat="45.93177" lon="4.71214">
        <ele>190</ele>
        <time>2018-06-12T10:36:12Z</time>
      </trkpt>
      <trkpt lat="45.93182" lon="4.71224">
        <ele>190</ele>
        <time>2018-06-12T10:36:13Z</time>
      </trkpt>
      <trkpt lat="45.93186" lon="4.71234">
        <ele>190</ele>
        <time>2018-06-12T10:36:14Z</time>
      </trkpt>
      <trkpt lat="45.93189" lon="4.71244">
        <ele>190</ele>
        <time>2018-06-12T10:36:15Z</time>
      </trkpt>
      <trkpt lat="45.93193" lon="4.71253">
        <ele>189</ele>
        <time>2018-06-12T10:36:16Z</time>
      </trkpt>
      <trkpt lat="45.93197" lon="4.71262">
        <ele>189</ele>
        <time>2018-06-12T10:36:17Z</time>
      </trkpt>
      <trkpt lat="45.93202" lon="4.71271">
        <ele>188</ele>
        <time>2018-06-12T10:36:18Z</time>
      </trkpt>
      <trkpt lat="45.93206" lon="4.71281">
        <ele>188</ele>
        <time>2018-06-12T10:36:19Z</time>
      </trkpt>
      <trkpt lat="45.93211" lon="4.71289">
        <ele>188</ele>
        <time>2018-06-12T10:36:20Z</time>
      </trkpt>
      <trkpt lat="45.93214" lon="4.71299">
        <ele>188</ele>
        <time>2018-06-12T10:36:21Z</time>
      </trkpt>
      <trkpt lat="45.93217" lon="4.71309">
        <ele>188</ele>
        <time>2018-06-12T10:36:22Z</time>
      </trkpt>
      <trkpt lat="45.93221" lon="4.71318">
        <ele>187</ele>
        <time>2018-06-12T10:36:23Z</time>
      </trkpt>
      <trkpt lat="45.93224" lon="4.71329">
        <ele>187</ele>
        <time>2018-06-12T10:36:24Z</time>
      </trkpt>
      <trkpt lat="45.93228" lon="4.7134">
        <ele>186</ele>
        <time>2018-06-12T10:36:25Z</time>
      </trkpt>
      <trkpt lat="45.93231" lon="4.7135">
        <ele>186</ele>
        <time>2018-06-12T10:36:26Z</time>
      </trkpt>
      <trkpt lat="45.93236" lon="4.7136">
        <ele>186</ele>
        <time>2018-06-12T10:36:27Z</time>
      </trkpt>
      <trkpt lat="45.93239" lon="4.7137">
        <ele>186</ele>
        <time>2018-06-12T10:36:28Z</time>
      </trkpt>
      <trkpt lat="45.93244" lon="4.7138">
        <ele>186</ele>
        <time>2018-06-12T10:36:29Z</time>
      </trkpt>
      <trkpt lat="45.93248" lon="4.71389">
        <ele>186</ele>
        <time>2018-06-12T10:36:30Z</time>
      </trkpt>
      <trkpt lat="45.93253" lon="4.71398">
        <ele>186</ele>
        <time>2018-06-12T10:36:31Z</time>
      </trkpt>
      <trkpt lat="45.93257" lon="4.71407">
        <ele>186</ele>
        <time>2018-06-12T10:36:32Z</time>
      </trkpt>
      <trkpt lat="45.9326" lon="4.71415">
        <ele>186</ele>
        <time>2018-06-12T10:36:33Z</time>
      </trkpt>
      <trkpt lat="45.93265" lon="4.71423">
        <ele>186</ele>
        <time>2018-06-12T10:36:34Z</time>
      </trkpt>
      <trkpt lat="45.93268" lon="4.71431">
        <ele>185</ele>
        <time>2018-06-12T10:36:35Z</time>
      </trkpt>
      <trkpt lat="45.93272" lon="4.71438">
        <ele>185</ele>
        <time>2018-06-12T10:36:36Z</time>
      </trkpt>
      <trkpt lat="45.93275" lon="4.71447">
        <ele>185</ele>
        <time>2018-06-12T10:36:37Z</time>
      </trkpt>
      <trkpt lat="45.93278" lon="4.71455">
        <ele>185</ele>
        <time>2018-06-12T10:36:38Z</time>
      </trkpt>
      <trkpt lat="45.93283" lon="4.71463">
        <ele>185</ele>
        <time>2018-06-12T10:36:39Z</time>
      </trkpt>
      <trkpt lat="45.93287" lon="4.71471">
        <ele>185</ele>
        <time>2018-06-12T10:36:40Z</time>
      </trkpt>
      <trkpt lat="45.93291" lon="4.71478">
        <ele>185</ele>
        <time>2018-06-12T10:36:41Z</time>
      </trkpt>
      <trkpt lat="45.93295" lon="4.71487">
        <ele>185</ele>
        <time>2018-06-12T10:36:42Z</time>
      </trkpt>
      <trkpt lat="45.93298" lon="4.71495">
        <ele>185</ele>
        <time>2018-06-12T10:36:43Z</time>
      </trkpt>
      <trkpt lat="45.93302" lon="4.71503">
        <ele>184</ele>
        <time>2018-06-12T10:36:44Z</time>
      </trkpt>
      <trkpt lat="45.93305" lon="4.71511">
        <ele>184</ele>
        <time>2018-06-12T10:36:45Z</time>
      </trkpt>
      <trkpt lat="45.93308" lon="4.71518">
        <ele>184</ele>
        <time>2018-06-12T10:36:46Z</time>
      </trkpt>
      <trkpt lat="45.93312" lon="4.71524">
        <ele>184</ele>
        <time>2018-06-12T10:36:47Z</time>
      </trkpt>
      <trkpt lat="45.93316" lon="4.71531">
        <ele>184</ele>
        <time>2018-06-12T10:36:48Z</time>
      </trkpt>
      <trkpt lat="45.93319" lon="4.71538">
        <ele>184</ele>
        <time>2018-06-12T10:36:49Z</time>
      </trkpt>
      <trkpt lat="45.93322" lon="4.71545">
        <ele>184</ele>
        <time>2018-06-12T10:36:50Z</time>
      </trkpt>
      <trkpt lat="45.93326" lon="4.71554">
        <ele>184</ele>
        <time>2018-06-12T10:36:51Z</time>
      </trkpt>
      <trkpt lat="45.9333" lon="4.7156">
        <ele>185</ele>
        <time>2018-06-12T10:36:52Z</time>
      </trkpt>
      <trkpt lat="45.93332" lon="4.71567">
        <ele>185</ele>
        <time>2018-06-12T10:36:53Z</time>
      </trkpt>
      <trkpt lat="45.93336" lon="4.71573">
        <ele>184</ele>
        <time>2018-06-12T10:36:54Z</time>
      </trkpt>
      <trkpt lat="45.93338" lon="4.71582">
        <ele>185</ele>
        <time>2018-06-12T10:36:55Z</time>
      </trkpt>
      <trkpt lat="45.93341" lon="4.71591">
        <ele>185</ele>
        <time>2018-06-12T10:36:56Z</time>
      </trkpt>
      <trkpt lat="45.93344" lon="4.71598">
        <ele>185</ele>
        <time>2018-06-12T10:36:57Z</time>
      </trkpt>
      <trkpt lat="45.93346" lon="4.71607">
        <ele>185</ele>
        <time>2018-06-12T10:36:58Z</time>
      </trkpt>
      <trkpt lat="45.93349" lon="4.71615">
        <ele>185</ele>
        <time>2018-06-12T10:36:59Z</time>
      </trkpt>
      <trkpt lat="45.93353" lon="4.71624">
        <ele>185</ele>
        <time>2018-06-12T10:37:00Z</time>
      </trkpt>
      <trkpt lat="45.93356" lon="4.71631">
        <ele>185</ele>
        <time>2018-06-12T10:37:01Z</time>
      </trkpt>
      <trkpt lat="45.93361" lon="4.71638">
        <ele>185</ele>
        <time>2018-06-12T10:37:02Z</time>
      </trkpt>
      <trkpt lat="45.93365" lon="4.71644">
        <ele>185</ele>
        <time>2018-06-12T10:37:03Z</time>
      </trkpt>
      <trkpt lat="45.93367" lon="4.71652">
        <ele>185</ele>
        <time>2018-06-12T10:37:04Z</time>
      </trkpt>
      <trkpt lat="45.9337" lon="4.71657">
        <ele>185</ele>
        <time>2018-06-12T10:37:05Z</time>
      </trkpt>
      <trkpt lat="45.93374" lon="4.71663">
        <ele>185</ele>
        <time>2018-06-12T10:37:06Z</time>
      </trkpt>
      <trkpt lat="45.93378" lon="4.71671">
        <ele>185</ele>
        <time>2018-06-12T10:37:07Z</time>
      </trkpt>
      <trkpt lat="45.93381" lon="4.7168">
        <ele>185</ele>
        <time>2018-06-12T10:37:08Z</time>
      </trkpt>
      <trkpt lat="45.93384" lon="4.71689">
        <ele>184</ele>
        <time>2018-06-12T10:37:09Z</time>
      </trkpt>
      <trkpt lat="45.93388" lon="4.71698">
        <ele>184</ele>
        <time>2018-06-12T10:37:10Z</time>
      </trkpt>
      <trkpt lat="45.93391" lon="4.71706">
        <ele>184</ele>
        <time>2018-06-12T10:37:11Z</time>
      </trkpt>
      <trkpt lat="45.93395" lon="4.71716">
        <ele>184</ele>
        <time>2018-06-12T10:37:12Z</time>
      </trkpt>
      <trkpt lat="45.934" lon="4.71722">
        <ele>184</ele>
        <time>2018-06-12T10:37:13Z</time>
      </trkpt>
      <trkpt lat="45.934" lon="4.71739">
        <ele>184</ele>
        <time>2018-06-12T10:37:14Z</time>
      </trkpt>
      <trkpt lat="45.93401" lon="4.71749">
        <ele>184</ele>
        <time>2018-06-12T10:37:15Z</time>
      </trkpt>
      <trkpt lat="45.93408" lon="4.71755">
        <ele>183</ele>
        <time>2018-06-12T10:37:16Z</time>
      </trkpt>
      <trkpt lat="45.93412" lon="4.71763">
        <ele>183</ele>
        <time>2018-06-12T10:37:17Z</time>
      </trkpt>
      <trkpt lat="45.93417" lon="4.71772">
        <ele>184</ele>
        <time>2018-06-12T10:37:18Z</time>
      </trkpt>
      <trkpt lat="45.9342" lon="4.71781">
        <ele>182</ele>
        <time>2018-06-12T10:37:19Z</time>
      </trkpt>
      <trkpt lat="45.93425" lon="4.7179">
        <ele>182</ele>
        <time>2018-06-12T10:37:20Z</time>
      </trkpt>
      <trkpt lat="45.93429" lon="4.71799">
        <ele>182</ele>
        <time>2018-06-12T10:37:21Z</time>
      </trkpt>
      <trkpt lat="45.93433" lon="4.71807">
        <ele>182</ele>
        <time>2018-06-12T10:37:22Z</time>
      </trkpt>
      <trkpt lat="45.93436" lon="4.71816">
        <ele>182</ele>
        <time>2018-06-12T10:37:23Z</time>
      </trkpt>
      <trkpt lat="45.9344" lon="4.71825">
        <ele>182</ele>
        <time>2018-06-12T10:37:24Z</time>
      </trkpt>
      <trkpt lat="45.93445" lon="4.71833">
        <ele>182</ele>
        <time>2018-06-12T10:37:25Z</time>
      </trkpt>
      <trkpt lat="45.93451" lon="4.71842">
        <ele>181</ele>
        <time>2018-06-12T10:37:26Z</time>
      </trkpt>
      <trkpt lat="45.93456" lon="4.71849">
        <ele>181</ele>
        <time>2018-06-12T10:37:27Z</time>
      </trkpt>
      <trkpt lat="45.93463" lon="4.71852">
        <ele>180</ele>
        <time>2018-06-12T10:37:28Z</time>
      </trkpt>
      <trkpt lat="45.93471" lon="4.71855">
        <ele>180</ele>
        <time>2018-06-12T10:37:29Z</time>
      </trkpt>
      <trkpt lat="45.9348" lon="4.71856">
        <ele>180</ele>
        <time>2018-06-12T10:37:30Z</time>
      </trkpt>
      <trkpt lat="45.93486" lon="4.71853">
        <ele>180</ele>
        <time>2018-06-12T10:37:31Z</time>
      </trkpt>
      <trkpt lat="45.93495" lon="4.7185">
        <ele>180</ele>
        <time>2018-06-12T10:37:32Z</time>
      </trkpt>
      <trkpt lat="45.93503" lon="4.71848">
        <ele>179</ele>
        <time>2018-06-12T10:37:33Z</time>
      </trkpt>
      <trkpt lat="45.93512" lon="4.71848">
        <ele>179</ele>
        <time>2018-06-12T10:37:34Z</time>
      </trkpt>
      <trkpt lat="45.93521" lon="4.71845">
        <ele>179</ele>
        <time>2018-06-12T10:37:35Z</time>
      </trkpt>
      <trkpt lat="45.9353" lon="4.71842">
        <ele>179</ele>
        <time>2018-06-12T10:37:36Z</time>
      </trkpt>
      <trkpt lat="45.9354" lon="4.71838">
        <ele>179</ele>
        <time>2018-06-12T10:37:37Z</time>
      </trkpt>
      <trkpt lat="45.93539" lon="4.71834">
        <ele>179</ele>
        <time>2018-06-12T10:37:38Z</time>
      </trkpt>
      <trkpt lat="45.9355" lon="4.71831">
        <ele>180</ele>
        <time>2018-06-12T10:37:39Z</time>
      </trkpt>
      <trkpt lat="45.93559" lon="4.7183">
        <ele>180</ele>
        <time>2018-06-12T10:37:40Z</time>
      </trkpt>
      <trkpt lat="45.93565" lon="4.7183">
        <ele>180</ele>
        <time>2018-06-12T10:37:41Z</time>
      </trkpt>
      <trkpt lat="45.93568" lon="4.71833">
        <ele>180</ele>
        <time>2018-06-12T10:37:42Z</time>
      </trkpt>
      <trkpt lat="45.93575" lon="4.71834">
        <ele>180</ele>
        <time>2018-06-12T10:37:43Z</time>
      </trkpt>
      <trkpt lat="45.9358" lon="4.71834">
        <ele>180</ele>
        <time>2018-06-12T10:37:44Z</time>
      </trkpt>
      <trkpt lat="45.93586" lon="4.71832">
        <ele>180</ele>
        <time>2018-06-12T10:37:45Z</time>
      </trkpt>
      <trkpt lat="45.93593" lon="4.71827">
        <ele>180</ele>
        <time>2018-06-12T10:37:46Z</time>
      </trkpt>
      <trkpt lat="45.93599" lon="4.71825">
        <ele>179</ele>
        <time>2018-06-12T10:37:47Z</time>
      </trkpt>
      <trkpt lat="45.93604" lon="4.71821">
        <ele>179</ele>
        <time>2018-06-12T10:37:48Z</time>
      </trkpt>
      <trkpt lat="45.93608" lon="4.71816">
        <ele>179</ele>
        <time>2018-06-12T10:37:49Z</time>
      </trkpt>
      <trkpt lat="45.93613" lon="4.71812">
        <ele>179</ele>
        <time>2018-06-12T10:37:51Z</time>
      </trkpt>
      <trkpt lat="45.93618" lon="4.71807">
        <ele>179</ele>
        <time>2018-06-12T10:37:52Z</time>
      </trkpt>
      <trkpt lat="45.93623" lon="4.71801">
        <ele>179</ele>
        <time>2018-06-12T10:37:54Z</time>
      </trkpt>
      <trkpt lat="45.93629" lon="4.718">
        <ele>179</ele>
        <time>2018-06-12T10:37:55Z</time>
      </trkpt>
      <trkpt lat="45.93633" lon="4.71799">
        <ele>179</ele>
        <time>2018-06-12T10:37:56Z</time>
      </trkpt>
      <trkpt lat="45.93638" lon="4.71799">
        <ele>179</ele>
        <time>2018-06-12T10:37:57Z</time>
      </trkpt>
      <trkpt lat="45.93646" lon="4.71794">
        <ele>179</ele>
        <time>2018-06-12T10:37:58Z</time>
      </trkpt>
      <trkpt lat="45.93651" lon="4.71793">
        <ele>179</ele>
        <time>2018-06-12T10:37:59Z</time>
      </trkpt>
      <trkpt lat="45.93658" lon="4.71792">
        <ele>179</ele>
        <time>2018-06-12T10:38:00Z</time>
      </trkpt>
      <trkpt lat="45.93669" lon="4.71784">
        <ele>177</ele>
        <time>2018-06-12T10:38:01Z</time>
      </trkpt>
      <trkpt lat="45.93675" lon="4.71784">
        <ele>177</ele>
        <time>2018-06-12T10:38:02Z</time>
      </trkpt>
      <trkpt lat="45.93678" lon="4.71782">
        <ele>177</ele>
        <time>2018-06-12T10:38:03Z</time>
      </trkpt>
      <trkpt lat="45.93684" lon="4.71782">
        <ele>177</ele>
        <time>2018-06-12T10:38:04Z</time>
      </trkpt>
      <trkpt lat="45.93687" lon="4.7178">
        <ele>177</ele>
        <time>2018-06-12T10:38:05Z</time>
      </trkpt>
      <trkpt lat="45.93696" lon="4.71779">
        <ele>177</ele>
        <time>2018-06-12T10:38:06Z</time>
      </trkpt>
      <trkpt lat="45.93702" lon="4.71781">
        <ele>176</ele>
        <time>2018-06-12T10:38:07Z</time>
      </trkpt>
      <trkpt lat="45.93711" lon="4.7178">
        <ele>176</ele>
        <time>2018-06-12T10:38:08Z</time>
      </trkpt>
      <trkpt lat="45.93713" lon="4.71789">
        <ele>176</ele>
        <time>2018-06-12T10:38:09Z</time>
      </trkpt>
      <trkpt lat="45.93713" lon="4.71798">
        <ele>176</ele>
        <time>2018-06-12T10:38:10Z</time>
      </trkpt>
      <trkpt lat="45.93714" lon="4.71806">
        <ele>176</ele>
        <time>2018-06-12T10:38:11Z</time>
      </trkpt>
      <trkpt lat="45.93713" lon="4.71813">
        <ele>176</ele>
        <time>2018-06-12T10:38:12Z</time>
      </trkpt>
      <trkpt lat="45.9371" lon="4.71821">
        <ele>176</ele>
        <time>2018-06-12T10:38:13Z</time>
      </trkpt>
      <trkpt lat="45.93703" lon="4.7183">
        <ele>176</ele>
        <time>2018-06-12T10:38:14Z</time>
      </trkpt>
      <trkpt lat="45.93698" lon="4.7184">
        <ele>175</ele>
        <time>2018-06-12T10:38:15Z</time>
      </trkpt>
      <trkpt lat="45.93695" lon="4.71848">
        <ele>175</ele>
        <time>2018-06-12T10:38:16Z</time>
      </trkpt>
      <trkpt lat="45.93691" lon="4.71857">
        <ele>175</ele>
        <time>2018-06-12T10:38:17Z</time>
      </trkpt>
      <trkpt lat="45.93687" lon="4.71865">
        <ele>175</ele>
        <time>2018-06-12T10:38:18Z</time>
      </trkpt>
      <trkpt lat="45.93683" lon="4.71872">
        <ele>175</ele>
        <time>2018-06-12T10:38:19Z</time>
      </trkpt>
      <trkpt lat="45.9368" lon="4.7188">
        <ele>175</ele>
        <time>2018-06-12T10:38:21Z</time>
      </trkpt>
      <trkpt lat="45.93676" lon="4.71886">
        <ele>175</ele>
        <time>2018-06-12T10:38:22Z</time>
      </trkpt>
      <trkpt lat="45.93673" lon="4.71889">
        <ele>175</ele>
        <time>2018-06-12T10:38:23Z</time>
      </trkpt>
      <trkpt lat="45.9367" lon="4.71895">
        <ele>175</ele>
        <time>2018-06-12T10:38:24Z</time>
      </trkpt>
      <trkpt lat="45.93669" lon="4.71902">
        <ele>175</ele>
        <time>2018-06-12T10:38:25Z</time>
      </trkpt>
      <trkpt lat="45.93667" lon="4.71909">
        <ele>175</ele>
        <time>2018-06-12T10:38:26Z</time>
      </trkpt>
      <trkpt lat="45.93666" lon="4.71915">
        <ele>175</ele>
        <time>2018-06-12T10:38:27Z</time>
      </trkpt>
      <trkpt lat="45.93663" lon="4.71922">
        <ele>175</ele>
        <time>2018-06-12T10:38:28Z</time>
      </trkpt>
      <trkpt lat="45.9366" lon="4.71928">
        <ele>175</ele>
        <time>2018-06-12T10:38:29Z</time>
      </trkpt>
      <trkpt lat="45.93658" lon="4.71934">
        <ele>175</ele>
        <time>2018-06-12T10:38:30Z</time>
      </trkpt>
      <trkpt lat="45.93656" lon="4.71942">
        <ele>175</ele>
        <time>2018-06-12T10:38:31Z</time>
      </trkpt>
      <trkpt lat="45.93654" lon="4.7195">
        <ele>175</ele>
        <time>2018-06-12T10:38:32Z</time>
      </trkpt>
      <trkpt lat="45.93651" lon="4.71958">
        <ele>175</ele>
        <time>2018-06-12T10:38:33Z</time>
      </trkpt>
      <trkpt lat="45.93648" lon="4.71965">
        <ele>175</ele>
        <time>2018-06-12T10:38:34Z</time>
      </trkpt>
      <trkpt lat="45.93644" lon="4.71972">
        <ele>175</ele>
        <time>2018-06-12T10:38:35Z</time>
      </trkpt>
      <trkpt lat="45.93641" lon="4.7198">
        <ele>175</ele>
        <time>2018-06-12T10:38:36Z</time>
      </trkpt>
      <trkpt lat="45.93637" lon="4.71987">
        <ele>175</ele>
        <time>2018-06-12T10:38:37Z</time>
      </trkpt>
      <trkpt lat="45.93634" lon="4.71995">
        <ele>175</ele>
        <time>2018-06-12T10:38:38Z</time>
      </trkpt>
      <trkpt lat="45.93632" lon="4.72003">
        <ele>174</ele>
        <time>2018-06-12T10:38:39Z</time>
      </trkpt>
      <trkpt lat="45.93629" lon="4.72012">
        <ele>175</ele>
        <time>2018-06-12T10:38:40Z</time>
      </trkpt>
      <trkpt lat="45.93626" lon="4.7202">
        <ele>175</ele>
        <time>2018-06-12T10:38:41Z</time>
      </trkpt>
      <trkpt lat="45.93624" lon="4.72027">
        <ele>175</ele>
        <time>2018-06-12T10:38:42Z</time>
      </trkpt>
      <trkpt lat="45.93622" lon="4.72034">
        <ele>175</ele>
        <time>2018-06-12T10:38:43Z</time>
      </trkpt>
      <trkpt lat="45.9362" lon="4.72041">
        <ele>175</ele>
        <time>2018-06-12T10:38:44Z</time>
      </trkpt>
      <trkpt lat="45.93617" lon="4.72051">
        <ele>175</ele>
        <time>2018-06-12T10:38:46Z</time>
      </trkpt>
      <trkpt lat="45.93613" lon="4.72058">
        <ele>175</ele>
        <time>2018-06-12T10:38:47Z</time>
      </trkpt>
      <trkpt lat="45.9361" lon="4.72066">
        <ele>175</ele>
        <time>2018-06-12T10:38:48Z</time>
      </trkpt>
      <trkpt lat="45.93608" lon="4.72074">
        <ele>175</ele>
        <time>2018-06-12T10:38:49Z</time>
      </trkpt>
      <trkpt lat="45.93604" lon="4.72085">
        <ele>174</ele>
        <time>2018-06-12T10:38:50Z</time>
      </trkpt>
      <trkpt lat="45.936" lon="4.72093">
        <ele>174</ele>
        <time>2018-06-12T10:38:51Z</time>
      </trkpt>
      <trkpt lat="45.93595" lon="4.72101">
        <ele>174</ele>
        <time>2018-06-12T10:38:52Z</time>
      </trkpt>
      <trkpt lat="45.93592" lon="4.72109">
        <ele>174</ele>
        <time>2018-06-12T10:38:53Z</time>
      </trkpt>
      <trkpt lat="45.93588" lon="4.72116">
        <ele>174</ele>
        <time>2018-06-12T10:38:54Z</time>
      </trkpt>
      <trkpt lat="45.93585" lon="4.72123">
        <ele>174</ele>
        <time>2018-06-12T10:38:55Z</time>
      </trkpt>
      <trkpt lat="45.9358" lon="4.72134">
        <ele>174</ele>
        <time>2018-06-12T10:38:57Z</time>
      </trkpt>
      <trkpt lat="45.93577" lon="4.72142">
        <ele>174</ele>
        <time>2018-06-12T10:38:58Z</time>
      </trkpt>
      <trkpt lat="45.93574" lon="4.72148">
        <ele>174</ele>
        <time>2018-06-12T10:38:59Z</time>
      </trkpt>
      <trkpt lat="45.93572" lon="4.72156">
        <ele>174</ele>
        <time>2018-06-12T10:39:00Z</time>
      </trkpt>
      <trkpt lat="45.93569" lon="4.72163">
        <ele>174</ele>
        <time>2018-06-12T10:39:01Z</time>
      </trkpt>
      <trkpt lat="45.93565" lon="4.7217">
        <ele>173</ele>
        <time>2018-06-12T10:39:02Z</time>
      </trkpt>
      <trkpt lat="45.93562" lon="4.72177">
        <ele>173</ele>
        <time>2018-06-12T10:39:03Z</time>
      </trkpt>
      <trkpt lat="45.93559" lon="4.72184">
        <ele>173</ele>
        <time>2018-06-12T10:39:04Z</time>
      </trkpt>
      <trkpt lat="45.93555" lon="4.72193">
        <ele>173</ele>
        <time>2018-06-12T10:39:05Z</time>
      </trkpt>
      <trkpt lat="45.93552" lon="4.72201">
        <ele>173</ele>
        <time>2018-06-12T10:39:06Z</time>
      </trkpt>
      <trkpt lat="45.93551" lon="4.72208">
        <ele>173</ele>
        <time>2018-06-12T10:39:07Z</time>
      </trkpt>
      <trkpt lat="45.93549" lon="4.72215">
        <ele>173</ele>
        <time>2018-06-12T10:39:08Z</time>
      </trkpt>
      <trkpt lat="45.93548" lon="4.72221">
        <ele>172</ele>
        <time>2018-06-12T10:39:09Z</time>
      </trkpt>
      <trkpt lat="45.93545" lon="4.72227">
        <ele>172</ele>
        <time>2018-06-12T10:39:10Z</time>
      </trkpt>
      <trkpt lat="45.93543" lon="4.72231">
        <ele>172</ele>
        <time>2018-06-12T10:39:11Z</time>
      </trkpt>
      <trkpt lat="45.93539" lon="4.72237">
        <ele>172</ele>
        <time>2018-06-12T10:39:12Z</time>
      </trkpt>
      <trkpt lat="45.93537" lon="4.72241">
        <ele>172</ele>
        <time>2018-06-12T10:39:13Z</time>
      </trkpt>
      <trkpt lat="45.93534" lon="4.72249">
        <ele>172</ele>
        <time>2018-06-12T10:39:14Z</time>
      </trkpt>
      <trkpt lat="45.9353" lon="4.72258">
        <ele>172</ele>
        <time>2018-06-12T10:39:16Z</time>
      </trkpt>
      <trkpt lat="45.93528" lon="4.72265">
        <ele>172</ele>
        <time>2018-06-12T10:39:17Z</time>
      </trkpt>
      <trkpt lat="45.93525" lon="4.72271">
        <ele>172</ele>
        <time>2018-06-12T10:39:18Z</time>
      </trkpt>
      <trkpt lat="45.93522" lon="4.72279">
        <ele>172</ele>
        <time>2018-06-12T10:39:19Z</time>
      </trkpt>
      <trkpt lat="45.93519" lon="4.72285">
        <ele>172</ele>
        <time>2018-06-12T10:39:20Z</time>
      </trkpt>
      <trkpt lat="45.93516" lon="4.72292">
        <ele>172</ele>
        <time>2018-06-12T10:39:21Z</time>
      </trkpt>
      <trkpt lat="45.93511" lon="4.723">
        <ele>172</ele>
        <time>2018-06-12T10:39:22Z</time>
      </trkpt>
      <trkpt lat="45.93508" lon="4.72306">
        <ele>173</ele>
        <time>2018-06-12T10:39:23Z</time>
      </trkpt>
      <trkpt lat="45.93504" lon="4.72314">
        <ele>173</ele>
        <time>2018-06-12T10:39:24Z</time>
      </trkpt>
      <trkpt lat="45.93501" lon="4.72321">
        <ele>173</ele>
        <time>2018-06-12T10:39:25Z</time>
      </trkpt>
      <trkpt lat="45.93496" lon="4.72327">
        <ele>173</ele>
        <time>2018-06-12T10:39:26Z</time>
      </trkpt>
      <trkpt lat="45.93491" lon="4.72333">
        <ele>173</ele>
        <time>2018-06-12T10:39:27Z</time>
      </trkpt>
      <trkpt lat="45.93486" lon="4.72337">
        <ele>173</ele>
        <time>2018-06-12T10:39:28Z</time>
      </trkpt>
      <trkpt lat="45.93482" lon="4.72343">
        <ele>173</ele>
        <time>2018-06-12T10:39:29Z</time>
      </trkpt>
      <trkpt lat="45.93479" lon="4.72348">
        <ele>173</ele>
        <time>2018-06-12T10:39:30Z</time>
      </trkpt>
      <trkpt lat="45.93475" lon="4.72353">
        <ele>173</ele>
        <time>2018-06-12T10:39:31Z</time>
      </trkpt>
      <trkpt lat="45.93471" lon="4.72359">
        <ele>173</ele>
        <time>2018-06-12T10:39:32Z</time>
      </trkpt>
      <trkpt lat="45.93466" lon="4.72363">
        <ele>173</ele>
        <time>2018-06-12T10:39:33Z</time>
      </trkpt>
      <trkpt lat="45.93461" lon="4.72367">
        <ele>173</ele>
        <time>2018-06-12T10:39:34Z</time>
      </trkpt>
      <trkpt lat="45.93456" lon="4.72373">
        <ele>173</ele>
        <time>2018-06-12T10:39:35Z</time>
      </trkpt>
      <trkpt lat="45.93453" lon="4.72379">
        <ele>173</ele>
        <time>2018-06-12T10:39:36Z</time>
      </trkpt>
      <trkpt lat="45.93447" lon="4.72383">
        <ele>173</ele>
        <time>2018-06-12T10:39:37Z</time>
      </trkpt>
      <trkpt lat="45.9344" lon="4.72388">
        <ele>173</ele>
        <time>2018-06-12T10:39:38Z</time>
      </trkpt>
      <trkpt lat="45.93437" lon="4.72391">
        <ele>173</ele>
        <time>2018-06-12T10:39:39Z</time>
      </trkpt>
      <trkpt lat="45.93433" lon="4.72395">
        <ele>173</ele>
        <time>2018-06-12T10:39:40Z</time>
      </trkpt>
      <trkpt lat="45.93427" lon="4.72398">
        <ele>174</ele>
        <time>2018-06-12T10:39:41Z</time>
      </trkpt>
      <trkpt lat="45.93419" lon="4.72401">
        <ele>174</ele>
        <time>2018-06-12T10:39:43Z</time>
      </trkpt>
      <trkpt lat="45.93414" lon="4.72403">
        <ele>174</ele>
        <time>2018-06-12T10:39:44Z</time>
      </trkpt>
      <trkpt lat="45.93406" lon="4.72404">
        <ele>174</ele>
        <time>2018-06-12T10:39:46Z</time>
      </trkpt>
      <trkpt lat="45.93399" lon="4.72403">
        <ele>174</ele>
        <time>2018-06-12T10:39:47Z</time>
      </trkpt>
      <trkpt lat="45.93395" lon="4.72403">
        <ele>174</ele>
        <time>2018-06-12T10:39:48Z</time>
      </trkpt>
      <trkpt lat="45.9339" lon="4.72405">
        <ele>174</ele>
        <time>2018-06-12T10:39:49Z</time>
      </trkpt>
      <trkpt lat="45.93387" lon="4.72409">
        <ele>174</ele>
        <time>2018-06-12T10:39:50Z</time>
      </trkpt>
      <trkpt lat="45.93383" lon="4.72416">
        <ele>174</ele>
        <time>2018-06-12T10:39:51Z</time>
      </trkpt>
      <trkpt lat="45.93383" lon="4.72422">
        <ele>173</ele>
        <time>2018-06-12T10:39:52Z</time>
      </trkpt>
      <trkpt lat="45.93384" lon="4.72429">
        <ele>173</ele>
        <time>2018-06-12T10:39:53Z</time>
      </trkpt>
      <trkpt lat="45.93387" lon="4.72436">
        <ele>173</ele>
        <time>2018-06-12T10:39:54Z</time>
      </trkpt>
      <trkpt lat="45.93389" lon="4.72442">
        <ele>173</ele>
        <time>2018-06-12T10:39:55Z</time>
      </trkpt>
      <trkpt lat="45.9339" lon="4.7245">
        <ele>173</ele>
        <time>2018-06-12T10:39:56Z</time>
      </trkpt>
      <trkpt lat="45.9339" lon="4.72456">
        <ele>173</ele>
        <time>2018-06-12T10:39:57Z</time>
      </trkpt>
      <trkpt lat="45.9339" lon="4.72464">
        <ele>173</ele>
        <time>2018-06-12T10:39:58Z</time>
      </trkpt>
      <trkpt lat="45.93384" lon="4.7247">
        <ele>173</ele>
        <time>2018-06-12T10:39:59Z</time>
      </trkpt>
      <trkpt lat="45.9338" lon="4.72475">
        <ele>173</ele>
        <time>2018-06-12T10:40:00Z</time>
      </trkpt>
      <trkpt lat="45.93375" lon="4.7248">
        <ele>173</ele>
        <time>2018-06-12T10:40:01Z</time>
      </trkpt>
      <trkpt lat="45.93371" lon="4.72484">
        <ele>173</ele>
        <time>2018-06-12T10:40:02Z</time>
      </trkpt>
      <trkpt lat="45.93365" lon="4.7249">
        <ele>173</ele>
        <time>2018-06-12T10:40:03Z</time>
      </trkpt>
      <trkpt lat="45.93361" lon="4.72496">
        <ele>173</ele>
        <time>2018-06-12T10:40:04Z</time>
      </trkpt>
      <trkpt lat="45.93357" lon="4.72502">
        <ele>172</ele>
        <time>2018-06-12T10:40:05Z</time>
      </trkpt>
      <trkpt lat="45.93352" lon="4.72507">
        <ele>172</ele>
        <time>2018-06-12T10:40:06Z</time>
      </trkpt>
      <trkpt lat="45.93347" lon="4.72512">
        <ele>172</ele>
        <time>2018-06-12T10:40:07Z</time>
      </trkpt>
      <trkpt lat="45.93341" lon="4.72519">
        <ele>172</ele>
        <time>2018-06-12T10:40:08Z</time>
      </trkpt>
      <trkpt lat="45.93337" lon="4.72525">
        <ele>172</ele>
        <time>2018-06-12T10:40:09Z</time>
      </trkpt>
      <trkpt lat="45.93332" lon="4.72529">
        <ele>172</ele>
        <time>2018-06-12T10:40:10Z</time>
      </trkpt>
      <trkpt lat="45.93328" lon="4.72534">
        <ele>172</ele>
        <time>2018-06-12T10:40:11Z</time>
      </trkpt>
      <trkpt lat="45.93324" lon="4.72539">
        <ele>172</ele>
        <time>2018-06-12T10:40:12Z</time>
      </trkpt>
      <trkpt lat="45.9332" lon="4.72546">
        <ele>172</ele>
        <time>2018-06-12T10:40:13Z</time>
      </trkpt>
      <trkpt lat="45.93316" lon="4.72551">
        <ele>172</ele>
        <time>2018-06-12T10:40:14Z</time>
      </trkpt>
      <trkpt lat="45.93312" lon="4.72557">
        <ele>172</ele>
        <time>2018-06-12T10:40:15Z</time>
      </trkpt>
      <trkpt lat="45.93307" lon="4.7256">
        <ele>172</ele>
        <time>2018-06-12T10:40:16Z</time>
      </trkpt>
      <trkpt lat="45.933" lon="4.72567">
        <ele>172</ele>
        <time>2018-06-12T10:40:17Z</time>
      </trkpt>
      <trkpt lat="45.93293" lon="4.72573">
        <ele>172</ele>
        <time>2018-06-12T10:40:19Z</time>
      </trkpt>
      <trkpt lat="45.93292" lon="4.72578">
        <ele>171</ele>
        <time>2018-06-12T10:40:20Z</time>
      </trkpt>
      <trkpt lat="45.9329" lon="4.72581">
        <ele>171</ele>
        <time>2018-06-12T10:40:21Z</time>
      </trkpt>
      <trkpt lat="45.93283" lon="4.72585">
        <ele>170</ele>
        <time>2018-06-12T10:40:22Z</time>
      </trkpt>
      <trkpt lat="45.93279" lon="4.72591">
        <ele>170</ele>
        <time>2018-06-12T10:40:23Z</time>
      </trkpt>
      <trkpt lat="45.93275" lon="4.72596">
        <ele>170</ele>
        <time>2018-06-12T10:40:24Z</time>
      </trkpt>
      <trkpt lat="45.93271" lon="4.72602">
        <ele>170</ele>
        <time>2018-06-12T10:40:25Z</time>
      </trkpt>
      <trkpt lat="45.93267" lon="4.72606">
        <ele>170</ele>
        <time>2018-06-12T10:40:26Z</time>
      </trkpt>
      <trkpt lat="45.93261" lon="4.72611">
        <ele>170</ele>
        <time>2018-06-12T10:40:27Z</time>
      </trkpt>
      <trkpt lat="45.93256" lon="4.72618">
        <ele>170</ele>
        <time>2018-06-12T10:40:28Z</time>
      </trkpt>
      <trkpt lat="45.93251" lon="4.72624">
        <ele>170</ele>
        <time>2018-06-12T10:40:29Z</time>
      </trkpt>
      <trkpt lat="45.93245" lon="4.7263">
        <ele>170</ele>
        <time>2018-06-12T10:40:30Z</time>
      </trkpt>
      <trkpt lat="45.93241" lon="4.72635">
        <ele>170</ele>
        <time>2018-06-12T10:40:31Z</time>
      </trkpt>
      <trkpt lat="45.93236" lon="4.7264">
        <ele>170</ele>
        <time>2018-06-12T10:40:32Z</time>
      </trkpt>
      <trkpt lat="45.93231" lon="4.72646">
        <ele>170</ele>
        <time>2018-06-12T10:40:33Z</time>
      </trkpt>
      <trkpt lat="45.93226" lon="4.7265">
        <ele>170</ele>
        <time>2018-06-12T10:40:34Z</time>
      </trkpt>
      <trkpt lat="45.93223" lon="4.72654">
        <ele>170</ele>
        <time>2018-06-12T10:40:35Z</time>
      </trkpt>
      <trkpt lat="45.93219" lon="4.72659">
        <ele>170</ele>
        <time>2018-06-12T10:40:36Z</time>
      </trkpt>
      <trkpt lat="45.93216" lon="4.72663">
        <ele>170</ele>
        <time>2018-06-12T10:40:37Z</time>
      </trkpt>
      <trkpt lat="45.93212" lon="4.72668">
        <ele>169</ele>
        <time>2018-06-12T10:40:38Z</time>
      </trkpt>
      <trkpt lat="45.93207" lon="4.72674">
        <ele>169</ele>
        <time>2018-06-12T10:40:39Z</time>
      </trkpt>
      <trkpt lat="45.93204" lon="4.72681">
        <ele>169</ele>
        <time>2018-06-12T10:40:40Z</time>
      </trkpt>
      <trkpt lat="45.93201" lon="4.72686">
        <ele>169</ele>
        <time>2018-06-12T10:40:41Z</time>
      </trkpt>
      <trkpt lat="45.93197" lon="4.72691">
        <ele>169</ele>
        <time>2018-06-12T10:40:42Z</time>
      </trkpt>
      <trkpt lat="45.93193" lon="4.72695">
        <ele>169</ele>
        <time>2018-06-12T10:40:43Z</time>
      </trkpt>
      <trkpt lat="45.93188" lon="4.727">
        <ele>169</ele>
        <time>2018-06-12T10:40:44Z</time>
      </trkpt>
      <trkpt lat="45.93182" lon="4.72707">
        <ele>169</ele>
        <time>2018-06-12T10:40:45Z</time>
      </trkpt>
      <trkpt lat="45.93177" lon="4.72713">
        <ele>169</ele>
        <time>2018-06-12T10:40:46Z</time>
      </trkpt>
      <trkpt lat="45.93173" lon="4.72718">
        <ele>170</ele>
        <time>2018-06-12T10:40:47Z</time>
      </trkpt>
      <trkpt lat="45.93168" lon="4.72723">
        <ele>170</ele>
        <time>2018-06-12T10:40:48Z</time>
      </trkpt>
      <trkpt lat="45.93163" lon="4.72729">
        <ele>170</ele>
        <time>2018-06-12T10:40:49Z</time>
      </trkpt>
      <trkpt lat="45.93159" lon="4.72734">
        <ele>170</ele>
        <time>2018-06-12T10:40:50Z</time>
      </trkpt>
      <trkpt lat="45.93153" lon="4.7274">
        <ele>170</ele>
        <time>2018-06-12T10:40:51Z</time>
      </trkpt>
      <trkpt lat="45.93149" lon="4.72745">
        <ele>170</ele>
        <time>2018-06-12T10:40:52Z</time>
      </trkpt>
      <trkpt lat="45.93144" lon="4.72751">
        <ele>170</ele>
        <time>2018-06-12T10:40:53Z</time>
      </trkpt>
      <trkpt lat="45.9314" lon="4.72758">
        <ele>171</ele>
        <time>2018-06-12T10:40:54Z</time>
      </trkpt>
      <trkpt lat="45.93135" lon="4.72764">
        <ele>171</ele>
        <time>2018-06-12T10:40:55Z</time>
      </trkpt>
      <trkpt lat="45.93129" lon="4.7277">
        <ele>171</ele>
        <time>2018-06-12T10:40:56Z</time>
      </trkpt>
      <trkpt lat="45.93125" lon="4.72776">
        <ele>171</ele>
        <time>2018-06-12T10:40:57Z</time>
      </trkpt>
      <trkpt lat="45.93121" lon="4.72783">
        <ele>171</ele>
        <time>2018-06-12T10:40:58Z</time>
      </trkpt>
      <trkpt lat="45.93115" lon="4.72789">
        <ele>171</ele>
        <time>2018-06-12T10:40:59Z</time>
      </trkpt>
      <trkpt lat="45.93109" lon="4.72795">
        <ele>171</ele>
        <time>2018-06-12T10:41:00Z</time>
      </trkpt>
      <trkpt lat="45.93104" lon="4.72802">
        <ele>171</ele>
        <time>2018-06-12T10:41:01Z</time>
      </trkpt>
      <trkpt lat="45.93098" lon="4.72809">
        <ele>172</ele>
        <time>2018-06-12T10:41:02Z</time>
      </trkpt>
      <trkpt lat="45.93092" lon="4.72815">
        <ele>172</ele>
        <time>2018-06-12T10:41:03Z</time>
      </trkpt>
      <trkpt lat="45.93088" lon="4.7282">
        <ele>172</ele>
        <time>2018-06-12T10:41:04Z</time>
      </trkpt>
      <trkpt lat="45.93082" lon="4.72825">
        <ele>173</ele>
        <time>2018-06-12T10:41:06Z</time>
      </trkpt>
      <trkpt lat="45.93057" lon="4.72855">
        <ele>172</ele>
        <time>2018-06-12T10:41:10Z</time>
      </trkpt>
      <trkpt lat="45.93061" lon="4.72868">
        <ele>172</ele>
        <time>2018-06-12T10:41:11Z</time>
      </trkpt>
      <trkpt lat="45.9305" lon="4.72863">
        <ele>172</ele>
        <time>2018-06-12T10:41:12Z</time>
      </trkpt>
      <trkpt lat="45.93046" lon="4.72867">
        <ele>172</ele>
        <time>2018-06-12T10:41:13Z</time>
      </trkpt>
      <trkpt lat="45.93038" lon="4.72875">
        <ele>172</ele>
        <time>2018-06-12T10:41:14Z</time>
      </trkpt>
      <trkpt lat="45.93035" lon="4.7288">
        <ele>172</ele>
        <time>2018-06-12T10:41:15Z</time>
      </trkpt>
      <trkpt lat="45.93031" lon="4.72886">
        <ele>172</ele>
        <time>2018-06-12T10:41:16Z</time>
      </trkpt>
      <trkpt lat="45.93025" lon="4.72892">
        <ele>172</ele>
        <time>2018-06-12T10:41:17Z</time>
      </trkpt>
      <trkpt lat="45.93021" lon="4.72898">
        <ele>172</ele>
        <time>2018-06-12T10:41:18Z</time>
      </trkpt>
      <trkpt lat="45.93017" lon="4.72903">
        <ele>172</ele>
        <time>2018-06-12T10:41:19Z</time>
      </trkpt>
      <trkpt lat="45.93012" lon="4.72907">
        <ele>171</ele>
        <time>2018-06-12T10:41:20Z</time>
      </trkpt>
      <trkpt lat="45.93009" lon="4.72913">
        <ele>171</ele>
        <time>2018-06-12T10:41:21Z</time>
      </trkpt>
      <trkpt lat="45.93004" lon="4.72916">
        <ele>171</ele>
        <time>2018-06-12T10:41:22Z</time>
      </trkpt>
      <trkpt lat="45.92999" lon="4.72922">
        <ele>171</ele>
        <time>2018-06-12T10:41:23Z</time>
      </trkpt>
      <trkpt lat="45.92993" lon="4.72927">
        <ele>171</ele>
        <time>2018-06-12T10:41:24Z</time>
      </trkpt>
      <trkpt lat="45.92989" lon="4.7293">
        <ele>171</ele>
        <time>2018-06-12T10:41:25Z</time>
      </trkpt>
      <trkpt lat="45.92985" lon="4.72934">
        <ele>171</ele>
        <time>2018-06-12T10:41:26Z</time>
      </trkpt>
      <trkpt lat="45.9298" lon="4.7294">
        <ele>171</ele>
        <time>2018-06-12T10:41:27Z</time>
      </trkpt>
      <trkpt lat="45.92976" lon="4.72945">
        <ele>171</ele>
        <time>2018-06-12T10:41:28Z</time>
      </trkpt>
      <trkpt lat="45.92972" lon="4.7295">
        <ele>171</ele>
        <time>2018-06-12T10:41:29Z</time>
      </trkpt>
      <trkpt lat="45.92966" lon="4.72956">
        <ele>171</ele>
        <time>2018-06-12T10:41:30Z</time>
      </trkpt>
      <trkpt lat="45.92962" lon="4.72962">
        <ele>171</ele>
        <time>2018-06-12T10:41:31Z</time>
      </trkpt>
      <trkpt lat="45.92958" lon="4.72966">
        <ele>171</ele>
        <time>2018-06-12T10:41:32Z</time>
      </trkpt>
      <trkpt lat="45.92953" lon="4.72972">
        <ele>171</ele>
        <time>2018-06-12T10:41:33Z</time>
      </trkpt>
      <trkpt lat="45.92947" lon="4.72977">
        <ele>171</ele>
        <time>2018-06-12T10:41:34Z</time>
      </trkpt>
      <trkpt lat="45.92941" lon="4.72983">
        <ele>171</ele>
        <time>2018-06-12T10:41:35Z</time>
      </trkpt>
      <trkpt lat="45.92936" lon="4.72989">
        <ele>171</ele>
        <time>2018-06-12T10:41:36Z</time>
      </trkpt>
      <trkpt lat="45.92931" lon="4.72995">
        <ele>172</ele>
        <time>2018-06-12T10:41:37Z</time>
      </trkpt>
      <trkpt lat="45.92927" lon="4.73">
        <ele>172</ele>
        <time>2018-06-12T10:41:38Z</time>
      </trkpt>
      <trkpt lat="45.92923" lon="4.73006">
        <ele>172</ele>
        <time>2018-06-12T10:41:39Z</time>
      </trkpt>
      <trkpt lat="45.92919" lon="4.73014">
        <ele>172</ele>
        <time>2018-06-12T10:41:40Z</time>
      </trkpt>
      <trkpt lat="45.92916" lon="4.73017">
        <ele>172</ele>
        <time>2018-06-12T10:41:41Z</time>
      </trkpt>
      <trkpt lat="45.92911" lon="4.73023">
        <ele>172</ele>
        <time>2018-06-12T10:41:42Z</time>
      </trkpt>
      <trkpt lat="45.92907" lon="4.73029">
        <ele>172</ele>
        <time>2018-06-12T10:41:43Z</time>
      </trkpt>
      <trkpt lat="45.92905" lon="4.73033">
        <ele>172</ele>
        <time>2018-06-12T10:41:44Z</time>
      </trkpt>
      <trkpt lat="45.92899" lon="4.7304">
        <ele>172</ele>
        <time>2018-06-12T10:41:45Z</time>
      </trkpt>
      <trkpt lat="45.92896" lon="4.73046">
        <ele>172</ele>
        <time>2018-06-12T10:41:46Z</time>
      </trkpt>
      <trkpt lat="45.92895" lon="4.73051">
        <ele>172</ele>
        <time>2018-06-12T10:41:47Z</time>
      </trkpt>
      <trkpt lat="45.92892" lon="4.73057">
        <ele>172</ele>
        <time>2018-06-12T10:41:48Z</time>
      </trkpt>
      <trkpt lat="45.9289" lon="4.7306">
        <ele>172</ele>
        <time>2018-06-12T10:41:49Z</time>
      </trkpt>
      <trkpt lat="45.92886" lon="4.73067">
        <ele>172</ele>
        <time>2018-06-12T10:41:50Z</time>
      </trkpt>
      <trkpt lat="45.92883" lon="4.73073">
        <ele>172</ele>
        <time>2018-06-12T10:41:51Z</time>
      </trkpt>
      <trkpt lat="45.9288" lon="4.73077">
        <ele>172</ele>
        <time>2018-06-12T10:41:52Z</time>
      </trkpt>
      <trkpt lat="45.92874" lon="4.73084">
        <ele>172</ele>
        <time>2018-06-12T10:41:54Z</time>
      </trkpt>
      <trkpt lat="45.92871" lon="4.73088">
        <ele>172</ele>
        <time>2018-06-12T10:41:55Z</time>
      </trkpt>
      <trkpt lat="45.92868" lon="4.73092">
        <ele>172</ele>
        <time>2018-06-12T10:41:56Z</time>
      </trkpt>
      <trkpt lat="45.92864" lon="4.73097">
        <ele>171</ele>
        <time>2018-06-12T10:41:57Z</time>
      </trkpt>
      <trkpt lat="45.92858" lon="4.73101">
        <ele>171</ele>
        <time>2018-06-12T10:41:59Z</time>
      </trkpt>
      <trkpt lat="45.92853" lon="4.731">
        <ele>171</ele>
        <time>2018-06-12T10:42:00Z</time>
      </trkpt>
      <trkpt lat="45.92847" lon="4.73094">
        <ele>171</ele>
        <time>2018-06-12T10:42:02Z</time>
      </trkpt>
      <trkpt lat="45.92847" lon="4.73088">
        <ele>171</ele>
        <time>2018-06-12T10:42:03Z</time>
      </trkpt>
      <trkpt lat="45.92845" lon="4.73081">
        <ele>171</ele>
        <time>2018-06-12T10:42:04Z</time>
      </trkpt>
      <trkpt lat="45.92844" lon="4.73074">
        <ele>171</ele>
        <time>2018-06-12T10:42:05Z</time>
      </trkpt>
      <trkpt lat="45.92843" lon="4.73067">
        <ele>171</ele>
        <time>2018-06-12T10:42:06Z</time>
      </trkpt>
      <trkpt lat="45.92841" lon="4.7306">
        <ele>171</ele>
        <time>2018-06-12T10:42:07Z</time>
      </trkpt>
      <trkpt lat="45.92839" lon="4.73052">
        <ele>171</ele>
        <time>2018-06-12T10:42:08Z</time>
      </trkpt>
      <trkpt lat="45.92837" lon="4.73045">
        <ele>171</ele>
        <time>2018-06-12T10:42:09Z</time>
      </trkpt>
      <trkpt lat="45.92836" lon="4.73036">
        <ele>171</ele>
        <time>2018-06-12T10:42:10Z</time>
      </trkpt>
      <trkpt lat="45.92834" lon="4.7303">
        <ele>171</ele>
        <time>2018-06-12T10:42:11Z</time>
      </trkpt>
      <trkpt lat="45.92834" lon="4.73022">
        <ele>171</ele>
        <time>2018-06-12T10:42:12Z</time>
      </trkpt>
      <trkpt lat="45.92833" lon="4.73016">
        <ele>170</ele>
        <time>2018-06-12T10:42:13Z</time>
      </trkpt>
      <trkpt lat="45.92832" lon="4.73003">
        <ele>170</ele>
        <time>2018-06-12T10:42:15Z</time>
      </trkpt>
      <trkpt lat="45.9283" lon="4.72994">
        <ele>170</ele>
        <time>2018-06-12T10:42:16Z</time>
      </trkpt>
      <trkpt lat="45.92829" lon="4.72987">
        <ele>170</ele>
        <time>2018-06-12T10:42:17Z</time>
      </trkpt>
      <trkpt lat="45.9283" lon="4.72978">
        <ele>170</ele>
        <time>2018-06-12T10:42:18Z</time>
      </trkpt>
      <trkpt lat="45.92829" lon="4.72971">
        <ele>170</ele>
        <time>2018-06-12T10:42:19Z</time>
      </trkpt>
      <trkpt lat="45.92829" lon="4.72964">
        <ele>170</ele>
        <time>2018-06-12T10:42:20Z</time>
      </trkpt>
      <trkpt lat="45.92828" lon="4.72956">
        <ele>170</ele>
        <time>2018-06-12T10:42:21Z</time>
      </trkpt>
      <trkpt lat="45.92828" lon="4.72948">
        <ele>170</ele>
        <time>2018-06-12T10:42:22Z</time>
      </trkpt>
      <trkpt lat="45.92828" lon="4.72941">
        <ele>170</ele>
        <time>2018-06-12T10:42:23Z</time>
      </trkpt>
      <trkpt lat="45.92827" lon="4.72932">
        <ele>170</ele>
        <time>2018-06-12T10:42:24Z</time>
      </trkpt>
      <trkpt lat="45.92826" lon="4.72926">
        <ele>170</ele>
        <time>2018-06-12T10:42:25Z</time>
      </trkpt>
      <trkpt lat="45.92825" lon="4.72917">
        <ele>170</ele>
        <time>2018-06-12T10:42:26Z</time>
      </trkpt>
      <trkpt lat="45.92824" lon="4.7291">
        <ele>170</ele>
        <time>2018-06-12T10:42:27Z</time>
      </trkpt>
      <trkpt lat="45.92823" lon="4.72902">
        <ele>170</ele>
        <time>2018-06-12T10:42:28Z</time>
      </trkpt>
      <trkpt lat="45.92822" lon="4.72895">
        <ele>170</ele>
        <time>2018-06-12T10:42:29Z</time>
      </trkpt>
      <trkpt lat="45.92821" lon="4.72887">
        <ele>170</ele>
        <time>2018-06-12T10:42:30Z</time>
      </trkpt>
      <trkpt lat="45.92819" lon="4.72881">
        <ele>170</ele>
        <time>2018-06-12T10:42:31Z</time>
      </trkpt>
      <trkpt lat="45.92818" lon="4.72874">
        <ele>170</ele>
        <time>2018-06-12T10:42:32Z</time>
      </trkpt>
      <trkpt lat="45.92816" lon="4.72868">
        <ele>170</ele>
        <time>2018-06-12T10:42:33Z</time>
      </trkpt>
      <trkpt lat="45.92815" lon="4.72862">
        <ele>170</ele>
        <time>2018-06-12T10:42:34Z</time>
      </trkpt>
      <trkpt lat="45.92813" lon="4.72855">
        <ele>170</ele>
        <time>2018-06-12T10:42:35Z</time>
      </trkpt>
      <trkpt lat="45.92811" lon="4.72848">
        <ele>170</ele>
        <time>2018-06-12T10:42:36Z</time>
      </trkpt>
      <trkpt lat="45.9281" lon="4.72842">
        <ele>170</ele>
        <time>2018-06-12T10:42:37Z</time>
      </trkpt>
      <trkpt lat="45.92809" lon="4.72835">
        <ele>170</ele>
        <time>2018-06-12T10:42:38Z</time>
      </trkpt>
      <trkpt lat="45.92807" lon="4.72828">
        <ele>171</ele>
        <time>2018-06-12T10:42:39Z</time>
      </trkpt>
      <trkpt lat="45.92806" lon="4.72821">
        <ele>171</ele>
        <time>2018-06-12T10:42:40Z</time>
      </trkpt>
      <trkpt lat="45.92805" lon="4.72815">
        <ele>171</ele>
        <time>2018-06-12T10:42:41Z</time>
      </trkpt>
      <trkpt lat="45.92805" lon="4.72808">
        <ele>171</ele>
        <time>2018-06-12T10:42:42Z</time>
      </trkpt>
      <trkpt lat="45.92804" lon="4.72802">
        <ele>171</ele>
        <time>2018-06-12T10:42:43Z</time>
      </trkpt>
      <trkpt lat="45.92802" lon="4.72795">
        <ele>171</ele>
        <time>2018-06-12T10:42:44Z</time>
      </trkpt>
      <trkpt lat="45.92798" lon="4.72786">
        <ele>171</ele>
        <time>2018-06-12T10:42:46Z</time>
      </trkpt>
      <trkpt lat="45.92795" lon="4.72785">
        <ele>171</ele>
        <time>2018-06-12T10:42:47Z</time>
      </trkpt>
      <trkpt lat="45.9279" lon="4.72787">
        <ele>171</ele>
        <time>2018-06-12T10:42:49Z</time>
      </trkpt>
      <trkpt lat="45.92786" lon="4.72792">
        <ele>170</ele>
        <time>2018-06-12T10:42:50Z</time>
      </trkpt>
      <trkpt lat="45.92778" lon="4.72797">
        <ele>170</ele>
        <time>2018-06-12T10:42:52Z</time>
      </trkpt>
      <trkpt lat="45.92774" lon="4.72801">
        <ele>170</ele>
        <time>2018-06-12T10:42:53Z</time>
      </trkpt>
      <trkpt lat="45.92771" lon="4.72806">
        <ele>170</ele>
        <time>2018-06-12T10:42:54Z</time>
      </trkpt>
      <trkpt lat="45.92767" lon="4.7281">
        <ele>170</ele>
        <time>2018-06-12T10:42:55Z</time>
      </trkpt>
      <trkpt lat="45.92763" lon="4.7281">
        <ele>170</ele>
        <time>2018-06-12T10:42:56Z</time>
      </trkpt>
      <trkpt lat="45.92758" lon="4.72815">
        <ele>170</ele>
        <time>2018-06-12T10:42:57Z</time>
      </trkpt>
      <trkpt lat="45.92755" lon="4.72818">
        <ele>170</ele>
        <time>2018-06-12T10:42:58Z</time>
      </trkpt>
      <trkpt lat="45.9275" lon="4.72822">
        <ele>169</ele>
        <time>2018-06-12T10:42:59Z</time>
      </trkpt>
      <trkpt lat="45.92744" lon="4.72825">
        <ele>169</ele>
        <time>2018-06-12T10:43:00Z</time>
      </trkpt>
      <trkpt lat="45.9274" lon="4.72828">
        <ele>169</ele>
        <time>2018-06-12T10:43:01Z</time>
      </trkpt>
      <trkpt lat="45.92736" lon="4.72832">
        <ele>169</ele>
        <time>2018-06-12T10:43:02Z</time>
      </trkpt>
      <trkpt lat="45.92731" lon="4.72837">
        <ele>169</ele>
        <time>2018-06-12T10:43:03Z</time>
      </trkpt>
      <trkpt lat="45.92727" lon="4.72839">
        <ele>169</ele>
        <time>2018-06-12T10:43:04Z</time>
      </trkpt>
      <trkpt lat="45.92722" lon="4.72841">
        <ele>169</ele>
        <time>2018-06-12T10:43:05Z</time>
      </trkpt>
      <trkpt lat="45.92716" lon="4.72849">
        <ele>169</ele>
        <time>2018-06-12T10:43:07Z</time>
      </trkpt>
      <trkpt lat="45.92712" lon="4.72852">
        <ele>169</ele>
        <time>2018-06-12T10:43:08Z</time>
      </trkpt>
      <trkpt lat="45.92706" lon="4.72856">
        <ele>169</ele>
        <time>2018-06-12T10:43:09Z</time>
      </trkpt>
      <trkpt lat="45.92702" lon="4.7286">
        <ele>169</ele>
        <time>2018-06-12T10:43:10Z</time>
      </trkpt>
      <trkpt lat="45.92695" lon="4.72866">
        <ele>169</ele>
        <time>2018-06-12T10:43:12Z</time>
      </trkpt>
      <trkpt lat="45.9269" lon="4.72869">
        <ele>169</ele>
        <time>2018-06-12T10:43:13Z</time>
      </trkpt>
      <trkpt lat="45.92687" lon="4.72874">
        <ele>169</ele>
        <time>2018-06-12T10:43:14Z</time>
      </trkpt>
      <trkpt lat="45.92682" lon="4.72877">
        <ele>170</ele>
        <time>2018-06-12T10:43:15Z</time>
      </trkpt>
      <trkpt lat="45.92677" lon="4.7288">
        <ele>170</ele>
        <time>2018-06-12T10:43:16Z</time>
      </trkpt>
      <trkpt lat="45.92673" lon="4.72887">
        <ele>170</ele>
        <time>2018-06-12T10:43:17Z</time>
      </trkpt>
      <trkpt lat="45.92668" lon="4.72893">
        <ele>170</ele>
        <time>2018-06-12T10:43:18Z</time>
      </trkpt>
      <trkpt lat="45.92663" lon="4.72896">
        <ele>170</ele>
        <time>2018-06-12T10:43:19Z</time>
      </trkpt>
      <trkpt lat="45.92658" lon="4.729">
        <ele>170</ele>
        <time>2018-06-12T10:43:20Z</time>
      </trkpt>
      <trkpt lat="45.92654" lon="4.72906">
        <ele>170</ele>
        <time>2018-06-12T10:43:21Z</time>
      </trkpt>
      <trkpt lat="45.9265" lon="4.7291">
        <ele>170</ele>
        <time>2018-06-12T10:43:22Z</time>
      </trkpt>
      <trkpt lat="45.92646" lon="4.72916">
        <ele>170</ele>
        <time>2018-06-12T10:43:23Z</time>
      </trkpt>
      <trkpt lat="45.92641" lon="4.7292">
        <ele>170</ele>
        <time>2018-06-12T10:43:24Z</time>
      </trkpt>
      <trkpt lat="45.92637" lon="4.72924">
        <ele>170</ele>
        <time>2018-06-12T10:43:25Z</time>
      </trkpt>
      <trkpt lat="45.92633" lon="4.72928">
        <ele>170</ele>
        <time>2018-06-12T10:43:26Z</time>
      </trkpt>
      <trkpt lat="45.92628" lon="4.72931">
        <ele>170</ele>
        <time>2018-06-12T10:43:27Z</time>
      </trkpt>
      <trkpt lat="45.92623" lon="4.72934">
        <ele>169</ele>
        <time>2018-06-12T10:43:28Z</time>
      </trkpt>
      <trkpt lat="45.92617" lon="4.72938">
        <ele>169</ele>
        <time>2018-06-12T10:43:29Z</time>
      </trkpt>
      <trkpt lat="45.92612" lon="4.72942">
        <ele>169</ele>
        <time>2018-06-12T10:43:30Z</time>
      </trkpt>
      <trkpt lat="45.92606" lon="4.72946">
        <ele>169</ele>
        <time>2018-06-12T10:43:31Z</time>
      </trkpt>
      <trkpt lat="45.92601" lon="4.72951">
        <ele>169</ele>
        <time>2018-06-12T10:43:32Z</time>
      </trkpt>
      <trkpt lat="45.92596" lon="4.72955">
        <ele>169</ele>
        <time>2018-06-12T10:43:33Z</time>
      </trkpt>
      <trkpt lat="45.92592" lon="4.7296">
        <ele>169</ele>
        <time>2018-06-12T10:43:34Z</time>
      </trkpt>
      <trkpt lat="45.92587" lon="4.72964">
        <ele>169</ele>
        <time>2018-06-12T10:43:35Z</time>
      </trkpt>
      <trkpt lat="45.92582" lon="4.72969">
        <ele>169</ele>
        <time>2018-06-12T10:43:36Z</time>
      </trkpt>
      <trkpt lat="45.92578" lon="4.72973">
        <ele>169</ele>
        <time>2018-06-12T10:43:37Z</time>
      </trkpt>
      <trkpt lat="45.92574" lon="4.72977">
        <ele>169</ele>
        <time>2018-06-12T10:43:38Z</time>
      </trkpt>
      <trkpt lat="45.92569" lon="4.72985">
        <ele>169</ele>
        <time>2018-06-12T10:43:39Z</time>
      </trkpt>
      <trkpt lat="45.92565" lon="4.72989">
        <ele>169</ele>
        <time>2018-06-12T10:43:40Z</time>
      </trkpt>
      <trkpt lat="45.92561" lon="4.72996">
        <ele>169</ele>
        <time>2018-06-12T10:43:41Z</time>
      </trkpt>
      <trkpt lat="45.92556" lon="4.73001">
        <ele>169</ele>
        <time>2018-06-12T10:43:42Z</time>
      </trkpt>
      <trkpt lat="45.92553" lon="4.73005">
        <ele>169</ele>
        <time>2018-06-12T10:43:43Z</time>
      </trkpt>
      <trkpt lat="45.92548" lon="4.73009">
        <ele>169</ele>
        <time>2018-06-12T10:43:44Z</time>
      </trkpt>
      <trkpt lat="45.92542" lon="4.73017">
        <ele>169</ele>
        <time>2018-06-12T10:43:45Z</time>
      </trkpt>
      <trkpt lat="45.92538" lon="4.73021">
        <ele>169</ele>
        <time>2018-06-12T10:43:46Z</time>
      </trkpt>
      <trkpt lat="45.92532" lon="4.73026">
        <ele>169</ele>
        <time>2018-06-12T10:43:47Z</time>
      </trkpt>
      <trkpt lat="45.92526" lon="4.73031">
        <ele>169</ele>
        <time>2018-06-12T10:43:48Z</time>
      </trkpt>
      <trkpt lat="45.92521" lon="4.73036">
        <ele>169</ele>
        <time>2018-06-12T10:43:49Z</time>
      </trkpt>
      <trkpt lat="45.92518" lon="4.73042">
        <ele>169</ele>
        <time>2018-06-12T10:43:50Z</time>
      </trkpt>
      <trkpt lat="45.92514" lon="4.73047">
        <ele>170</ele>
        <time>2018-06-12T10:43:51Z</time>
      </trkpt>
      <trkpt lat="45.92509" lon="4.73053">
        <ele>170</ele>
        <time>2018-06-12T10:43:52Z</time>
      </trkpt>
      <trkpt lat="45.92505" lon="4.73058">
        <ele>170</ele>
        <time>2018-06-12T10:43:53Z</time>
      </trkpt>
      <trkpt lat="45.92499" lon="4.7306">
        <ele>170</ele>
        <time>2018-06-12T10:43:54Z</time>
      </trkpt>
      <trkpt lat="45.92494" lon="4.73064">
        <ele>170</ele>
        <time>2018-06-12T10:43:55Z</time>
      </trkpt>
      <trkpt lat="45.92489" lon="4.73068">
        <ele>170</ele>
        <time>2018-06-12T10:43:56Z</time>
      </trkpt>
      <trkpt lat="45.92484" lon="4.73073">
        <ele>170</ele>
        <time>2018-06-12T10:43:57Z</time>
      </trkpt>
      <trkpt lat="45.9248" lon="4.73077">
        <ele>170</ele>
        <time>2018-06-12T10:43:58Z</time>
      </trkpt>
      <trkpt lat="45.92474" lon="4.7308">
        <ele>170</ele>
        <time>2018-06-12T10:43:59Z</time>
      </trkpt>
      <trkpt lat="45.9247" lon="4.73084">
        <ele>170</ele>
        <time>2018-06-12T10:44:00Z</time>
      </trkpt>
      <trkpt lat="45.92465" lon="4.73087">
        <ele>170</ele>
        <time>2018-06-12T10:44:01Z</time>
      </trkpt>
      <trkpt lat="45.92461" lon="4.7309">
        <ele>170</ele>
        <time>2018-06-12T10:44:02Z</time>
      </trkpt>
      <trkpt lat="45.92456" lon="4.73093">
        <ele>170</ele>
        <time>2018-06-12T10:44:03Z</time>
      </trkpt>
      <trkpt lat="45.92452" lon="4.73097">
        <ele>170</ele>
        <time>2018-06-12T10:44:04Z</time>
      </trkpt>
      <trkpt lat="45.92447" lon="4.73101">
        <ele>170</ele>
        <time>2018-06-12T10:44:05Z</time>
      </trkpt>
      <trkpt lat="45.92443" lon="4.73103">
        <ele>170</ele>
        <time>2018-06-12T10:44:06Z</time>
      </trkpt>
      <trkpt lat="45.92438" lon="4.73105">
        <ele>170</ele>
        <time>2018-06-12T10:44:07Z</time>
      </trkpt>
      <trkpt lat="45.92433" lon="4.73109">
        <ele>170</ele>
        <time>2018-06-12T10:44:08Z</time>
      </trkpt>
      <trkpt lat="45.92428" lon="4.73112">
        <ele>170</ele>
        <time>2018-06-12T10:44:09Z</time>
      </trkpt>
      <trkpt lat="45.92424" lon="4.73116">
        <ele>170</ele>
        <time>2018-06-12T10:44:10Z</time>
      </trkpt>
      <trkpt lat="45.92419" lon="4.7312">
        <ele>170</ele>
        <time>2018-06-12T10:44:11Z</time>
      </trkpt>
      <trkpt lat="45.92416" lon="4.73124">
        <ele>171</ele>
        <time>2018-06-12T10:44:12Z</time>
      </trkpt>
      <trkpt lat="45.92413" lon="4.7313">
        <ele>171</ele>
        <time>2018-06-12T10:44:13Z</time>
      </trkpt>
      <trkpt lat="45.92412" lon="4.73136">
        <ele>171</ele>
        <time>2018-06-12T10:44:14Z</time>
      </trkpt>
      <trkpt lat="45.9241" lon="4.73144">
        <ele>171</ele>
        <time>2018-06-12T10:44:15Z</time>
      </trkpt>
      <trkpt lat="45.92409" lon="4.73151">
        <ele>171</ele>
        <time>2018-06-12T10:44:16Z</time>
      </trkpt>
      <trkpt lat="45.92411" lon="4.73158">
        <ele>170</ele>
        <time>2018-06-12T10:44:17Z</time>
      </trkpt>
      <trkpt lat="45.9241" lon="4.73165">
        <ele>170</ele>
        <time>2018-06-12T10:44:18Z</time>
      </trkpt>
      <trkpt lat="45.92409" lon="4.73173">
        <ele>170</ele>
        <time>2018-06-12T10:44:19Z</time>
      </trkpt>
      <trkpt lat="45.92409" lon="4.7318">
        <ele>171</ele>
        <time>2018-06-12T10:44:20Z</time>
      </trkpt>
      <trkpt lat="45.9241" lon="4.7319">
        <ele>171</ele>
        <time>2018-06-12T10:44:21Z</time>
      </trkpt>
      <trkpt lat="45.9241" lon="4.73198">
        <ele>171</ele>
        <time>2018-06-12T10:44:22Z</time>
      </trkpt>
      <trkpt lat="45.9241" lon="4.73205">
        <ele>171</ele>
        <time>2018-06-12T10:44:23Z</time>
      </trkpt>
      <trkpt lat="45.92411" lon="4.73213">
        <ele>171</ele>
        <time>2018-06-12T10:44:24Z</time>
      </trkpt>
      <trkpt lat="45.92411" lon="4.73222">
        <ele>171</ele>
        <time>2018-06-12T10:44:25Z</time>
      </trkpt>
      <trkpt lat="45.92411" lon="4.73231">
        <ele>171</ele>
        <time>2018-06-12T10:44:26Z</time>
      </trkpt>
      <trkpt lat="45.9241" lon="4.73239">
        <ele>171</ele>
        <time>2018-06-12T10:44:27Z</time>
      </trkpt>
      <trkpt lat="45.9241" lon="4.73247">
        <ele>171</ele>
        <time>2018-06-12T10:44:28Z</time>
      </trkpt>
      <trkpt lat="45.92411" lon="4.73254">
        <ele>171</ele>
        <time>2018-06-12T10:44:29Z</time>
      </trkpt>
      <trkpt lat="45.92411" lon="4.73262">
        <ele>171</ele>
        <time>2018-06-12T10:44:30Z</time>
      </trkpt>
      <trkpt lat="45.92411" lon="4.73269">
        <ele>171</ele>
        <time>2018-06-12T10:44:31Z</time>
      </trkpt>
      <trkpt lat="45.92411" lon="4.73276">
        <ele>171</ele>
        <time>2018-06-12T10:44:32Z</time>
      </trkpt>
      <trkpt lat="45.92411" lon="4.73283">
        <ele>171</ele>
        <time>2018-06-12T10:44:33Z</time>
      </trkpt>
      <trkpt lat="45.92411" lon="4.73291">
        <ele>171</ele>
        <time>2018-06-12T10:44:34Z</time>
      </trkpt>
      <trkpt lat="45.92411" lon="4.73299">
        <ele>171</ele>
        <time>2018-06-12T10:44:35Z</time>
      </trkpt>
      <trkpt lat="45.92411" lon="4.73306">
        <ele>171</ele>
        <time>2018-06-12T10:44:36Z</time>
      </trkpt>
      <trkpt lat="45.92412" lon="4.73314">
        <ele>171</ele>
        <time>2018-06-12T10:44:37Z</time>
      </trkpt>
      <trkpt lat="45.92413" lon="4.73322">
        <ele>171</ele>
        <time>2018-06-12T10:44:38Z</time>
      </trkpt>
      <trkpt lat="45.92414" lon="4.7333">
        <ele>171</ele>
        <time>2018-06-12T10:44:39Z</time>
      </trkpt>
      <trkpt lat="45.92414" lon="4.73338">
        <ele>171</ele>
        <time>2018-06-12T10:44:40Z</time>
      </trkpt>
      <trkpt lat="45.92415" lon="4.73345">
        <ele>171</ele>
        <time>2018-06-12T10:44:41Z</time>
      </trkpt>
      <trkpt lat="45.92416" lon="4.73352">
        <ele>171</ele>
        <time>2018-06-12T10:44:42Z</time>
      </trkpt>
      <trkpt lat="45.92419" lon="4.73358">
        <ele>171</ele>
        <time>2018-06-12T10:44:43Z</time>
      </trkpt>
      <trkpt lat="45.9242" lon="4.73366">
        <ele>172</ele>
        <time>2018-06-12T10:44:44Z</time>
      </trkpt>
      <trkpt lat="45.92421" lon="4.73373">
        <ele>172</ele>
        <time>2018-06-12T10:44:45Z</time>
      </trkpt>
      <trkpt lat="45.92421" lon="4.7338">
        <ele>172</ele>
        <time>2018-06-12T10:44:46Z</time>
      </trkpt>
      <trkpt lat="45.92423" lon="4.73387">
        <ele>172</ele>
        <time>2018-06-12T10:44:47Z</time>
      </trkpt>
      <trkpt lat="45.92424" lon="4.73393">
        <ele>172</ele>
        <time>2018-06-12T10:44:48Z</time>
      </trkpt>
      <trkpt lat="45.92426" lon="4.73399">
        <ele>172</ele>
        <time>2018-06-12T10:44:49Z</time>
      </trkpt>
      <trkpt lat="45.92429" lon="4.73406">
        <ele>172</ele>
        <time>2018-06-12T10:44:50Z</time>
      </trkpt>
      <trkpt lat="45.92432" lon="4.73412">
        <ele>172</ele>
        <time>2018-06-12T10:44:51Z</time>
      </trkpt>
      <trkpt lat="45.92435" lon="4.73417">
        <ele>173</ele>
        <time>2018-06-12T10:44:52Z</time>
      </trkpt>
      <trkpt lat="45.9244" lon="4.73421">
        <ele>173</ele>
        <time>2018-06-12T10:44:53Z</time>
      </trkpt>
      <trkpt lat="45.92448" lon="4.73427">
        <ele>173</ele>
        <time>2018-06-12T10:44:55Z</time>
      </trkpt>
      <trkpt lat="45.92453" lon="4.7343">
        <ele>173</ele>
        <time>2018-06-12T10:44:56Z</time>
      </trkpt>
      <trkpt lat="45.92457" lon="4.73434">
        <ele>173</ele>
        <time>2018-06-12T10:44:57Z</time>
      </trkpt>
      <trkpt lat="45.92461" lon="4.73439">
        <ele>173</ele>
        <time>2018-06-12T10:44:58Z</time>
      </trkpt>
      <trkpt lat="45.92464" lon="4.73445">
        <ele>173</ele>
        <time>2018-06-12T10:44:59Z</time>
      </trkpt>
      <trkpt lat="45.92466" lon="4.73452">
        <ele>173</ele>
        <time>2018-06-12T10:45:00Z</time>
      </trkpt>
      <trkpt lat="45.92467" lon="4.73458">
        <ele>173</ele>
        <time>2018-06-12T10:45:01Z</time>
      </trkpt>
      <trkpt lat="45.92468" lon="4.73465">
        <ele>173</ele>
        <time>2018-06-12T10:45:02Z</time>
      </trkpt>
      <trkpt lat="45.92468" lon="4.73478">
        <ele>173</ele>
        <time>2018-06-12T10:45:04Z</time>
      </trkpt>
      <trkpt lat="45.92468" lon="4.73484">
        <ele>173</ele>
        <time>2018-06-12T10:45:05Z</time>
      </trkpt>
      <trkpt lat="45.9247" lon="4.73496">
        <ele>173</ele>
        <time>2018-06-12T10:45:07Z</time>
      </trkpt>
      <trkpt lat="45.92471" lon="4.73503">
        <ele>174</ele>
        <time>2018-06-12T10:45:08Z</time>
      </trkpt>
      <trkpt lat="45.9247" lon="4.7351">
        <ele>174</ele>
        <time>2018-06-12T10:45:09Z</time>
      </trkpt>
      <trkpt lat="45.9247" lon="4.73516">
        <ele>174</ele>
        <time>2018-06-12T10:45:10Z</time>
      </trkpt>
      <trkpt lat="45.92469" lon="4.73529">
        <ele>174</ele>
        <time>2018-06-12T10:45:12Z</time>
      </trkpt>
      <trkpt lat="45.92468" lon="4.73534">
        <ele>174</ele>
        <time>2018-06-12T10:45:13Z</time>
      </trkpt>
      <trkpt lat="45.92467" lon="4.73541">
        <ele>174</ele>
        <time>2018-06-12T10:45:15Z</time>
      </trkpt>
      <trkpt lat="45.92466" lon="4.7355">
        <ele>173</ele>
        <time>2018-06-12T10:45:16Z</time>
      </trkpt>
      <trkpt lat="45.92466" lon="4.73558">
        <ele>173</ele>
        <time>2018-06-12T10:45:17Z</time>
      </trkpt>
      <trkpt lat="45.92466" lon="4.73564">
        <ele>173</ele>
        <time>2018-06-12T10:45:18Z</time>
      </trkpt>
      <trkpt lat="45.92467" lon="4.73572">
        <ele>173</ele>
        <time>2018-06-12T10:45:19Z</time>
      </trkpt>
      <trkpt lat="45.92467" lon="4.73579">
        <ele>173</ele>
        <time>2018-06-12T10:45:20Z</time>
      </trkpt>
      <trkpt lat="45.92468" lon="4.73586">
        <ele>174</ele>
        <time>2018-06-12T10:45:21Z</time>
      </trkpt>
      <trkpt lat="45.92468" lon="4.73592">
        <ele>174</ele>
        <time>2018-06-12T10:45:22Z</time>
      </trkpt>
      <trkpt lat="45.92468" lon="4.73599">
        <ele>174</ele>
        <time>2018-06-12T10:45:23Z</time>
      </trkpt>
      <trkpt lat="45.92469" lon="4.73606">
        <ele>174</ele>
        <time>2018-06-12T10:45:24Z</time>
      </trkpt>
      <trkpt lat="45.92468" lon="4.73614">
        <ele>174</ele>
        <time>2018-06-12T10:45:25Z</time>
      </trkpt>
      <trkpt lat="45.92468" lon="4.73622">
        <ele>174</ele>
        <time>2018-06-12T10:45:26Z</time>
      </trkpt>
      <trkpt lat="45.92468" lon="4.73629">
        <ele>174</ele>
        <time>2018-06-12T10:45:27Z</time>
      </trkpt>
      <trkpt lat="45.92468" lon="4.73637">
        <ele>174</ele>
        <time>2018-06-12T10:45:28Z</time>
      </trkpt>
      <trkpt lat="45.92468" lon="4.73644">
        <ele>174</ele>
        <time>2018-06-12T10:45:29Z</time>
      </trkpt>
      <trkpt lat="45.92468" lon="4.7365">
        <ele>174</ele>
        <time>2018-06-12T10:45:30Z</time>
      </trkpt>
      <trkpt lat="45.92469" lon="4.73657">
        <ele>174</ele>
        <time>2018-06-12T10:45:31Z</time>
      </trkpt>
      <trkpt lat="45.92469" lon="4.73663">
        <ele>174</ele>
        <time>2018-06-12T10:45:32Z</time>
      </trkpt>
      <trkpt lat="45.92469" lon="4.73675">
        <ele>174</ele>
        <time>2018-06-12T10:45:34Z</time>
      </trkpt>
      <trkpt lat="45.92469" lon="4.73681">
        <ele>174</ele>
        <time>2018-06-12T10:45:35Z</time>
      </trkpt>
      <trkpt lat="45.92468" lon="4.73687">
        <ele>174</ele>
        <time>2018-06-12T10:45:36Z</time>
      </trkpt>
      <trkpt lat="45.92468" lon="4.73694">
        <ele>174</ele>
        <time>2018-06-12T10:45:37Z</time>
      </trkpt>
      <trkpt lat="45.92467" lon="4.73705">
        <ele>174</ele>
        <time>2018-06-12T10:45:41Z</time>
      </trkpt>
      <trkpt lat="45.92466" lon="4.73707">
        <ele>174</ele>
        <time>2018-06-12T10:45:42Z</time>
      </trkpt>
      <trkpt lat="45.92465" lon="4.73709">
        <ele>174</ele>
        <time>2018-06-12T10:45:43Z</time>
      </trkpt>
      <trkpt lat="45.92464" lon="4.7371">
        <ele>174</ele>
        <time>2018-06-12T10:45:44Z</time>
      </trkpt>
      <trkpt lat="45.92461" lon="4.73711">
        <ele>174</ele>
        <time>2018-06-12T10:45:50Z</time>
      </trkpt>
      <trkpt lat="45.92461" lon="4.73711">
        <ele>174</ele>
        <time>2018-06-12T10:45:51Z</time>
      </trkpt>
      <trkpt lat="45.92454" lon="4.7371">
        <ele>174</ele>
        <time>2018-06-12T10:46:23.6Z</time>
      </trkpt>
    </trkseg>
  </trk>
</gpx>